<?xml version='1.0' encoding='UTF-8'?><gpx version="1.1" creator="JPX - https://github.com/jenetics/jpx" xmlns="http://www.topografix.com/GPX/1/1"><trk><trkseg><trkpt lat="43.752939647346615" lon="7.0185272402091154"><ele>945.0</ele><time>2026-04-06T12:03:46.999Z</time></trkpt><trkpt lat="43.752809208118045" lon="7.018582250683089"><ele>945.0</ele><time>2026-04-06T12:03:48.999Z</time></trkpt><trkpt lat="43.752745527431465" lon="7.018682407647437"><ele>945.0</ele><time>2026-04-06T12:03:49.999Z</time></trkpt><trkpt lat="43.75266191003561" lon="7.018811465225969"><ele>945.0</ele><time>2026-04-06T12:03:50.999Z</time></trkpt><trkpt lat="43.75259290041031" lon="7.018912231963456"><ele>946.0</ele><time>2026-04-06T12:03:51.999Z</time></trkpt><trkpt lat="43.75253915849524" lon="7.018991468734769"><ele>947.0</ele><time>2026-04-06T12:03:52.999Z</time></trkpt><trkpt lat="43.752485683656914" lon="7.019058360497823"><ele>948.0</ele><time>2026-04-06T12:03:53.999Z</time></trkpt><trkpt lat="43.75243274865385" lon="7.019107919403801"><ele>949.0</ele><time>2026-04-06T12:03:54.999Z</time></trkpt><trkpt lat="43.75239233157314" lon="7.019228436860326"><ele>950.0</ele><time>2026-04-06T12:04:22.999Z</time></trkpt><trkpt lat="43.7523520920081" lon="7.019318302598718"><ele>951.0</ele><time>2026-04-06T12:04:24.999Z</time></trkpt><trkpt lat="43.75229792741821" lon="7.019397751888876"><ele>951.0</ele><time>2026-04-06T12:04:27.999Z</time></trkpt><trkpt lat="43.75223640022997" lon="7.019494561547844"><ele>951.0</ele><time>2026-04-06T12:04:29.999Z</time></trkpt><trkpt lat="43.75217141003966" lon="7.0195668985576525"><ele>951.0</ele><time>2026-04-06T12:04:31.999Z</time></trkpt><trkpt lat="43.75213116670067" lon="7.019674589032254"><ele>951.0</ele><time>2026-04-06T12:04:33.999Z</time></trkpt><trkpt lat="43.75213690602374" lon="7.019771787008293"><ele>951.0</ele><time>2026-04-06T12:04:34.999Z</time></trkpt><trkpt lat="43.75213477212787" lon="7.019879100774739"><ele>951.0</ele><time>2026-04-06T12:04:35.999Z</time></trkpt><trkpt lat="43.752118789858656" lon="7.019980283479042"><ele>950.8333333333334</ele><time>2026-04-06T12:04:36.999Z</time></trkpt><trkpt lat="43.75210543931807" lon="7.020082940641078"><ele>950.6666666666667</ele><time>2026-04-06T12:04:37.999Z</time></trkpt><trkpt lat="43.75210358184264" lon="7.020194838751813"><ele>950.5</ele><time>2026-04-06T12:04:38.999Z</time></trkpt><trkpt lat="43.75209445805867" lon="7.020321942914848"><ele>950.3333333333334</ele><time>2026-04-06T12:04:39.999Z</time></trkpt><trkpt lat="43.75206556427926" lon="7.020432183346214"><ele>950.1666666666667</ele><time>2026-04-06T12:04:40.999Z</time></trkpt><trkpt lat="43.75203936802069" lon="7.020532852966145"><ele>950.0</ele><time>2026-04-06T12:04:41.999Z</time></trkpt><trkpt lat="43.75203888953541" lon="7.020643484061725"><ele>950.0000000000001</ele><time>2026-04-06T12:04:42.999Z</time></trkpt><trkpt lat="43.7520600876288" lon="7.020733941129664"><ele>950.0</ele><time>2026-04-06T12:04:43.999Z</time></trkpt><trkpt lat="43.75210162903837" lon="7.020849345509538"><ele>950.0</ele><time>2026-04-06T12:04:45.999Z</time></trkpt><trkpt lat="43.75204243261422" lon="7.020913324883387"><ele>950.0</ele><time>2026-04-06T12:04:49.999Z</time></trkpt><trkpt lat="43.752024740023884" lon="7.02101453369294"><ele>950.0000000000001</ele><time>2026-04-06T12:04:52.999Z</time></trkpt><trkpt lat="43.75197972916765" lon="7.021179328558421"><ele>950.0</ele><time>2026-04-06T12:04:54.999Z</time></trkpt><trkpt lat="43.751981395777875" lon="7.0213275589941375"><ele>950.0</ele><time>2026-04-06T12:04:56.999Z</time></trkpt><trkpt lat="43.75202413652031" lon="7.021454212631295"><ele>950.0</ele><time>2026-04-06T12:04:58.999Z</time></trkpt><trkpt lat="43.752067680842224" lon="7.021591925524818"><ele>950.0</ele><time>2026-04-06T12:05:00.999Z</time></trkpt><trkpt lat="43.75206937870196" lon="7.021712191314241"><ele>950.0</ele><time>2026-04-06T12:05:02.999Z</time></trkpt><trkpt lat="43.752095402613804" lon="7.021852828042823"><ele>950.0</ele><time>2026-04-06T12:05:04.999Z</time></trkpt><trkpt lat="43.75212934110929" lon="7.021942731269518"><ele>950.0000000000001</ele><time>2026-04-06T12:05:06.999Z</time></trkpt><trkpt lat="43.752062896007885" lon="7.021916922848133"><ele>950.0</ele><time>2026-04-06T12:05:11.999Z</time></trkpt><trkpt lat="43.75207699866028" lon="7.021830162555241"><ele>950.0</ele><time>2026-04-06T12:05:13.999Z</time></trkpt><trkpt lat="43.7520515122063" lon="7.021698875994469"><ele>950.0</ele><time>2026-04-06T12:05:16.999Z</time></trkpt><trkpt lat="43.75204974226997" lon="7.021585863082976"><ele>950.0000000000001</ele><time>2026-04-06T12:05:18.999Z</time></trkpt><trkpt lat="43.75204165317218" lon="7.021469136865888"><ele>950.0</ele><time>2026-04-06T12:05:20.999Z</time></trkpt><trkpt lat="43.7519808952952" lon="7.021326095925479"><ele>950.0000000000001</ele><time>2026-04-06T12:05:22.999Z</time></trkpt><trkpt lat="43.75196788119388" lon="7.021148902863504"><ele>950.0</ele><time>2026-04-06T12:05:24.999Z</time></trkpt><trkpt lat="43.75198765755464" lon="7.0210614443829655"><ele>950.0</ele><time>2026-04-06T12:05:25.999Z</time></trkpt><trkpt lat="43.752031145996" lon="7.020985518041061"><ele>950.0</ele><time>2026-04-06T12:05:26.999Z</time></trkpt><trkpt lat="43.75205756853769" lon="7.020899380207899"><ele>950.0000000000001</ele><time>2026-04-06T12:05:27.999Z</time></trkpt><trkpt lat="43.752074610995344" lon="7.020812271021405"><ele>950.0</ele><time>2026-04-06T12:05:28.999Z</time></trkpt><trkpt lat="43.752096209044325" lon="7.020730079855077"><ele>950.0</ele><time>2026-04-06T12:05:29.999Z</time></trkpt><trkpt lat="43.75206798541669" lon="7.020550978005158"><ele>950.0</ele><time>2026-04-06T12:05:31.998Z</time></trkpt><trkpt lat="43.75205335016587" lon="7.020430232821679"><ele>950.0</ele><time>2026-04-06T12:05:32.999Z</time></trkpt><trkpt lat="43.75207318586166" lon="7.020312669705967"><ele>950.0</ele><time>2026-04-06T12:05:33.999Z</time></trkpt><trkpt lat="43.75210926455689" lon="7.02017612591921"><ele>950.0</ele><time>2026-04-06T12:05:34.999Z</time></trkpt><trkpt lat="43.75212832570245" lon="7.020046047212122"><ele>950.1666666666667</ele><time>2026-04-06T12:05:35.999Z</time></trkpt><trkpt lat="43.75213008978881" lon="7.0199177303164975"><ele>950.3333333333334</ele><time>2026-04-06T12:05:36.999Z</time></trkpt><trkpt lat="43.75213694383805" lon="7.019782991262327"><ele>950.5</ele><time>2026-04-06T12:05:37.999Z</time></trkpt><trkpt lat="43.7521602851078" lon="7.019666633783108"><ele>950.6666666666667</ele><time>2026-04-06T12:05:38.999Z</time></trkpt><trkpt lat="43.752166784538694" lon="7.0195322310284425"><ele>950.8333333333334</ele><time>2026-04-06T12:05:40.999Z</time></trkpt><trkpt lat="43.75223450241011" lon="7.019502393755357"><ele>951.0</ele><time>2026-04-06T12:05:42.999Z</time></trkpt><trkpt lat="43.75229944793669" lon="7.019397912609686"><ele>951.0</ele><time>2026-04-06T12:05:44.999Z</time></trkpt><trkpt lat="43.75236233868878" lon="7.019307016036081"><ele>951.0</ele><time>2026-04-06T12:05:46.999Z</time></trkpt><trkpt lat="43.7524062424894" lon="7.019236187638116"><ele>951.0</ele><time>2026-04-06T12:05:47.999Z</time></trkpt><trkpt lat="43.752442964961354" lon="7.019149113925186"><ele>951.0</ele><time>2026-04-06T12:05:48.999Z</time></trkpt><trkpt lat="43.752476614447446" lon="7.019049866178919"><ele>951.0</ele><time>2026-04-06T12:05:49.999Z</time></trkpt><trkpt lat="43.75251993289282" lon="7.018981891204663"><ele>951.0</ele><time>2026-04-06T12:05:50.999Z</time></trkpt><trkpt lat="43.752578885737535" lon="7.018913929252469"><ele>951.2857142857142</ele><time>2026-04-06T12:05:51.999Z</time></trkpt><trkpt lat="43.75263228293792" lon="7.0188414839680835"><ele>951.5714285714287</ele><time>2026-04-06T12:05:52.999Z</time></trkpt><trkpt lat="43.752677237259746" lon="7.018772267413025"><ele>951.8571428571429</ele><time>2026-04-06T12:05:53.999Z</time></trkpt><trkpt lat="43.75272399706304" lon="7.018703589427779"><ele>952.1428571428571</ele><time>2026-04-06T12:05:54.999Z</time></trkpt><trkpt lat="43.752771633687416" lon="7.0186443233445885"><ele>952.4285714285713</ele><time>2026-04-06T12:05:55.999Z</time></trkpt><trkpt lat="43.75281871831894" lon="7.018584372011639"><ele>952.7142857142858</ele><time>2026-04-06T12:05:56.999Z</time></trkpt><trkpt lat="43.75287372005584" lon="7.018513009994922"><ele>953.0</ele><time>2026-04-06T12:05:57.999Z</time></trkpt><trkpt lat="43.75296546681086" lon="7.018417114944667"><ele>951.6666666666667</ele><time>2026-04-06T12:05:59.999Z</time></trkpt><trkpt lat="43.75308540008913" lon="7.018416076295263"><ele>950.3333333333334</ele><time>2026-04-06T12:06:01.999Z</time></trkpt><trkpt lat="43.75315040202225" lon="7.018416380810071"><ele>949.0</ele><time>2026-04-06T12:06:02.999Z</time></trkpt><trkpt lat="43.75321815033023" lon="7.0184109272881905"><ele>947.6666666666667</ele><time>2026-04-06T12:06:03.999Z</time></trkpt><trkpt lat="43.75328703187375" lon="7.018389853033166"><ele>946.3333333333334</ele><time>2026-04-06T12:06:04.999Z</time></trkpt><trkpt lat="43.753347711842096" lon="7.018361808478216"><ele>945.0</ele><time>2026-04-06T12:06:05.999Z</time></trkpt><trkpt lat="43.75346326426876" lon="7.018363987644664"><ele>944.8</ele><time>2026-04-06T12:06:07.999Z</time></trkpt><trkpt lat="43.75354365978585" lon="7.01840771295392"><ele>944.6</ele><time>2026-04-06T12:06:09.999Z</time></trkpt><trkpt lat="43.75367157634089" lon="7.018353199473131"><ele>944.4000000000001</ele><time>2026-04-06T12:06:11.999Z</time></trkpt><trkpt lat="43.75375157648558" lon="7.018317965163361"><ele>944.2</ele><time>2026-04-06T12:06:12.999Z</time></trkpt><trkpt lat="43.75382937665763" lon="7.018268829461346"><ele>944.0</ele><time>2026-04-06T12:06:13.999Z</time></trkpt><trkpt lat="43.753905273680644" lon="7.018200425888141"><ele>943.8333333333334</ele><time>2026-04-06T12:06:14.999Z</time></trkpt><trkpt lat="43.75397979348553" lon="7.018154361159497"><ele>943.6666666666667</ele><time>2026-04-06T12:06:15.999Z</time></trkpt><trkpt lat="43.754062602124826" lon="7.018136742390415"><ele>943.5</ele><time>2026-04-06T12:06:16.999Z</time></trkpt><trkpt lat="43.75414814661033" lon="7.018140493688195"><ele>943.3333333333333</ele><time>2026-04-06T12:06:17.999Z</time></trkpt><trkpt lat="43.75423512270981" lon="7.018142517658224"><ele>943.1666666666666</ele><time>2026-04-06T12:06:18.999Z</time></trkpt><trkpt lat="43.75432254025818" lon="7.018118192909351"><ele>943.0</ele><time>2026-04-06T12:06:19.999Z</time></trkpt><trkpt lat="43.75440961418102" lon="7.018093959391691"><ele>943.0</ele><time>2026-04-06T12:06:20.999Z</time></trkpt><trkpt lat="43.75449072751204" lon="7.018068300013265"><ele>943.0</ele><time>2026-04-06T12:06:21.999Z</time></trkpt><trkpt lat="43.75455628397348" lon="7.018048907423039"><ele>943.0</ele><time>2026-04-06T12:06:22.999Z</time></trkpt><trkpt lat="43.75469847552154" lon="7.018077491124587"><ele>943.0</ele><time>2026-04-06T12:06:24.999Z</time></trkpt><trkpt lat="43.75479526688089" lon="7.018112587450897"><ele>943.0</ele><time>2026-04-06T12:06:25.999Z</time></trkpt><trkpt lat="43.75489621864384" lon="7.018136068377308"><ele>943.0</ele><time>2026-04-06T12:06:26.999Z</time></trkpt><trkpt lat="43.75500318583949" lon="7.018162075362612"><ele>943.0</ele><time>2026-04-06T12:06:27.999Z</time></trkpt><trkpt lat="43.7551070999001" lon="7.018185602612643"><ele>943.0</ele><time>2026-04-06T12:06:28.999Z</time></trkpt><trkpt lat="43.75521421701293" lon="7.01821288249919"><ele>943.0</ele><time>2026-04-06T12:06:29.999Z</time></trkpt><trkpt lat="43.75533547649596" lon="7.018239598176921"><ele>943.0</ele><time>2026-04-06T12:06:30.999Z</time></trkpt><trkpt lat="43.7554627945532" lon="7.018265116758089"><ele>943.25</ele><time>2026-04-06T12:06:31.999Z</time></trkpt><trkpt lat="43.75557321685098" lon="7.018282559439535"><ele>943.5</ele><time>2026-04-06T12:06:32.999Z</time></trkpt><trkpt lat="43.75567898890638" lon="7.018303133661731"><ele>943.75</ele><time>2026-04-06T12:06:33.999Z</time></trkpt><trkpt lat="43.755796675448465" lon="7.0183340968142325"><ele>944.0</ele><time>2026-04-06T12:06:34.999Z</time></trkpt><trkpt lat="43.755914131159805" lon="7.01836311964104"><ele>944.0000000000001</ele><time>2026-04-06T12:06:35.999Z</time></trkpt><trkpt lat="43.756009313047066" lon="7.018363964689141"><ele>944.0</ele><time>2026-04-06T12:06:36.999Z</time></trkpt><trkpt lat="43.756089724721726" lon="7.018363749808645"><ele>944.0</ele><time>2026-04-06T12:06:37.999Z</time></trkpt><trkpt lat="43.756159613669965" lon="7.018376737900605"><ele>944.0</ele><time>2026-04-06T12:06:38.999Z</time></trkpt><trkpt lat="43.75623241984173" lon="7.01841036605051"><ele>944.0000000000001</ele><time>2026-04-06T12:06:39.999Z</time></trkpt><trkpt lat="43.75630444309627" lon="7.018435798916758"><ele>944.0</ele><time>2026-04-06T12:06:40.999Z</time></trkpt><trkpt lat="43.75642087580216" lon="7.018482324412519"><ele>944.1666666666667</ele><time>2026-04-06T12:06:42.999Z</time></trkpt><trkpt lat="43.75648538980264" lon="7.018513805799279"><ele>944.3333333333334</ele><time>2026-04-06T12:06:43.999Z</time></trkpt><trkpt lat="43.75656294474008" lon="7.018539177728466"><ele>944.5</ele><time>2026-04-06T12:06:44.999Z</time></trkpt><trkpt lat="43.75664024357374" lon="7.018556885812945"><ele>944.6666666666667</ele><time>2026-04-06T12:06:45.999Z</time></trkpt><trkpt lat="43.75670903743011" lon="7.018570103017903"><ele>944.8333333333334</ele><time>2026-04-06T12:06:46.999Z</time></trkpt><trkpt lat="43.75681146776563" lon="7.018609790756093"><ele>945.0</ele><time>2026-04-06T12:06:48.999Z</time></trkpt><trkpt lat="43.75690736888346" lon="7.018642747901214"><ele>946.0</ele><time>2026-04-06T12:06:50.999Z</time></trkpt><trkpt lat="43.757022778026865" lon="7.018677024144624"><ele>947.0</ele><time>2026-04-06T12:06:52.999Z</time></trkpt><trkpt lat="43.75709013329883" lon="7.018706802984745"><ele>948.0</ele><time>2026-04-06T12:06:53.999Z</time></trkpt><trkpt lat="43.75716625837076" lon="7.01873708925453"><ele>949.0</ele><time>2026-04-06T12:06:54.999Z</time></trkpt><trkpt lat="43.75724114941211" lon="7.018764680746035"><ele>950.0</ele><time>2026-04-06T12:06:55.999Z</time></trkpt><trkpt lat="43.757309405018276" lon="7.018789002945942"><ele>951.0</ele><time>2026-04-06T12:06:56.999Z</time></trkpt><trkpt lat="43.75742150585067" lon="7.018828658448532"><ele>951.0</ele><time>2026-04-06T12:06:58.999Z</time></trkpt><trkpt lat="43.757520917599" lon="7.018868699306262"><ele>950.9999999999999</ele><time>2026-04-06T12:07:00.999Z</time></trkpt><trkpt lat="43.757617653015124" lon="7.018905534341736"><ele>950.9999999999999</ele><time>2026-04-06T12:07:02.999Z</time></trkpt><trkpt lat="43.75771877454305" lon="7.018946963876098"><ele>951.0</ele><time>2026-04-06T12:07:04.999Z</time></trkpt><trkpt lat="43.757809268775844" lon="7.018992476542208"><ele>951.0</ele><time>2026-04-06T12:07:06.999Z</time></trkpt><trkpt lat="43.75786744396144" lon="7.019027236756285"><ele>952.0</ele><time>2026-04-06T12:07:07.999Z</time></trkpt><trkpt lat="43.75797595000044" lon="7.019042816381833"><ele>952.9999999999999</ele><time>2026-04-06T12:07:09.999Z</time></trkpt><trkpt lat="43.758100811250245" lon="7.019021721737029"><ele>953.9999999999999</ele><time>2026-04-06T12:07:11.999Z</time></trkpt><trkpt lat="43.758178959472346" lon="7.0190277143251025"><ele>955.0</ele><time>2026-04-06T12:07:12.999Z</time></trkpt><trkpt lat="43.75829000268805" lon="7.019060595777647"><ele>956.0</ele><time>2026-04-06T12:07:13.999Z</time></trkpt><trkpt lat="43.75842809709874" lon="7.01913224624404"><ele>957.6666666666667</ele><time>2026-04-06T12:07:14.999Z</time></trkpt><trkpt lat="43.75857246427505" lon="7.019211619096816"><ele>959.3333333333333</ele><time>2026-04-06T12:07:15.999Z</time></trkpt><trkpt lat="43.758727662000666" lon="7.0192802989154215"><ele>961.0</ele><time>2026-04-06T12:07:16.999Z</time></trkpt><trkpt lat="43.75887672952828" lon="7.01932979205493"><ele>960.9999999999999</ele><time>2026-04-06T12:07:17.999Z</time></trkpt><trkpt lat="43.758993965638254" lon="7.019366196237306"><ele>961.0</ele><time>2026-04-06T12:07:18.999Z</time></trkpt><trkpt lat="43.75909283193605" lon="7.019407620389478"><ele>961.0</ele><time>2026-04-06T12:07:19.999Z</time></trkpt><trkpt lat="43.75916723009043" lon="7.019415143636905"><ele>961.0</ele><time>2026-04-06T12:07:20.999Z</time></trkpt><trkpt lat="43.75922774315187" lon="7.019360571684021"><ele>960.9999999999999</ele><time>2026-04-06T12:07:21.999Z</time></trkpt><trkpt lat="43.75929432742607" lon="7.019313069916801"><ele>961.0</ele><time>2026-04-06T12:07:22.999Z</time></trkpt><trkpt lat="43.759374342406275" lon="7.019323963820294"><ele>960.8333333333333</ele><time>2026-04-06T12:07:23.999Z</time></trkpt><trkpt lat="43.75944848630649" lon="7.019362459388419"><ele>960.6666666666666</ele><time>2026-04-06T12:07:24.999Z</time></trkpt><trkpt lat="43.75952188490887" lon="7.019406895649326"><ele>960.5</ele><time>2026-04-06T12:07:25.999Z</time></trkpt><trkpt lat="43.759585948456575" lon="7.019469820503998"><ele>960.3333333333333</ele><time>2026-04-06T12:07:26.999Z</time></trkpt><trkpt lat="43.75963561231434" lon="7.019557254005973"><ele>960.1666666666666</ele><time>2026-04-06T12:07:27.999Z</time></trkpt><trkpt lat="43.75967065277513" lon="7.0196438176841145"><ele>960.0</ele><time>2026-04-06T12:07:28.999Z</time></trkpt><trkpt lat="43.759728474740164" lon="7.01970172523788"><ele>960.0</ele><time>2026-04-06T12:07:29.999Z</time></trkpt><trkpt lat="43.75980907246758" lon="7.01971688122962"><ele>960.0</ele><time>2026-04-06T12:07:30.999Z</time></trkpt><trkpt lat="43.75988602015674" lon="7.0197347671064705"><ele>960.0</ele><time>2026-04-06T12:07:31.999Z</time></trkpt><trkpt lat="43.759951294414144" lon="7.019776258466787"><ele>960.0</ele><time>2026-04-06T12:07:32.999Z</time></trkpt><trkpt lat="43.7600763304945" lon="7.01976446893348"><ele>960.0</ele><time>2026-04-06T12:07:34.999Z</time></trkpt><trkpt lat="43.76016660247544" lon="7.0197217177506746"><ele>960.0</ele><time>2026-04-06T12:07:36.999Z</time></trkpt><trkpt lat="43.760156285563355" lon="7.019598857850063"><ele>960.0</ele><time>2026-04-06T12:07:38.999Z</time></trkpt><trkpt lat="43.76009748326245" lon="7.019561518463924"><ele>960.0</ele><time>2026-04-06T12:07:39.999Z</time></trkpt><trkpt lat="43.760015682038606" lon="7.019570325352691"><ele>960.0</ele><time>2026-04-06T12:07:40.999Z</time></trkpt><trkpt lat="43.75993046197199" lon="7.019612712270239"><ele>960.0</ele><time>2026-04-06T12:07:41.999Z</time></trkpt><trkpt lat="43.759853530531686" lon="7.019664775140555"><ele>960.0</ele><time>2026-04-06T12:07:42.999Z</time></trkpt><trkpt lat="43.75978710872354" lon="7.019691729745502"><ele>960.0</ele><time>2026-04-06T12:07:43.999Z</time></trkpt><trkpt lat="43.75970652827352" lon="7.019657992642116"><ele>960.0</ele><time>2026-04-06T12:07:44.999Z</time></trkpt><trkpt lat="43.759638546259104" lon="7.019595362039144"><ele>960.0</ele><time>2026-04-06T12:07:45.999Z</time></trkpt><trkpt lat="43.759591105963125" lon="7.019495316701402"><ele>960.0</ele><time>2026-04-06T12:07:46.999Z</time></trkpt><trkpt lat="43.75954734860432" lon="7.019412101378606"><ele>960.0</ele><time>2026-04-06T12:07:47.999Z</time></trkpt><trkpt lat="43.75945696937443" lon="7.0193557090108945"><ele>960.0</ele><time>2026-04-06T12:07:48.999Z</time></trkpt><trkpt lat="43.759357475103535" lon="7.01932020062722"><ele>960.2</ele><time>2026-04-06T12:07:49.999Z</time></trkpt><trkpt lat="43.75928197334971" lon="7.019313110820599"><ele>960.4</ele><time>2026-04-06T12:07:50.999Z</time></trkpt><trkpt lat="43.759162619227354" lon="7.01933833804649"><ele>960.5999999999999</ele><time>2026-04-06T12:07:52.999Z</time></trkpt><trkpt lat="43.759028141536696" lon="7.019361130032753"><ele>960.8</ele><time>2026-04-06T12:07:54.999Z</time></trkpt><trkpt lat="43.75894063824741" lon="7.0193226881309325"><ele>961.0</ele><time>2026-04-06T12:07:55.999Z</time></trkpt><trkpt lat="43.75883927012535" lon="7.019276006040768"><ele>961.0</ele><time>2026-04-06T12:07:56.999Z</time></trkpt><trkpt lat="43.75871033995932" lon="7.019224086684599"><ele>961.0</ele><time>2026-04-06T12:07:57.999Z</time></trkpt><trkpt lat="43.75857374433449" lon="7.019160518982226"><ele>961.0</ele><time>2026-04-06T12:07:58.999Z</time></trkpt><trkpt lat="43.75845804236917" lon="7.01910737173662"><ele>961.0</ele><time>2026-04-06T12:07:59.999Z</time></trkpt><trkpt lat="43.758357563050566" lon="7.019061928316496"><ele>960.1666666666666</ele><time>2026-04-06T12:08:00.999Z</time></trkpt><trkpt lat="43.758254659469834" lon="7.019010599462546"><ele>959.3333333333333</ele><time>2026-04-06T12:08:01.999Z</time></trkpt><trkpt lat="43.758158680932254" lon="7.018974509776526"><ele>958.5</ele><time>2026-04-06T12:08:02.999Z</time></trkpt><trkpt lat="43.75808277581207" lon="7.018944769611691"><ele>957.6666666666667</ele><time>2026-04-06T12:08:03.999Z</time></trkpt><trkpt lat="43.758035454788214" lon="7.01888490153231"><ele>956.8333333333334</ele><time>2026-04-06T12:08:04.999Z</time></trkpt><trkpt lat="43.758028135339515" lon="7.01878292135534"><ele>956.0</ele><time>2026-04-06T12:08:05.999Z</time></trkpt><trkpt lat="43.758037913790965" lon="7.018654330367245"><ele>956.0</ele><time>2026-04-06T12:08:06.999Z</time></trkpt><trkpt lat="43.75805352166754" lon="7.018482487741311"><ele>956.0</ele><time>2026-04-06T12:08:07.999Z</time></trkpt><trkpt lat="43.758061667807695" lon="7.018306313884417"><ele>956.0</ele><time>2026-04-06T12:08:08.999Z</time></trkpt><trkpt lat="43.75805087790699" lon="7.018143190564434"><ele>956.0</ele><time>2026-04-06T12:08:09.999Z</time></trkpt><trkpt lat="43.758030874616566" lon="7.017995857508518"><ele>956.1999999999999</ele><time>2026-04-06T12:08:10.999Z</time></trkpt><trkpt lat="43.75803578348522" lon="7.017836466256942"><ele>956.3999999999999</ele><time>2026-04-06T12:08:11.999Z</time></trkpt><trkpt lat="43.75804074565373" lon="7.017681348045346"><ele>956.6</ele><time>2026-04-06T12:08:12.999Z</time></trkpt><trkpt lat="43.758036295568495" lon="7.017544343857759"><ele>956.8</ele><time>2026-04-06T12:08:13.999Z</time></trkpt><trkpt lat="43.75804527786156" lon="7.0174235790713695"><ele>957.0</ele><time>2026-04-06T12:08:14.999Z</time></trkpt><trkpt lat="43.75809014740451" lon="7.017307113589854"><ele>957.8333333333334</ele><time>2026-04-06T12:08:15.999Z</time></trkpt><trkpt lat="43.75813438306737" lon="7.017207522487281"><ele>958.6666666666667</ele><time>2026-04-06T12:08:16.999Z</time></trkpt><trkpt lat="43.758159913726395" lon="7.01710271191184"><ele>959.5</ele><time>2026-04-06T12:08:17.999Z</time></trkpt><trkpt lat="43.758145563562984" lon="7.017001660296052"><ele>960.3333333333334</ele><time>2026-04-06T12:08:18.999Z</time></trkpt><trkpt lat="43.7581295524926" lon="7.016898391928056"><ele>961.1666666666667</ele><time>2026-04-06T12:08:19.999Z</time></trkpt><trkpt lat="43.75810525243863" lon="7.016773392214534"><ele>962.0</ele><time>2026-04-06T12:08:20.999Z</time></trkpt><trkpt lat="43.75807147753854" lon="7.01665680354372"><ele>961.6</ele><time>2026-04-06T12:08:21.999Z</time></trkpt><trkpt lat="43.75801991919181" lon="7.016559471470819"><ele>961.2</ele><time>2026-04-06T12:08:22.999Z</time></trkpt><trkpt lat="43.75796836141849" lon="7.016477034148953"><ele>960.8</ele><time>2026-04-06T12:08:23.999Z</time></trkpt><trkpt lat="43.75794969654469" lon="7.016296612479574"><ele>960.4</ele><time>2026-04-06T12:08:25.999Z</time></trkpt><trkpt lat="43.7579457271802" lon="7.01617239614619"><ele>960.0</ele><time>2026-04-06T12:08:26.999Z</time></trkpt><trkpt lat="43.75793474509222" lon="7.016051834297681"><ele>960.0</ele><time>2026-04-06T12:08:27.999Z</time></trkpt><trkpt lat="43.757954945708335" lon="7.0159619829692685"><ele>960.0</ele><time>2026-04-06T12:08:28.999Z</time></trkpt><trkpt lat="43.75801269209066" lon="7.015881318155818"><ele>960.0</ele><time>2026-04-06T12:08:29.999Z</time></trkpt><trkpt lat="43.758076315868614" lon="7.015804302689533"><ele>960.0</ele><time>2026-04-06T12:08:30.999Z</time></trkpt><trkpt lat="43.75813475983074" lon="7.015735656861892"><ele>960.0</ele><time>2026-04-06T12:08:31.999Z</time></trkpt><trkpt lat="43.758186401656914" lon="7.015666204637662"><ele>960.0</ele><time>2026-04-06T12:08:32.999Z</time></trkpt><trkpt lat="43.75823954353603" lon="7.015608390114141"><ele>958.2857142857143</ele><time>2026-04-06T12:08:33.999Z</time></trkpt><trkpt lat="43.75829385463787" lon="7.015555636230693"><ele>956.5714285714284</ele><time>2026-04-06T12:08:34.999Z</time></trkpt><trkpt lat="43.75835411487883" lon="7.015509478169563"><ele>954.8571428571428</ele><time>2026-04-06T12:08:35.999Z</time></trkpt><trkpt lat="43.75841457017065" lon="7.015458012815265"><ele>953.1428571428571</ele><time>2026-04-06T12:08:36.999Z</time></trkpt><trkpt lat="43.75847956899172" lon="7.015405959378726"><ele>951.4285714285713</ele><time>2026-04-06T12:08:37.999Z</time></trkpt><trkpt lat="43.75854172249527" lon="7.0153572922752945"><ele>949.7142857142856</ele><time>2026-04-06T12:08:38.999Z</time></trkpt><trkpt lat="43.75860620342827" lon="7.01532876603533"><ele>947.9999999999999</ele><time>2026-04-06T12:08:39.999Z</time></trkpt><trkpt lat="43.758663851349255" lon="7.015292031548214"><ele>948.0</ele><time>2026-04-06T12:08:40.999Z</time></trkpt><trkpt lat="43.75872880701054" lon="7.015259772595433"><ele>948.0</ele><time>2026-04-06T12:08:41.999Z</time></trkpt><trkpt lat="43.75878566648701" lon="7.015221914425739"><ele>948.0</ele><time>2026-04-06T12:08:42.999Z</time></trkpt><trkpt lat="43.75890567652629" lon="7.0151659378365885"><ele>948.0</ele><time>2026-04-06T12:08:44.999Z</time></trkpt><trkpt lat="43.75897617754415" lon="7.015138562861567"><ele>948.0</ele><time>2026-04-06T12:08:45.999Z</time></trkpt><trkpt lat="43.75905515437772" lon="7.015110516222078"><ele>948.0</ele><time>2026-04-06T12:08:46.999Z</time></trkpt><trkpt lat="43.75912628349171" lon="7.015079865223411"><ele>948.0</ele><time>2026-04-06T12:08:47.999Z</time></trkpt><trkpt lat="43.75920912438303" lon="7.015054566285802"><ele>948.0</ele><time>2026-04-06T12:08:48.999Z</time></trkpt><trkpt lat="43.75930640545206" lon="7.015031574980458"><ele>948.0</ele><time>2026-04-06T12:08:49.999Z</time></trkpt><trkpt lat="43.75940497273699" lon="7.015007332328494"><ele>948.0</ele><time>2026-04-06T12:08:50.999Z</time></trkpt><trkpt lat="43.75950001382915" lon="7.014982989192162"><ele>948.0</ele><time>2026-04-06T12:08:51.999Z</time></trkpt><trkpt lat="43.75959155465214" lon="7.014961899695438"><ele>944.3333333333334</ele><time>2026-04-06T12:08:52.999Z</time></trkpt><trkpt lat="43.7596834070553" lon="7.014938376705806"><ele>940.6666666666667</ele><time>2026-04-06T12:08:53.999Z</time></trkpt><trkpt lat="43.75976550708967" lon="7.014908586656486"><ele>937.0</ele><time>2026-04-06T12:08:54.999Z</time></trkpt><trkpt lat="43.759848465633624" lon="7.01486568208203"><ele>933.3333333333334</ele><time>2026-04-06T12:08:55.999Z</time></trkpt><trkpt lat="43.75993068066462" lon="7.01482017200417"><ele>929.6666666666667</ele><time>2026-04-06T12:08:56.999Z</time></trkpt><trkpt lat="43.76001503910636" lon="7.014782026782178"><ele>926.0</ele><time>2026-04-06T12:08:57.999Z</time></trkpt><trkpt lat="43.76008986372664" lon="7.014747006181045"><ele>926.0000000000001</ele><time>2026-04-06T12:08:58.999Z</time></trkpt><trkpt lat="43.76016010955215" lon="7.014707407083359"><ele>926.0</ele><time>2026-04-06T12:08:59.999Z</time></trkpt><trkpt lat="43.760227421773195" lon="7.01466012119067"><ele>926.0</ele><time>2026-04-06T12:09:00.999Z</time></trkpt><trkpt lat="43.76029756744069" lon="7.014613870974166"><ele>926.0</ele><time>2026-04-06T12:09:01.999Z</time></trkpt><trkpt lat="43.7603693066787" lon="7.014580290865546"><ele>926.0000000000001</ele><time>2026-04-06T12:09:02.999Z</time></trkpt><trkpt lat="43.76044637344995" lon="7.01456551745808"><ele>926.0</ele><time>2026-04-06T12:09:03.999Z</time></trkpt><trkpt lat="43.76053472657775" lon="7.01459101821664"><ele>927.8333333333334</ele><time>2026-04-06T12:09:04.999Z</time></trkpt><trkpt lat="43.76060899739223" lon="7.014615723605553"><ele>929.6666666666667</ele><time>2026-04-06T12:09:05.999Z</time></trkpt><trkpt lat="43.760672771107814" lon="7.014598078203755"><ele>931.5</ele><time>2026-04-06T12:09:06.999Z</time></trkpt><trkpt lat="43.76074827320083" lon="7.014557549313575"><ele>933.3333333333333</ele><time>2026-04-06T12:09:07.999Z</time></trkpt><trkpt lat="43.760834042224936" lon="7.014529943687143"><ele>935.1666666666666</ele><time>2026-04-06T12:09:08.999Z</time></trkpt><trkpt lat="43.760908865823566" lon="7.014540300519433"><ele>937.0</ele><time>2026-04-06T12:09:09.999Z</time></trkpt><trkpt lat="43.76100119416051" lon="7.014541666819734"><ele>938.4000000000001</ele><time>2026-04-06T12:09:10.999Z</time></trkpt><trkpt lat="43.76109968774572" lon="7.014535770397832"><ele>939.8000000000001</ele><time>2026-04-06T12:09:11.999Z</time></trkpt><trkpt lat="43.761185523303" lon="7.014515140546525"><ele>941.2</ele><time>2026-04-06T12:09:12.999Z</time></trkpt><trkpt lat="43.76126102216234" lon="7.014485487971845"><ele>942.6</ele><time>2026-04-06T12:09:13.999Z</time></trkpt><trkpt lat="43.76138585721324" lon="7.014509005421695"><ele>944.0</ele><time>2026-04-06T12:09:15.999Z</time></trkpt><trkpt lat="43.761464204616104" lon="7.014537520293541"><ele>944.0000000000001</ele><time>2026-04-06T12:09:16.999Z</time></trkpt><trkpt lat="43.76153023706011" lon="7.0145492268463885"><ele>944.0</ele><time>2026-04-06T12:09:17.999Z</time></trkpt><trkpt lat="43.76158177735956" lon="7.014440465462009"><ele>944.0</ele><time>2026-04-06T12:09:19.999Z</time></trkpt><trkpt lat="43.761569263758766" lon="7.014337927703461"><ele>944.0</ele><time>2026-04-06T12:09:20.999Z</time></trkpt><trkpt lat="43.761575787821485" lon="7.014249862301653"><ele>944.0000000000001</ele><time>2026-04-06T12:09:21.999Z</time></trkpt><trkpt lat="43.76159866538413" lon="7.014157592985354"><ele>944.0</ele><time>2026-04-06T12:09:22.999Z</time></trkpt><trkpt lat="43.761658760203865" lon="7.014045897172984"><ele>944.0000000000001</ele><time>2026-04-06T12:09:24.999Z</time></trkpt><trkpt lat="43.76175739154754" lon="7.013965591528421"><ele>944.0</ele><time>2026-04-06T12:09:26.999Z</time></trkpt><trkpt lat="43.76181369763322" lon="7.013921014626027"><ele>944.0</ele><time>2026-04-06T12:09:27.999Z</time></trkpt><trkpt lat="43.761878623572954" lon="7.013833647800492"><ele>944.0</ele><time>2026-04-06T12:09:29.999Z</time></trkpt><trkpt lat="43.76197335599112" lon="7.013804642102935"><ele>944.0000000000001</ele><time>2026-04-06T12:09:31.999Z</time></trkpt><trkpt lat="43.76203674873917" lon="7.0137842103012975"><ele>944.0</ele><time>2026-04-06T12:09:32.999Z</time></trkpt><trkpt lat="43.76209125725159" lon="7.013737811201339"><ele>944.8333333333334</ele><time>2026-04-06T12:09:33.999Z</time></trkpt><trkpt lat="43.762125646194704" lon="7.013660598087814"><ele>945.6666666666667</ele><time>2026-04-06T12:09:34.999Z</time></trkpt><trkpt lat="43.762111487508484" lon="7.013551783633881"><ele>946.5</ele><time>2026-04-06T12:09:35.999Z</time></trkpt><trkpt lat="43.76208158543696" lon="7.013446154092732"><ele>947.3333333333333</ele><time>2026-04-06T12:09:36.999Z</time></trkpt><trkpt lat="43.762062443945176" lon="7.013332621270562"><ele>948.1666666666666</ele><time>2026-04-06T12:09:38.999Z</time></trkpt><trkpt lat="43.76210500358885" lon="7.0132276937007285"><ele>949.0</ele><time>2026-04-06T12:09:40.999Z</time></trkpt><trkpt lat="43.76219674765597" lon="7.01314043146909"><ele>948.9999999999999</ele><time>2026-04-06T12:09:42.999Z</time></trkpt><trkpt lat="43.762274857675195" lon="7.013105101414822"><ele>949.0</ele><time>2026-04-06T12:09:43.999Z</time></trkpt><trkpt lat="43.76237158474205" lon="7.013074515812735"><ele>949.0</ele><time>2026-04-06T12:09:44.999Z</time></trkpt><trkpt lat="43.762464182688724" lon="7.013056605742385"><ele>949.0</ele><time>2026-04-06T12:09:45.999Z</time></trkpt><trkpt lat="43.76254104559871" lon="7.013051737976608"><ele>948.9999999999999</ele><time>2026-04-06T12:09:46.999Z</time></trkpt><trkpt lat="43.762601681953754" lon="7.013010329921808"><ele>949.0</ele><time>2026-04-06T12:09:47.999Z</time></trkpt><trkpt lat="43.762658370683056" lon="7.012881014712616"><ele>948.9999999999999</ele><time>2026-04-06T12:09:49.999Z</time></trkpt><trkpt lat="43.762667240409485" lon="7.012773428398302"><ele>949.0</ele><time>2026-04-06T12:09:51.999Z</time></trkpt><trkpt lat="43.762720524756816" lon="7.012656700858912"><ele>949.0</ele><time>2026-04-06T12:09:53.999Z</time></trkpt><trkpt lat="43.76276648616117" lon="7.0125751062759"><ele>949.0</ele><time>2026-04-06T12:09:54.999Z</time></trkpt><trkpt lat="43.7628046124885" lon="7.012491434980759"><ele>948.9999999999999</ele><time>2026-04-06T12:09:55.999Z</time></trkpt><trkpt lat="43.76284693254685" lon="7.012416212247177"><ele>949.0</ele><time>2026-04-06T12:09:56.999Z</time></trkpt><trkpt lat="43.76290860931515" lon="7.0123754027014105"><ele>949.8000000000001</ele><time>2026-04-06T12:09:57.999Z</time></trkpt><trkpt lat="43.76296808182163" lon="7.0123425503861005"><ele>950.6000000000001</ele><time>2026-04-06T12:09:58.999Z</time></trkpt><trkpt lat="43.763038639766485" lon="7.0122100027656895"><ele>951.4</ele><time>2026-04-06T12:10:00.999Z</time></trkpt><trkpt lat="43.76304288330319" lon="7.012080498495513"><ele>952.2</ele><time>2026-04-06T12:10:01.999Z</time></trkpt><trkpt lat="43.763053372011626" lon="7.0119366015261955"><ele>953.0</ele><time>2026-04-06T12:10:02.999Z</time></trkpt><trkpt lat="43.76307191041283" lon="7.011819459496131"><ele>953.0000000000001</ele><time>2026-04-06T12:10:03.999Z</time></trkpt><trkpt lat="43.76307006964143" lon="7.011725712004472"><ele>953.0</ele><time>2026-04-06T12:10:04.999Z</time></trkpt><trkpt lat="43.763068198330444" lon="7.011633187229045"><ele>953.0</ele><time>2026-04-06T12:10:05.999Z</time></trkpt><trkpt lat="43.76306500254884" lon="7.0115200604813355"><ele>953.0</ele><time>2026-04-06T12:10:07.999Z</time></trkpt><trkpt lat="43.76304218164381" lon="7.0114165202707"><ele>953.0000000000001</ele><time>2026-04-06T12:10:09.999Z</time></trkpt><trkpt lat="43.76307070255328" lon="7.011325004279347"><ele>953.0</ele><time>2026-04-06T12:10:11.999Z</time></trkpt><trkpt lat="43.763158413525005" lon="7.011231276117341"><ele>953.0000000000001</ele><time>2026-04-06T12:10:13.999Z</time></trkpt><trkpt lat="43.76324565488986" lon="7.01120424722479"><ele>953.0</ele><time>2026-04-06T12:10:14.999Z</time></trkpt><trkpt lat="43.76333033564483" lon="7.01118810165617"><ele>953.0</ele><time>2026-04-06T12:10:15.999Z</time></trkpt><trkpt lat="43.76341199090792" lon="7.011186077774441"><ele>953.0</ele><time>2026-04-06T12:10:16.999Z</time></trkpt><trkpt lat="43.76348001541221" lon="7.011191655061277"><ele>953.0000000000001</ele><time>2026-04-06T12:10:17.999Z</time></trkpt><trkpt lat="43.76355247700043" lon="7.0111696432464"><ele>953.0</ele><time>2026-04-06T12:10:18.999Z</time></trkpt><trkpt lat="43.76362013061846" lon="7.01113655064159"><ele>955.1666666666667</ele><time>2026-04-06T12:10:19.999Z</time></trkpt><trkpt lat="43.76373801751277" lon="7.0111342569031505"><ele>957.3333333333334</ele><time>2026-04-06T12:10:21.999Z</time></trkpt><trkpt lat="43.76378687646113" lon="7.011190429553352"><ele>959.5</ele><time>2026-04-06T12:10:33.999Z</time></trkpt><trkpt lat="43.76382381347527" lon="7.011290334877205"><ele>961.6666666666667</ele><time>2026-04-06T12:10:35.999Z</time></trkpt><trkpt lat="43.76390122069318" lon="7.011399410795189"><ele>963.8333333333334</ele><time>2026-04-06T12:10:37.999Z</time></trkpt><trkpt lat="43.763952932979436" lon="7.011452579135493"><ele>966.0</ele><time>2026-04-06T12:10:38.999Z</time></trkpt><trkpt lat="43.76406856310014" lon="7.011519485341658"><ele>966.0</ele><time>2026-04-06T12:10:40.999Z</time></trkpt><trkpt lat="43.76412394574288" lon="7.011564405839659"><ele>965.9999999999999</ele><time>2026-04-06T12:10:41.999Z</time></trkpt><trkpt lat="43.76417651104528" lon="7.011672026096483"><ele>965.9999999999999</ele><time>2026-04-06T12:10:43.999Z</time></trkpt><trkpt lat="43.76428882653747" lon="7.0117689108644345"><ele>966.0</ele><time>2026-04-06T12:10:45.999Z</time></trkpt><trkpt lat="43.76436536839972" lon="7.011846418585643"><ele>966.0</ele><time>2026-04-06T12:10:46.999Z</time></trkpt><trkpt lat="43.76444764334689" lon="7.011914560785682"><ele>966.0</ele><time>2026-04-06T12:10:47.999Z</time></trkpt><trkpt lat="43.764552385453136" lon="7.011972217450184"><ele>966.0</ele><time>2026-04-06T12:10:48.999Z</time></trkpt><trkpt lat="43.764683639671915" lon="7.012044041993684"><ele>966.0</ele><time>2026-04-06T12:10:49.999Z</time></trkpt><trkpt lat="43.76482064075285" lon="7.012128116246629"><ele>966.0</ele><time>2026-04-06T12:10:50.999Z</time></trkpt><trkpt lat="43.76494098057366" lon="7.0121907554703355"><ele>966.0</ele><time>2026-04-06T12:10:51.999Z</time></trkpt><trkpt lat="43.76504018796424" lon="7.012245721633841"><ele>966.0</ele><time>2026-04-06T12:10:52.999Z</time></trkpt><trkpt lat="43.76512345269933" lon="7.01233915655425"><ele>966.0</ele><time>2026-04-06T12:10:53.999Z</time></trkpt><trkpt lat="43.76522064730123" lon="7.0124494289451365"><ele>966.0</ele><time>2026-04-06T12:10:54.999Z</time></trkpt><trkpt lat="43.76534142269177" lon="7.012552127097489"><ele>967.0</ele><time>2026-04-06T12:10:55.999Z</time></trkpt><trkpt lat="43.765438250466794" lon="7.012646368584983"><ele>967.9999999999999</ele><time>2026-04-06T12:10:56.999Z</time></trkpt><trkpt lat="43.76551836819763" lon="7.012726052547595"><ele>968.9999999999999</ele><time>2026-04-06T12:10:57.999Z</time></trkpt><trkpt lat="43.765585456226574" lon="7.012787951956498"><ele>970.0</ele><time>2026-04-06T12:10:58.999Z</time></trkpt><trkpt lat="43.76565995952574" lon="7.012808607058282"><ele>971.0</ele><time>2026-04-06T12:10:59.999Z</time></trkpt><trkpt lat="43.76574451223099" lon="7.012815287451246"><ele>971.0000000000001</ele><time>2026-04-06T12:11:00.999Z</time></trkpt><trkpt lat="43.765809831937474" lon="7.012895164293087"><ele>971.0</ele><time>2026-04-06T12:11:02.999Z</time></trkpt><trkpt lat="43.76582483587357" lon="7.012983094559974"><ele>971.0</ele><time>2026-04-06T12:11:03.999Z</time></trkpt><trkpt lat="43.76586010614656" lon="7.013084576542756"><ele>971.0</ele><time>2026-04-06T12:11:04.999Z</time></trkpt><trkpt lat="43.76591215191583" lon="7.013180109812776"><ele>971.0000000000001</ele><time>2026-04-06T12:11:05.999Z</time></trkpt><trkpt lat="43.76596851970924" lon="7.0132597300709385"><ele>971.0</ele><time>2026-04-06T12:11:06.999Z</time></trkpt><trkpt lat="43.76603063067349" lon="7.013306940128034"><ele>972.6666666666667</ele><time>2026-04-06T12:11:07.999Z</time></trkpt><trkpt lat="43.766107546916" lon="7.013333816906955"><ele>974.3333333333334</ele><time>2026-04-06T12:11:08.999Z</time></trkpt><trkpt lat="43.766189310543396" lon="7.013372080802385"><ele>976.0</ele><time>2026-04-06T12:11:09.999Z</time></trkpt><trkpt lat="43.7662497936463" lon="7.0134202950423985"><ele>977.6666666666667</ele><time>2026-04-06T12:11:10.999Z</time></trkpt><trkpt lat="43.7662911411804" lon="7.013492341723754"><ele>979.3333333333334</ele><time>2026-04-06T12:11:11.999Z</time></trkpt><trkpt lat="43.76631347964125" lon="7.013613435456678"><ele>981.0</ele><time>2026-04-06T12:11:12.999Z</time></trkpt><trkpt lat="43.766316528699505" lon="7.01374340492106"><ele>981.0</ele><time>2026-04-06T12:11:13.999Z</time></trkpt><trkpt lat="43.76631582556869" lon="7.013868446064058"><ele>981.0</ele><time>2026-04-06T12:11:14.999Z</time></trkpt><trkpt lat="43.7663457711704" lon="7.013962539777547"><ele>981.0</ele><time>2026-04-06T12:11:15.999Z</time></trkpt><trkpt lat="43.76640575063163" lon="7.0140088962669696"><ele>981.0</ele><time>2026-04-06T12:11:16.999Z</time></trkpt><trkpt lat="43.76649051801795" lon="7.014063411520061"><ele>981.0</ele><time>2026-04-06T12:11:17.999Z</time></trkpt><trkpt lat="43.76657973934211" lon="7.014137819628677"><ele>981.0</ele><time>2026-04-06T12:11:18.999Z</time></trkpt><trkpt lat="43.76664040759947" lon="7.0142081468848145"><ele>981.0</ele><time>2026-04-06T12:11:19.999Z</time></trkpt><trkpt lat="43.76671015978988" lon="7.014269475842022"><ele>981.0</ele><time>2026-04-06T12:11:20.999Z</time></trkpt><trkpt lat="43.76677590956746" lon="7.014307176839938"><ele>981.0</ele><time>2026-04-06T12:11:21.999Z</time></trkpt><trkpt lat="43.766848765859166" lon="7.014346914694655"><ele>981.0</ele><time>2026-04-06T12:11:22.999Z</time></trkpt><trkpt lat="43.766919751803975" lon="7.014362004003863"><ele>981.0</ele><time>2026-04-06T12:11:23.999Z</time></trkpt><trkpt lat="43.76698418693566" lon="7.014348767481272"><ele>981.0</ele><time>2026-04-06T12:11:24.999Z</time></trkpt><trkpt lat="43.76707811877264" lon="7.014359953074587"><ele>981.0</ele><time>2026-04-06T12:11:26.999Z</time></trkpt><trkpt lat="43.767168998610416" lon="7.0144487806858615"><ele>980.9999999999999</ele><time>2026-04-06T12:11:28.999Z</time></trkpt><trkpt lat="43.76724147455428" lon="7.014492346790744"><ele>980.9999999999999</ele><time>2026-04-06T12:11:29.999Z</time></trkpt><trkpt lat="43.767325481375345" lon="7.014545534076222"><ele>981.0</ele><time>2026-04-06T12:11:30.999Z</time></trkpt><trkpt lat="43.767414237503786" lon="7.014606462503634"><ele>981.0</ele><time>2026-04-06T12:11:31.999Z</time></trkpt><trkpt lat="43.767515626489285" lon="7.014659133824596"><ele>981.0</ele><time>2026-04-06T12:11:32.999Z</time></trkpt><trkpt lat="43.7676319830642" lon="7.014672488302726"><ele>981.0</ele><time>2026-04-06T12:11:33.999Z</time></trkpt><trkpt lat="43.76773272785344" lon="7.014669815570779"><ele>981.0</ele><time>2026-04-06T12:11:34.999Z</time></trkpt><trkpt lat="43.76781426000665" lon="7.014695435664426"><ele>981.0</ele><time>2026-04-06T12:11:35.999Z</time></trkpt><trkpt lat="43.76786174100116" lon="7.0147588391457445"><ele>981.0</ele><time>2026-04-06T12:11:36.999Z</time></trkpt><trkpt lat="43.76787788254979" lon="7.01486040906144"><ele>981.0</ele><time>2026-04-06T12:11:37.999Z</time></trkpt><trkpt lat="43.76786338530101" lon="7.014950332256204"><ele>980.1999999999999</ele><time>2026-04-06T12:11:38.999Z</time></trkpt><trkpt lat="43.76782073782386" lon="7.015074847187984"><ele>979.3999999999999</ele><time>2026-04-06T12:11:40.999Z</time></trkpt><trkpt lat="43.767775736025825" lon="7.015214279205383"><ele>978.6</ele><time>2026-04-06T12:11:42.999Z</time></trkpt><trkpt lat="43.76770498414906" lon="7.015363447670755"><ele>977.8</ele><time>2026-04-06T12:11:44.999Z</time></trkpt><trkpt lat="43.76766871939888" lon="7.015455396083641"><ele>977.0</ele><time>2026-04-06T12:11:45.999Z</time></trkpt><trkpt lat="43.76763236347643" lon="7.015587864365443"><ele>977.0000000000001</ele><time>2026-04-06T12:11:47.999Z</time></trkpt><trkpt lat="43.767687980249214" lon="7.01567733094896"><ele>977.0</ele><time>2026-04-06T12:11:49.999Z</time></trkpt><trkpt lat="43.76779636889336" lon="7.015772615070419"><ele>977.0</ele><time>2026-04-06T12:11:51.999Z</time></trkpt><trkpt lat="43.76785273214792" lon="7.015837920263854"><ele>977.0</ele><time>2026-04-06T12:11:52.999Z</time></trkpt><trkpt lat="43.76791564234919" lon="7.015904463149431"><ele>977.0000000000001</ele><time>2026-04-06T12:11:53.999Z</time></trkpt><trkpt lat="43.767983736604634" lon="7.015962887273367"><ele>977.0</ele><time>2026-04-06T12:11:54.999Z</time></trkpt><trkpt lat="43.768052070823785" lon="7.0160052585025605"><ele>976.6666666666667</ele><time>2026-04-06T12:11:55.999Z</time></trkpt><trkpt lat="43.768124454518166" lon="7.016035217757801"><ele>976.3333333333334</ele><time>2026-04-06T12:11:56.999Z</time></trkpt><trkpt lat="43.768203256157896" lon="7.016055756013822"><ele>976.0</ele><time>2026-04-06T12:11:57.999Z</time></trkpt><trkpt lat="43.76826772925486" lon="7.016086179444444"><ele>975.6666666666667</ele><time>2026-04-06T12:11:58.999Z</time></trkpt><trkpt lat="43.768329139298594" lon="7.016148289327377"><ele>975.3333333333334</ele><time>2026-04-06T12:11:59.999Z</time></trkpt><trkpt lat="43.76838514397315" lon="7.016235330906696"><ele>975.0</ele><time>2026-04-06T12:12:00.999Z</time></trkpt><trkpt lat="43.768433150404576" lon="7.016319841564323"><ele>975.0</ele><time>2026-04-06T12:12:01.999Z</time></trkpt><trkpt lat="43.76847727016402" lon="7.016430538607097"><ele>975.0</ele><time>2026-04-06T12:12:03Z</time></trkpt><trkpt lat="43.76851767089864" lon="7.016536345863148"><ele>975.0</ele><time>2026-04-06T12:12:04Z</time></trkpt><trkpt lat="43.7685753947965" lon="7.0166033884156045"><ele>975.0</ele><time>2026-04-06T12:12:05Z</time></trkpt><trkpt lat="43.768642997044395" lon="7.016641840582526"><ele>975.0</ele><time>2026-04-06T12:12:06Z</time></trkpt><trkpt lat="43.76871678884819" lon="7.016672699523274"><ele>975.0</ele><time>2026-04-06T12:12:07Z</time></trkpt><trkpt lat="43.768763777418684" lon="7.016750561702767"><ele>976.8333333333334</ele><time>2026-04-06T12:12:08Z</time></trkpt><trkpt lat="43.76880344217113" lon="7.016845016407099"><ele>978.6666666666667</ele><time>2026-04-06T12:12:09Z</time></trkpt><trkpt lat="43.76885716284607" lon="7.016907593308757"><ele>980.5</ele><time>2026-04-06T12:12:10Z</time></trkpt><trkpt lat="43.768929046840924" lon="7.0169422336146905"><ele>982.3333333333334</ele><time>2026-04-06T12:12:11Z</time></trkpt><trkpt lat="43.769006145412675" lon="7.016997416922562"><ele>984.1666666666667</ele><time>2026-04-06T12:12:12Z</time></trkpt><trkpt lat="43.76908053943364" lon="7.01707857052153"><ele>986.0</ele><time>2026-04-06T12:12:13Z</time></trkpt><trkpt lat="43.76916065092867" lon="7.017154464991856"><ele>986.0000000000001</ele><time>2026-04-06T12:12:14Z</time></trkpt><trkpt lat="43.769239292052816" lon="7.0172174447319975"><ele>986.0</ele><time>2026-04-06T12:12:15Z</time></trkpt><trkpt lat="43.7693307732355" lon="7.017210113586376"><ele>986.0</ele><time>2026-04-06T12:12:16Z</time></trkpt><trkpt lat="43.76938861413066" lon="7.017262615519363"><ele>986.0</ele><time>2026-04-06T12:12:18Z</time></trkpt><trkpt lat="43.76928899560596" lon="7.017148035221045"><ele>986.0000000000001</ele><time>2026-04-06T12:12:32Z</time></trkpt><trkpt lat="43.76923266624136" lon="7.017099642858755"><ele>986.0</ele><time>2026-04-06T12:12:33Z</time></trkpt><trkpt lat="43.76918845731465" lon="7.016984723388395"><ele>986.0000000000001</ele><time>2026-04-06T12:12:34.999Z</time></trkpt><trkpt lat="43.769146531163194" lon="7.016820641270493"><ele>986.0</ele><time>2026-04-06T12:12:36.999Z</time></trkpt><trkpt lat="43.76911734803563" lon="7.01673667338461"><ele>986.0</ele><time>2026-04-06T12:12:37.999Z</time></trkpt><trkpt lat="43.7690618608352" lon="7.016641026353978"><ele>986.0</ele><time>2026-04-06T12:12:38.999Z</time></trkpt><trkpt lat="43.769018158519245" lon="7.016545056103476"><ele>986.0000000000001</ele><time>2026-04-06T12:12:39.999Z</time></trkpt><trkpt lat="43.768987655459426" lon="7.016435452639805"><ele>986.0</ele><time>2026-04-06T12:12:40.999Z</time></trkpt><trkpt lat="43.768980638345845" lon="7.0163194211564"><ele>986.4</ele><time>2026-04-06T12:12:41.999Z</time></trkpt><trkpt lat="43.768989098896526" lon="7.016193024114149"><ele>986.8</ele><time>2026-04-06T12:12:42.999Z</time></trkpt><trkpt lat="43.7689886741892" lon="7.016037908984159"><ele>987.1999999999999</ele><time>2026-04-06T12:12:43.999Z</time></trkpt><trkpt lat="43.76897497080954" lon="7.0158874372575575"><ele>987.5999999999999</ele><time>2026-04-06T12:12:44.999Z</time></trkpt><trkpt lat="43.76896494281102" lon="7.015724935914175"><ele>988.0</ele><time>2026-04-06T12:12:45.999Z</time></trkpt><trkpt lat="43.76895566565537" lon="7.015554750380982"><ele>988.8</ele><time>2026-04-06T12:12:46.999Z</time></trkpt><trkpt lat="43.768964835272655" lon="7.015404237863933"><ele>989.5999999999999</ele><time>2026-04-06T12:12:47.999Z</time></trkpt><trkpt lat="43.76898321398784" lon="7.015270548861408"><ele>990.4000000000001</ele><time>2026-04-06T12:12:48.999Z</time></trkpt><trkpt lat="43.7689821800632" lon="7.015147574543084"><ele>991.2</ele><time>2026-04-06T12:12:49.999Z</time></trkpt><trkpt lat="43.76895640399352" lon="7.015026082267882"><ele>992.0</ele><time>2026-04-06T12:12:50.999Z</time></trkpt><trkpt lat="43.768931543170154" lon="7.014900193588566"><ele>992.4000000000001</ele><time>2026-04-06T12:12:51.999Z</time></trkpt><trkpt lat="43.768906410101636" lon="7.014774656844559"><ele>992.8000000000001</ele><time>2026-04-06T12:12:52.999Z</time></trkpt><trkpt lat="43.76888910796878" lon="7.014638452580487"><ele>993.2</ele><time>2026-04-06T12:12:53.999Z</time></trkpt><trkpt lat="43.76888926760138" lon="7.0145183496411345"><ele>993.6</ele><time>2026-04-06T12:12:54.999Z</time></trkpt><trkpt lat="43.7689119714065" lon="7.014389523696017"><ele>994.0</ele><time>2026-04-06T12:12:55.999Z</time></trkpt><trkpt lat="43.768941799319784" lon="7.014270730870727"><ele>993.9999999999999</ele><time>2026-04-06T12:12:56.999Z</time></trkpt><trkpt lat="43.7689755596311" lon="7.014179049565349"><ele>994.0</ele><time>2026-04-06T12:12:57.999Z</time></trkpt><trkpt lat="43.769019855449635" lon="7.0141060032514835"><ele>994.0</ele><time>2026-04-06T12:12:58.999Z</time></trkpt><trkpt lat="43.769090850474264" lon="7.014041799689744"><ele>994.0</ele><time>2026-04-06T12:12:59.999Z</time></trkpt><trkpt lat="43.769170908577294" lon="7.0139866824026065"><ele>993.9999999999999</ele><time>2026-04-06T12:13:00.999Z</time></trkpt><trkpt lat="43.769247458574355" lon="7.013938118176646"><ele>994.0</ele><time>2026-04-06T12:13:01.999Z</time></trkpt><trkpt lat="43.76925517606002" lon="7.013762532739501"><ele>995.0</ele><time>2026-04-06T12:13:03.999Z</time></trkpt><trkpt lat="43.7691979678259" lon="7.013659418225161"><ele>996.0000000000001</ele><time>2026-04-06T12:13:04.999Z</time></trkpt><trkpt lat="43.769138955252416" lon="7.013547352232197"><ele>997.0000000000001</ele><time>2026-04-06T12:13:05.999Z</time></trkpt><trkpt lat="43.769108332223986" lon="7.013427231219344"><ele>998.0</ele><time>2026-04-06T12:13:06.999Z</time></trkpt><trkpt lat="43.76909228661439" lon="7.013280558451949"><ele>999.0</ele><time>2026-04-06T12:13:07.999Z</time></trkpt><trkpt lat="43.76906368040108" lon="7.013155962092643"><ele>1000.8000000000001</ele><time>2026-04-06T12:13:08.999Z</time></trkpt><trkpt lat="43.769028023663004" lon="7.0130379211537885"><ele>1002.6000000000001</ele><time>2026-04-06T12:13:09.999Z</time></trkpt><trkpt lat="43.768989185813375" lon="7.012928237261558"><ele>1004.4</ele><time>2026-04-06T12:13:10.999Z</time></trkpt><trkpt lat="43.76893002190979" lon="7.01281967929224"><ele>1006.2</ele><time>2026-04-06T12:13:11.999Z</time></trkpt><trkpt lat="43.76886668000342" lon="7.012697753364009"><ele>1008.0</ele><time>2026-04-06T12:13:12.999Z</time></trkpt><trkpt lat="43.76880829628911" lon="7.012578127902516"><ele>1008.0</ele><time>2026-04-06T12:13:13.999Z</time></trkpt><trkpt lat="43.76877096438719" lon="7.012459983368803"><ele>1008.0</ele><time>2026-04-06T12:13:14.999Z</time></trkpt><trkpt lat="43.76875514192093" lon="7.012339251815647"><ele>1008.0</ele><time>2026-04-06T12:13:15.999Z</time></trkpt><trkpt lat="43.768745397009155" lon="7.012234203809988"><ele>1008.0</ele><time>2026-04-06T12:13:16.999Z</time></trkpt><trkpt lat="43.76873589044468" lon="7.012081990342057"><ele>1008.0</ele><time>2026-04-06T12:13:18.999Z</time></trkpt><trkpt lat="43.76871924961365" lon="7.01196616184799"><ele>1008.0</ele><time>2026-04-06T12:13:20.999Z</time></trkpt><trkpt lat="43.768706686904295" lon="7.011865511134115"><ele>1008.0</ele><time>2026-04-06T12:13:22.999Z</time></trkpt><trkpt lat="43.76868974540153" lon="7.011774743930151"><ele>1008.0</ele><time>2026-04-06T12:13:24.999Z</time></trkpt><trkpt lat="43.768647954122386" lon="7.01159046315535"><ele>1008.0</ele><time>2026-04-06T12:13:26.999Z</time></trkpt><trkpt lat="43.76862571671295" lon="7.0114893348115634"><ele>1008.0</ele><time>2026-04-06T12:13:27.999Z</time></trkpt><trkpt lat="43.76860760121638" lon="7.011392210814974"><ele>1008.0</ele><time>2026-04-06T12:13:28.999Z</time></trkpt><trkpt lat="43.76859848428919" lon="7.011297272828368"><ele>1007.6666666666666</ele><time>2026-04-06T12:13:29.999Z</time></trkpt><trkpt lat="43.76858547482541" lon="7.011195363518803"><ele>1007.3333333333333</ele><time>2026-04-06T12:13:30.999Z</time></trkpt><trkpt lat="43.76856797393967" lon="7.011073227918258"><ele>1007.0</ele><time>2026-04-06T12:13:31.999Z</time></trkpt><trkpt lat="43.768545106913045" lon="7.010936208836264"><ele>1006.6666666666666</ele><time>2026-04-06T12:13:32.999Z</time></trkpt><trkpt lat="43.7685209397912" lon="7.010819618859664"><ele>1006.3333333333333</ele><time>2026-04-06T12:13:33.999Z</time></trkpt><trkpt lat="43.76848860422889" lon="7.010725541479468"><ele>1006.0</ele><time>2026-04-06T12:13:34.999Z</time></trkpt><trkpt lat="43.768455664799305" lon="7.0106288576761"><ele>1006.6666666666666</ele><time>2026-04-06T12:13:35.999Z</time></trkpt><trkpt lat="43.76842830365641" lon="7.010515831811416"><ele>1007.3333333333333</ele><time>2026-04-06T12:13:36.999Z</time></trkpt><trkpt lat="43.76839619968131" lon="7.010409090375673"><ele>1008.0</ele><time>2026-04-06T12:13:37.999Z</time></trkpt><trkpt lat="43.768338454911905" lon="7.0103070532451754"><ele>1008.6666666666667</ele><time>2026-04-06T12:13:38.999Z</time></trkpt><trkpt lat="43.7682862921211" lon="7.010225840144372"><ele>1009.3333333333334</ele><time>2026-04-06T12:13:39.999Z</time></trkpt><trkpt lat="43.768255806224" lon="7.010146193515194"><ele>1010.0</ele><time>2026-04-06T12:13:40.999Z</time></trkpt><trkpt lat="43.76823954359637" lon="7.010033449760739"><ele>1009.6666666666667</ele><time>2026-04-06T12:13:41.999Z</time></trkpt><trkpt lat="43.76822124869712" lon="7.009913015486211"><ele>1009.3333333333334</ele><time>2026-04-06T12:13:42.999Z</time></trkpt><trkpt lat="43.76821626213129" lon="7.00980589353449"><ele>1009.0</ele><time>2026-04-06T12:13:43.999Z</time></trkpt><trkpt lat="43.76823717994323" lon="7.0097124254132535"><ele>1008.6666666666667</ele><time>2026-04-06T12:13:44.999Z</time></trkpt><trkpt lat="43.7682737631107" lon="7.009628640469135"><ele>1008.3333333333334</ele><time>2026-04-06T12:13:45.999Z</time></trkpt><trkpt lat="43.76836338539008" lon="7.00952450493527"><ele>1008.0</ele><time>2026-04-06T12:13:47.999Z</time></trkpt><trkpt lat="43.76847083482327" lon="7.009438721341646"><ele>1008.0</ele><time>2026-04-06T12:13:49.999Z</time></trkpt><trkpt lat="43.76853591767212" lon="7.009329304481574"><ele>1008.0</ele><time>2026-04-06T12:13:51.999Z</time></trkpt><trkpt lat="43.76852658136858" lon="7.0092342086263635"><ele>1008.0</ele><time>2026-04-06T12:13:54.999Z</time></trkpt><trkpt lat="43.768526738326216" lon="7.009364041254737"><ele>1008.0</ele><time>2026-04-06T12:14:04Z</time></trkpt><trkpt lat="43.768494854687276" lon="7.009451600441822"><ele>1008.0</ele><time>2026-04-06T12:14:06Z</time></trkpt><trkpt lat="43.768368758261424" lon="7.009534481310508"><ele>1008.0</ele><time>2026-04-06T12:14:08Z</time></trkpt><trkpt lat="43.76830427919781" lon="7.0096010874298305"><ele>1008.0</ele><time>2026-04-06T12:14:09Z</time></trkpt><trkpt lat="43.76826135621011" lon="7.009678635275023"><ele>1008.0</ele><time>2026-04-06T12:14:10Z</time></trkpt><trkpt lat="43.76823566044936" lon="7.00975986457538"><ele>1008.0</ele><time>2026-04-06T12:14:11Z</time></trkpt><trkpt lat="43.768221187232456" lon="7.009856949489478"><ele>1008.0</ele><time>2026-04-06T12:14:12Z</time></trkpt><trkpt lat="43.76822918203" lon="7.009974443944329"><ele>1008.0</ele><time>2026-04-06T12:14:13Z</time></trkpt><trkpt lat="43.768266008414166" lon="7.0101128618523045"><ele>1008.4</ele><time>2026-04-06T12:14:14Z</time></trkpt><trkpt lat="43.76830401442799" lon="7.010251952500028"><ele>1008.8</ele><time>2026-04-06T12:14:15Z</time></trkpt><trkpt lat="43.76835554719447" lon="7.010356412471508"><ele>1009.2</ele><time>2026-04-06T12:14:16Z</time></trkpt><trkpt lat="43.76842610473215" lon="7.010454203104814"><ele>1009.6</ele><time>2026-04-06T12:14:17Z</time></trkpt><trkpt lat="43.768482053988336" lon="7.010592122164141"><ele>1010.0</ele><time>2026-04-06T12:14:18Z</time></trkpt><trkpt lat="43.76852391489655" lon="7.010777792940591"><ele>1009.0</ele><time>2026-04-06T12:14:19Z</time></trkpt><trkpt lat="43.768567828572195" lon="7.010944090938897"><ele>1008.0</ele><time>2026-04-06T12:14:20Z</time></trkpt><trkpt lat="43.76860215502863" lon="7.011109079597252"><ele>1007.0</ele><time>2026-04-06T12:14:21Z</time></trkpt><trkpt lat="43.76861787341483" lon="7.011292626495295"><ele>1006.0</ele><time>2026-04-06T12:14:22Z</time></trkpt><trkpt lat="43.768630669782546" lon="7.011456537877933"><ele>1006.0</ele><time>2026-04-06T12:14:23Z</time></trkpt><trkpt lat="43.768652118049374" lon="7.011599282133169"><ele>1005.9999999999999</ele><time>2026-04-06T12:14:24Z</time></trkpt><trkpt lat="43.76868086992075" lon="7.011723990426735"><ele>1005.9999999999999</ele><time>2026-04-06T12:14:25Z</time></trkpt><trkpt lat="43.76870472288943" lon="7.011857958650692"><ele>1006.0</ele><time>2026-04-06T12:14:26Z</time></trkpt><trkpt lat="43.768723839156635" lon="7.012013903787165"><ele>1006.0</ele><time>2026-04-06T12:14:27Z</time></trkpt><trkpt lat="43.768739895410945" lon="7.012160080309661"><ele>1006.4</ele><time>2026-04-06T12:14:28Z</time></trkpt><trkpt lat="43.76875845763016" lon="7.012286870476814"><ele>1006.8</ele><time>2026-04-06T12:14:29Z</time></trkpt><trkpt lat="43.76877879718119" lon="7.01240810488142"><ele>1007.1999999999999</ele><time>2026-04-06T12:14:30Z</time></trkpt><trkpt lat="43.76880630028085" lon="7.012528357275135"><ele>1007.5999999999999</ele><time>2026-04-06T12:14:31Z</time></trkpt><trkpt lat="43.768837541495074" lon="7.012647263755542"><ele>1008.0</ele><time>2026-04-06T12:14:32Z</time></trkpt><trkpt lat="43.76888346959107" lon="7.012745996821487"><ele>1008.0</ele><time>2026-04-06T12:14:33Z</time></trkpt><trkpt lat="43.768943172575256" lon="7.012847832795447"><ele>1008.0</ele><time>2026-04-06T12:14:34Z</time></trkpt><trkpt lat="43.76900113740474" lon="7.012944756312592"><ele>1008.0</ele><time>2026-04-06T12:14:35Z</time></trkpt><trkpt lat="43.76904715581706" lon="7.013050487015862"><ele>1008.0</ele><time>2026-04-06T12:14:36Z</time></trkpt><trkpt lat="43.76907407160925" lon="7.013158276923013"><ele>1008.0</ele><time>2026-04-06T12:14:37Z</time></trkpt><trkpt lat="43.76909131074769" lon="7.013278778095491"><ele>1008.0</ele><time>2026-04-06T12:14:38Z</time></trkpt><trkpt lat="43.7691198642439" lon="7.013391546974432"><ele>1006.7142857142858</ele><time>2026-04-06T12:14:39Z</time></trkpt><trkpt lat="43.7691428000475" lon="7.013510448041728"><ele>1005.4285714285714</ele><time>2026-04-06T12:14:40Z</time></trkpt><trkpt lat="43.7691656779996" lon="7.0136153708188935"><ele>1004.1428571428571</ele><time>2026-04-06T12:14:41Z</time></trkpt><trkpt lat="43.769197579006224" lon="7.013709356443087"><ele>1002.8571428571429</ele><time>2026-04-06T12:14:42Z</time></trkpt><trkpt lat="43.76924558016812" lon="7.0137882151401"><ele>1001.5714285714287</ele><time>2026-04-06T12:14:43Z</time></trkpt><trkpt lat="43.76926480175489" lon="7.013872923134913"><ele>1000.2857142857143</ele><time>2026-04-06T12:14:44Z</time></trkpt><trkpt lat="43.76923253378434" lon="7.01395264255947"><ele>999.0</ele><time>2026-04-06T12:14:45Z</time></trkpt><trkpt lat="43.76916252839621" lon="7.0140068917194"><ele>999.0</ele><time>2026-04-06T12:14:46Z</time></trkpt><trkpt lat="43.769082256477716" lon="7.014053437417267"><ele>999.0</ele><time>2026-04-06T12:14:47Z</time></trkpt><trkpt lat="43.76901206060122" lon="7.014096783439379"><ele>999.0</ele><time>2026-04-06T12:14:48Z</time></trkpt><trkpt lat="43.768965813180415" lon="7.014170522718994"><ele>999.0</ele><time>2026-04-06T12:14:49Z</time></trkpt><trkpt lat="43.76893451052449" lon="7.014273702153669"><ele>999.0</ele><time>2026-04-06T12:14:50Z</time></trkpt><trkpt lat="43.768908550330934" lon="7.014370325414111"><ele>999.0</ele><time>2026-04-06T12:14:51Z</time></trkpt><trkpt lat="43.768899959602756" lon="7.01447016255269"><ele>998.0</ele><time>2026-04-06T12:14:52Z</time></trkpt><trkpt lat="43.76889407415448" lon="7.014590567761169"><ele>997.0000000000001</ele><time>2026-04-06T12:14:53Z</time></trkpt><trkpt lat="43.76889774942147" lon="7.014725453332685"><ele>996.0000000000001</ele><time>2026-04-06T12:14:54Z</time></trkpt><trkpt lat="43.76891744244622" lon="7.0148483536596276"><ele>995.0</ele><time>2026-04-06T12:14:55Z</time></trkpt><trkpt lat="43.76894770439773" lon="7.014983443385011"><ele>994.0</ele><time>2026-04-06T12:14:56Z</time></trkpt><trkpt lat="43.7689762779471" lon="7.015109413656984"><ele>993.6</ele><time>2026-04-06T12:14:57Z</time></trkpt><trkpt lat="43.76900248246397" lon="7.015233751522788"><ele>993.2</ele><time>2026-04-06T12:14:58Z</time></trkpt><trkpt lat="43.76900217460621" lon="7.015356437108021"><ele>992.8000000000001</ele><time>2026-04-06T12:14:59Z</time></trkpt><trkpt lat="43.76897391686399" lon="7.015480689971331"><ele>992.4000000000001</ele><time>2026-04-06T12:15:00Z</time></trkpt><trkpt lat="43.7689554797321" lon="7.015608598641258"><ele>992.0</ele><time>2026-04-06T12:15:01Z</time></trkpt><trkpt lat="43.76896874043863" lon="7.015773613827928"><ele>991.2</ele><time>2026-04-06T12:15:02Z</time></trkpt><trkpt lat="43.76898698951714" lon="7.015943285539259"><ele>990.4000000000001</ele><time>2026-04-06T12:15:03Z</time></trkpt><trkpt lat="43.76899686179904" lon="7.016094700328345"><ele>989.5999999999999</ele><time>2026-04-06T12:15:04Z</time></trkpt><trkpt lat="43.76899898053774" lon="7.016236339157142"><ele>988.8</ele><time>2026-04-06T12:15:05Z</time></trkpt><trkpt lat="43.76900231983934" lon="7.016370529112392"><ele>988.0</ele><time>2026-04-06T12:15:06Z</time></trkpt><trkpt lat="43.769019665618835" lon="7.016499537851461"><ele>988.0</ele><time>2026-04-06T12:15:07Z</time></trkpt><trkpt lat="43.769067458771865" lon="7.016614642341886"><ele>988.0</ele><time>2026-04-06T12:15:08Z</time></trkpt><trkpt lat="43.76913857162838" lon="7.016745301923704"><ele>988.0</ele><time>2026-04-06T12:15:09Z</time></trkpt><trkpt lat="43.769190987155255" lon="7.016881263701407"><ele>988.0</ele><time>2026-04-06T12:15:10Z</time></trkpt><trkpt lat="43.7692361323526" lon="7.017023201719626"><ele>988.0</ele><time>2026-04-06T12:15:11Z</time></trkpt><trkpt lat="43.76927190248439" lon="7.01714446443391"><ele>987.7142857142858</ele><time>2026-04-06T12:15:12Z</time></trkpt><trkpt lat="43.769321678683724" lon="7.017221292801696"><ele>987.4285714285713</ele><time>2026-04-06T12:15:13Z</time></trkpt><trkpt lat="43.769391746647045" lon="7.017285247823246"><ele>987.1428571428571</ele><time>2026-04-06T12:15:14Z</time></trkpt><trkpt lat="43.769460626063236" lon="7.0173176142444005"><ele>986.8571428571429</ele><time>2026-04-06T12:15:15Z</time></trkpt><trkpt lat="43.76952294349213" lon="7.017335996001906"><ele>986.5714285714287</ele><time>2026-04-06T12:15:16Z</time></trkpt><trkpt lat="43.76959497454082" lon="7.0173406083260925"><ele>986.2857142857142</ele><time>2026-04-06T12:15:16.999Z</time></trkpt><trkpt lat="43.76966481343312" lon="7.017353424456868"><ele>986.0</ele><time>2026-04-06T12:15:17.999Z</time></trkpt><trkpt lat="43.76977807366145" lon="7.017422775116205"><ele>987.1666666666667</ele><time>2026-04-06T12:15:19.999Z</time></trkpt><trkpt lat="43.7698389323681" lon="7.017460805658512"><ele>988.3333333333334</ele><time>2026-04-06T12:15:20.999Z</time></trkpt><trkpt lat="43.76990038620937" lon="7.017517601004452"><ele>989.5</ele><time>2026-04-06T12:15:21.999Z</time></trkpt><trkpt lat="43.769950990330926" lon="7.017570589082088"><ele>990.6666666666667</ele><time>2026-04-06T12:15:22.999Z</time></trkpt><trkpt lat="43.77002450558751" lon="7.017649204702872"><ele>991.8333333333334</ele><time>2026-04-06T12:15:24.999Z</time></trkpt><trkpt lat="43.77008648358578" lon="7.017698201803945"><ele>993.0</ele><time>2026-04-06T12:15:29.999Z</time></trkpt><trkpt lat="43.77015307219698" lon="7.017807864580223"><ele>993.8333333333334</ele><time>2026-04-06T12:15:32.999Z</time></trkpt><trkpt lat="43.77020409995795" lon="7.017879924380039"><ele>994.6666666666667</ele><time>2026-04-06T12:15:33.999Z</time></trkpt><trkpt lat="43.77030076160245" lon="7.017999434685069"><ele>995.5</ele><time>2026-04-06T12:15:35.999Z</time></trkpt><trkpt lat="43.77035486263073" lon="7.018066669728628"><ele>996.3333333333334</ele><time>2026-04-06T12:15:36.999Z</time></trkpt><trkpt lat="43.77040766078709" lon="7.018153800808864"><ele>997.1666666666667</ele><time>2026-04-06T12:15:37.999Z</time></trkpt><trkpt lat="43.77046724049631" lon="7.01823563230152"><ele>998.0</ele><time>2026-04-06T12:15:38.999Z</time></trkpt><trkpt lat="43.77051691381564" lon="7.018328360384453"><ele>998.0</ele><time>2026-04-06T12:15:39.999Z</time></trkpt><trkpt lat="43.770569240842974" lon="7.018381283609744"><ele>998.0</ele><time>2026-04-06T12:15:40.999Z</time></trkpt><trkpt lat="43.7706462097854" lon="7.018469184319877"><ele>998.0</ele><time>2026-04-06T12:15:42.999Z</time></trkpt><trkpt lat="43.77070949564964" lon="7.018542132753208"><ele>998.0</ele><time>2026-04-06T12:15:43.999Z</time></trkpt><trkpt lat="43.77083627233714" lon="7.018654350586879"><ele>998.0</ele><time>2026-04-06T12:15:45.999Z</time></trkpt><trkpt lat="43.7709204150528" lon="7.018698320889955"><ele>998.0</ele><time>2026-04-06T12:15:46.999Z</time></trkpt><trkpt lat="43.77100829666326" lon="7.018706662993039"><ele>998.0</ele><time>2026-04-06T12:15:47.999Z</time></trkpt><trkpt lat="43.771106092733085" lon="7.018714171270391"><ele>998.0</ele><time>2026-04-06T12:15:48.999Z</time></trkpt><trkpt lat="43.77119422826799" lon="7.018705994761678"><ele>998.0</ele><time>2026-04-06T12:15:49.999Z</time></trkpt><trkpt lat="43.77128313410545" lon="7.018808812308657"><ele>998.0</ele><time>2026-04-06T12:15:51.999Z</time></trkpt><trkpt lat="43.77133660303708" lon="7.0188696993158075"><ele>1000.0</ele><time>2026-04-06T12:15:52.999Z</time></trkpt><trkpt lat="43.771417571891895" lon="7.018907598091124"><ele>1002.0</ele><time>2026-04-06T12:15:55.999Z</time></trkpt><trkpt lat="43.771498307484514" lon="7.018935963945652"><ele>1004.0</ele><time>2026-04-06T12:15:56.999Z</time></trkpt><trkpt lat="43.7715692794136" lon="7.018942584775322"><ele>1006.0</ele><time>2026-04-06T12:15:57.999Z</time></trkpt><trkpt lat="43.77165102826455" lon="7.0189325314136575"><ele>1008.0</ele><time>2026-04-06T12:15:58.999Z</time></trkpt><trkpt lat="43.771526683330876" lon="7.019012481653482"><ele>1008.0</ele><time>2026-04-06T12:15:59.999Z</time></trkpt><trkpt lat="43.77156096130462" lon="7.019090653218853"><ele>1008.0</ele><time>2026-04-06T12:16:10Z</time></trkpt><trkpt lat="43.77151498020391" lon="7.019188187269263"><ele>1008.0</ele><time>2026-04-06T12:16:12Z</time></trkpt><trkpt lat="43.77152087711087" lon="7.019383052248023"><ele>1008.0</ele><time>2026-04-06T12:16:14Z</time></trkpt><trkpt lat="43.77151812510156" lon="7.01950419872083"><ele>1008.0</ele><time>2026-04-06T12:16:15Z</time></trkpt><trkpt lat="43.771505476595884" lon="7.019598991427472"><ele>1008.0</ele><time>2026-04-06T12:16:16Z</time></trkpt><trkpt lat="43.771492715565" lon="7.019690849671715"><ele>1007.5999999999999</ele><time>2026-04-06T12:16:17Z</time></trkpt><trkpt lat="43.77145670234366" lon="7.019785537789083"><ele>1007.1999999999999</ele><time>2026-04-06T12:16:18Z</time></trkpt><trkpt lat="43.771399848520744" lon="7.0198995288052"><ele>1006.8</ele><time>2026-04-06T12:16:19Z</time></trkpt><trkpt lat="43.771353343469194" lon="7.020010334407616"><ele>1006.4</ele><time>2026-04-06T12:16:20Z</time></trkpt><trkpt lat="43.771315761777196" lon="7.02010571524823"><ele>1006.0</ele><time>2026-04-06T12:16:21Z</time></trkpt><trkpt lat="43.771317426972736" lon="7.020268066013154"><ele>1005.9999999999999</ele><time>2026-04-06T12:16:23Z</time></trkpt><trkpt lat="43.77134067786305" lon="7.020352789090565"><ele>1006.0</ele><time>2026-04-06T12:16:24Z</time></trkpt><trkpt lat="43.77135938909582" lon="7.020488689910087"><ele>1006.0</ele><time>2026-04-06T12:16:26Z</time></trkpt><trkpt lat="43.77134299594725" lon="7.020574341255248"><ele>1006.0</ele><time>2026-04-06T12:16:27Z</time></trkpt><trkpt lat="43.77132881410416" lon="7.0206800938231515"><ele>1005.9999999999999</ele><time>2026-04-06T12:16:28Z</time></trkpt><trkpt lat="43.7713152124407" lon="7.020780567247445"><ele>1006.0</ele><time>2026-04-06T12:16:29Z</time></trkpt><trkpt lat="43.7713005846112" lon="7.020877000351613"><ele>1007.0</ele><time>2026-04-06T12:16:30Z</time></trkpt><trkpt lat="43.771224613706686" lon="7.021001401735706"><ele>1008.0</ele><time>2026-04-06T12:16:32Z</time></trkpt><trkpt lat="43.771147906058225" lon="7.0211163592292625"><ele>1009.0</ele><time>2026-04-06T12:16:34Z</time></trkpt><trkpt lat="43.77111935699895" lon="7.021261910897663"><ele>1010.0</ele><time>2026-04-06T12:16:36Z</time></trkpt><trkpt lat="43.77115379758432" lon="7.021431017447627"><ele>1010.0000000000001</ele><time>2026-04-06T12:16:38Z</time></trkpt><trkpt lat="43.77117705085531" lon="7.02155236652253"><ele>1010.0</ele><time>2026-04-06T12:16:39Z</time></trkpt><trkpt lat="43.77119437169347" lon="7.021640438420926"><ele>1010.0</ele><time>2026-04-06T12:16:40Z</time></trkpt><trkpt lat="43.77119496374847" lon="7.021732180054619"><ele>1010.0</ele><time>2026-04-06T12:16:42Z</time></trkpt><trkpt lat="43.77118604859844" lon="7.021601815735995"><ele>1010.0000000000001</ele><time>2026-04-06T12:16:58Z</time></trkpt><trkpt lat="43.7711665217186" lon="7.021518858205753"><ele>1010.0</ele><time>2026-04-06T12:17:00Z</time></trkpt><trkpt lat="43.77114862426855" lon="7.021414175121205"><ele>1010.0</ele><time>2026-04-06T12:17:03Z</time></trkpt><trkpt lat="43.771132620170725" lon="7.021324943963828"><ele>1010.0</ele><time>2026-04-06T12:17:05Z</time></trkpt><trkpt lat="43.77112053102174" lon="7.0212327180134695"><ele>1010.0</ele><time>2026-04-06T12:17:07Z</time></trkpt><trkpt lat="43.77116141094532" lon="7.021098040185434"><ele>1010.0</ele><time>2026-04-06T12:17:10Z</time></trkpt><trkpt lat="43.77123751322513" lon="7.020972451601342"><ele>1010.0</ele><time>2026-04-06T12:17:12Z</time></trkpt><trkpt lat="43.771313005115665" lon="7.020885124714392"><ele>1009.2</ele><time>2026-04-06T12:17:14Z</time></trkpt><trkpt lat="43.771308757820904" lon="7.0207021595596295"><ele>1008.4</ele><time>2026-04-06T12:17:16Z</time></trkpt><trkpt lat="43.771325430789744" lon="7.020598321803644"><ele>1007.5999999999999</ele><time>2026-04-06T12:17:17Z</time></trkpt><trkpt lat="43.771341612200324" lon="7.02051308253218"><ele>1006.8</ele><time>2026-04-06T12:17:18Z</time></trkpt><trkpt lat="43.77134686313529" lon="7.020410300424875"><ele>1006.0</ele><time>2026-04-06T12:17:19Z</time></trkpt><trkpt lat="43.77131797782663" lon="7.020262830018286"><ele>1006.0</ele><time>2026-04-06T12:17:21Z</time></trkpt><trkpt lat="43.77131062778161" lon="7.0201388101991125"><ele>1005.9999999999999</ele><time>2026-04-06T12:17:23Z</time></trkpt><trkpt lat="43.771337015311225" lon="7.020040869947662"><ele>1005.9999999999999</ele><time>2026-04-06T12:17:24Z</time></trkpt><trkpt lat="43.77138019447553" lon="7.019914035518719"><ele>1006.0</ele><time>2026-04-06T12:17:25Z</time></trkpt><trkpt lat="43.771439618559185" lon="7.019774048859448"><ele>1006.0</ele><time>2026-04-06T12:17:26Z</time></trkpt><trkpt lat="43.77149446101085" lon="7.019641994746"><ele>1005.9999999999999</ele><time>2026-04-06T12:17:27Z</time></trkpt><trkpt lat="43.771518895965784" lon="7.019533591176998"><ele>1006.0</ele><time>2026-04-06T12:17:28Z</time></trkpt><trkpt lat="43.77152158213849" lon="7.019433567779183"><ele>1006.0</ele><time>2026-04-06T12:17:29Z</time></trkpt><trkpt lat="43.771516151954856" lon="7.019333764315955"><ele>1006.0</ele><time>2026-04-06T12:17:30Z</time></trkpt><trkpt lat="43.7715138549194" lon="7.019230032874471"><ele>1005.9999999999999</ele><time>2026-04-06T12:17:31Z</time></trkpt><trkpt lat="43.77151872257911" lon="7.019133871326274"><ele>1006.0</ele><time>2026-04-06T12:17:32Z</time></trkpt><trkpt lat="43.77155115896556" lon="7.019025621744294"><ele>1005.9999999999999</ele><time>2026-04-06T12:17:34Z</time></trkpt><trkpt lat="43.77148049873751" lon="7.019014623513659"><ele>1006.0</ele><time>2026-04-06T12:17:38Z</time></trkpt><trkpt lat="43.77142462875712" lon="7.019143115377262"><ele>1006.0</ele><time>2026-04-06T12:17:40Z</time></trkpt><trkpt lat="43.77138914774135" lon="7.019243654153404"><ele>1006.0</ele><time>2026-04-06T12:17:41Z</time></trkpt><trkpt lat="43.771358833634" lon="7.019334128995303"><ele>1005.9999999999999</ele><time>2026-04-06T12:17:42Z</time></trkpt><trkpt lat="43.77134617645638" lon="7.019435147287133"><ele>1006.0</ele><time>2026-04-06T12:17:43Z</time></trkpt><trkpt lat="43.7713462670769" lon="7.0195524119659325"><ele>1006.0</ele><time>2026-04-06T12:17:44Z</time></trkpt><trkpt lat="43.77134342135843" lon="7.019663133359627"><ele>1005.9999999999999</ele><time>2026-04-06T12:17:45Z</time></trkpt><trkpt lat="43.77134155389056" lon="7.0197667136049455"><ele>1005.9999999999999</ele><time>2026-04-06T12:17:46Z</time></trkpt><trkpt lat="43.771336181925946" lon="7.01985436894537"><ele>1006.0</ele><time>2026-04-06T12:17:47Z</time></trkpt><trkpt lat="43.771247797036416" lon="7.02001681385294"><ele>1006.0</ele><time>2026-04-06T12:17:49Z</time></trkpt><trkpt lat="43.771152962338896" lon="7.020082375031984"><ele>1006.0</ele><time>2026-04-06T12:17:50Z</time></trkpt><trkpt lat="43.771052362968135" lon="7.0201440620912505"><ele>1005.9999999999999</ele><time>2026-04-06T12:17:51Z</time></trkpt><trkpt lat="43.77096000341083" lon="7.02022186641523"><ele>1005.9999999999999</ele><time>2026-04-06T12:17:52Z</time></trkpt><trkpt lat="43.77087765902139" lon="7.020297907395358"><ele>1006.0</ele><time>2026-04-06T12:17:53Z</time></trkpt><trkpt lat="43.77081178836832" lon="7.020354598590828"><ele>1006.0</ele><time>2026-04-06T12:17:53.999Z</time></trkpt><trkpt lat="43.77075584223825" lon="7.020517125521065"><ele>1005.3333333333333</ele><time>2026-04-06T12:17:55.999Z</time></trkpt><trkpt lat="43.7707423703601" lon="7.020638718804388"><ele>1004.6666666666666</ele><time>2026-04-06T12:17:56.999Z</time></trkpt><trkpt lat="43.77072443016882" lon="7.020761693614186"><ele>1004.0</ele><time>2026-04-06T12:17:57.999Z</time></trkpt><trkpt lat="43.770718128839725" lon="7.0208751176724045"><ele>1003.3333333333333</ele><time>2026-04-06T12:17:58.999Z</time></trkpt><trkpt lat="43.77071807290032" lon="7.020993440432614"><ele>1002.6666666666666</ele><time>2026-04-06T12:17:59.999Z</time></trkpt><trkpt lat="43.770732902546854" lon="7.021129199312672"><ele>1002.0</ele><time>2026-04-06T12:18:00.999Z</time></trkpt><trkpt lat="43.7707673311791" lon="7.021278380235156"><ele>1002.0</ele><time>2026-04-06T12:18:01.999Z</time></trkpt><trkpt lat="43.77078811402945" lon="7.021413224394367"><ele>1002.0</ele><time>2026-04-06T12:18:02.999Z</time></trkpt><trkpt lat="43.77078508157968" lon="7.021549340009955"><ele>1002.0</ele><time>2026-04-06T12:18:03.999Z</time></trkpt><trkpt lat="43.77074152338938" lon="7.021648142350644"><ele>1002.0</ele><time>2026-04-06T12:18:04.999Z</time></trkpt><trkpt lat="43.77067380956979" lon="7.021724362182557"><ele>1002.0</ele><time>2026-04-06T12:18:05.999Z</time></trkpt><trkpt lat="43.7705642099706" lon="7.021777510454927"><ele>1002.4000000000001</ele><time>2026-04-06T12:18:06.999Z</time></trkpt><trkpt lat="43.77044349241313" lon="7.021830969300738"><ele>1002.8000000000001</ele><time>2026-04-06T12:18:08Z</time></trkpt><trkpt lat="43.77034823575299" lon="7.021897634592426"><ele>1003.2</ele><time>2026-04-06T12:18:09Z</time></trkpt><trkpt lat="43.770284922945415" lon="7.021951651964949"><ele>1003.6</ele><time>2026-04-06T12:18:10Z</time></trkpt><trkpt lat="43.77021123829357" lon="7.02205208279299"><ele>1004.0</ele><time>2026-04-06T12:18:12Z</time></trkpt><trkpt lat="43.77020492377994" lon="7.022149917595662"><ele>1003.25</ele><time>2026-04-06T12:18:13Z</time></trkpt><trkpt lat="43.77018852974267" lon="7.022298780369011"><ele>1002.5</ele><time>2026-04-06T12:18:14Z</time></trkpt><trkpt lat="43.77014341175785" lon="7.022458610025445"><ele>1001.75</ele><time>2026-04-06T12:18:15Z</time></trkpt><trkpt lat="43.77009856768197" lon="7.022618948251017"><ele>1001.0</ele><time>2026-04-06T12:18:16Z</time></trkpt><trkpt lat="43.77005528989344" lon="7.022765644955374"><ele>1001.0</ele><time>2026-04-06T12:18:17Z</time></trkpt><trkpt lat="43.770007121302214" lon="7.022886601897629"><ele>1000.9999999999999</ele><time>2026-04-06T12:18:18Z</time></trkpt><trkpt lat="43.769950782886674" lon="7.022987353479621"><ele>1000.9999999999999</ele><time>2026-04-06T12:18:19Z</time></trkpt><trkpt lat="43.76988164613221" lon="7.023083449606176"><ele>1001.0</ele><time>2026-04-06T12:18:20Z</time></trkpt><trkpt lat="43.76980672823378" lon="7.02320054934753"><ele>1001.0</ele><time>2026-04-06T12:18:21Z</time></trkpt><trkpt lat="43.76975285673196" lon="7.023295215174644"><ele>1001.5000000000001</ele><time>2026-04-06T12:18:22Z</time></trkpt><trkpt lat="43.76969982691054" lon="7.023402958292303"><ele>1002.0</ele><time>2026-04-06T12:18:24Z</time></trkpt><trkpt lat="43.76971907317205" lon="7.0234906840602935"><ele>1002.5</ele><time>2026-04-06T12:18:25Z</time></trkpt><trkpt lat="43.76973496693755" lon="7.023580159158749"><ele>1003.0</ele><time>2026-04-06T12:18:26Z</time></trkpt><trkpt lat="43.76968863455864" lon="7.023741485483068"><ele>1003.5000000000001</ele><time>2026-04-06T12:18:28Z</time></trkpt><trkpt lat="43.76964612970508" lon="7.023842241526032"><ele>1004.0</ele><time>2026-04-06T12:18:29Z</time></trkpt><trkpt lat="43.76960251656595" lon="7.0239458581451"><ele>1004.0</ele><time>2026-04-06T12:18:30Z</time></trkpt><trkpt lat="43.76955777592673" lon="7.024062036931633"><ele>1004.0000000000001</ele><time>2026-04-06T12:18:31Z</time></trkpt><trkpt lat="43.769495065797216" lon="7.024162503886379"><ele>1004.0000000000001</ele><time>2026-04-06T12:18:32Z</time></trkpt><trkpt lat="43.76941834522539" lon="7.0242657038263125"><ele>1004.0</ele><time>2026-04-06T12:18:33Z</time></trkpt><trkpt lat="43.76934950291474" lon="7.024372108114657"><ele>1004.0</ele><time>2026-04-06T12:18:34Z</time></trkpt><trkpt lat="43.76928451799421" lon="7.024481411603366"><ele>1004.8333333333334</ele><time>2026-04-06T12:18:35Z</time></trkpt><trkpt lat="43.769224801894495" lon="7.024590139754053"><ele>1005.6666666666667</ele><time>2026-04-06T12:18:36Z</time></trkpt><trkpt lat="43.76918330211949" lon="7.024681814778827"><ele>1006.5</ele><time>2026-04-06T12:18:37Z</time></trkpt><trkpt lat="43.769162453902275" lon="7.0247674108900275"><ele>1007.3333333333333</ele><time>2026-04-06T12:18:38Z</time></trkpt><trkpt lat="43.76915124460386" lon="7.024868584931587"><ele>1008.1666666666666</ele><time>2026-04-06T12:18:39Z</time></trkpt><trkpt lat="43.76914985415319" lon="7.024976964745409"><ele>1009.0</ele><time>2026-04-06T12:18:40Z</time></trkpt><trkpt lat="43.76916150644396" lon="7.0250964842218"><ele>1010.0</ele><time>2026-04-06T12:18:41Z</time></trkpt><trkpt lat="43.76917762089455" lon="7.025219105570497"><ele>1011.0000000000001</ele><time>2026-04-06T12:18:42Z</time></trkpt><trkpt lat="43.76917383383334" lon="7.025347448463674"><ele>1012.0000000000001</ele><time>2026-04-06T12:18:43Z</time></trkpt><trkpt lat="43.769148875292245" lon="7.025492976810533"><ele>1013.0</ele><time>2026-04-06T12:18:44Z</time></trkpt><trkpt lat="43.769119951354014" lon="7.025656650559304"><ele>1014.0</ele><time>2026-04-06T12:18:45Z</time></trkpt><trkpt lat="43.769097956457834" lon="7.025840220031047"><ele>1015.0</ele><time>2026-04-06T12:18:46Z</time></trkpt><trkpt lat="43.76907705615308" lon="7.025990192810837"><ele>1016.0000000000001</ele><time>2026-04-06T12:18:47Z</time></trkpt><trkpt lat="43.76906064718417" lon="7.026099157188843"><ele>1017.0000000000001</ele><time>2026-04-06T12:18:48Z</time></trkpt><trkpt lat="43.76898853840814" lon="7.026230986689789"><ele>1018.0</ele><time>2026-04-06T12:18:50Z</time></trkpt><trkpt lat="43.76895250031354" lon="7.026333826439553"><ele>1019.0</ele><time>2026-04-06T12:18:51Z</time></trkpt><trkpt lat="43.76889922056898" lon="7.026420250308479"><ele>1019.0000000000001</ele><time>2026-04-06T12:18:52Z</time></trkpt><trkpt lat="43.76885132630155" lon="7.02650806785733"><ele>1019.0</ele><time>2026-04-06T12:18:53Z</time></trkpt><trkpt lat="43.76881351279845" lon="7.026591841400485"><ele>1019.0</ele><time>2026-04-06T12:18:54Z</time></trkpt><trkpt lat="43.76878039248606" lon="7.026670446744334"><ele>1019.0</ele><time>2026-04-06T12:18:55Z</time></trkpt><trkpt lat="43.768719292820265" lon="7.02680743820085"><ele>1019.0000000000001</ele><time>2026-04-06T12:18:57Z</time></trkpt><trkpt lat="43.768669345089876" lon="7.026903810938006"><ele>1019.0</ele><time>2026-04-06T12:18:59Z</time></trkpt><trkpt lat="43.76869700420897" lon="7.0269844323560555"><ele>1020.1666666666667</ele><time>2026-04-06T12:19:12Z</time></trkpt><trkpt lat="43.76875980811756" lon="7.026994887761679"><ele>1021.3333333333334</ele><time>2026-04-06T12:19:22Z</time></trkpt><trkpt lat="43.76884011904808" lon="7.027000973691507"><ele>1022.5</ele><time>2026-04-06T12:19:23Z</time></trkpt><trkpt lat="43.76893159608423" lon="7.02700892624185"><ele>1023.6666666666667</ele><time>2026-04-06T12:19:24Z</time></trkpt><trkpt lat="43.76902535482604" lon="7.027023385563769"><ele>1024.8333333333333</ele><time>2026-04-06T12:19:25Z</time></trkpt><trkpt lat="43.769125291010624" lon="7.027039757427137"><ele>1026.0</ele><time>2026-04-06T12:19:26Z</time></trkpt><trkpt lat="43.769224082224" lon="7.02705448883221"><ele>1026.0</ele><time>2026-04-06T12:19:27Z</time></trkpt><trkpt lat="43.76932331546662" lon="7.027077441512871"><ele>1026.0</ele><time>2026-04-06T12:19:28Z</time></trkpt><trkpt lat="43.76941691408426" lon="7.027098867420749"><ele>1026.0</ele><time>2026-04-06T12:19:29Z</time></trkpt><trkpt lat="43.76950124018125" lon="7.027121488373973"><ele>1026.0</ele><time>2026-04-06T12:19:30Z</time></trkpt><trkpt lat="43.76958082287363" lon="7.027136089769821"><ele>1026.0</ele><time>2026-04-06T12:19:31Z</time></trkpt><trkpt lat="43.7696554395609" lon="7.027153409359958"><ele>1026.0</ele><time>2026-04-06T12:19:32Z</time></trkpt><trkpt lat="43.76972403520491" lon="7.027166799374487"><ele>1027.2</ele><time>2026-04-06T12:19:33Z</time></trkpt><trkpt lat="43.76981742147064" lon="7.027178274866398"><ele>1028.3999999999999</ele><time>2026-04-06T12:19:35Z</time></trkpt><trkpt lat="43.76986394379018" lon="7.027237938994297"><ele>1029.6</ele><time>2026-04-06T12:19:37Z</time></trkpt><trkpt lat="43.76985095127854" lon="7.027388764072634"><ele>1030.8</ele><time>2026-04-06T12:19:39Z</time></trkpt><trkpt lat="43.76984137480249" lon="7.027512059959941"><ele>1032.0</ele><time>2026-04-06T12:19:40Z</time></trkpt><trkpt lat="43.769836364285005" lon="7.027641079715869"><ele>1033.6</ele><time>2026-04-06T12:19:41Z</time></trkpt><trkpt lat="43.769831322174944" lon="7.027758088534558"><ele>1035.2</ele><time>2026-04-06T12:19:42Z</time></trkpt><trkpt lat="43.76982552998912" lon="7.027872774753019"><ele>1036.8</ele><time>2026-04-06T12:19:43Z</time></trkpt><trkpt lat="43.76981264069923" lon="7.028004340749482"><ele>1038.4</ele><time>2026-04-06T12:19:44Z</time></trkpt><trkpt lat="43.76978523302889" lon="7.028133424605821"><ele>1040.0</ele><time>2026-04-06T12:19:45Z</time></trkpt><trkpt lat="43.7697477898603" lon="7.028269872749636"><ele>1041.5</ele><time>2026-04-06T12:19:46Z</time></trkpt><trkpt lat="43.7697192779665" lon="7.028397364287245"><ele>1043.0</ele><time>2026-04-06T12:19:47Z</time></trkpt><trkpt lat="43.76971503055009" lon="7.028517750498184"><ele>1044.5</ele><time>2026-04-06T12:19:48Z</time></trkpt><trkpt lat="43.76973588387875" lon="7.028630455612496"><ele>1046.0</ele><time>2026-04-06T12:19:49Z</time></trkpt><trkpt lat="43.7697639797425" lon="7.0287417490618616"><ele>1047.5</ele><time>2026-04-06T12:19:50Z</time></trkpt><trkpt lat="43.76979048843921" lon="7.028852064799281"><ele>1049.0</ele><time>2026-04-06T12:19:51Z</time></trkpt><trkpt lat="43.769784919780605" lon="7.028962646905321"><ele>1049.0</ele><time>2026-04-06T12:19:52Z</time></trkpt><trkpt lat="43.769788359442344" lon="7.02906899480675"><ele>1049.0</ele><time>2026-04-06T12:19:53Z</time></trkpt><trkpt lat="43.769786463511245" lon="7.029175876057649"><ele>1049.0</ele><time>2026-04-06T12:19:54Z</time></trkpt><trkpt lat="43.76979337184085" lon="7.029297792940521"><ele>1049.0</ele><time>2026-04-06T12:19:54.999Z</time></trkpt><trkpt lat="43.76977268956745" lon="7.02943637702747"><ele>1049.0</ele><time>2026-04-06T12:19:55.999Z</time></trkpt><trkpt lat="43.769761067438985" lon="7.029560772082736"><ele>1049.0</ele><time>2026-04-06T12:19:56.999Z</time></trkpt><trkpt lat="43.76975038982369" lon="7.0297147554485635"><ele>1050.5</ele><time>2026-04-06T12:19:57.999Z</time></trkpt><trkpt lat="43.76972998959202" lon="7.029890969347659"><ele>1052.0</ele><time>2026-04-06T12:19:58.999Z</time></trkpt><trkpt lat="43.769700509995616" lon="7.030084878366582"><ele>1053.5</ele><time>2026-04-06T12:19:59.999Z</time></trkpt><trkpt lat="43.76967267851417" lon="7.030245819272023"><ele>1055.0</ele><time>2026-04-06T12:20:00.999Z</time></trkpt><trkpt lat="43.769652902559535" lon="7.0303786079729065"><ele>1056.1666666666667</ele><time>2026-04-06T12:20:01.999Z</time></trkpt><trkpt lat="43.76963094141301" lon="7.030497498617468"><ele>1057.3333333333335</ele><time>2026-04-06T12:20:02.999Z</time></trkpt><trkpt lat="43.76961986884984" lon="7.030595434525067"><ele>1058.5</ele><time>2026-04-06T12:20:03.999Z</time></trkpt><trkpt lat="43.769608271864485" lon="7.030693003977736"><ele>1059.6666666666667</ele><time>2026-04-06T12:20:04.999Z</time></trkpt><trkpt lat="43.76959890572006" lon="7.030813096750981"><ele>1060.8333333333333</ele><time>2026-04-06T12:20:05.999Z</time></trkpt><trkpt lat="43.76957350245784" lon="7.030948924410712"><ele>1062.0</ele><time>2026-04-06T12:20:06.999Z</time></trkpt><trkpt lat="43.76953578393962" lon="7.0310937565773495"><ele>1064.0</ele><time>2026-04-06T12:20:07.999Z</time></trkpt><trkpt lat="43.76950301383951" lon="7.031232343163232"><ele>1066.0</ele><time>2026-04-06T12:20:08.999Z</time></trkpt><trkpt lat="43.76948183595576" lon="7.031362158342787"><ele>1068.0</ele><time>2026-04-06T12:20:09.999Z</time></trkpt><trkpt lat="43.76947831645199" lon="7.0314974908308825"><ele>1070.0</ele><time>2026-04-06T12:20:10.999Z</time></trkpt><trkpt lat="43.76948214292457" lon="7.031638470336223"><ele>1072.0</ele><time>2026-04-06T12:20:11.999Z</time></trkpt><trkpt lat="43.769486053251676" lon="7.031763961642284"><ele>1073.0</ele><time>2026-04-06T12:20:12.999Z</time></trkpt><trkpt lat="43.76949409767796" lon="7.031881809172706"><ele>1074.0</ele><time>2026-04-06T12:20:14Z</time></trkpt><trkpt lat="43.76951372000456" lon="7.031983135064834"><ele>1075.0</ele><time>2026-04-06T12:20:15Z</time></trkpt><trkpt lat="43.769532025345704" lon="7.032083708488544"><ele>1076.0</ele><time>2026-04-06T12:20:16Z</time></trkpt><trkpt lat="43.769558621717145" lon="7.0321646092275465"><ele>1077.0</ele><time>2026-04-06T12:20:17Z</time></trkpt><trkpt lat="43.76959649375502" lon="7.0322566616740545"><ele>1078.0</ele><time>2026-04-06T12:20:18Z</time></trkpt><trkpt lat="43.76963796411003" lon="7.032370763487957"><ele>1077.5</ele><time>2026-04-06T12:20:19Z</time></trkpt><trkpt lat="43.76968538920146" lon="7.032508311122304"><ele>1077.0</ele><time>2026-04-06T12:20:20Z</time></trkpt><trkpt lat="43.769729772198595" lon="7.032651240592236"><ele>1076.5</ele><time>2026-04-06T12:20:21Z</time></trkpt><trkpt lat="43.76977749502997" lon="7.032800993578187"><ele>1076.0</ele><time>2026-04-06T12:20:22Z</time></trkpt><trkpt lat="43.769826784678045" lon="7.032941613164482"><ele>1076.0</ele><time>2026-04-06T12:20:23Z</time></trkpt><trkpt lat="43.76984552869321" lon="7.033062306443233"><ele>1076.0</ele><time>2026-04-06T12:20:24Z</time></trkpt><trkpt lat="43.76989455877052" lon="7.033151792792524"><ele>1076.0</ele><time>2026-04-06T12:20:25Z</time></trkpt><trkpt lat="43.76992761506705" lon="7.03326190656219"><ele>1076.0</ele><time>2026-04-06T12:20:27Z</time></trkpt><trkpt lat="43.76999368291987" lon="7.033115299186918"><ele>1076.0</ele><time>2026-04-06T12:20:36Z</time></trkpt><trkpt lat="43.76998720898818" lon="7.032954134832704"><ele>1076.0</ele><time>2026-04-06T12:20:38Z</time></trkpt><trkpt lat="43.76997180953108" lon="7.032863881069852"><ele>1076.0</ele><time>2026-04-06T12:20:39Z</time></trkpt><trkpt lat="43.76994323498408" lon="7.032783847417144"><ele>1076.0</ele><time>2026-04-06T12:20:40Z</time></trkpt><trkpt lat="43.76993669638074" lon="7.032685178812786"><ele>1076.0</ele><time>2026-04-06T12:20:41Z</time></trkpt><trkpt lat="43.769925967884326" lon="7.032570075477405"><ele>1076.0</ele><time>2026-04-06T12:20:42Z</time></trkpt><trkpt lat="43.76993072171307" lon="7.032438068245977"><ele>1076.0</ele><time>2026-04-06T12:20:43Z</time></trkpt><trkpt lat="43.76991274148879" lon="7.032295847140164"><ele>1076.3999999999999</ele><time>2026-04-06T12:20:44Z</time></trkpt><trkpt lat="43.76989387363267" lon="7.032158310743685"><ele>1076.8</ele><time>2026-04-06T12:20:45Z</time></trkpt><trkpt lat="43.76988549211879" lon="7.032055461615243"><ele>1077.1999999999998</ele><time>2026-04-06T12:20:46Z</time></trkpt><trkpt lat="43.76988083001461" lon="7.031965254089778"><ele>1077.6</ele><time>2026-04-06T12:20:47Z</time></trkpt><trkpt lat="43.76989075039968" lon="7.031793294181964"><ele>1078.0</ele><time>2026-04-06T12:20:49Z</time></trkpt><trkpt lat="43.76993516414305" lon="7.031627090299851"><ele>1076.8</ele><time>2026-04-06T12:20:51Z</time></trkpt><trkpt lat="43.770004204941465" lon="7.031491015165469"><ele>1075.6</ele><time>2026-04-06T12:20:53Z</time></trkpt><trkpt lat="43.77008572602534" lon="7.031376275868626"><ele>1074.4</ele><time>2026-04-06T12:20:55Z</time></trkpt><trkpt lat="43.77014144028408" lon="7.031307647996483"><ele>1073.2</ele><time>2026-04-06T12:20:56Z</time></trkpt><trkpt lat="43.770204483928396" lon="7.031234313245772"><ele>1072.0</ele><time>2026-04-06T12:20:57Z</time></trkpt><trkpt lat="43.770270543447246" lon="7.031161870345417"><ele>1075.4</ele><time>2026-04-06T12:20:58Z</time></trkpt><trkpt lat="43.77034189640668" lon="7.031095547308571"><ele>1078.8000000000002</ele><time>2026-04-06T12:20:59Z</time></trkpt><trkpt lat="43.77042007754576" lon="7.031027547376251"><ele>1082.2</ele><time>2026-04-06T12:21:00Z</time></trkpt><trkpt lat="43.77050503743431" lon="7.030946960405912"><ele>1085.6000000000001</ele><time>2026-04-06T12:21:01Z</time></trkpt><trkpt lat="43.77058391252539" lon="7.03086764177157"><ele>1089.0</ele><time>2026-04-06T12:21:02Z</time></trkpt><trkpt lat="43.770667617192544" lon="7.03078325472383"><ele>1089.0</ele><time>2026-04-06T12:21:03Z</time></trkpt><trkpt lat="43.770739962761404" lon="7.0307061777891455"><ele>1089.0</ele><time>2026-04-06T12:21:04Z</time></trkpt><trkpt lat="43.77081260859176" lon="7.030628758802767"><ele>1089.0</ele><time>2026-04-06T12:21:05Z</time></trkpt><trkpt lat="43.77088092440747" lon="7.030549187704627"><ele>1089.0</ele><time>2026-04-06T12:21:06Z</time></trkpt><trkpt lat="43.77093640518643" lon="7.030482062667934"><ele>1089.0</ele><time>2026-04-06T12:21:07Z</time></trkpt><trkpt lat="43.770970307200365" lon="7.030407178459777"><ele>1089.0</ele><time>2026-04-06T12:21:08Z</time></trkpt><trkpt lat="43.77101194384107" lon="7.030331995395979"><ele>1091.8333333333333</ele><time>2026-04-06T12:21:09Z</time></trkpt><trkpt lat="43.77104596171045" lon="7.030236769965925"><ele>1094.6666666666667</ele><time>2026-04-06T12:21:10Z</time></trkpt><trkpt lat="43.77107605704162" lon="7.030127940777557"><ele>1097.5</ele><time>2026-04-06T12:21:11Z</time></trkpt><trkpt lat="43.771100128101565" lon="7.030020988394896"><ele>1100.3333333333335</ele><time>2026-04-06T12:21:12Z</time></trkpt><trkpt lat="43.771136537750955" lon="7.029920536954361"><ele>1103.1666666666667</ele><time>2026-04-06T12:21:13Z</time></trkpt><trkpt lat="43.771191167609935" lon="7.029845217514512"><ele>1106.0</ele><time>2026-04-06T12:21:14Z</time></trkpt><trkpt lat="43.77124768306372" lon="7.029767692985491"><ele>1106.0</ele><time>2026-04-06T12:21:15Z</time></trkpt><trkpt lat="43.771295526326334" lon="7.0296887889977935"><ele>1106.0</ele><time>2026-04-06T12:21:16Z</time></trkpt><trkpt lat="43.77133717489093" lon="7.029615749773031"><ele>1106.0</ele><time>2026-04-06T12:21:17Z</time></trkpt><trkpt lat="43.77138647710161" lon="7.029479707006572"><ele>1106.0</ele><time>2026-04-06T12:21:19Z</time></trkpt><trkpt lat="43.77140367361485" lon="7.029326652432255"><ele>1106.0</ele><time>2026-04-06T12:21:21Z</time></trkpt><trkpt lat="43.771489450356896" lon="7.029287143748269"><ele>1106.0</ele><time>2026-04-06T12:21:23Z</time></trkpt><trkpt lat="43.7715384781572" lon="7.029386028973146"><ele>1106.0</ele><time>2026-04-06T12:21:25Z</time></trkpt><trkpt lat="43.77153602306543" lon="7.029503056055682"><ele>1106.0</ele><time>2026-04-06T12:21:27Z</time></trkpt><trkpt lat="43.771489843893285" lon="7.029666997951158"><ele>1106.0</ele><time>2026-04-06T12:21:29Z</time></trkpt><trkpt lat="43.77147130602981" lon="7.02975624009206"><ele>1106.0</ele><time>2026-04-06T12:21:30Z</time></trkpt><trkpt lat="43.77144576879304" lon="7.029871998180072"><ele>1107.6</ele><time>2026-04-06T12:21:31Z</time></trkpt><trkpt lat="43.771421278748996" lon="7.030003739540923"><ele>1109.1999999999998</ele><time>2026-04-06T12:21:32Z</time></trkpt><trkpt lat="43.771390172313005" lon="7.030151985738325"><ele>1110.8000000000002</ele><time>2026-04-06T12:21:33Z</time></trkpt><trkpt lat="43.77136628160597" lon="7.030315754779503"><ele>1112.4</ele><time>2026-04-06T12:21:34Z</time></trkpt><trkpt lat="43.77134719207915" lon="7.030470826408487"><ele>1114.0</ele><time>2026-04-06T12:21:35Z</time></trkpt><trkpt lat="43.77132773388357" lon="7.0306029721929795"><ele>1114.0</ele><time>2026-04-06T12:21:36Z</time></trkpt><trkpt lat="43.77131945271875" lon="7.0307355197040176"><ele>1114.0</ele><time>2026-04-06T12:21:37Z</time></trkpt><trkpt lat="43.771315338450286" lon="7.030866052302637"><ele>1114.0</ele><time>2026-04-06T12:21:38Z</time></trkpt><trkpt lat="43.77129495059642" lon="7.03097646250849"><ele>1114.0</ele><time>2026-04-06T12:21:39Z</time></trkpt><trkpt lat="43.77125935460474" lon="7.031079622914974"><ele>1114.0</ele><time>2026-04-06T12:21:40Z</time></trkpt><trkpt lat="43.77121150130616" lon="7.031183084252189"><ele>1114.0</ele><time>2026-04-06T12:21:41Z</time></trkpt><trkpt lat="43.77116387378594" lon="7.031307973173091"><ele>1115.0</ele><time>2026-04-06T12:21:42Z</time></trkpt><trkpt lat="43.771128445589085" lon="7.0314343125856675"><ele>1116.0</ele><time>2026-04-06T12:21:43Z</time></trkpt><trkpt lat="43.771108292591" lon="7.031553299729572"><ele>1117.0</ele><time>2026-04-06T12:21:44Z</time></trkpt><trkpt lat="43.77110739697697" lon="7.031672729073764"><ele>1118.0</ele><time>2026-04-06T12:21:45Z</time></trkpt><trkpt lat="43.77112148949809" lon="7.031799668144158"><ele>1119.0</ele><time>2026-04-06T12:21:46Z</time></trkpt><trkpt lat="43.77113870554578" lon="7.031938458609736"><ele>1120.25</ele><time>2026-04-06T12:21:47Z</time></trkpt><trkpt lat="43.77112232946022" lon="7.032084598404743"><ele>1121.5</ele><time>2026-04-06T12:21:48Z</time></trkpt><trkpt lat="43.77111889042519" lon="7.0322446534845255"><ele>1122.75</ele><time>2026-04-06T12:21:49Z</time></trkpt><trkpt lat="43.7711014278389" lon="7.032409504412414"><ele>1124.0</ele><time>2026-04-06T12:21:50Z</time></trkpt><trkpt lat="43.77109534044801" lon="7.032577674089487"><ele>1124.5</ele><time>2026-04-06T12:21:51Z</time></trkpt><trkpt lat="43.77109582345043" lon="7.032728955502879"><ele>1125.0</ele><time>2026-04-06T12:21:52Z</time></trkpt><trkpt lat="43.77110102972874" lon="7.032841501226116"><ele>1125.5</ele><time>2026-04-06T12:21:53Z</time></trkpt><trkpt lat="43.77111591040844" lon="7.032952003877693"><ele>1126.0</ele><time>2026-04-06T12:21:55Z</time></trkpt><trkpt lat="43.771159070223504" lon="7.033039499880487"><ele>1126.5</ele><time>2026-04-06T12:22:12.999Z</time></trkpt><trkpt lat="43.77118783661242" lon="7.033123729112652"><ele>1127.0</ele><time>2026-04-06T12:22:14.999Z</time></trkpt><trkpt lat="43.77121953232714" lon="7.033245026550496"><ele>1126.4</ele><time>2026-04-06T12:22:16.999Z</time></trkpt><trkpt lat="43.771269042623786" lon="7.033373488356996"><ele>1125.8000000000002</ele><time>2026-04-06T12:22:19Z</time></trkpt><trkpt lat="43.7712975930053" lon="7.0335160886272865"><ele>1125.2</ele><time>2026-04-06T12:22:21Z</time></trkpt><trkpt lat="43.77135641674844" lon="7.033634213846198"><ele>1124.6000000000001</ele><time>2026-04-06T12:22:23Z</time></trkpt><trkpt lat="43.77140535814894" lon="7.033734233297042"><ele>1124.0</ele><time>2026-04-06T12:22:25Z</time></trkpt><trkpt lat="43.77146058695791" lon="7.033836199024959"><ele>1124.0</ele><time>2026-04-06T12:22:27Z</time></trkpt><trkpt lat="43.771517843394655" lon="7.033967548244024"><ele>1124.0</ele><time>2026-04-06T12:22:29Z</time></trkpt><trkpt lat="43.77157444839135" lon="7.034136907987707"><ele>1124.0</ele><time>2026-04-06T12:22:31Z</time></trkpt><trkpt lat="43.77160319187439" lon="7.034233988594226"><ele>1124.0</ele><time>2026-04-06T12:22:32Z</time></trkpt><trkpt lat="43.77163312580452" lon="7.034340639763471"><ele>1124.0</ele><time>2026-04-06T12:22:33Z</time></trkpt><trkpt lat="43.7716622950873" lon="7.034461414559757"><ele>1122.8333333333335</ele><time>2026-04-06T12:22:34Z</time></trkpt><trkpt lat="43.771691088135725" lon="7.034576422531955"><ele>1121.6666666666667</ele><time>2026-04-06T12:22:35Z</time></trkpt><trkpt lat="43.77171436915675" lon="7.03467550058335"><ele>1120.5</ele><time>2026-04-06T12:22:36Z</time></trkpt><trkpt lat="43.771732688778584" lon="7.034776877095022"><ele>1119.3333333333333</ele><time>2026-04-06T12:22:37Z</time></trkpt><trkpt lat="43.77175282752813" lon="7.034859888464229"><ele>1118.1666666666665</ele><time>2026-04-06T12:22:38Z</time></trkpt><trkpt lat="43.771788825971754" lon="7.035012331235931"><ele>1117.0</ele><time>2026-04-06T12:22:40Z</time></trkpt><trkpt lat="43.77179610428214" lon="7.03518759629624"><ele>1116.5</ele><time>2026-04-06T12:22:42Z</time></trkpt><trkpt lat="43.77179081634131" lon="7.035290958305647"><ele>1116.0</ele><time>2026-04-06T12:22:43Z</time></trkpt><trkpt lat="43.771771636626575" lon="7.035399078112668"><ele>1115.5</ele><time>2026-04-06T12:22:44Z</time></trkpt><trkpt lat="43.77174823467566" lon="7.0355075533359"><ele>1115.0</ele><time>2026-04-06T12:22:45Z</time></trkpt><trkpt lat="43.77172055924841" lon="7.035612778926915"><ele>1114.5</ele><time>2026-04-06T12:22:46Z</time></trkpt><trkpt lat="43.771694163244725" lon="7.03571020619779"><ele>1114.0</ele><time>2026-04-06T12:22:47Z</time></trkpt><trkpt lat="43.77166886061131" lon="7.035795778642225"><ele>1114.4</ele><time>2026-04-06T12:22:48Z</time></trkpt><trkpt lat="43.77162686937313" lon="7.0359354385840405"><ele>1114.8000000000002</ele><time>2026-04-06T12:22:50Z</time></trkpt><trkpt lat="43.7715996005355" lon="7.0360364291092745"><ele>1115.1999999999998</ele><time>2026-04-06T12:22:52Z</time></trkpt><trkpt lat="43.77154152883708" lon="7.036120132883886"><ele>1115.6</ele><time>2026-04-06T12:22:57Z</time></trkpt><trkpt lat="43.77142620754859" lon="7.036240409050146"><ele>1116.0</ele><time>2026-04-06T12:22:59Z</time></trkpt><trkpt lat="43.771372724723115" lon="7.036289112086069"><ele>1116.0</ele><time>2026-04-06T12:23:00Z</time></trkpt><trkpt lat="43.771326135424566" lon="7.036382196517132"><ele>1116.0</ele><time>2026-04-06T12:23:02Z</time></trkpt><trkpt lat="43.77135076083161" lon="7.036493622364085"><ele>1116.0</ele><time>2026-04-06T12:23:04Z</time></trkpt><trkpt lat="43.77136465456667" lon="7.036619520454427"><ele>1116.0</ele><time>2026-04-06T12:23:06Z</time></trkpt><trkpt lat="43.77128866243175" lon="7.0367082841915805"><ele>1116.0</ele><time>2026-04-06T12:23:08Z</time></trkpt><trkpt lat="43.771227673476545" lon="7.036760413424739"><ele>1116.0</ele><time>2026-04-06T12:23:09Z</time></trkpt><trkpt lat="43.77117904969959" lon="7.036823098225964"><ele>1116.1666666666667</ele><time>2026-04-06T12:23:10Z</time></trkpt><trkpt lat="43.77115289522502" lon="7.0369618074526725"><ele>1116.3333333333333</ele><time>2026-04-06T12:23:12Z</time></trkpt><trkpt lat="43.77114496568484" lon="7.037065366188022"><ele>1116.5</ele><time>2026-04-06T12:23:13Z</time></trkpt><trkpt lat="43.771132735655776" lon="7.037180542834345"><ele>1116.6666666666665</ele><time>2026-04-06T12:23:14Z</time></trkpt><trkpt lat="43.77110427599883" lon="7.037293191442893"><ele>1116.8333333333333</ele><time>2026-04-06T12:23:15Z</time></trkpt><trkpt lat="43.771064716565455" lon="7.037391242987107"><ele>1117.0</ele><time>2026-04-06T12:23:16Z</time></trkpt><trkpt lat="43.77102749010546" lon="7.037497084110405"><ele>1118.3333333333333</ele><time>2026-04-06T12:23:17Z</time></trkpt><trkpt lat="43.77100744832886" lon="7.037602396693187"><ele>1119.6666666666665</ele><time>2026-04-06T12:23:18Z</time></trkpt><trkpt lat="43.77099362468755" lon="7.037717377849644"><ele>1121.0</ele><time>2026-04-06T12:23:19Z</time></trkpt><trkpt lat="43.77098362513107" lon="7.037825876859153"><ele>1122.3333333333333</ele><time>2026-04-06T12:23:20Z</time></trkpt><trkpt lat="43.77098440901264" lon="7.037938247937988"><ele>1123.6666666666667</ele><time>2026-04-06T12:23:21Z</time></trkpt><trkpt lat="43.77098503992695" lon="7.038038714720255"><ele>1125.0</ele><time>2026-04-06T12:23:22Z</time></trkpt><trkpt lat="43.77099277772437" lon="7.038142679229472"><ele>1125.0</ele><time>2026-04-06T12:23:23Z</time></trkpt><trkpt lat="43.77099779762148" lon="7.03823897258654"><ele>1125.0</ele><time>2026-04-06T12:23:24Z</time></trkpt><trkpt lat="43.77103394837618" lon="7.038380157618306"><ele>1125.0</ele><time>2026-04-06T12:23:26Z</time></trkpt><trkpt lat="43.77104443845881" lon="7.038502223297756"><ele>1125.0</ele><time>2026-04-06T12:23:28Z</time></trkpt><trkpt lat="43.77100506152452" lon="7.038581089324612"><ele>1125.0</ele><time>2026-04-06T12:23:29Z</time></trkpt><trkpt lat="43.770964941440596" lon="7.0386489379830985"><ele>1125.0</ele><time>2026-04-06T12:23:30Z</time></trkpt><trkpt lat="43.770898604942126" lon="7.03871574596845"><ele>1126.6666666666667</ele><time>2026-04-06T12:23:31Z</time></trkpt><trkpt lat="43.77081461064958" lon="7.0387965117597995"><ele>1128.3333333333333</ele><time>2026-04-06T12:23:32Z</time></trkpt><trkpt lat="43.77074102148671" lon="7.038863204483232"><ele>1130.0</ele><time>2026-04-06T12:23:33Z</time></trkpt><trkpt lat="43.770682978762586" lon="7.03889802826673"><ele>1131.6666666666665</ele><time>2026-04-06T12:23:34Z</time></trkpt><trkpt lat="43.77061303201209" lon="7.038967824751487"><ele>1133.3333333333333</ele><time>2026-04-06T12:23:37Z</time></trkpt><trkpt lat="43.770514423466786" lon="7.039031836384969"><ele>1135.0</ele><time>2026-04-06T12:23:39Z</time></trkpt><trkpt lat="43.77040426000035" lon="7.039006268940525"><ele>1135.0</ele><time>2026-04-06T12:23:41Z</time></trkpt><trkpt lat="43.770340228382466" lon="7.039016001556906"><ele>1135.0</ele><time>2026-04-06T12:23:42Z</time></trkpt><trkpt lat="43.770266971022544" lon="7.039058464610339"><ele>1135.0</ele><time>2026-04-06T12:23:43Z</time></trkpt><trkpt lat="43.770187746931335" lon="7.039104463962632"><ele>1135.0</ele><time>2026-04-06T12:23:44Z</time></trkpt><trkpt lat="43.77011211398664" lon="7.0391663134968026"><ele>1135.0</ele><time>2026-04-06T12:23:45Z</time></trkpt><trkpt lat="43.77003692917757" lon="7.039200418644698"><ele>1135.0</ele><time>2026-04-06T12:23:46Z</time></trkpt><trkpt lat="43.76994931641528" lon="7.039218225556841"><ele>1135.2</ele><time>2026-04-06T12:23:47Z</time></trkpt><trkpt lat="43.76985766536363" lon="7.039229127034506"><ele>1135.4</ele><time>2026-04-06T12:23:48Z</time></trkpt><trkpt lat="43.769749800524195" lon="7.039259196427964"><ele>1135.6</ele><time>2026-04-06T12:23:50Z</time></trkpt><trkpt lat="43.769710410675515" lon="7.03936222728296"><ele>1135.8</ele><time>2026-04-06T12:23:51.999Z</time></trkpt><trkpt lat="43.769711751656985" lon="7.039470202185754"><ele>1136.0</ele><time>2026-04-06T12:23:53.999Z</time></trkpt><trkpt lat="43.76961700598746" lon="7.03949746703408"><ele>1136.0</ele><time>2026-04-06T12:23:55.999Z</time></trkpt><trkpt lat="43.76955293666214" lon="7.039546789552007"><ele>1136.0</ele><time>2026-04-06T12:23:56.999Z</time></trkpt><trkpt lat="43.76949523297809" lon="7.039614453439947"><ele>1136.0</ele><time>2026-04-06T12:23:57.999Z</time></trkpt><trkpt lat="43.769436505401906" lon="7.0396939941573216"><ele>1136.0</ele><time>2026-04-06T12:23:58.999Z</time></trkpt><trkpt lat="43.769379457812256" lon="7.039739148050297"><ele>1136.0</ele><time>2026-04-06T12:23:59.999Z</time></trkpt><trkpt lat="43.76929894509419" lon="7.0398410051641855"><ele>1136.0</ele><time>2026-04-06T12:24:01.999Z</time></trkpt><trkpt lat="43.76925500548932" lon="7.03998350981371"><ele>1136.3333333333335</ele><time>2026-04-06T12:24:03.999Z</time></trkpt><trkpt lat="43.76919595090714" lon="7.04011505516845"><ele>1136.6666666666667</ele><time>2026-04-06T12:24:05.999Z</time></trkpt><trkpt lat="43.76914926004409" lon="7.040201193866862"><ele>1137.0</ele><time>2026-04-06T12:24:07.999Z</time></trkpt><trkpt lat="43.769135290451636" lon="7.040295182832905"><ele>1137.3333333333333</ele><time>2026-04-06T12:24:29Z</time></trkpt><trkpt lat="43.769159712153765" lon="7.040210866680231"><ele>1137.6666666666665</ele><time>2026-04-06T12:24:41Z</time></trkpt><trkpt lat="43.769202502887474" lon="7.040104280634669"><ele>1138.0</ele><time>2026-04-06T12:24:43Z</time></trkpt><trkpt lat="43.76925660476719" lon="7.039979809745346"><ele>1137.6666666666665</ele><time>2026-04-06T12:24:45Z</time></trkpt><trkpt lat="43.769311922890275" lon="7.039820864576307"><ele>1137.3333333333333</ele><time>2026-04-06T12:24:47Z</time></trkpt><trkpt lat="43.76935595704829" lon="7.0397528004478085"><ele>1137.0</ele><time>2026-04-06T12:24:48Z</time></trkpt><trkpt lat="43.76940933336043" lon="7.0397040859505475"><ele>1136.6666666666667</ele><time>2026-04-06T12:24:49Z</time></trkpt><trkpt lat="43.769463960788514" lon="7.039655305838406"><ele>1136.3333333333335</ele><time>2026-04-06T12:24:50Z</time></trkpt><trkpt lat="43.76951893713898" lon="7.039593059985924"><ele>1136.0</ele><time>2026-04-06T12:24:51Z</time></trkpt><trkpt lat="43.76956689870156" lon="7.039524239258725"><ele>1136.0</ele><time>2026-04-06T12:24:52Z</time></trkpt><trkpt lat="43.76962798401111" lon="7.039468179063142"><ele>1136.0</ele><time>2026-04-06T12:24:53Z</time></trkpt><trkpt lat="43.76969101385199" lon="7.039439063367646"><ele>1136.0</ele><time>2026-04-06T12:24:54Z</time></trkpt><trkpt lat="43.769741202434446" lon="7.039320312794829"><ele>1136.0</ele><time>2026-04-06T12:24:57Z</time></trkpt><trkpt lat="43.76981059043417" lon="7.039236827187233"><ele>1136.0</ele><time>2026-04-06T12:24:59Z</time></trkpt><trkpt lat="43.769885666460304" lon="7.039224688870671"><ele>1136.0</ele><time>2026-04-06T12:25:00Z</time></trkpt><trkpt lat="43.76996075593669" lon="7.039215441428973"><ele>1136.0</ele><time>2026-04-06T12:25:01Z</time></trkpt><trkpt lat="43.770061270664456" lon="7.039208877694808"><ele>1136.0</ele><time>2026-04-06T12:25:02Z</time></trkpt><trkpt lat="43.77014114588634" lon="7.039181284388748"><ele>1136.0</ele><time>2026-04-06T12:25:03Z</time></trkpt><trkpt lat="43.77020262295096" lon="7.039141200362803"><ele>1136.0</ele><time>2026-04-06T12:25:04Z</time></trkpt><trkpt lat="43.77026967941493" lon="7.0390804096834865"><ele>1136.0</ele><time>2026-04-06T12:25:05Z</time></trkpt><trkpt lat="43.77034005114101" lon="7.039036617033174"><ele>1136.0</ele><time>2026-04-06T12:25:06Z</time></trkpt><trkpt lat="43.77046012818947" lon="7.039016366663527"><ele>1135.8</ele><time>2026-04-06T12:25:08Z</time></trkpt><trkpt lat="43.770583993790986" lon="7.039027219765713"><ele>1135.6</ele><time>2026-04-06T12:25:10Z</time></trkpt><trkpt lat="43.77068687849314" lon="7.039016296859264"><ele>1135.4</ele><time>2026-04-06T12:25:12Z</time></trkpt><trkpt lat="43.7707601192404" lon="7.039050602585543"><ele>1135.2</ele><time>2026-04-06T12:25:13Z</time></trkpt><trkpt lat="43.770851537091154" lon="7.039089123662833"><ele>1135.0</ele><time>2026-04-06T12:25:14Z</time></trkpt><trkpt lat="43.770947955550035" lon="7.039137579907683"><ele>1136.4</ele><time>2026-04-06T12:25:15Z</time></trkpt><trkpt lat="43.77104985494929" lon="7.039196522376959"><ele>1137.8</ele><time>2026-04-06T12:25:16Z</time></trkpt><trkpt lat="43.771134538586686" lon="7.039272104932363"><ele>1139.2</ele><time>2026-04-06T12:25:17Z</time></trkpt><trkpt lat="43.771207324193966" lon="7.03932830619194"><ele>1140.6</ele><time>2026-04-06T12:25:18Z</time></trkpt><trkpt lat="43.77126976837932" lon="7.039366526089277"><ele>1142.0</ele><time>2026-04-06T12:25:19Z</time></trkpt><trkpt lat="43.77134213927444" lon="7.039477131500757"><ele>1142.0</ele><time>2026-04-06T12:25:21Z</time></trkpt><trkpt lat="43.77137234653507" lon="7.039556562275496"><ele>1142.0</ele><time>2026-04-06T12:25:22Z</time></trkpt><trkpt lat="43.77139058027192" lon="7.039642715463734"><ele>1142.0</ele><time>2026-04-06T12:25:23Z</time></trkpt><trkpt lat="43.77139124651266" lon="7.039759690363658"><ele>1142.0</ele><time>2026-04-06T12:25:24Z</time></trkpt><trkpt lat="43.7713771361265" lon="7.039884001292449"><ele>1142.0</ele><time>2026-04-06T12:25:25Z</time></trkpt><trkpt lat="43.771364128301194" lon="7.0400035796026845"><ele>1142.0</ele><time>2026-04-06T12:25:26Z</time></trkpt><trkpt lat="43.77136817751748" lon="7.04011136478082"><ele>1142.1666666666667</ele><time>2026-04-06T12:25:27Z</time></trkpt><trkpt lat="43.77137937574708" lon="7.040206409532754"><ele>1142.3333333333335</ele><time>2026-04-06T12:25:28Z</time></trkpt><trkpt lat="43.7713726207301" lon="7.040336524418932"><ele>1142.5</ele><time>2026-04-06T12:25:30Z</time></trkpt><trkpt lat="43.771362301164615" lon="7.040430144001748"><ele>1142.6666666666667</ele><time>2026-04-06T12:25:50Z</time></trkpt><trkpt lat="43.77128898487846" lon="7.040508898472115"><ele>1142.8333333333333</ele><time>2026-04-06T12:25:52.999Z</time></trkpt><trkpt lat="43.77135355727194" lon="7.04044568730521"><ele>1143.0</ele><time>2026-04-06T12:26:26.999Z</time></trkpt><trkpt lat="43.771369023788075" lon="7.040358087799121"><ele>1143.0</ele><time>2026-04-06T12:26:29.999Z</time></trkpt><trkpt lat="43.77137700176017" lon="7.040239281826606"><ele>1143.0</ele><time>2026-04-06T12:26:34Z</time></trkpt><trkpt lat="43.77137802844805" lon="7.040140626425374"><ele>1143.0</ele><time>2026-04-06T12:26:36Z</time></trkpt><trkpt lat="43.77137779373822" lon="7.040043111940728"><ele>1143.0</ele><time>2026-04-06T12:26:38Z</time></trkpt><trkpt lat="43.771372731901664" lon="7.039930074307162"><ele>1143.0</ele><time>2026-04-06T12:26:40Z</time></trkpt><trkpt lat="43.77138565076775" lon="7.039799337933091"><ele>1143.0</ele><time>2026-04-06T12:26:42Z</time></trkpt><trkpt lat="43.77139703188245" lon="7.0396560981051834"><ele>1142.8</ele><time>2026-04-06T12:26:44Z</time></trkpt><trkpt lat="43.77136855919219" lon="7.0395171849320155"><ele>1142.6</ele><time>2026-04-06T12:26:46Z</time></trkpt><trkpt lat="43.771293640018776" lon="7.039398877451962"><ele>1142.4</ele><time>2026-04-06T12:26:48Z</time></trkpt><trkpt lat="43.771208788062154" lon="7.03929556431414"><ele>1142.2</ele><time>2026-04-06T12:26:50Z</time></trkpt><trkpt lat="43.77111009177882" lon="7.039252016259532"><ele>1142.0</ele><time>2026-04-06T12:26:52Z</time></trkpt><trkpt lat="43.77102817926085" lon="7.039190100699284"><ele>1142.0</ele><time>2026-04-06T12:26:54Z</time></trkpt><trkpt lat="43.77094139028961" lon="7.039141451061286"><ele>1142.0</ele><time>2026-04-06T12:26:56Z</time></trkpt><trkpt lat="43.77085682246564" lon="7.0390946998933375"><ele>1142.0</ele><time>2026-04-06T12:26:58Z</time></trkpt><trkpt lat="43.77076419961573" lon="7.039067034636845"><ele>1142.0</ele><time>2026-04-06T12:27:00Z</time></trkpt><trkpt lat="43.7706929073784" lon="7.039017868682692"><ele>1142.0</ele><time>2026-04-06T12:27:02Z</time></trkpt><trkpt lat="43.770697627974414" lon="7.038900233584233"><ele>1142.0</ele><time>2026-04-06T12:27:05Z</time></trkpt><trkpt lat="43.770769424228384" lon="7.038831478202381"><ele>1140.8333333333335</ele><time>2026-04-06T12:27:07Z</time></trkpt><trkpt lat="43.770830774144926" lon="7.038785967108847"><ele>1139.6666666666667</ele><time>2026-04-06T12:27:08Z</time></trkpt><trkpt lat="43.77089794471554" lon="7.038723484473722"><ele>1138.5</ele><time>2026-04-06T12:27:09Z</time></trkpt><trkpt lat="43.77095377533355" lon="7.038663108573859"><ele>1137.3333333333333</ele><time>2026-04-06T12:27:10Z</time></trkpt><trkpt lat="43.77101473131961" lon="7.03858891801474"><ele>1136.1666666666665</ele><time>2026-04-06T12:27:12Z</time></trkpt><trkpt lat="43.7710351032281" lon="7.038486449179945"><ele>1135.0</ele><time>2026-04-06T12:27:16Z</time></trkpt><trkpt lat="43.771060244298" lon="7.038393658874593"><ele>1133.3333333333333</ele><time>2026-04-06T12:27:19Z</time></trkpt><trkpt lat="43.771020509159705" lon="7.038293602687076"><ele>1131.6666666666665</ele><time>2026-04-06T12:27:23Z</time></trkpt><trkpt lat="43.770986577462196" lon="7.038217978663452"><ele>1130.0</ele><time>2026-04-06T12:27:25Z</time></trkpt><trkpt lat="43.7709912830328" lon="7.0381082236550805"><ele>1128.3333333333333</ele><time>2026-04-06T12:27:27Z</time></trkpt><trkpt lat="43.770981438781384" lon="7.037988511683923"><ele>1126.6666666666667</ele><time>2026-04-06T12:27:29Z</time></trkpt><trkpt lat="43.770974156804456" lon="7.037852985127253"><ele>1125.0</ele><time>2026-04-06T12:27:31Z</time></trkpt><trkpt lat="43.77099065695047" lon="7.037701152442899"><ele>1125.0</ele><time>2026-04-06T12:27:33Z</time></trkpt><trkpt lat="43.771021002527426" lon="7.037530038142878"><ele>1125.0</ele><time>2026-04-06T12:27:35Z</time></trkpt><trkpt lat="43.77103747261847" lon="7.037437726542646"><ele>1125.0</ele><time>2026-04-06T12:27:36Z</time></trkpt><trkpt lat="43.77106139493355" lon="7.037340058381187"><ele>1125.0</ele><time>2026-04-06T12:27:37Z</time></trkpt><trkpt lat="43.77110079322303" lon="7.037244422225975"><ele>1125.0</ele><time>2026-04-06T12:27:38Z</time></trkpt><trkpt lat="43.771141639547594" lon="7.0371543478665854"><ele>1125.0</ele><time>2026-04-06T12:27:39Z</time></trkpt><trkpt lat="43.77115645290676" lon="7.037057701567376"><ele>1123.857142857143</ele><time>2026-04-06T12:27:40Z</time></trkpt><trkpt lat="43.771160653442074" lon="7.036956275157157"><ele>1122.7142857142858</ele><time>2026-04-06T12:27:41Z</time></trkpt><trkpt lat="43.77117033968596" lon="7.036854785735346"><ele>1121.5714285714287</ele><time>2026-04-06T12:27:42Z</time></trkpt><trkpt lat="43.77119915123204" lon="7.036773547713256"><ele>1120.4285714285716</ele><time>2026-04-06T12:27:43Z</time></trkpt><trkpt lat="43.77125237868717" lon="7.036712969324698"><ele>1119.2857142857142</ele><time>2026-04-06T12:27:44Z</time></trkpt><trkpt lat="43.77131733949532" lon="7.036670168054987"><ele>1118.1428571428573</ele><time>2026-04-06T12:27:45Z</time></trkpt><trkpt lat="43.771373168073964" lon="7.036623866132109"><ele>1117.0</ele><time>2026-04-06T12:27:46Z</time></trkpt><trkpt lat="43.77136980698446" lon="7.036481955313045"><ele>1116.8</ele><time>2026-04-06T12:27:48Z</time></trkpt><trkpt lat="43.77132970877755" lon="7.036377378327763"><ele>1116.6</ele><time>2026-04-06T12:27:49.999Z</time></trkpt><trkpt lat="43.77135932417879" lon="7.036288974271493"><ele>1116.3999999999999</ele><time>2026-04-06T12:27:51.999Z</time></trkpt><trkpt lat="43.77144234820902" lon="7.036239076254707"><ele>1116.2</ele><time>2026-04-06T12:27:53.999Z</time></trkpt><trkpt lat="43.77155953949968" lon="7.036229674251196"><ele>1116.0</ele><time>2026-04-06T12:27:55.999Z</time></trkpt><trkpt lat="43.77167293587496" lon="7.036165144765214"><ele>1116.0</ele><time>2026-04-06T12:27:57.999Z</time></trkpt><trkpt lat="43.771764681370655" lon="7.036105062132251"><ele>1116.0</ele><time>2026-04-06T12:27:58.999Z</time></trkpt><trkpt lat="43.77188493848742" lon="7.036028141359058"><ele>1116.0</ele><time>2026-04-06T12:27:59.999Z</time></trkpt><trkpt lat="43.77198597515215" lon="7.035948719688256"><ele>1116.0</ele><time>2026-04-06T12:28:00.999Z</time></trkpt><trkpt lat="43.77205273861755" lon="7.0358776601648225"><ele>1116.0</ele><time>2026-04-06T12:28:01.999Z</time></trkpt><trkpt lat="43.7721089648498" lon="7.035780824978297"><ele>1117.8</ele><time>2026-04-06T12:28:02.999Z</time></trkpt><trkpt lat="43.77215434027084" lon="7.0356768840175015"><ele>1119.6</ele><time>2026-04-06T12:28:03.999Z</time></trkpt><trkpt lat="43.77219974969565" lon="7.035567197159831"><ele>1121.4</ele><time>2026-04-06T12:28:04.999Z</time></trkpt><trkpt lat="43.77224198201745" lon="7.0354470100488955"><ele>1123.2</ele><time>2026-04-06T12:28:05.999Z</time></trkpt><trkpt lat="43.77227847698775" lon="7.03531534401956"><ele>1125.0</ele><time>2026-04-06T12:28:06.999Z</time></trkpt><trkpt lat="43.77232083761601" lon="7.035175927025893"><ele>1125.0</ele><time>2026-04-06T12:28:07.999Z</time></trkpt><trkpt lat="43.77237042043833" lon="7.035026013709381"><ele>1125.0</ele><time>2026-04-06T12:28:08.999Z</time></trkpt><trkpt lat="43.772412974344874" lon="7.034884061571723"><ele>1125.0</ele><time>2026-04-06T12:28:09.999Z</time></trkpt><trkpt lat="43.77245060726092" lon="7.034752618228452"><ele>1125.0</ele><time>2026-04-06T12:28:10.999Z</time></trkpt><trkpt lat="43.77249043397448" lon="7.0346365116529315"><ele>1125.0</ele><time>2026-04-06T12:28:11.999Z</time></trkpt><trkpt lat="43.77250650432133" lon="7.034538552599896"><ele>1126.1666666666667</ele><time>2026-04-06T12:28:12.999Z</time></trkpt><trkpt lat="43.77249291923969" lon="7.034440225559856"><ele>1127.3333333333333</ele><time>2026-04-06T12:28:13.999Z</time></trkpt><trkpt lat="43.77246097312236" lon="7.034358128434896"><ele>1128.5</ele><time>2026-04-06T12:28:14.999Z</time></trkpt><trkpt lat="43.77235739362185" lon="7.034311235952241"><ele>1129.6666666666665</ele><time>2026-04-06T12:28:16.999Z</time></trkpt><trkpt lat="43.772296844673086" lon="7.034284793533388"><ele>1130.8333333333333</ele><time>2026-04-06T12:28:17.999Z</time></trkpt><trkpt lat="43.772218107043955" lon="7.034233424569133"><ele>1132.0</ele><time>2026-04-06T12:28:18.999Z</time></trkpt><trkpt lat="43.77213846907167" lon="7.034183501180514"><ele>1133.6666666666665</ele><time>2026-04-06T12:28:19.999Z</time></trkpt><trkpt lat="43.77207842646311" lon="7.034111599331858"><ele>1135.3333333333333</ele><time>2026-04-06T12:28:20.999Z</time></trkpt><trkpt lat="43.772036856995285" lon="7.03402962527354"><ele>1137.0</ele><time>2026-04-06T12:28:21.999Z</time></trkpt><trkpt lat="43.77200608449972" lon="7.033934367363518"><ele>1138.6666666666667</ele><time>2026-04-06T12:28:22.999Z</time></trkpt><trkpt lat="43.771981149860395" lon="7.033803256926717"><ele>1140.3333333333335</ele><time>2026-04-06T12:28:23.999Z</time></trkpt><trkpt lat="43.77196156672727" lon="7.03368267872291"><ele>1142.0</ele><time>2026-04-06T12:28:24.999Z</time></trkpt><trkpt lat="43.77195877879719" lon="7.033577644617218"><ele>1142.0</ele><time>2026-04-06T12:28:25.999Z</time></trkpt><trkpt lat="43.77197411912388" lon="7.033490643430696"><ele>1142.0</ele><time>2026-04-06T12:28:26.999Z</time></trkpt><trkpt lat="43.772041267659645" lon="7.03339423594602"><ele>1142.0</ele><time>2026-04-06T12:28:28.999Z</time></trkpt><trkpt lat="43.77212928325487" lon="7.033316744971456"><ele>1142.0</ele><time>2026-04-06T12:28:30.999Z</time></trkpt><trkpt lat="43.77218960786339" lon="7.033233319957086"><ele>1142.0</ele><time>2026-04-06T12:28:32.999Z</time></trkpt><trkpt lat="43.77222842989857" lon="7.033123560621515"><ele>1142.0</ele><time>2026-04-06T12:28:35.999Z</time></trkpt><trkpt lat="43.77224668136898" lon="7.033039562215925"><ele>1142.3333333333335</ele><time>2026-04-06T12:28:38Z</time></trkpt><trkpt lat="43.77228057512914" lon="7.032941774275146"><ele>1142.6666666666667</ele><time>2026-04-06T12:28:57Z</time></trkpt><trkpt lat="43.772303561198875" lon="7.032836758500722"><ele>1143.0</ele><time>2026-04-06T12:28:59Z</time></trkpt><trkpt lat="43.77233589445538" lon="7.032734192559488"><ele>1143.3333333333333</ele><time>2026-04-06T12:29:01Z</time></trkpt><trkpt lat="43.77241793374789" lon="7.032622069385541"><ele>1143.6666666666665</ele><time>2026-04-06T12:29:03Z</time></trkpt><trkpt lat="43.77247781582561" lon="7.032544645489429"><ele>1144.0</ele><time>2026-04-06T12:29:05Z</time></trkpt><trkpt lat="43.77246574499605" lon="7.03244834344708"><ele>1144.2</ele><time>2026-04-06T12:29:08Z</time></trkpt><trkpt lat="43.772429562921374" lon="7.032530735805829"><ele>1144.4</ele><time>2026-04-06T12:29:10Z</time></trkpt><trkpt lat="43.77240691182061" lon="7.032657983520539"><ele>1144.6</ele><time>2026-04-06T12:29:12Z</time></trkpt><trkpt lat="43.77232982795282" lon="7.032745071432746"><ele>1144.8</ele><time>2026-04-06T12:29:14Z</time></trkpt><trkpt lat="43.77228929723642" lon="7.032870525067298"><ele>1145.0</ele><time>2026-04-06T12:29:16Z</time></trkpt><trkpt lat="43.77225752411633" lon="7.03301945351616"><ele>1145.0</ele><time>2026-04-06T12:29:18Z</time></trkpt><trkpt lat="43.77222600618747" lon="7.0331256963891615"><ele>1145.0</ele><time>2026-04-06T12:29:20Z</time></trkpt><trkpt lat="43.77221171109425" lon="7.033221005592272"><ele>1145.0</ele><time>2026-04-06T12:29:24Z</time></trkpt><trkpt lat="43.77214751292639" lon="7.033300397839551"><ele>1145.0</ele><time>2026-04-06T12:29:27Z</time></trkpt><trkpt lat="43.772090579637776" lon="7.033371290765797"><ele>1145.0</ele><time>2026-04-06T12:29:29Z</time></trkpt><trkpt lat="43.77203300259933" lon="7.03345519922269"><ele>1145.0</ele><time>2026-04-06T12:29:31Z</time></trkpt><trkpt lat="43.771971574440435" lon="7.033549233988896"><ele>1144.4</ele><time>2026-04-06T12:29:33Z</time></trkpt><trkpt lat="43.771979762013416" lon="7.033684034727542"><ele>1143.8</ele><time>2026-04-06T12:29:35Z</time></trkpt><trkpt lat="43.77200134605994" lon="7.033816362826965"><ele>1143.2</ele><time>2026-04-06T12:29:37Z</time></trkpt><trkpt lat="43.77202341571186" lon="7.0339411835031544"><ele>1142.6</ele><time>2026-04-06T12:29:39Z</time></trkpt><trkpt lat="43.77207134533471" lon="7.034047741453417"><ele>1142.0</ele><time>2026-04-06T12:29:41Z</time></trkpt><trkpt lat="43.772118914446814" lon="7.034157112341241"><ele>1140.3333333333335</ele><time>2026-04-06T12:29:43Z</time></trkpt><trkpt lat="43.772224815335136" lon="7.034245955160477"><ele>1138.6666666666667</ele><time>2026-04-06T12:29:45Z</time></trkpt><trkpt lat="43.77229470943307" lon="7.034273446963552"><ele>1137.0</ele><time>2026-04-06T12:29:46Z</time></trkpt><trkpt lat="43.7723590223218" lon="7.0343010520617"><ele>1135.3333333333333</ele><time>2026-04-06T12:29:47Z</time></trkpt><trkpt lat="43.772415127830946" lon="7.0343479083455085"><ele>1133.6666666666665</ele><time>2026-04-06T12:29:47.999Z</time></trkpt><trkpt lat="43.77249489547425" lon="7.0344266883105755"><ele>1132.0</ele><time>2026-04-06T12:29:49.999Z</time></trkpt><trkpt lat="43.77250670859682" lon="7.034581360664787"><ele>1132.0</ele><time>2026-04-06T12:29:51.999Z</time></trkpt><trkpt lat="43.7725006334456" lon="7.034671284212581"><ele>1132.0</ele><time>2026-04-06T12:29:52.999Z</time></trkpt><trkpt lat="43.77247215126914" lon="7.034784344583553"><ele>1132.0</ele><time>2026-04-06T12:29:53.999Z</time></trkpt><trkpt lat="43.772422830911715" lon="7.034900583856752"><ele>1132.0</ele><time>2026-04-06T12:29:54.999Z</time></trkpt><trkpt lat="43.772371950177124" lon="7.0350288424749365"><ele>1132.0</ele><time>2026-04-06T12:29:55.999Z</time></trkpt><trkpt lat="43.77233157189847" lon="7.0351483684270235"><ele>1130.8333333333333</ele><time>2026-04-06T12:29:56.999Z</time></trkpt><trkpt lat="43.7723018592097" lon="7.035249355977128"><ele>1129.6666666666665</ele><time>2026-04-06T12:29:57.999Z</time></trkpt><trkpt lat="43.77226977429265" lon="7.035345430833167"><ele>1128.5</ele><time>2026-04-06T12:29:58.999Z</time></trkpt><trkpt lat="43.772236239864725" lon="7.035439355943321"><ele>1127.3333333333333</ele><time>2026-04-06T12:29:59.999Z</time></trkpt><trkpt lat="43.772205479085" lon="7.035527475176093"><ele>1126.1666666666667</ele><time>2026-04-06T12:30:00.999Z</time></trkpt><trkpt lat="43.77217446295118" lon="7.035611228028158"><ele>1125.0</ele><time>2026-04-06T12:30:01.999Z</time></trkpt><trkpt lat="43.772113964668044" lon="7.035760398962124"><ele>1124.1666666666667</ele><time>2026-04-06T12:30:03.999Z</time></trkpt><trkpt lat="43.77207148181505" lon="7.035825376426274"><ele>1123.3333333333333</ele><time>2026-04-06T12:30:04.999Z</time></trkpt><trkpt lat="43.772027692331065" lon="7.035889344286092"><ele>1122.5</ele><time>2026-04-06T12:30:05.999Z</time></trkpt><trkpt lat="43.77197824082895" lon="7.035946349595428"><ele>1121.6666666666665</ele><time>2026-04-06T12:30:06.999Z</time></trkpt><trkpt lat="43.77186827883992" lon="7.036024812281948"><ele>1120.8333333333333</ele><time>2026-04-06T12:30:08.999Z</time></trkpt><trkpt lat="43.77178053019353" lon="7.036064303977666"><ele>1120.0</ele><time>2026-04-06T12:30:10.999Z</time></trkpt><trkpt lat="43.77171069634691" lon="7.0361149146261095"><ele>1119.3333333333333</ele><time>2026-04-06T12:30:12.999Z</time></trkpt><trkpt lat="43.77162897004477" lon="7.036044850345812"><ele>1118.6666666666665</ele><time>2026-04-06T12:30:15.999Z</time></trkpt><trkpt lat="43.771623839343526" lon="7.0359565637382655"><ele>1118.0</ele><time>2026-04-06T12:30:17.999Z</time></trkpt><trkpt lat="43.771641135407364" lon="7.035859479645526"><ele>1117.3333333333333</ele><time>2026-04-06T12:30:20.999Z</time></trkpt><trkpt lat="43.77168462849451" lon="7.035781427971506"><ele>1116.6666666666667</ele><time>2026-04-06T12:30:22.999Z</time></trkpt><trkpt lat="43.771721649521034" lon="7.035651048198148"><ele>1116.0</ele><time>2026-04-06T12:30:24.999Z</time></trkpt><trkpt lat="43.77173585421796" lon="7.035546121392431"><ele>1115.6666666666667</ele><time>2026-04-06T12:30:25.999Z</time></trkpt><trkpt lat="43.77176064310846" lon="7.035429738739911"><ele>1115.3333333333333</ele><time>2026-04-06T12:30:26.999Z</time></trkpt><trkpt lat="43.771778993906054" lon="7.0353358099932395"><ele>1115.0</ele><time>2026-04-06T12:30:27.999Z</time></trkpt><trkpt lat="43.77178812779439" lon="7.035214499439674"><ele>1114.6666666666665</ele><time>2026-04-06T12:30:29.999Z</time></trkpt><trkpt lat="43.77179614289601" lon="7.035127466281482"><ele>1114.3333333333333</ele><time>2026-04-06T12:30:33.999Z</time></trkpt><trkpt lat="43.77179382148895" lon="7.035255977836731"><ele>1114.0</ele><time>2026-04-06T12:30:41.999Z</time></trkpt><trkpt lat="43.77177467329643" lon="7.035410077175778"><ele>1114.0</ele><time>2026-04-06T12:30:44Z</time></trkpt><trkpt lat="43.77174682595208" lon="7.035524753011498"><ele>1114.0</ele><time>2026-04-06T12:30:45Z</time></trkpt><trkpt lat="43.771717423611555" lon="7.03565390306265"><ele>1114.0</ele><time>2026-04-06T12:30:46Z</time></trkpt><trkpt lat="43.77168605431182" lon="7.03575644512444"><ele>1114.0</ele><time>2026-04-06T12:30:47Z</time></trkpt><trkpt lat="43.77165573694159" lon="7.035840478300712"><ele>1114.0</ele><time>2026-04-06T12:30:48Z</time></trkpt><trkpt lat="43.77160271547405" lon="7.035921879704497"><ele>1114.0</ele><time>2026-04-06T12:30:50Z</time></trkpt><trkpt lat="43.77152600926857" lon="7.035820295694501"><ele>1114.0</ele><time>2026-04-06T12:30:52Z</time></trkpt><trkpt lat="43.771484022501525" lon="7.035724736697156"><ele>1114.0</ele><time>2026-04-06T12:30:53Z</time></trkpt><trkpt lat="43.771458917271666" lon="7.0356418565603995"><ele>1114.0</ele><time>2026-04-06T12:30:55Z</time></trkpt><trkpt lat="43.771451324784756" lon="7.035532509926795"><ele>1114.0</ele><time>2026-04-06T12:30:57Z</time></trkpt><trkpt lat="43.77147318631684" lon="7.035420729560114"><ele>1114.0</ele><time>2026-04-06T12:30:59Z</time></trkpt><trkpt lat="43.771484630185086" lon="7.035315386820329"><ele>1114.0</ele><time>2026-04-06T12:31:01Z</time></trkpt><trkpt lat="43.77146775953831" lon="7.035202517917503"><ele>1114.0</ele><time>2026-04-06T12:31:03Z</time></trkpt><trkpt lat="43.77144629625634" lon="7.035075224483018"><ele>1114.0</ele><time>2026-04-06T12:31:05Z</time></trkpt><trkpt lat="43.77143526374773" lon="7.034949742671417"><ele>1114.0</ele><time>2026-04-06T12:31:07Z</time></trkpt><trkpt lat="43.77137704601592" lon="7.034903267337508"><ele>1114.0</ele><time>2026-04-06T12:31:09Z</time></trkpt><trkpt lat="43.77132439070274" lon="7.034808880096093"><ele>1114.0</ele><time>2026-04-06T12:31:11Z</time></trkpt><trkpt lat="43.771272348925564" lon="7.034725397032185"><ele>1114.0</ele><time>2026-04-06T12:31:13Z</time></trkpt><trkpt lat="43.77121680343707" lon="7.03463065280213"><ele>1114.5</ele><time>2026-04-06T12:31:15Z</time></trkpt><trkpt lat="43.77117780949607" lon="7.034553196078087"><ele>1115.0</ele><time>2026-04-06T12:31:17Z</time></trkpt><trkpt lat="43.77112461055518" lon="7.034497551470292"><ele>1115.5</ele><time>2026-04-06T12:31:19Z</time></trkpt><trkpt lat="43.77108532518521" lon="7.034414393641042"><ele>1116.0</ele><time>2026-04-06T12:31:21Z</time></trkpt><trkpt lat="43.77102720182046" lon="7.034340183553526"><ele>1116.5</ele><time>2026-04-06T12:31:23Z</time></trkpt><trkpt lat="43.7709493429249" lon="7.03427862762192"><ele>1117.0</ele><time>2026-04-06T12:31:25Z</time></trkpt><trkpt lat="43.770898286812916" lon="7.034198268270028"><ele>1114.5714285714287</ele><time>2026-04-06T12:31:27Z</time></trkpt><trkpt lat="43.77082447480824" lon="7.034166115241603"><ele>1112.142857142857</ele><time>2026-04-06T12:31:36Z</time></trkpt><trkpt lat="43.77076858486645" lon="7.034110397009031"><ele>1109.7142857142858</ele><time>2026-04-06T12:31:38Z</time></trkpt><trkpt lat="43.77070034736778" lon="7.034068969637419"><ele>1107.2857142857142</ele><time>2026-04-06T12:31:40Z</time></trkpt><trkpt lat="43.77064073206766" lon="7.034016747898204"><ele>1104.857142857143</ele><time>2026-04-06T12:31:48Z</time></trkpt><trkpt lat="43.7705720930016" lon="7.033980587477325"><ele>1102.4285714285716</ele><time>2026-04-06T12:31:51Z</time></trkpt><trkpt lat="43.77050163674954" lon="7.033927032989734"><ele>1100.0</ele><time>2026-04-06T12:31:55Z</time></trkpt><trkpt lat="43.77043073217386" lon="7.033882284230462"><ele>1100.0</ele><time>2026-04-06T12:32:05.999Z</time></trkpt><trkpt lat="43.77035089448279" lon="7.033859831054131"><ele>1100.0</ele><time>2026-04-06T12:32:08.999Z</time></trkpt><trkpt lat="43.770265138718436" lon="7.03381315829314"><ele>1100.0</ele><time>2026-04-06T12:32:11.999Z</time></trkpt><trkpt lat="43.77019037310658" lon="7.033772068014268"><ele>1100.0</ele><time>2026-04-06T12:32:14.999Z</time></trkpt><trkpt lat="43.77011587994646" lon="7.033706052714333"><ele>1100.0</ele><time>2026-04-06T12:32:17.999Z</time></trkpt><trkpt lat="43.7700480354853" lon="7.033633078764378"><ele>1100.0</ele><time>2026-04-06T12:32:20.999Z</time></trkpt><trkpt lat="43.76998910201207" lon="7.033549025476312"><ele>1096.0</ele><time>2026-04-06T12:32:23.999Z</time></trkpt><trkpt lat="43.76997274482695" lon="7.033457973375874"><ele>1092.0</ele><time>2026-04-06T12:32:25.999Z</time></trkpt><trkpt lat="43.76994749128337" lon="7.033324280999729"><ele>1088.0</ele><time>2026-04-06T12:32:28.999Z</time></trkpt><trkpt lat="43.76992273951197" lon="7.033229474528595"><ele>1084.0</ele><time>2026-04-06T12:32:30.999Z</time></trkpt><trkpt lat="43.76987877286157" lon="7.033161486051732"><ele>1080.0</ele><time>2026-04-06T12:32:32.999Z</time></trkpt><trkpt lat="43.76985587211987" lon="7.033060007663322"><ele>1076.0</ele><time>2026-04-06T12:32:34.999Z</time></trkpt><trkpt lat="43.76982452228514" lon="7.032953109683421"><ele>1076.0</ele><time>2026-04-06T12:32:36.999Z</time></trkpt><trkpt lat="43.76978921981369" lon="7.032850139041983"><ele>1076.0</ele><time>2026-04-06T12:32:38.999Z</time></trkpt><trkpt lat="43.769747052352905" lon="7.032729925484637"><ele>1076.0</ele><time>2026-04-06T12:32:40.999Z</time></trkpt><trkpt lat="43.76970302716076" lon="7.032606049517862"><ele>1076.0</ele><time>2026-04-06T12:32:42.999Z</time></trkpt><trkpt lat="43.76966341697733" lon="7.032490455017311"><ele>1076.0</ele><time>2026-04-06T12:32:44.999Z</time></trkpt><trkpt lat="43.769623665383904" lon="7.032331982782018"><ele>1076.2857142857142</ele><time>2026-04-06T12:32:46.999Z</time></trkpt><trkpt lat="43.76959348751412" lon="7.032233472439548"><ele>1076.5714285714287</ele><time>2026-04-06T12:32:47.999Z</time></trkpt><trkpt lat="43.76956338893895" lon="7.032146651602363"><ele>1076.857142857143</ele><time>2026-04-06T12:32:49Z</time></trkpt><trkpt lat="43.769537047999144" lon="7.0320653197015925"><ele>1077.142857142857</ele><time>2026-04-06T12:32:50Z</time></trkpt><trkpt lat="43.769517503060364" lon="7.031978678017019"><ele>1077.4285714285716</ele><time>2026-04-06T12:32:51Z</time></trkpt><trkpt lat="43.76950719382986" lon="7.031886607894534"><ele>1077.7142857142858</ele><time>2026-04-06T12:32:52Z</time></trkpt><trkpt lat="43.769498219603776" lon="7.031795530989865"><ele>1078.0</ele><time>2026-04-06T12:32:53Z</time></trkpt><trkpt lat="43.769493683008996" lon="7.03170679815864"><ele>1076.8</ele><time>2026-04-06T12:32:54Z</time></trkpt><trkpt lat="43.76949028562889" lon="7.031550909760445"><ele>1075.6</ele><time>2026-04-06T12:32:56Z</time></trkpt><trkpt lat="43.76949242590576" lon="7.031403907209073"><ele>1074.4</ele><time>2026-04-06T12:32:58Z</time></trkpt><trkpt lat="43.76949821728217" lon="7.031301551690756"><ele>1073.2</ele><time>2026-04-06T12:33:00Z</time></trkpt><trkpt lat="43.76953428179451" lon="7.03121356606837"><ele>1072.0</ele><time>2026-04-06T12:33:02Z</time></trkpt><trkpt lat="43.769571317855515" lon="7.031067552749838"><ele>1072.0</ele><time>2026-04-06T12:33:04Z</time></trkpt><trkpt lat="43.769593131225164" lon="7.030979977874074"><ele>1072.0</ele><time>2026-04-06T12:33:05Z</time></trkpt><trkpt lat="43.76961251685885" lon="7.030895931741052"><ele>1072.0</ele><time>2026-04-06T12:33:06Z</time></trkpt><trkpt lat="43.76963057425073" lon="7.030797675683391"><ele>1072.0</ele><time>2026-04-06T12:33:07Z</time></trkpt><trkpt lat="43.76964509850523" lon="7.030683911863896"><ele>1072.0</ele><time>2026-04-06T12:33:08Z</time></trkpt><trkpt lat="43.76965740018396" lon="7.030564947065143"><ele>1072.0</ele><time>2026-04-06T12:33:09Z</time></trkpt><trkpt lat="43.76967053967865" lon="7.030436170349772"><ele>1070.0</ele><time>2026-04-06T12:33:10Z</time></trkpt><trkpt lat="43.76968652573712" lon="7.030302407419496"><ele>1068.0</ele><time>2026-04-06T12:33:11Z</time></trkpt><trkpt lat="43.76970614138633" lon="7.030173957358145"><ele>1066.0</ele><time>2026-04-06T12:33:12Z</time></trkpt><trkpt lat="43.769726593767444" lon="7.030050344073986"><ele>1064.0</ele><time>2026-04-06T12:33:13Z</time></trkpt><trkpt lat="43.76974466268717" lon="7.0299384461384955"><ele>1062.0</ele><time>2026-04-06T12:33:14Z</time></trkpt><trkpt lat="43.76976097366458" lon="7.029822864382405"><ele>1061.0</ele><time>2026-04-06T12:33:15Z</time></trkpt><trkpt lat="43.76977395884706" lon="7.02971496167841"><ele>1060.0</ele><time>2026-04-06T12:33:16Z</time></trkpt><trkpt lat="43.76978481615489" lon="7.029610572944439"><ele>1059.0</ele><time>2026-04-06T12:33:17Z</time></trkpt><trkpt lat="43.76979470854234" lon="7.02951119874887"><ele>1058.0</ele><time>2026-04-06T12:33:18Z</time></trkpt><trkpt lat="43.76980335456839" lon="7.029410509624454"><ele>1057.0</ele><time>2026-04-06T12:33:19Z</time></trkpt><trkpt lat="43.769811629622005" lon="7.029310025175263"><ele>1056.0</ele><time>2026-04-06T12:33:20Z</time></trkpt><trkpt lat="43.769818507323926" lon="7.029215634640727"><ele>1055.0</ele><time>2026-04-06T12:33:21Z</time></trkpt><trkpt lat="43.76982198550794" lon="7.029110912275488"><ele>1054.142857142857</ele><time>2026-04-06T12:33:22Z</time></trkpt><trkpt lat="43.769820531244974" lon="7.029004209641735"><ele>1053.2857142857144</ele><time>2026-04-06T12:33:23Z</time></trkpt><trkpt lat="43.76981420053049" lon="7.028899574896545"><ele>1052.4285714285716</ele><time>2026-04-06T12:33:24Z</time></trkpt><trkpt lat="43.76980550283051" lon="7.028808998270274"><ele>1051.5714285714287</ele><time>2026-04-06T12:33:25Z</time></trkpt><trkpt lat="43.76977523601144" lon="7.028714051733885"><ele>1050.7142857142858</ele><time>2026-04-06T12:33:26Z</time></trkpt><trkpt lat="43.769749127376514" lon="7.028617441036651"><ele>1049.857142857143</ele><time>2026-04-06T12:33:27Z</time></trkpt><trkpt lat="43.76972690235142" lon="7.028520940420339"><ele>1049.0</ele><time>2026-04-06T12:33:28Z</time></trkpt><trkpt lat="43.76972088816448" lon="7.02842037783473"><ele>1049.0</ele><time>2026-04-06T12:33:29Z</time></trkpt><trkpt lat="43.769736860343976" lon="7.028310850370832"><ele>1049.0</ele><time>2026-04-06T12:33:30Z</time></trkpt><trkpt lat="43.769772098713815" lon="7.028183322712556"><ele>1049.0</ele><time>2026-04-06T12:33:31Z</time></trkpt><trkpt lat="43.76980185020062" lon="7.028062434721834"><ele>1049.0</ele><time>2026-04-06T12:33:32Z</time></trkpt><trkpt lat="43.76982525015986" lon="7.027962330240792"><ele>1049.0</ele><time>2026-04-06T12:33:33Z</time></trkpt><trkpt lat="43.76983909324" lon="7.0278670804742145"><ele>1049.0</ele><time>2026-04-06T12:33:34Z</time></trkpt><trkpt lat="43.76984360116239" lon="7.027773220371249"><ele>1047.5</ele><time>2026-04-06T12:33:35Z</time></trkpt><trkpt lat="43.76984377765649" lon="7.027683704704828"><ele>1046.0</ele><time>2026-04-06T12:33:36Z</time></trkpt><trkpt lat="43.76984874330735" lon="7.027518349089237"><ele>1044.5</ele><time>2026-04-06T12:33:38Z</time></trkpt><trkpt lat="43.769854661977625" lon="7.0274294650394635"><ele>1043.0</ele><time>2026-04-06T12:33:39Z</time></trkpt><trkpt lat="43.76986543808395" lon="7.027338355311792"><ele>1041.5</ele><time>2026-04-06T12:33:40Z</time></trkpt><trkpt lat="43.769870529908765" lon="7.027216865836594"><ele>1040.0</ele><time>2026-04-06T12:33:42Z</time></trkpt><trkpt lat="43.769774447414726" lon="7.027149792170834"><ele>1038.4</ele><time>2026-04-06T12:33:45Z</time></trkpt><trkpt lat="43.769677063558454" lon="7.02714073406935"><ele>1036.8</ele><time>2026-04-06T12:33:47Z</time></trkpt><trkpt lat="43.76956382871443" lon="7.027138231380664"><ele>1035.2</ele><time>2026-04-06T12:33:49Z</time></trkpt><trkpt lat="43.76944729401952" lon="7.027097503350253"><ele>1033.6</ele><time>2026-04-06T12:33:51Z</time></trkpt><trkpt lat="43.76938425610813" lon="7.027082386138819"><ele>1032.0</ele><time>2026-04-06T12:33:52Z</time></trkpt><trkpt lat="43.7693209845918" lon="7.027079223833295"><ele>1030.5</ele><time>2026-04-06T12:33:53Z</time></trkpt><trkpt lat="43.76920877550529" lon="7.027061397308568"><ele>1029.0</ele><time>2026-04-06T12:33:55Z</time></trkpt><trkpt lat="43.76909024857309" lon="7.027037821000776"><ele>1027.5</ele><time>2026-04-06T12:33:57Z</time></trkpt><trkpt lat="43.76897061684025" lon="7.027019682861809"><ele>1026.0</ele><time>2026-04-06T12:33:59Z</time></trkpt><trkpt lat="43.7688674493225" lon="7.026987631128651"><ele>1026.0</ele><time>2026-04-06T12:34:00.999Z</time></trkpt><trkpt lat="43.768791974021944" lon="7.026965199771651"><ele>1026.0</ele><time>2026-04-06T12:34:02.999Z</time></trkpt><trkpt lat="43.76870615950404" lon="7.026961044815826"><ele>1026.0</ele><time>2026-04-06T12:34:05.999Z</time></trkpt><trkpt lat="43.768641650226705" lon="7.026973763633072"><ele>1026.0</ele><time>2026-04-06T12:34:09.999Z</time></trkpt><trkpt lat="43.76856955535554" lon="7.026909922751746"><ele>1026.0</ele><time>2026-04-06T12:34:13.999Z</time></trkpt><trkpt lat="43.76850750330233" lon="7.0268877258695435"><ele>1026.0</ele><time>2026-04-06T12:34:18.999Z</time></trkpt><trkpt lat="43.76841863859182" lon="7.026886051634858"><ele>1025.0</ele><time>2026-04-06T12:34:22.999Z</time></trkpt><trkpt lat="43.768352126602856" lon="7.0268684465534585"><ele>1024.0</ele><time>2026-04-06T12:34:25.999Z</time></trkpt><trkpt lat="43.76827107083099" lon="7.026822156306365"><ele>1023.0</ele><time>2026-04-06T12:34:28.999Z</time></trkpt><trkpt lat="43.76819157985301" lon="7.026783588897231"><ele>1022.0</ele><time>2026-04-06T12:34:31.999Z</time></trkpt><trkpt lat="43.76811695961697" lon="7.026738018654384"><ele>1021.0</ele><time>2026-04-06T12:34:34.999Z</time></trkpt><trkpt lat="43.76805447137409" lon="7.026694989983378"><ele>1020.0</ele><time>2026-04-06T12:34:37.999Z</time></trkpt><trkpt lat="43.768000271811694" lon="7.026645958270101"><ele>1020.0</ele><time>2026-04-06T12:34:40.999Z</time></trkpt><trkpt lat="43.76792934311666" lon="7.026582282250521"><ele>1020.0</ele><time>2026-04-06T12:34:42.999Z</time></trkpt><trkpt lat="43.76786843839304" lon="7.0265425139933715"><ele>1020.0</ele><time>2026-04-06T12:34:43.999Z</time></trkpt><trkpt lat="43.76779425193592" lon="7.026495596405578"><ele>1020.0</ele><time>2026-04-06T12:34:44.999Z</time></trkpt><trkpt lat="43.76771455722451" lon="7.026433913329129"><ele>1020.0</ele><time>2026-04-06T12:34:45.999Z</time></trkpt><trkpt lat="43.767621965221394" lon="7.026353026322454"><ele>1020.0</ele><time>2026-04-06T12:34:46.999Z</time></trkpt><trkpt lat="43.76750655397884" lon="7.0262754020915255"><ele>1019.5</ele><time>2026-04-06T12:34:47.999Z</time></trkpt><trkpt lat="43.76738086009365" lon="7.0261969822575105"><ele>1019.0</ele><time>2026-04-06T12:34:48.999Z</time></trkpt><trkpt lat="43.76726668637086" lon="7.026109971775472"><ele>1018.5</ele><time>2026-04-06T12:34:49.999Z</time></trkpt><trkpt lat="43.767164949252475" lon="7.02603945558051"><ele>1018.0</ele><time>2026-04-06T12:34:50.999Z</time></trkpt><trkpt lat="43.76706819578667" lon="7.0259674559677405"><ele>1018.0</ele><time>2026-04-06T12:34:51.999Z</time></trkpt><trkpt lat="43.76697788210121" lon="7.0258970354458885"><ele>1018.0</ele><time>2026-04-06T12:34:52.999Z</time></trkpt><trkpt lat="43.76689261862586" lon="7.025836128651302"><ele>1018.0</ele><time>2026-04-06T12:34:54Z</time></trkpt><trkpt lat="43.766811325868424" lon="7.025773680975702"><ele>1018.0</ele><time>2026-04-06T12:34:55Z</time></trkpt><trkpt lat="43.76673733465539" lon="7.025722059135232"><ele>1018.0</ele><time>2026-04-06T12:34:56Z</time></trkpt><trkpt lat="43.766665470276166" lon="7.025670540214061"><ele>1018.2</ele><time>2026-04-06T12:34:57Z</time></trkpt><trkpt lat="43.766599073528376" lon="7.0256211295687425"><ele>1018.4</ele><time>2026-04-06T12:34:58Z</time></trkpt><trkpt lat="43.76652130292968" lon="7.0255673038486925"><ele>1018.6000000000001</ele><time>2026-04-06T12:34:59Z</time></trkpt><trkpt lat="43.76643338855345" lon="7.0254950949056285"><ele>1018.8000000000001</ele><time>2026-04-06T12:35:00Z</time></trkpt><trkpt lat="43.76633614163306" lon="7.025426403301283"><ele>1019.0</ele><time>2026-04-06T12:35:01Z</time></trkpt><trkpt lat="43.7662273732343" lon="7.025349841718161"><ele>1019.0</ele><time>2026-04-06T12:35:02Z</time></trkpt><trkpt lat="43.76612173372904" lon="7.02527533691167"><ele>1019.0</ele><time>2026-04-06T12:35:03Z</time></trkpt><trkpt lat="43.7660218178223" lon="7.025193252545635"><ele>1019.0</ele><time>2026-04-06T12:35:04Z</time></trkpt><trkpt lat="43.76591372528891" lon="7.025111136485911"><ele>1019.0</ele><time>2026-04-06T12:35:05Z</time></trkpt><trkpt lat="43.76580947621608" lon="7.025036153070042"><ele>1019.6</ele><time>2026-04-06T12:35:06Z</time></trkpt><trkpt lat="43.765711350997165" lon="7.024967400038819"><ele>1020.2</ele><time>2026-04-06T12:35:07Z</time></trkpt><trkpt lat="43.76562798761852" lon="7.024900696991509"><ele>1020.8000000000001</ele><time>2026-04-06T12:35:08Z</time></trkpt><trkpt lat="43.765561348858846" lon="7.0248215749321155"><ele>1021.4000000000001</ele><time>2026-04-06T12:35:09Z</time></trkpt><trkpt lat="43.765494125043716" lon="7.024758150226161"><ele>1022.0</ele><time>2026-04-06T12:35:10Z</time></trkpt><trkpt lat="43.76541933633978" lon="7.024732940169906"><ele>1022.0</ele><time>2026-04-06T12:35:11Z</time></trkpt><trkpt lat="43.765339485446916" lon="7.024721086729227"><ele>1022.0</ele><time>2026-04-06T12:35:12Z</time></trkpt><trkpt lat="43.765252397166385" lon="7.024728762172521"><ele>1022.0</ele><time>2026-04-06T12:35:13Z</time></trkpt><trkpt lat="43.76516132107705" lon="7.024737858605884"><ele>1022.0</ele><time>2026-04-06T12:35:14Z</time></trkpt><trkpt lat="43.765054602729414" lon="7.0247619255957785"><ele>1022.0</ele><time>2026-04-06T12:35:15Z</time></trkpt><trkpt lat="43.76496431693882" lon="7.024741918963865"><ele>1021.4285714285714</ele><time>2026-04-06T12:35:16Z</time></trkpt><trkpt lat="43.76488056912216" lon="7.0247454717774085"><ele>1020.8571428571429</ele><time>2026-04-06T12:35:17Z</time></trkpt><trkpt lat="43.76480785546186" lon="7.024748176608879"><ele>1020.2857142857142</ele><time>2026-04-06T12:35:18Z</time></trkpt><trkpt lat="43.764738344814674" lon="7.024730399741884"><ele>1019.7142857142857</ele><time>2026-04-06T12:35:19Z</time></trkpt><trkpt lat="43.76467429050052" lon="7.02470525668142"><ele>1019.1428571428571</ele><time>2026-04-06T12:35:20Z</time></trkpt><trkpt lat="43.764609990284605" lon="7.024669331542905"><ele>1018.5714285714284</ele><time>2026-04-06T12:35:21Z</time></trkpt><trkpt lat="43.764536111256724" lon="7.0246369783934135"><ele>1017.9999999999999</ele><time>2026-04-06T12:35:22Z</time></trkpt><trkpt lat="43.76445549562801" lon="7.024611555572974"><ele>1017.9999999999999</ele><time>2026-04-06T12:35:23Z</time></trkpt><trkpt lat="43.76437905672381" lon="7.024591312280514"><ele>1018.0</ele><time>2026-04-06T12:35:24Z</time></trkpt><trkpt lat="43.76430712842986" lon="7.024558445309408"><ele>1017.9999999999999</ele><time>2026-04-06T12:35:25Z</time></trkpt><trkpt lat="43.76424147651216" lon="7.024520435579864"><ele>1017.9999999999999</ele><time>2026-04-06T12:35:26Z</time></trkpt><trkpt lat="43.764177654543275" lon="7.024480750685525"><ele>1018.0</ele><time>2026-04-06T12:35:27Z</time></trkpt><trkpt lat="43.7641202945277" lon="7.0244346033052185"><ele>1017.9999999999999</ele><time>2026-04-06T12:35:28Z</time></trkpt><trkpt lat="43.7640659773776" lon="7.024389698760832"><ele>1017.9999999999999</ele><time>2026-04-06T12:35:29Z</time></trkpt><trkpt lat="43.76401026968026" lon="7.0243399646283855"><ele>1017.1666666666666</ele><time>2026-04-06T12:35:30Z</time></trkpt><trkpt lat="43.76390324918653" lon="7.024256047810828"><ele>1016.3333333333333</ele><time>2026-04-06T12:35:32Z</time></trkpt><trkpt lat="43.76383544087235" lon="7.0242058590824135"><ele>1015.5</ele><time>2026-04-06T12:35:33Z</time></trkpt><trkpt lat="43.763771161762634" lon="7.024156690561421"><ele>1014.6666666666667</ele><time>2026-04-06T12:35:34Z</time></trkpt><trkpt lat="43.763703585677824" lon="7.024103073592011"><ele>1013.8333333333334</ele><time>2026-04-06T12:35:35Z</time></trkpt><trkpt lat="43.76363339754882" lon="7.0240457410022"><ele>1013.0</ele><time>2026-04-06T12:35:36Z</time></trkpt><trkpt lat="43.76356799005019" lon="7.0239923233289"><ele>1011.1666666666667</ele><time>2026-04-06T12:35:37Z</time></trkpt><trkpt lat="43.76350277182549" lon="7.02395014099739"><ele>1009.3333333333334</ele><time>2026-04-06T12:35:38Z</time></trkpt><trkpt lat="43.763399633895546" lon="7.02388245361569"><ele>1007.5</ele><time>2026-04-06T12:35:40Z</time></trkpt><trkpt lat="43.763314033325365" lon="7.023802042707029"><ele>1005.6666666666667</ele><time>2026-04-06T12:35:42Z</time></trkpt><trkpt lat="43.76326305359267" lon="7.023738517583754"><ele>1003.8333333333334</ele><time>2026-04-06T12:35:44Z</time></trkpt><trkpt lat="43.7631945445291" lon="7.023674911419301"><ele>1002.0</ele><time>2026-04-06T12:35:48Z</time></trkpt><trkpt lat="43.76312573375813" lon="7.023604945348409"><ele>1002.0</ele><time>2026-04-06T12:35:51Z</time></trkpt><trkpt lat="43.76306932783699" lon="7.023518600710137"><ele>1002.0</ele><time>2026-04-06T12:35:54Z</time></trkpt><trkpt lat="43.763027677894094" lon="7.023401055886385"><ele>1002.0</ele><time>2026-04-06T12:35:56Z</time></trkpt><trkpt lat="43.76299266411769" lon="7.02330695163274"><ele>1002.0</ele><time>2026-04-06T12:35:57Z</time></trkpt><trkpt lat="43.76295997680383" lon="7.0231941815119985"><ele>1002.0</ele><time>2026-04-06T12:35:58Z</time></trkpt><trkpt lat="43.76292358070092" lon="7.023087678131993"><ele>1002.0</ele><time>2026-04-06T12:35:59Z</time></trkpt><trkpt lat="43.762887104249856" lon="7.022991023045626"><ele>1001.8333333333334</ele><time>2026-04-06T12:36:00Z</time></trkpt><trkpt lat="43.76285417458342" lon="7.022903350253025"><ele>1001.6666666666667</ele><time>2026-04-06T12:36:01Z</time></trkpt><trkpt lat="43.76278277017464" lon="7.022764510723471"><ele>1001.5</ele><time>2026-04-06T12:36:03Z</time></trkpt><trkpt lat="43.762729003506394" lon="7.02264939940314"><ele>1001.3333333333334</ele><time>2026-04-06T12:36:05Z</time></trkpt><trkpt lat="43.76268727157551" lon="7.022562142529891"><ele>1001.1666666666667</ele><time>2026-04-06T12:36:07Z</time></trkpt><trkpt lat="43.762652113588096" lon="7.0224724057132"><ele>1001.0</ele><time>2026-04-06T12:36:08.999Z</time></trkpt><trkpt lat="43.76261430477089" lon="7.022384022371223"><ele>998.5999999999999</ele><time>2026-04-06T12:36:10.999Z</time></trkpt><trkpt lat="43.7625717031156" lon="7.022259274216447"><ele>996.1999999999999</ele><time>2026-04-06T12:36:12.999Z</time></trkpt><trkpt lat="43.762525708055335" lon="7.0221335334996855"><ele>993.8000000000001</ele><time>2026-04-06T12:36:14.999Z</time></trkpt><trkpt lat="43.76247893011388" lon="7.0220096111130506"><ele>991.4000000000001</ele><time>2026-04-06T12:36:16.999Z</time></trkpt><trkpt lat="43.76244672046824" lon="7.021894269147857"><ele>989.0</ele><time>2026-04-06T12:36:18.999Z</time></trkpt><trkpt lat="43.76241044436968" lon="7.021819026321641"><ele>989.0000000000001</ele><time>2026-04-06T12:36:21.999Z</time></trkpt><trkpt lat="43.7624095745744" lon="7.021721700194235"><ele>989.0</ele><time>2026-04-06T12:36:27.999Z</time></trkpt><trkpt lat="43.76243071697254" lon="7.02161277125612"><ele>989.0</ele><time>2026-04-06T12:36:28.999Z</time></trkpt><trkpt lat="43.76246194136308" lon="7.0215102061196175"><ele>989.0</ele><time>2026-04-06T12:36:29.999Z</time></trkpt><trkpt lat="43.7624215958158" lon="7.021422783912883"><ele>989.0000000000001</ele><time>2026-04-06T12:36:32.999Z</time></trkpt><trkpt lat="43.76234941903716" lon="7.0214330952373825"><ele>989.0</ele><time>2026-04-06T12:36:37.999Z</time></trkpt><trkpt lat="43.762263397035824" lon="7.021408280588883"><ele>989.4285714285713</ele><time>2026-04-06T12:36:40.999Z</time></trkpt><trkpt lat="43.76219682172633" lon="7.021401069618206"><ele>989.8571428571428</ele><time>2026-04-06T12:36:46.999Z</time></trkpt><trkpt lat="43.76214812793068" lon="7.021333341760421"><ele>990.2857142857142</ele><time>2026-04-06T12:37:15Z</time></trkpt><trkpt lat="43.762080281388755" lon="7.021337640195611"><ele>990.7142857142858</ele><time>2026-04-06T12:37:20Z</time></trkpt><trkpt lat="43.76198785093767" lon="7.021265158022348"><ele>991.1428571428572</ele><time>2026-04-06T12:37:22Z</time></trkpt><trkpt lat="43.7619807278453" lon="7.021166062015316"><ele>991.5714285714287</ele><time>2026-04-06T12:37:29Z</time></trkpt><trkpt lat="43.76199675762243" lon="7.021254428820494"><ele>992.0</ele><time>2026-04-06T12:37:32Z</time></trkpt><trkpt lat="43.761928383347986" lon="7.021239760706366"><ele>992.0</ele><time>2026-04-06T12:37:36Z</time></trkpt><trkpt lat="43.761879540177716" lon="7.021326177451858"><ele>992.0000000000001</ele><time>2026-04-06T12:37:44Z</time></trkpt><trkpt lat="43.76183158870066" lon="7.02139388406132"><ele>992.0</ele><time>2026-04-06T12:37:46Z</time></trkpt><trkpt lat="43.76178684692458" lon="7.021456216469227"><ele>992.0</ele><time>2026-04-06T12:37:48Z</time></trkpt><trkpt lat="43.76170016227531" lon="7.0214366249255695"><ele>992.0000000000001</ele><time>2026-04-06T12:37:54Z</time></trkpt><trkpt lat="43.76163915436979" lon="7.021410982440499"><ele>992.0</ele><time>2026-04-06T12:37:58Z</time></trkpt><trkpt lat="43.76158281998689" lon="7.021455767378629"><ele>992.0</ele><time>2026-04-06T12:38:02Z</time></trkpt><trkpt lat="43.76152519823347" lon="7.021416189686454"><ele>990.0000000000001</ele><time>2026-04-06T12:38:13.999Z</time></trkpt><trkpt lat="43.76147457693508" lon="7.021361345156981"><ele>988.0</ele><time>2026-04-06T12:38:17.999Z</time></trkpt><trkpt lat="43.76145167316262" lon="7.02126585524935"><ele>986.0</ele><time>2026-04-06T12:38:18.999Z</time></trkpt><trkpt lat="43.76144063104446" lon="7.0211480037467195"><ele>984.0</ele><time>2026-04-06T12:38:19.999Z</time></trkpt><trkpt lat="43.76142319932878" lon="7.021023714907483"><ele>982.0000000000001</ele><time>2026-04-06T12:38:20.999Z</time></trkpt><trkpt lat="43.76140633027731" lon="7.02092902332808"><ele>980.0</ele><time>2026-04-06T12:38:21.999Z</time></trkpt><trkpt lat="43.761361435519824" lon="7.020843275201429"><ele>980.0</ele><time>2026-04-06T12:38:23.999Z</time></trkpt><trkpt lat="43.7612854049684" lon="7.020819990667153"><ele>980.0</ele><time>2026-04-06T12:38:25.999Z</time></trkpt><trkpt lat="43.76121825060456" lon="7.020808665969093"><ele>980.0</ele><time>2026-04-06T12:38:27.999Z</time></trkpt><trkpt lat="43.761148338218646" lon="7.020810657553265"><ele>980.0</ele><time>2026-04-06T12:38:30.999Z</time></trkpt><trkpt lat="43.76107932919097" lon="7.020776809028766"><ele>980.0</ele><time>2026-04-06T12:38:33.999Z</time></trkpt><trkpt lat="43.761038828217465" lon="7.020686466881958"><ele>980.0</ele><time>2026-04-06T12:38:35.999Z</time></trkpt><trkpt lat="43.761012270363445" lon="7.020581092159954"><ele>980.0</ele><time>2026-04-06T12:38:37.999Z</time></trkpt><trkpt lat="43.76098183070753" lon="7.020455544245373"><ele>977.2</ele><time>2026-04-06T12:38:39.999Z</time></trkpt><trkpt lat="43.760919536793885" lon="7.020321181464517"><ele>974.4</ele><time>2026-04-06T12:38:41.999Z</time></trkpt><trkpt lat="43.76085690240767" lon="7.02025124392864"><ele>971.5999999999999</ele><time>2026-04-06T12:38:43.999Z</time></trkpt><trkpt lat="43.7608059250377" lon="7.020184897043844"><ele>968.8</ele><time>2026-04-06T12:38:45.999Z</time></trkpt><trkpt lat="43.760715420406335" lon="7.0201136069106616"><ele>966.0</ele><time>2026-04-06T12:38:48.999Z</time></trkpt><trkpt lat="43.76066873572907" lon="7.0200168128713445"><ele>966.8</ele><time>2026-04-06T12:38:50.999Z</time></trkpt><trkpt lat="43.76059977906952" lon="7.019942616906111"><ele>967.5999999999999</ele><time>2026-04-06T12:38:53.999Z</time></trkpt><trkpt lat="43.760509253816856" lon="7.019913191428815"><ele>968.4</ele><time>2026-04-06T12:38:55.999Z</time></trkpt><trkpt lat="43.760375309284164" lon="7.0199190946476495"><ele>969.2</ele><time>2026-04-06T12:38:57.999Z</time></trkpt><trkpt lat="43.76030895082403" lon="7.019933306545244"><ele>970.0</ele><time>2026-04-06T12:38:58.999Z</time></trkpt><trkpt lat="43.760262312376696" lon="7.019805968070121"><ele>967.5</ele><time>2026-04-06T12:39:01.999Z</time></trkpt><trkpt lat="43.760178546745216" lon="7.019671202234652"><ele>965.0</ele><time>2026-04-06T12:39:03.999Z</time></trkpt><trkpt lat="43.760090349553586" lon="7.019655470073442"><ele>962.5</ele><time>2026-04-06T12:39:04.999Z</time></trkpt><trkpt lat="43.75997573832893" lon="7.019657794814613"><ele>960.0</ele><time>2026-04-06T12:39:06Z</time></trkpt><trkpt lat="43.759841955671796" lon="7.01967249352691"><ele>960.0</ele><time>2026-04-06T12:39:07Z</time></trkpt><trkpt lat="43.759708925829" lon="7.019688911540434"><ele>960.0</ele><time>2026-04-06T12:39:08Z</time></trkpt><trkpt lat="43.75959791356883" lon="7.019708408894959"><ele>960.0</ele><time>2026-04-06T12:39:09Z</time></trkpt><trkpt lat="43.75950890028556" lon="7.019723343965954"><ele>960.0</ele><time>2026-04-06T12:39:10Z</time></trkpt><trkpt lat="43.759435535353425" lon="7.0197436476969015"><ele>960.0</ele><time>2026-04-06T12:39:11Z</time></trkpt><trkpt lat="43.75950276875468" lon="7.019687365332155"><ele>960.0</ele><time>2026-04-06T12:39:17Z</time></trkpt><trkpt lat="43.759580182901814" lon="7.019702965296777"><ele>960.0</ele><time>2026-04-06T12:39:18Z</time></trkpt><trkpt lat="43.7596573307385" lon="7.019604529058474"><ele>960.0</ele><time>2026-04-06T12:39:20Z</time></trkpt><trkpt lat="43.75958977420851" lon="7.019461228126542"><ele>960.0</ele><time>2026-04-06T12:39:22Z</time></trkpt><trkpt lat="43.75951292658724" lon="7.019391440155489"><ele>960.0</ele><time>2026-04-06T12:39:23Z</time></trkpt><trkpt lat="43.75941209762373" lon="7.0193402098222215"><ele>960.1666666666666</ele><time>2026-04-06T12:39:24Z</time></trkpt><trkpt lat="43.75932332730811" lon="7.019327234513409"><ele>960.3333333333333</ele><time>2026-04-06T12:39:25Z</time></trkpt><trkpt lat="43.759251227734644" lon="7.0193213228906135"><ele>960.5</ele><time>2026-04-06T12:39:26Z</time></trkpt><trkpt lat="43.75918609673233" lon="7.0193301344419705"><ele>960.6666666666666</ele><time>2026-04-06T12:39:27Z</time></trkpt><trkpt lat="43.7591228473456" lon="7.019369881449514"><ele>960.8333333333333</ele><time>2026-04-06T12:39:28Z</time></trkpt><trkpt lat="43.75904722037004" lon="7.019391431168502"><ele>961.0</ele><time>2026-04-06T12:39:29Z</time></trkpt><trkpt lat="43.75895578597947" lon="7.019357209938895"><ele>961.0</ele><time>2026-04-06T12:39:30Z</time></trkpt><trkpt lat="43.75883368465404" lon="7.019304735463986"><ele>961.0</ele><time>2026-04-06T12:39:31Z</time></trkpt><trkpt lat="43.75870896018123" lon="7.019268599058977"><ele>961.0</ele><time>2026-04-06T12:39:32Z</time></trkpt><trkpt lat="43.75860185095607" lon="7.019218347215302"><ele>961.0</ele><time>2026-04-06T12:39:33Z</time></trkpt><trkpt lat="43.75850791989762" lon="7.019170182757209"><ele>960.1666666666666</ele><time>2026-04-06T12:39:34Z</time></trkpt><trkpt lat="43.758425522927986" lon="7.019123340181264"><ele>959.3333333333333</ele><time>2026-04-06T12:39:35Z</time></trkpt><trkpt lat="43.7583562640278" lon="7.019079543145528"><ele>958.5</ele><time>2026-04-06T12:39:36Z</time></trkpt><trkpt lat="43.758292386287906" lon="7.019027642351014"><ele>957.6666666666667</ele><time>2026-04-06T12:39:37Z</time></trkpt><trkpt lat="43.75818966686027" lon="7.018952316586252"><ele>956.8333333333334</ele><time>2026-04-06T12:39:39Z</time></trkpt><trkpt lat="43.75810609685533" lon="7.018938660990099"><ele>956.0</ele><time>2026-04-06T12:39:41Z</time></trkpt><trkpt lat="43.75806657017124" lon="7.019021085679592"><ele>956.0000000000001</ele><time>2026-04-06T12:39:44Z</time></trkpt><trkpt lat="43.7580826854957" lon="7.019125918072055"><ele>956.0</ele><time>2026-04-06T12:39:46Z</time></trkpt><trkpt lat="43.75807691657518" lon="7.019229048287088"><ele>956.0</ele><time>2026-04-06T12:39:47Z</time></trkpt><trkpt lat="43.758072139042035" lon="7.019370667561144"><ele>956.0</ele><time>2026-04-06T12:39:48Z</time></trkpt><trkpt lat="43.75806119303046" lon="7.01950841327807"><ele>956.0000000000001</ele><time>2026-04-06T12:39:49Z</time></trkpt><trkpt lat="43.7580407969459" lon="7.019630876263679"><ele>956.0</ele><time>2026-04-06T12:39:50Z</time></trkpt><trkpt lat="43.75802384850334" lon="7.019739386213496"><ele>955.8333333333334</ele><time>2026-04-06T12:39:51Z</time></trkpt><trkpt lat="43.75801440755133" lon="7.019848501356512"><ele>955.6666666666667</ele><time>2026-04-06T12:39:52Z</time></trkpt><trkpt lat="43.75802028643406" lon="7.01994486386799"><ele>955.5</ele><time>2026-04-06T12:39:53Z</time></trkpt><trkpt lat="43.7580492042395" lon="7.020044388896043"><ele>955.3333333333333</ele><time>2026-04-06T12:39:54Z</time></trkpt><trkpt lat="43.75807878296136" lon="7.020143307217486"><ele>955.1666666666666</ele><time>2026-04-06T12:39:55Z</time></trkpt><trkpt lat="43.758069959544606" lon="7.020315381429671"><ele>955.0</ele><time>2026-04-06T12:39:57Z</time></trkpt><trkpt lat="43.758056405961284" lon="7.020412160307052"><ele>954.2</ele><time>2026-04-06T12:39:58Z</time></trkpt><trkpt lat="43.758049749304355" lon="7.020515521246032"><ele>953.4</ele><time>2026-04-06T12:39:59Z</time></trkpt><trkpt lat="43.75802787300292" lon="7.020625664486737"><ele>952.5999999999999</ele><time>2026-04-06T12:40:00Z</time></trkpt><trkpt lat="43.757987139633094" lon="7.0207106193807345"><ele>951.8</ele><time>2026-04-06T12:40:01Z</time></trkpt><trkpt lat="43.757955772676915" lon="7.0208336491711005"><ele>951.0</ele><time>2026-04-06T12:40:02Z</time></trkpt><trkpt lat="43.75792790337497" lon="7.0210156542242395"><ele>950.0</ele><time>2026-04-06T12:40:03Z</time></trkpt><trkpt lat="43.757896592631916" lon="7.0211985388505695"><ele>948.9999999999999</ele><time>2026-04-06T12:40:04Z</time></trkpt><trkpt lat="43.75786680362051" lon="7.021361147521748"><ele>947.9999999999999</ele><time>2026-04-06T12:40:05Z</time></trkpt><trkpt lat="43.75784248236099" lon="7.021499308026123"><ele>947.0</ele><time>2026-04-06T12:40:06Z</time></trkpt><trkpt lat="43.757820977704625" lon="7.021613435287074"><ele>946.0</ele><time>2026-04-06T12:40:07Z</time></trkpt><trkpt lat="43.757772828995435" lon="7.0217267245558475"><ele>945.4999999999999</ele><time>2026-04-06T12:40:09Z</time></trkpt><trkpt lat="43.757694195897535" lon="7.021754584675685"><ele>945.0</ele><time>2026-04-06T12:40:11Z</time></trkpt><trkpt lat="43.757706141468276" lon="7.02189047200082"><ele>944.5</ele><time>2026-04-06T12:40:13Z</time></trkpt><trkpt lat="43.75773991397433" lon="7.021971870233589"><ele>944.0</ele><time>2026-04-06T12:40:14Z</time></trkpt><trkpt lat="43.75776828497332" lon="7.022122621845956"><ele>943.4999999999999</ele><time>2026-04-06T12:40:15.999Z</time></trkpt><trkpt lat="43.757750560088624" lon="7.022207103267998"><ele>943.0</ele><time>2026-04-06T12:40:16.999Z</time></trkpt><trkpt lat="43.757726713960416" lon="7.02237096990034"><ele>942.4999999999999</ele><time>2026-04-06T12:40:18.999Z</time></trkpt><trkpt lat="43.7576961575029" lon="7.022507866610585"><ele>942.0</ele><time>2026-04-06T12:40:20.999Z</time></trkpt><trkpt lat="43.75774754559101" lon="7.022621043008876"><ele>941.5</ele><time>2026-04-06T12:40:23.999Z</time></trkpt><trkpt lat="43.75781734430104" lon="7.022693971109124"><ele>941.0</ele><time>2026-04-06T12:40:25.999Z</time></trkpt><trkpt lat="43.75787396713859" lon="7.022781407074306"><ele>940.4999999999999</ele><time>2026-04-06T12:40:28.999Z</time></trkpt><trkpt lat="43.75785867986244" lon="7.022876105881912"><ele>940.0</ele><time>2026-04-06T12:40:29.999Z</time></trkpt><trkpt lat="43.75785850480243" lon="7.022997263015987"><ele>940.0</ele><time>2026-04-06T12:40:31.999Z</time></trkpt><trkpt lat="43.757901892036635" lon="7.023102464135988"><ele>940.0</ele><time>2026-04-06T12:40:33.999Z</time></trkpt><trkpt lat="43.757881776297104" lon="7.023185360513787"><ele>940.0</ele><time>2026-04-06T12:40:34.999Z</time></trkpt><trkpt lat="43.75788059924168" lon="7.023320271960884"><ele>940.0</ele><time>2026-04-06T12:40:36.999Z</time></trkpt><trkpt lat="43.757860530990364" lon="7.023484021080809"><ele>940.0</ele><time>2026-04-06T12:40:38.999Z</time></trkpt><trkpt lat="43.757783584288084" lon="7.023618016952914"><ele>939.6666666666666</ele><time>2026-04-06T12:40:40.999Z</time></trkpt><trkpt lat="43.75775296802559" lon="7.0237531327446625"><ele>939.3333333333333</ele><time>2026-04-06T12:40:42.999Z</time></trkpt><trkpt lat="43.7577490367722" lon="7.023840266558643"><ele>939.0</ele><time>2026-04-06T12:40:43.999Z</time></trkpt><trkpt lat="43.757749555320885" lon="7.02396313284976"><ele>938.6666666666667</ele><time>2026-04-06T12:40:45.999Z</time></trkpt><trkpt lat="43.75771182998681" lon="7.02407952807786"><ele>938.3333333333334</ele><time>2026-04-06T12:40:48.999Z</time></trkpt><trkpt lat="43.757709038489395" lon="7.024172849101351"><ele>938.0</ele><time>2026-04-06T12:40:50.999Z</time></trkpt><trkpt lat="43.75770289244245" lon="7.024264028991123"><ele>937.8333333333334</ele><time>2026-04-06T12:40:52.999Z</time></trkpt><trkpt lat="43.75772520206352" lon="7.024368043800196"><ele>937.6666666666667</ele><time>2026-04-06T12:40:54.999Z</time></trkpt><trkpt lat="43.75777683173902" lon="7.0244801623210735"><ele>937.5</ele><time>2026-04-06T12:40:56.999Z</time></trkpt><trkpt lat="43.75779348821374" lon="7.024605640230873"><ele>937.3333333333333</ele><time>2026-04-06T12:40:58.999Z</time></trkpt><trkpt lat="43.75782386560086" lon="7.024752652158636"><ele>937.1666666666666</ele><time>2026-04-06T12:41:00.999Z</time></trkpt><trkpt lat="43.757827103178485" lon="7.0248520375498265"><ele>937.0</ele><time>2026-04-06T12:41:01.999Z</time></trkpt><trkpt lat="43.75781742780547" lon="7.02496195283024"><ele>937.2</ele><time>2026-04-06T12:41:02.999Z</time></trkpt><trkpt lat="43.75780690193796" lon="7.02507471859812"><ele>937.4000000000001</ele><time>2026-04-06T12:41:03.999Z</time></trkpt><trkpt lat="43.757812144400354" lon="7.025192281305098"><ele>937.5999999999999</ele><time>2026-04-06T12:41:04.999Z</time></trkpt><trkpt lat="43.75783726102273" lon="7.025321233396156"><ele>937.8</ele><time>2026-04-06T12:41:05.999Z</time></trkpt><trkpt lat="43.757861960438056" lon="7.025429335492247"><ele>938.0</ele><time>2026-04-06T12:41:06.999Z</time></trkpt><trkpt lat="43.757865101345516" lon="7.025581119064707"><ele>938.0000000000001</ele><time>2026-04-06T12:41:08.999Z</time></trkpt><trkpt lat="43.75784875276749" lon="7.02568671836347"><ele>938.0</ele><time>2026-04-06T12:41:11Z</time></trkpt><trkpt lat="43.7578454915992" lon="7.025801102942667"><ele>938.0</ele><time>2026-04-06T12:41:14Z</time></trkpt><trkpt lat="43.75784599834208" lon="7.025894983408292"><ele>938.0</ele><time>2026-04-06T12:41:16Z</time></trkpt><trkpt lat="43.757839876859556" lon="7.026007309064916"><ele>938.0000000000001</ele><time>2026-04-06T12:41:18Z</time></trkpt><trkpt lat="43.7578161469184" lon="7.026196874901078"><ele>938.0</ele><time>2026-04-06T12:41:20Z</time></trkpt><trkpt lat="43.75779853119112" lon="7.026305195058341"><ele>938.2</ele><time>2026-04-06T12:41:21Z</time></trkpt><trkpt lat="43.75778904997326" lon="7.02644834700929"><ele>938.4</ele><time>2026-04-06T12:41:22Z</time></trkpt><trkpt lat="43.75778214553368" lon="7.026580453610763"><ele>938.6000000000001</ele><time>2026-04-06T12:41:23Z</time></trkpt><trkpt lat="43.75777267734704" lon="7.0266712132024"><ele>938.8000000000001</ele><time>2026-04-06T12:41:24Z</time></trkpt><trkpt lat="43.75778159934942" lon="7.026800471913471"><ele>939.0</ele><time>2026-04-06T12:41:26Z</time></trkpt><trkpt lat="43.75780578427106" lon="7.0269475676511215"><ele>939.2</ele><time>2026-04-06T12:41:28Z</time></trkpt><trkpt lat="43.75782075368361" lon="7.027052584530606"><ele>939.4000000000001</ele><time>2026-04-06T12:41:29Z</time></trkpt><trkpt lat="43.75783997827516" lon="7.027177301721666"><ele>939.6</ele><time>2026-04-06T12:41:30Z</time></trkpt><trkpt lat="43.75787724149398" lon="7.027314977658074"><ele>939.8</ele><time>2026-04-06T12:41:31Z</time></trkpt><trkpt lat="43.7579095336443" lon="7.027441865184892"><ele>940.0</ele><time>2026-04-06T12:41:32Z</time></trkpt><trkpt lat="43.75792783542018" lon="7.027550713699474"><ele>940.2</ele><time>2026-04-06T12:41:33Z</time></trkpt><trkpt lat="43.75794868297033" lon="7.027652611769404"><ele>940.4</ele><time>2026-04-06T12:41:34Z</time></trkpt><trkpt lat="43.75798743500238" lon="7.027751784917034"><ele>940.5999999999999</ele><time>2026-04-06T12:41:35Z</time></trkpt><trkpt lat="43.75804700772949" lon="7.027876233331652"><ele>940.8</ele><time>2026-04-06T12:41:36Z</time></trkpt><trkpt lat="43.75810186311329" lon="7.028028633099854"><ele>941.0</ele><time>2026-04-06T12:41:37Z</time></trkpt><trkpt lat="43.758154045101094" lon="7.02820638206109"><ele>940.8</ele><time>2026-04-06T12:41:38Z</time></trkpt><trkpt lat="43.75821561399392" lon="7.028354718344349"><ele>940.5999999999999</ele><time>2026-04-06T12:41:39Z</time></trkpt><trkpt lat="43.758281260615206" lon="7.0284770635040505"><ele>940.4</ele><time>2026-04-06T12:41:40Z</time></trkpt><trkpt lat="43.75834813977879" lon="7.028572311461491"><ele>940.2</ele><time>2026-04-06T12:41:41Z</time></trkpt><trkpt lat="43.758413745520365" lon="7.028662967356727"><ele>940.0</ele><time>2026-04-06T12:41:42Z</time></trkpt><trkpt lat="43.758467780260844" lon="7.02875062585686"><ele>939.9999999999999</ele><time>2026-04-06T12:41:43Z</time></trkpt><trkpt lat="43.758500551746316" lon="7.028860423911851"><ele>940.0</ele><time>2026-04-06T12:41:44Z</time></trkpt><trkpt lat="43.75854339762444" lon="7.028953964040111"><ele>940.0</ele><time>2026-04-06T12:41:45Z</time></trkpt><trkpt lat="43.75860555005759" lon="7.029016527954372"><ele>940.0</ele><time>2026-04-06T12:41:46Z</time></trkpt><trkpt lat="43.758677042905454" lon="7.029094971365163"><ele>939.9999999999999</ele><time>2026-04-06T12:41:47Z</time></trkpt><trkpt lat="43.75874330994681" lon="7.02915897323485"><ele>940.0</ele><time>2026-04-06T12:41:48Z</time></trkpt><trkpt lat="43.758805786098534" lon="7.0292448811575925"><ele>940.2</ele><time>2026-04-06T12:41:49Z</time></trkpt><trkpt lat="43.75886193060428" lon="7.0293381032882385"><ele>940.4</ele><time>2026-04-06T12:41:50Z</time></trkpt><trkpt lat="43.75891394078273" lon="7.029467507903506"><ele>940.5999999999999</ele><time>2026-04-06T12:41:51Z</time></trkpt><trkpt lat="43.75895667275836" lon="7.029619656318473"><ele>940.8</ele><time>2026-04-06T12:41:52Z</time></trkpt><trkpt lat="43.758985946032205" lon="7.029770249837256"><ele>941.0</ele><time>2026-04-06T12:41:53Z</time></trkpt><trkpt lat="43.75900288600555" lon="7.029873506319692"><ele>940.1999999999999</ele><time>2026-04-06T12:41:54Z</time></trkpt><trkpt lat="43.75910003461919" lon="7.030006155884487"><ele>939.3999999999999</ele><time>2026-04-06T12:41:56Z</time></trkpt><trkpt lat="43.759174609326685" lon="7.030094273438214"><ele>938.6</ele><time>2026-04-06T12:41:57Z</time></trkpt><trkpt lat="43.759232499567005" lon="7.030209406270682"><ele>937.8</ele><time>2026-04-06T12:41:58Z</time></trkpt><trkpt lat="43.75927114486393" lon="7.030329134432771"><ele>937.0</ele><time>2026-04-06T12:41:59Z</time></trkpt><trkpt lat="43.75931534908583" lon="7.0304322628894935"><ele>938.4285714285713</ele><time>2026-04-06T12:42:00Z</time></trkpt><trkpt lat="43.75937942027051" lon="7.030481130821822"><ele>939.8571428571429</ele><time>2026-04-06T12:42:01Z</time></trkpt><trkpt lat="43.75945227617801" lon="7.030522601178616"><ele>941.2857142857142</ele><time>2026-04-06T12:42:02Z</time></trkpt><trkpt lat="43.759519604353464" lon="7.03056881159401"><ele>942.7142857142857</ele><time>2026-04-06T12:42:03Z</time></trkpt><trkpt lat="43.759560388514544" lon="7.030640849753669"><ele>944.1428571428571</ele><time>2026-04-06T12:42:04Z</time></trkpt><trkpt lat="43.7595797877024" lon="7.030729780452154"><ele>945.5714285714286</ele><time>2026-04-06T12:42:05Z</time></trkpt><trkpt lat="43.75959166066194" lon="7.030834711920451"><ele>947.0</ele><time>2026-04-06T12:42:06Z</time></trkpt><trkpt lat="43.75962002048921" lon="7.030929539788467"><ele>947.0</ele><time>2026-04-06T12:42:07Z</time></trkpt><trkpt lat="43.75966352556739" lon="7.031032603293007"><ele>947.0</ele><time>2026-04-06T12:42:08Z</time></trkpt><trkpt lat="43.75971562232402" lon="7.031128626798016"><ele>947.0</ele><time>2026-04-06T12:42:09Z</time></trkpt><trkpt lat="43.7597795067726" lon="7.0312283750077595"><ele>947.0</ele><time>2026-04-06T12:42:10Z</time></trkpt><trkpt lat="43.75986046226827" lon="7.031326393695466"><ele>947.0</ele><time>2026-04-06T12:42:11Z</time></trkpt><trkpt lat="43.75992125075497" lon="7.03142189430262"><ele>947.0</ele><time>2026-04-06T12:42:12Z</time></trkpt><trkpt lat="43.75997191275223" lon="7.031520604906422"><ele>946.9999999999999</ele><time>2026-04-06T12:42:13Z</time></trkpt><trkpt lat="43.76001915381717" lon="7.031622910663395"><ele>947.0</ele><time>2026-04-06T12:42:14Z</time></trkpt><trkpt lat="43.760050224059974" lon="7.031717673514205"><ele>947.0</ele><time>2026-04-06T12:42:15Z</time></trkpt><trkpt lat="43.76005629053924" lon="7.031804864361409"><ele>946.9999999999999</ele><time>2026-04-06T12:42:16Z</time></trkpt><trkpt lat="43.76003892568514" lon="7.031896609706297"><ele>947.0</ele><time>2026-04-06T12:42:17Z</time></trkpt><trkpt lat="43.760049641114556" lon="7.031983242252728"><ele>947.0</ele><time>2026-04-06T12:42:18Z</time></trkpt><trkpt lat="43.76007596132545" lon="7.032078788001559"><ele>946.1666666666667</ele><time>2026-04-06T12:42:19Z</time></trkpt><trkpt lat="43.76012103122874" lon="7.032170612649637"><ele>945.3333333333334</ele><time>2026-04-06T12:42:20Z</time></trkpt><trkpt lat="43.76017624938099" lon="7.032253848350486"><ele>944.5</ele><time>2026-04-06T12:42:21Z</time></trkpt><trkpt lat="43.760241571267144" lon="7.032322235362413"><ele>943.6666666666667</ele><time>2026-04-06T12:42:22Z</time></trkpt><trkpt lat="43.76029660491341" lon="7.032390922898918"><ele>942.8333333333334</ele><time>2026-04-06T12:42:23Z</time></trkpt><trkpt lat="43.76034180175534" lon="7.032464919428457"><ele>942.0</ele><time>2026-04-06T12:42:24Z</time></trkpt><trkpt lat="43.760389676057535" lon="7.032541208449048"><ele>943.5714285714287</ele><time>2026-04-06T12:42:25Z</time></trkpt><trkpt lat="43.760433487494055" lon="7.032614899038489"><ele>945.1428571428571</ele><time>2026-04-06T12:42:26Z</time></trkpt><trkpt lat="43.76047956059398" lon="7.032681793736694"><ele>946.7142857142858</ele><time>2026-04-06T12:42:27Z</time></trkpt><trkpt lat="43.76052504013365" lon="7.0327556737706605"><ele>948.2857142857143</ele><time>2026-04-06T12:42:27.999Z</time></trkpt><trkpt lat="43.76057410855182" lon="7.032812891980558"><ele>949.8571428571429</ele><time>2026-04-06T12:42:28.999Z</time></trkpt><trkpt lat="43.76063741102063" lon="7.032864964568054"><ele>951.4285714285714</ele><time>2026-04-06T12:42:29.999Z</time></trkpt><trkpt lat="43.76070755826802" lon="7.032915426803951"><ele>953.0</ele><time>2026-04-06T12:42:30.999Z</time></trkpt><trkpt lat="43.76078242249669" lon="7.032962321606875"><ele>953.0</ele><time>2026-04-06T12:42:31.999Z</time></trkpt><trkpt lat="43.76084203466833" lon="7.033014660301822"><ele>953.0</ele><time>2026-04-06T12:42:32.999Z</time></trkpt><trkpt lat="43.76091680597032" lon="7.033148372942886"><ele>953.0</ele><time>2026-04-06T12:42:34.999Z</time></trkpt><trkpt lat="43.760985933149534" lon="7.033272480742084"><ele>953.0</ele><time>2026-04-06T12:42:36.999Z</time></trkpt><trkpt lat="43.76103853975724" lon="7.033368101069839"><ele>953.0</ele><time>2026-04-06T12:42:38.999Z</time></trkpt><trkpt lat="43.76109072008413" lon="7.033430161754527"><ele>953.5999999999999</ele><time>2026-04-06T12:42:59.999Z</time></trkpt><trkpt lat="43.76113005371677" lon="7.033531044536262"><ele>954.1999999999999</ele><time>2026-04-06T12:43:01.999Z</time></trkpt><trkpt lat="43.76116348642643" lon="7.03362648798577"><ele>954.8</ele><time>2026-04-06T12:43:02.999Z</time></trkpt><trkpt lat="43.761208555473395" lon="7.03374928756714"><ele>955.4</ele><time>2026-04-06T12:43:03.999Z</time></trkpt><trkpt lat="43.76125697777076" lon="7.033888878722988"><ele>956.0</ele><time>2026-04-06T12:43:04.999Z</time></trkpt><trkpt lat="43.761302706592645" lon="7.034018749272399"><ele>956.0000000000001</ele><time>2026-04-06T12:43:05.999Z</time></trkpt><trkpt lat="43.76134660498481" lon="7.034131185723827"><ele>956.0</ele><time>2026-04-06T12:43:06.999Z</time></trkpt><trkpt lat="43.761382892787076" lon="7.034228396749226"><ele>956.0</ele><time>2026-04-06T12:43:07.999Z</time></trkpt><trkpt lat="43.761429502375854" lon="7.034313942603992"><ele>956.0</ele><time>2026-04-06T12:43:08.999Z</time></trkpt><trkpt lat="43.76148128336225" lon="7.034385105925297"><ele>956.0000000000001</ele><time>2026-04-06T12:43:09.999Z</time></trkpt><trkpt lat="43.761526395971124" lon="7.034458093817804"><ele>956.0</ele><time>2026-04-06T12:43:10.999Z</time></trkpt><trkpt lat="43.76157517076413" lon="7.034528813302011"><ele>956.0000000000001</ele><time>2026-04-06T12:43:11.999Z</time></trkpt><trkpt lat="43.76162534174891" lon="7.034602748745762"><ele>956.0</ele><time>2026-04-06T12:43:12.999Z</time></trkpt><trkpt lat="43.761690803797755" lon="7.03467276881291"><ele>956.0000000000001</ele><time>2026-04-06T12:43:13.999Z</time></trkpt><trkpt lat="43.761752635315126" lon="7.034743058162083"><ele>956.0000000000001</ele><time>2026-04-06T12:43:14.999Z</time></trkpt><trkpt lat="43.76181192660261" lon="7.034786293159449"><ele>956.0</ele><time>2026-04-06T12:43:15.999Z</time></trkpt><trkpt lat="43.76186963982071" lon="7.034822482796601"><ele>956.0000000000001</ele><time>2026-04-06T12:43:17Z</time></trkpt><trkpt lat="43.76192987199336" lon="7.034860274154841"><ele>956.0000000000001</ele><time>2026-04-06T12:43:18Z</time></trkpt><trkpt lat="43.76198816227659" lon="7.03492346448954"><ele>955.1666666666667</ele><time>2026-04-06T12:43:19Z</time></trkpt><trkpt lat="43.76202031371029" lon="7.035001161752293"><ele>954.3333333333334</ele><time>2026-04-06T12:43:20Z</time></trkpt><trkpt lat="43.76205546705152" lon="7.03508909611617"><ele>953.5</ele><time>2026-04-06T12:43:21Z</time></trkpt><trkpt lat="43.7621053218616" lon="7.035171498911939"><ele>952.6666666666667</ele><time>2026-04-06T12:43:22Z</time></trkpt><trkpt lat="43.76217742955852" lon="7.035249943386848"><ele>951.8333333333334</ele><time>2026-04-06T12:43:23Z</time></trkpt><trkpt lat="43.76224177523665" lon="7.035330850018226"><ele>951.0</ele><time>2026-04-06T12:43:24Z</time></trkpt><trkpt lat="43.762308231497684" lon="7.035390945265407"><ele>951.0</ele><time>2026-04-06T12:43:25Z</time></trkpt><trkpt lat="43.762432659817804" lon="7.03545067913269"><ele>951.0</ele><time>2026-04-06T12:43:27Z</time></trkpt><trkpt lat="43.762499074268604" lon="7.035507788786625"><ele>951.0</ele><time>2026-04-06T12:43:28Z</time></trkpt><trkpt lat="43.76256792445047" lon="7.035599229303796"><ele>951.0</ele><time>2026-04-06T12:43:29Z</time></trkpt><trkpt lat="43.762632023981" lon="7.035655690335988"><ele>951.0</ele><time>2026-04-06T12:43:30Z</time></trkpt><trkpt lat="43.7626929370968" lon="7.035696950983022"><ele>951.0</ele><time>2026-04-06T12:43:31Z</time></trkpt><trkpt lat="43.76274330500919" lon="7.035773673125714"><ele>952.25</ele><time>2026-04-06T12:43:32Z</time></trkpt><trkpt lat="43.76281034518583" lon="7.035874941126031"><ele>953.5</ele><time>2026-04-06T12:43:33Z</time></trkpt><trkpt lat="43.76290994431448" lon="7.03597480117853"><ele>954.75</ele><time>2026-04-06T12:43:34Z</time></trkpt><trkpt lat="43.76302102132744" lon="7.03607612100793"><ele>956.0</ele><time>2026-04-06T12:43:35Z</time></trkpt><trkpt lat="43.76311052346737" lon="7.036159056472527"><ele>956.0000000000001</ele><time>2026-04-06T12:43:36Z</time></trkpt><trkpt lat="43.763191997553356" lon="7.036207551110472"><ele>956.0</ele><time>2026-04-06T12:43:37Z</time></trkpt><trkpt lat="43.763277423828484" lon="7.036253215226012"><ele>956.0</ele><time>2026-04-06T12:43:38Z</time></trkpt><trkpt lat="43.76335540131762" lon="7.036303624198112"><ele>956.0</ele><time>2026-04-06T12:43:39Z</time></trkpt><trkpt lat="43.76342941864221" lon="7.036364745882843"><ele>956.0000000000001</ele><time>2026-04-06T12:43:40Z</time></trkpt><trkpt lat="43.763493509173784" lon="7.0364292874672385"><ele>956.0</ele><time>2026-04-06T12:43:41Z</time></trkpt><trkpt lat="43.76355599512923" lon="7.036490254825112"><ele>956.8333333333334</ele><time>2026-04-06T12:43:42Z</time></trkpt><trkpt lat="43.76361646151027" lon="7.036557709412025"><ele>957.6666666666667</ele><time>2026-04-06T12:43:43Z</time></trkpt><trkpt lat="43.76366129348688" lon="7.036637592618658"><ele>958.5</ele><time>2026-04-06T12:43:44Z</time></trkpt><trkpt lat="43.76374541966175" lon="7.036744806987938"><ele>959.3333333333333</ele><time>2026-04-06T12:43:46Z</time></trkpt><trkpt lat="43.76384845121103" lon="7.036816722430783"><ele>960.1666666666666</ele><time>2026-04-06T12:43:48Z</time></trkpt><trkpt lat="43.76390954619179" lon="7.036854863746856"><ele>961.0</ele><time>2026-04-06T12:43:49Z</time></trkpt><trkpt lat="43.763970901832195" lon="7.037011872532873"><ele>961.1666666666666</ele><time>2026-04-06T12:43:51Z</time></trkpt><trkpt lat="43.7640014103314" lon="7.03711344908696"><ele>961.3333333333333</ele><time>2026-04-06T12:43:53Z</time></trkpt><trkpt lat="43.764027191462276" lon="7.037217332270035"><ele>961.5</ele><time>2026-04-06T12:43:56Z</time></trkpt><trkpt lat="43.76405284071099" lon="7.037369731841817"><ele>961.6666666666667</ele><time>2026-04-06T12:43:59Z</time></trkpt><trkpt lat="43.76411298967551" lon="7.037427199066951"><ele>961.8333333333334</ele><time>2026-04-06T12:44:02Z</time></trkpt><trkpt lat="43.76404625271945" lon="7.037396413762015"><ele>962.0</ele><time>2026-04-06T12:44:14Z</time></trkpt><trkpt lat="43.763991682247" lon="7.03728960227652"><ele>962.0</ele><time>2026-04-06T12:44:16Z</time></trkpt><trkpt lat="43.763973197806436" lon="7.037199932093677"><ele>962.0</ele><time>2026-04-06T12:44:22Z</time></trkpt><trkpt lat="43.76394793303212" lon="7.037097214872198"><ele>962.0</ele><time>2026-04-06T12:44:26Z</time></trkpt><trkpt lat="43.7638654233592" lon="7.036952661476623"><ele>962.0</ele><time>2026-04-06T12:44:27.999Z</time></trkpt><trkpt lat="43.76377923123657" lon="7.036858023481721"><ele>962.0</ele><time>2026-04-06T12:44:29.999Z</time></trkpt><trkpt lat="43.76368200978802" lon="7.036766793675027"><ele>962.0000000000001</ele><time>2026-04-06T12:44:31.999Z</time></trkpt><trkpt lat="43.763603314302046" lon="7.036654576276731"><ele>962.0</ele><time>2026-04-06T12:44:33.999Z</time></trkpt><trkpt lat="43.763559649547645" lon="7.036584711288634"><ele>962.0</ele><time>2026-04-06T12:44:34.999Z</time></trkpt><trkpt lat="43.7635114585601" lon="7.0365226749898255"><ele>962.0</ele><time>2026-04-06T12:44:35.999Z</time></trkpt><trkpt lat="43.76345566497928" lon="7.036464548436982"><ele>962.0000000000001</ele><time>2026-04-06T12:44:36.999Z</time></trkpt><trkpt lat="43.76339923387304" lon="7.036411596800658"><ele>962.0</ele><time>2026-04-06T12:44:37.999Z</time></trkpt><trkpt lat="43.76333100887582" lon="7.036351978331742"><ele>961.0000000000001</ele><time>2026-04-06T12:44:38.999Z</time></trkpt><trkpt lat="43.76324974438112" lon="7.036295762742539"><ele>960.0</ele><time>2026-04-06T12:44:39.999Z</time></trkpt><trkpt lat="43.763168031194816" lon="7.03624021693631"><ele>959.0</ele><time>2026-04-06T12:44:40.999Z</time></trkpt><trkpt lat="43.76309146059252" lon="7.03619376522337"><ele>958.0</ele><time>2026-04-06T12:44:41.999Z</time></trkpt><trkpt lat="43.7630310022657" lon="7.036136946064287"><ele>957.0000000000001</ele><time>2026-04-06T12:44:42.999Z</time></trkpt><trkpt lat="43.762978259320434" lon="7.036079384812027"><ele>956.0</ele><time>2026-04-06T12:44:43.999Z</time></trkpt><trkpt lat="43.762925642530305" lon="7.036018018317853"><ele>956.0000000000001</ele><time>2026-04-06T12:44:44.999Z</time></trkpt><trkpt lat="43.76287200485701" lon="7.03595701842716"><ele>956.0</ele><time>2026-04-06T12:44:45.999Z</time></trkpt><trkpt lat="43.762810408577714" lon="7.03589661765577"><ele>956.0000000000001</ele><time>2026-04-06T12:44:46.999Z</time></trkpt><trkpt lat="43.76275595653348" lon="7.035819884152544"><ele>956.0000000000001</ele><time>2026-04-06T12:44:47.999Z</time></trkpt><trkpt lat="43.76271117581066" lon="7.035744951281832"><ele>956.0</ele><time>2026-04-06T12:44:48.999Z</time></trkpt><trkpt lat="43.762667889176264" lon="7.035679630815591"><ele>956.0000000000001</ele><time>2026-04-06T12:44:49.999Z</time></trkpt><trkpt lat="43.762608502687" lon="7.035638704387195"><ele>956.0000000000001</ele><time>2026-04-06T12:44:50.999Z</time></trkpt><trkpt lat="43.762551454400445" lon="7.035597703114086"><ele>955.0</ele><time>2026-04-06T12:44:51.999Z</time></trkpt><trkpt lat="43.762498442888145" lon="7.035542869237447"><ele>953.9999999999999</ele><time>2026-04-06T12:44:52.999Z</time></trkpt><trkpt lat="43.76244740657452" lon="7.035481728292928"><ele>952.9999999999999</ele><time>2026-04-06T12:44:53.999Z</time></trkpt><trkpt lat="43.762331652739164" lon="7.0354092184531245"><ele>952.0</ele><time>2026-04-06T12:44:55.999Z</time></trkpt><trkpt lat="43.76222868702892" lon="7.035328659990639"><ele>951.0</ele><time>2026-04-06T12:44:57.999Z</time></trkpt><trkpt lat="43.762171027508344" lon="7.03526690665845"><ele>951.0</ele><time>2026-04-06T12:44:58.999Z</time></trkpt><trkpt lat="43.76211913171357" lon="7.035197434542925"><ele>951.0</ele><time>2026-04-06T12:44:59.999Z</time></trkpt><trkpt lat="43.76207199309284" lon="7.035133517701894"><ele>951.0</ele><time>2026-04-06T12:45:00.999Z</time></trkpt><trkpt lat="43.76202942518583" lon="7.035055941713469"><ele>951.0</ele><time>2026-04-06T12:45:01.999Z</time></trkpt><trkpt lat="43.76199016786471" lon="7.03497696174949"><ele>951.0</ele><time>2026-04-06T12:45:02.999Z</time></trkpt><trkpt lat="43.761952015948935" lon="7.034905557768903"><ele>951.0</ele><time>2026-04-06T12:45:03.999Z</time></trkpt><trkpt lat="43.76189917242866" lon="7.034854621919014"><ele>951.0</ele><time>2026-04-06T12:45:04.999Z</time></trkpt><trkpt lat="43.76184227463685" lon="7.034812488649607"><ele>950.0</ele><time>2026-04-06T12:45:05.999Z</time></trkpt><trkpt lat="43.76178336625262" lon="7.034773348682393"><ele>948.9999999999999</ele><time>2026-04-06T12:45:06.999Z</time></trkpt><trkpt lat="43.76168056978247" lon="7.03467963950253"><ele>947.9999999999999</ele><time>2026-04-06T12:45:08.999Z</time></trkpt><trkpt lat="43.76159653853273" lon="7.034566400884181"><ele>947.0</ele><time>2026-04-06T12:45:10.999Z</time></trkpt><trkpt lat="43.76151682877572" lon="7.034447684511996"><ele>946.0</ele><time>2026-04-06T12:45:12.999Z</time></trkpt><trkpt lat="43.76143293254223" lon="7.034344638937536"><ele>946.0</ele><time>2026-04-06T12:45:14.999Z</time></trkpt><trkpt lat="43.76142140347091" lon="7.03419145975567"><ele>945.9999999999999</ele><time>2026-04-06T12:45:16.999Z</time></trkpt><trkpt lat="43.76135465046115" lon="7.034056882559586"><ele>945.9999999999999</ele><time>2026-04-06T12:45:18.999Z</time></trkpt><trkpt lat="43.76129844870977" lon="7.0340153592136865"><ele>946.0</ele><time>2026-04-06T12:45:19.999Z</time></trkpt><trkpt lat="43.761239341952766" lon="7.033879494191421"><ele>946.0</ele><time>2026-04-06T12:45:21.999Z</time></trkpt><trkpt lat="43.761243091682815" lon="7.03377645993745"><ele>947.4</ele><time>2026-04-06T12:45:23Z</time></trkpt><trkpt lat="43.76118538862312" lon="7.033621077125596"><ele>948.8</ele><time>2026-04-06T12:45:25Z</time></trkpt><trkpt lat="43.761135780056534" lon="7.033553557805052"><ele>950.1999999999999</ele><time>2026-04-06T12:45:26Z</time></trkpt><trkpt lat="43.761062225842004" lon="7.033410058244435"><ele>951.5999999999999</ele><time>2026-04-06T12:45:28Z</time></trkpt><trkpt lat="43.76098400224664" lon="7.033274061682201"><ele>953.0</ele><time>2026-04-06T12:45:30Z</time></trkpt><trkpt lat="43.76090478481445" lon="7.033135118263694"><ele>953.0</ele><time>2026-04-06T12:45:32Z</time></trkpt><trkpt lat="43.760837490100315" lon="7.033015775909099"><ele>953.0</ele><time>2026-04-06T12:45:34Z</time></trkpt><trkpt lat="43.76073553521927" lon="7.032918783440076"><ele>953.0</ele><time>2026-04-06T12:45:36Z</time></trkpt><trkpt lat="43.760678673997845" lon="7.032880615062699"><ele>953.0</ele><time>2026-04-06T12:45:37Z</time></trkpt><trkpt lat="43.76057147095402" lon="7.032798150395451"><ele>953.0</ele><time>2026-04-06T12:45:39Z</time></trkpt><trkpt lat="43.76048190019579" lon="7.032688144968049"><ele>953.0</ele><time>2026-04-06T12:45:41Z</time></trkpt><trkpt lat="43.760407831758506" lon="7.032576196566119"><ele>953.0</ele><time>2026-04-06T12:45:43Z</time></trkpt><trkpt lat="43.76033094493897" lon="7.0324478649998525"><ele>953.0</ele><time>2026-04-06T12:45:45Z</time></trkpt><trkpt lat="43.76026273037185" lon="7.032334452099718"><ele>953.0</ele><time>2026-04-06T12:45:47Z</time></trkpt><trkpt lat="43.76018684784287" lon="7.032244453022462"><ele>953.0</ele><time>2026-04-06T12:45:49Z</time></trkpt><trkpt lat="43.760115243683295" lon="7.032140816001474"><ele>951.8</ele><time>2026-04-06T12:45:51Z</time></trkpt><trkpt lat="43.76007155619617" lon="7.032024249133043"><ele>950.5999999999999</ele><time>2026-04-06T12:45:53Z</time></trkpt><trkpt lat="43.76003138382465" lon="7.0319009089140865"><ele>949.4000000000001</ele><time>2026-04-06T12:45:55Z</time></trkpt><trkpt lat="43.76003265928639" lon="7.0317613390066045"><ele>948.2</ele><time>2026-04-06T12:45:57Z</time></trkpt><trkpt lat="43.760017582125755" lon="7.031627542389618"><ele>947.0</ele><time>2026-04-06T12:45:59Z</time></trkpt><trkpt lat="43.7599549390633" lon="7.0314894584673775"><ele>947.0000000000001</ele><time>2026-04-06T12:46:01Z</time></trkpt><trkpt lat="43.75987614003671" lon="7.031354026677"><ele>947.0</ele><time>2026-04-06T12:46:03Z</time></trkpt><trkpt lat="43.75979656741537" lon="7.031237717188968"><ele>947.0</ele><time>2026-04-06T12:46:05Z</time></trkpt><trkpt lat="43.75974855734187" lon="7.031175331747642"><ele>947.0</ele><time>2026-04-06T12:46:06Z</time></trkpt><trkpt lat="43.759696695443516" lon="7.031106357046896"><ele>947.0000000000001</ele><time>2026-04-06T12:46:07Z</time></trkpt><trkpt lat="43.75965624301924" lon="7.031030293323195"><ele>947.0</ele><time>2026-04-06T12:46:08Z</time></trkpt><trkpt lat="43.75961009514646" lon="7.030889653668317"><ele>947.6</ele><time>2026-04-06T12:46:10Z</time></trkpt><trkpt lat="43.75957813232255" lon="7.030775216055702"><ele>948.2</ele><time>2026-04-06T12:46:12Z</time></trkpt><trkpt lat="43.75956452181328" lon="7.030647284384543"><ele>948.8</ele><time>2026-04-06T12:46:14Z</time></trkpt><trkpt lat="43.75950963829982" lon="7.030542093658377"><ele>949.4</ele><time>2026-04-06T12:46:16Z</time></trkpt><trkpt lat="43.759402866793714" lon="7.030474229636449"><ele>950.0</ele><time>2026-04-06T12:46:18Z</time></trkpt><trkpt lat="43.759307800187266" lon="7.030411916595792"><ele>948.5000000000001</ele><time>2026-04-06T12:46:20Z</time></trkpt><trkpt lat="43.759235986138684" lon="7.030276673005163"><ele>947.0</ele><time>2026-04-06T12:46:22Z</time></trkpt><trkpt lat="43.759197734579125" lon="7.030178844411617"><ele>945.5</ele><time>2026-04-06T12:46:23Z</time></trkpt><trkpt lat="43.75915940805959" lon="7.03008382270907"><ele>944.0</ele><time>2026-04-06T12:46:24Z</time></trkpt><trkpt lat="43.75912262805415" lon="7.0299960482062565"><ele>942.5000000000001</ele><time>2026-04-06T12:46:25Z</time></trkpt><trkpt lat="43.75907765541471" lon="7.029934032744809"><ele>941.0</ele><time>2026-04-06T12:46:26Z</time></trkpt><trkpt lat="43.75899197390448" lon="7.029845611682581"><ele>941.0000000000001</ele><time>2026-04-06T12:46:28Z</time></trkpt><trkpt lat="43.75896424753323" lon="7.029692843880032"><ele>941.0</ele><time>2026-04-06T12:46:30Z</time></trkpt><trkpt lat="43.75893873724743" lon="7.0295952305937215"><ele>941.0</ele><time>2026-04-06T12:46:31Z</time></trkpt><trkpt lat="43.75891369467612" lon="7.029496199891634"><ele>941.0</ele><time>2026-04-06T12:46:32Z</time></trkpt><trkpt lat="43.75888578041756" lon="7.029400203896984"><ele>941.0000000000001</ele><time>2026-04-06T12:46:33Z</time></trkpt><trkpt lat="43.7588494927842" lon="7.0293156233524545"><ele>941.0</ele><time>2026-04-06T12:46:34Z</time></trkpt><trkpt lat="43.75880529758436" lon="7.029244139087161"><ele>941.0000000000001</ele><time>2026-04-06T12:46:35Z</time></trkpt><trkpt lat="43.758755894807116" lon="7.0291757125820995"><ele>941.0</ele><time>2026-04-06T12:46:36Z</time></trkpt><trkpt lat="43.75867549144696" lon="7.029085405817261"><ele>941.0</ele><time>2026-04-06T12:46:37.999Z</time></trkpt><trkpt lat="43.75861355499874" lon="7.029115058950915"><ele>941.0</ele><time>2026-04-06T12:46:40.999Z</time></trkpt><trkpt lat="43.75853882064091" lon="7.029074979922588"><ele>941.0000000000001</ele><time>2026-04-06T12:46:42.999Z</time></trkpt><trkpt lat="43.75841231822123" lon="7.029067974158343"><ele>941.0</ele><time>2026-04-06T12:46:44.999Z</time></trkpt><trkpt lat="43.75833328500663" lon="7.02908544097232"><ele>940.8</ele><time>2026-04-06T12:46:45.999Z</time></trkpt><trkpt lat="43.75824424787123" lon="7.029078837314388"><ele>940.5999999999999</ele><time>2026-04-06T12:46:46.999Z</time></trkpt><trkpt lat="43.75813402915565" lon="7.0290627434683435"><ele>940.4</ele><time>2026-04-06T12:46:47.999Z</time></trkpt><trkpt lat="43.75803440888517" lon="7.0290539206622"><ele>940.2</ele><time>2026-04-06T12:46:48.999Z</time></trkpt><trkpt lat="43.75794508485158" lon="7.029041414218164"><ele>940.0</ele><time>2026-04-06T12:46:49.999Z</time></trkpt><trkpt lat="43.75786968934467" lon="7.029031385113123"><ele>939.9999999999999</ele><time>2026-04-06T12:46:50.999Z</time></trkpt><trkpt lat="43.75776645344729" lon="7.028999326982582"><ele>940.0</ele><time>2026-04-06T12:46:52.999Z</time></trkpt><trkpt lat="43.75768638198559" lon="7.028970150054282"><ele>940.0</ele><time>2026-04-06T12:46:54.999Z</time></trkpt><trkpt lat="43.757600083636525" lon="7.028959010719908"><ele>940.0</ele><time>2026-04-06T12:46:57.999Z</time></trkpt><trkpt lat="43.7575286081156" lon="7.028954016413904"><ele>939.9999999999999</ele><time>2026-04-06T12:46:59.999Z</time></trkpt><trkpt lat="43.75744902643734" lon="7.028966415734047"><ele>940.0</ele><time>2026-04-06T12:47:01.999Z</time></trkpt><trkpt lat="43.7573688166331" lon="7.02897252609645"><ele>939.8333333333333</ele><time>2026-04-06T12:47:03.999Z</time></trkpt><trkpt lat="43.757302635982604" lon="7.02896461289816"><ele>939.6666666666666</ele><time>2026-04-06T12:47:05.999Z</time></trkpt><trkpt lat="43.75723244149671" lon="7.028980307990935"><ele>939.5</ele><time>2026-04-06T12:47:07.999Z</time></trkpt><trkpt lat="43.75715099082846" lon="7.028912103385293"><ele>939.3333333333333</ele><time>2026-04-06T12:47:10.999Z</time></trkpt><trkpt lat="43.75711660692828" lon="7.028753761279879"><ele>939.1666666666666</ele><time>2026-04-06T12:47:12.999Z</time></trkpt><trkpt lat="43.757105632862725" lon="7.0286322464058735"><ele>939.0</ele><time>2026-04-06T12:47:13.999Z</time></trkpt><trkpt lat="43.75710844628961" lon="7.028485335857157"><ele>939.0</ele><time>2026-04-06T12:47:14.999Z</time></trkpt><trkpt lat="43.757138656238354" lon="7.02832385360656"><ele>939.0</ele><time>2026-04-06T12:47:15.999Z</time></trkpt><trkpt lat="43.75717672419988" lon="7.0281470439798195"><ele>939.0</ele><time>2026-04-06T12:47:16.999Z</time></trkpt><trkpt lat="43.75718288623795" lon="7.027974154588804"><ele>939.0</ele><time>2026-04-06T12:47:17.999Z</time></trkpt><trkpt lat="43.75716527381232" lon="7.0277783997355145"><ele>939.0</ele><time>2026-04-06T12:47:18.999Z</time></trkpt><trkpt lat="43.75713960082726" lon="7.02761646215604"><ele>939.0</ele><time>2026-04-06T12:47:19.999Z</time></trkpt><trkpt lat="43.75712106148566" lon="7.027497836154724"><ele>939.0</ele><time>2026-04-06T12:47:20.999Z</time></trkpt><trkpt lat="43.75719097184841" lon="7.027407533415597"><ele>939.0</ele><time>2026-04-06T12:47:22.999Z</time></trkpt><trkpt lat="43.75725835599543" lon="7.027420622379733"><ele>939.0</ele><time>2026-04-06T12:47:23.999Z</time></trkpt><trkpt lat="43.757322799080754" lon="7.027438433520051"><ele>939.0</ele><time>2026-04-06T12:47:25.999Z</time></trkpt><trkpt lat="43.757393292561446" lon="7.027351729079666"><ele>939.2</ele><time>2026-04-06T12:47:29Z</time></trkpt><trkpt lat="43.75745247130242" lon="7.02731386705763"><ele>939.4000000000001</ele><time>2026-04-06T12:47:31Z</time></trkpt><trkpt lat="43.75752259860662" lon="7.02730485896348"><ele>939.6</ele><time>2026-04-06T12:47:33Z</time></trkpt><trkpt lat="43.75759477153802" lon="7.02726322844061"><ele>939.8</ele><time>2026-04-06T12:47:35Z</time></trkpt><trkpt lat="43.75764057953282" lon="7.027127492363468"><ele>940.0</ele><time>2026-04-06T12:47:37Z</time></trkpt><trkpt lat="43.75758125924047" lon="7.026970599450243"><ele>939.9999999999999</ele><time>2026-04-06T12:47:39Z</time></trkpt><trkpt lat="43.75752436947011" lon="7.0269078497679525"><ele>940.0</ele><time>2026-04-06T12:47:40Z</time></trkpt><trkpt lat="43.757491042749365" lon="7.026823190514476"><ele>940.0</ele><time>2026-04-06T12:47:41Z</time></trkpt><trkpt lat="43.75748412222454" lon="7.026714471830176"><ele>940.0</ele><time>2026-04-06T12:47:42Z</time></trkpt><trkpt lat="43.757487193344645" lon="7.026604163462028"><ele>939.9999999999999</ele><time>2026-04-06T12:47:43Z</time></trkpt><trkpt lat="43.75746280828211" lon="7.0265074627449"><ele>940.0</ele><time>2026-04-06T12:47:44Z</time></trkpt><trkpt lat="43.7573929656261" lon="7.026424747632877"><ele>939.5</ele><time>2026-04-06T12:47:45Z</time></trkpt><trkpt lat="43.757309501196424" lon="7.02633992191722"><ele>939.0</ele><time>2026-04-06T12:47:46Z</time></trkpt><trkpt lat="43.757213400538355" lon="7.026238803851637"><ele>938.5</ele><time>2026-04-06T12:47:47Z</time></trkpt><trkpt lat="43.75711670993624" lon="7.026124099143324"><ele>938.0</ele><time>2026-04-06T12:47:48Z</time></trkpt><trkpt lat="43.75703535011854" lon="7.026008828278664"><ele>938.0</ele><time>2026-04-06T12:47:49Z</time></trkpt><trkpt lat="43.756950825262656" lon="7.025915503951534"><ele>938.0</ele><time>2026-04-06T12:47:50Z</time></trkpt><trkpt lat="43.7568658975608" lon="7.025843103883552"><ele>938.0</ele><time>2026-04-06T12:47:51Z</time></trkpt><trkpt lat="43.75677633647605" lon="7.025763398954742"><ele>938.0</ele><time>2026-04-06T12:47:52Z</time></trkpt><trkpt lat="43.756687374762826" lon="7.0256724932627455"><ele>938.0</ele><time>2026-04-06T12:47:53Z</time></trkpt><trkpt lat="43.756605583152464" lon="7.0255879171930395"><ele>938.0</ele><time>2026-04-06T12:47:54Z</time></trkpt><trkpt lat="43.756528843190495" lon="7.025519851445775"><ele>938.0</ele><time>2026-04-06T12:47:55Z</time></trkpt><trkpt lat="43.75644356988819" lon="7.025480434220577"><ele>938.0</ele><time>2026-04-06T12:47:56Z</time></trkpt><trkpt lat="43.756353229302306" lon="7.025439888997634"><ele>938.0</ele><time>2026-04-06T12:47:57Z</time></trkpt><trkpt lat="43.75627048252453" lon="7.025389541230427"><ele>938.0</ele><time>2026-04-06T12:47:58Z</time></trkpt><trkpt lat="43.75618100247477" lon="7.02533745538545"><ele>938.0</ele><time>2026-04-06T12:47:59Z</time></trkpt><trkpt lat="43.75610797519302" lon="7.025250434083349"><ele>938.0</ele><time>2026-04-06T12:48:00Z</time></trkpt><trkpt lat="43.75601567057928" lon="7.025153625961243"><ele>938.0</ele><time>2026-04-06T12:48:01Z</time></trkpt><trkpt lat="43.75590515121177" lon="7.025045416287898"><ele>938.0</ele><time>2026-04-06T12:48:02Z</time></trkpt><trkpt lat="43.7558160375385" lon="7.02495592113383"><ele>938.5000000000001</ele><time>2026-04-06T12:48:03Z</time></trkpt><trkpt lat="43.75573990908241" lon="7.024866335877857"><ele>939.0</ele><time>2026-04-06T12:48:04Z</time></trkpt><trkpt lat="43.755638701212185" lon="7.024831813889692"><ele>939.5</ele><time>2026-04-06T12:48:05Z</time></trkpt><trkpt lat="43.75555447568906" lon="7.024773269668232"><ele>940.0</ele><time>2026-04-06T12:48:06Z</time></trkpt><trkpt lat="43.75547880193912" lon="7.024778746966521"><ele>940.5000000000001</ele><time>2026-04-06T12:48:07Z</time></trkpt><trkpt lat="43.75540633932378" lon="7.024797777446368"><ele>941.0</ele><time>2026-04-06T12:48:08Z</time></trkpt><trkpt lat="43.75533992832082" lon="7.024809105017784"><ele>941.0000000000001</ele><time>2026-04-06T12:48:09Z</time></trkpt><trkpt lat="43.75530443069147" lon="7.024720035883104"><ele>941.0</ele><time>2026-04-06T12:48:10Z</time></trkpt><trkpt lat="43.755244361864754" lon="7.0246638752075645"><ele>941.0</ele><time>2026-04-06T12:48:11Z</time></trkpt><trkpt lat="43.755175667109725" lon="7.0246066742413795"><ele>941.0</ele><time>2026-04-06T12:48:12Z</time></trkpt><trkpt lat="43.75510894604591" lon="7.024573053421596"><ele>941.0000000000001</ele><time>2026-04-06T12:48:13Z</time></trkpt><trkpt lat="43.75504681357141" lon="7.024552312515239"><ele>941.0</ele><time>2026-04-06T12:48:14Z</time></trkpt><trkpt lat="43.75495344574082" lon="7.024549527438701"><ele>941.5714285714284</ele><time>2026-04-06T12:48:15Z</time></trkpt><trkpt lat="43.754875284686584" lon="7.0245178213453014"><ele>942.1428571428571</ele><time>2026-04-06T12:48:16Z</time></trkpt><trkpt lat="43.754820709327724" lon="7.024460933042883"><ele>942.7142857142857</ele><time>2026-04-06T12:48:17Z</time></trkpt><trkpt lat="43.754783720627415" lon="7.024387845710195"><ele>943.2857142857142</ele><time>2026-04-06T12:48:18Z</time></trkpt><trkpt lat="43.754745550128476" lon="7.024310993280817"><ele>943.8571428571429</ele><time>2026-04-06T12:48:19Z</time></trkpt><trkpt lat="43.75469494696049" lon="7.024258662729506"><ele>944.4285714285714</ele><time>2026-04-06T12:48:20Z</time></trkpt><trkpt lat="43.754625742938664" lon="7.024232921065799"><ele>945.0</ele><time>2026-04-06T12:48:21Z</time></trkpt><trkpt lat="43.75456304600953" lon="7.0242081672630965"><ele>945.0</ele><time>2026-04-06T12:48:22Z</time></trkpt><trkpt lat="43.754512857237785" lon="7.024155255970296"><ele>945.0</ele><time>2026-04-06T12:48:23Z</time></trkpt><trkpt lat="43.75446285892566" lon="7.024086096082141"><ele>945.0</ele><time>2026-04-06T12:48:24Z</time></trkpt><trkpt lat="43.754392795142216" lon="7.024011300973028"><ele>945.0</ele><time>2026-04-06T12:48:25Z</time></trkpt><trkpt lat="43.7543215345761" lon="7.0239170990072655"><ele>945.0</ele><time>2026-04-06T12:48:26Z</time></trkpt><trkpt lat="43.75426389931533" lon="7.023809969607815"><ele>945.0</ele><time>2026-04-06T12:48:27Z</time></trkpt><trkpt lat="43.75421689802972" lon="7.02370080553912"><ele>944.6666666666666</ele><time>2026-04-06T12:48:28Z</time></trkpt><trkpt lat="43.75417048078012" lon="7.0236062170144935"><ele>944.3333333333333</ele><time>2026-04-06T12:48:29Z</time></trkpt><trkpt lat="43.75412078174283" lon="7.023523668456601"><ele>944.0</ele><time>2026-04-06T12:48:30Z</time></trkpt><trkpt lat="43.7540818496124" lon="7.023432426301586"><ele>943.6666666666666</ele><time>2026-04-06T12:48:31Z</time></trkpt><trkpt lat="43.75405032563132" lon="7.023322328308988"><ele>943.3333333333333</ele><time>2026-04-06T12:48:32Z</time></trkpt><trkpt lat="43.75402042809323" lon="7.023223152365267"><ele>943.0</ele><time>2026-04-06T12:48:33Z</time></trkpt><trkpt lat="43.75397154403519" lon="7.02314254265312"><ele>942.8</ele><time>2026-04-06T12:48:34Z</time></trkpt><trkpt lat="43.75390007473798" lon="7.023070350388419"><ele>942.5999999999999</ele><time>2026-04-06T12:48:35Z</time></trkpt><trkpt lat="43.753845195773664" lon="7.0229972559546825"><ele>942.4000000000001</ele><time>2026-04-06T12:48:36Z</time></trkpt><trkpt lat="43.753806316771126" lon="7.022884310724761"><ele>942.2</ele><time>2026-04-06T12:48:37Z</time></trkpt><trkpt lat="43.75376438834871" lon="7.0227550926494775"><ele>942.0</ele><time>2026-04-06T12:48:38Z</time></trkpt><trkpt lat="43.75372382812967" lon="7.022614984433944"><ele>942.0</ele><time>2026-04-06T12:48:39Z</time></trkpt><trkpt lat="43.753683888725526" lon="7.022483803213539"><ele>942.0</ele><time>2026-04-06T12:48:40Z</time></trkpt><trkpt lat="43.753669645385635" lon="7.022370655275973"><ele>942.0</ele><time>2026-04-06T12:48:41Z</time></trkpt><trkpt lat="43.75368743409916" lon="7.022259049669552"><ele>942.0</ele><time>2026-04-06T12:48:42Z</time></trkpt><trkpt lat="43.753718575264244" lon="7.02214353653507"><ele>942.0</ele><time>2026-04-06T12:48:43Z</time></trkpt><trkpt lat="43.75373581502201" lon="7.022010522443408"><ele>942.0</ele><time>2026-04-06T12:48:44Z</time></trkpt><trkpt lat="43.753734030830586" lon="7.0218761365765525"><ele>942.0</ele><time>2026-04-06T12:48:45Z</time></trkpt><trkpt lat="43.75372569433724" lon="7.021730125933693"><ele>942.0</ele><time>2026-04-06T12:48:46Z</time></trkpt><trkpt lat="43.753715669795156" lon="7.0215865529908985"><ele>942.0</ele><time>2026-04-06T12:48:47Z</time></trkpt><trkpt lat="43.753724156930275" lon="7.02146567091484"><ele>942.0</ele><time>2026-04-06T12:48:48Z</time></trkpt><trkpt lat="43.753754124815195" lon="7.021335826279913"><ele>942.0</ele><time>2026-04-06T12:48:50Z</time></trkpt><trkpt lat="43.75365573885059" lon="7.021276219274638"><ele>942.0</ele><time>2026-04-06T12:48:53Z</time></trkpt><trkpt lat="43.753574227995394" lon="7.021143875400413"><ele>942.0</ele><time>2026-04-06T12:48:54.999Z</time></trkpt><trkpt lat="43.7535298238914" lon="7.0210624982184715"><ele>942.0</ele><time>2026-04-06T12:48:55.999Z</time></trkpt><trkpt lat="43.753499694719885" lon="7.020880787010561"><ele>942.0</ele><time>2026-04-06T12:48:57.999Z</time></trkpt><trkpt lat="43.75348978055825" lon="7.020729796233415"><ele>942.5</ele><time>2026-04-06T12:48:58.999Z</time></trkpt><trkpt lat="43.75347318883537" lon="7.020567459665889"><ele>943.0</ele><time>2026-04-06T12:48:59.999Z</time></trkpt><trkpt lat="43.75345395913919" lon="7.020384583699611"><ele>943.5</ele><time>2026-04-06T12:49:00.999Z</time></trkpt><trkpt lat="43.75344223465175" lon="7.020186884062209"><ele>944.0</ele><time>2026-04-06T12:49:01.999Z</time></trkpt><trkpt lat="43.753425606132026" lon="7.019975105554488"><ele>944.25</ele><time>2026-04-06T12:49:02.999Z</time></trkpt><trkpt lat="43.75340411882262" lon="7.019767192690994"><ele>944.5</ele><time>2026-04-06T12:49:03.999Z</time></trkpt><trkpt lat="43.75338811218551" lon="7.019589681594328"><ele>944.75</ele><time>2026-04-06T12:49:04.999Z</time></trkpt><trkpt lat="43.75337230907162" lon="7.019418664417707"><ele>945.0</ele><time>2026-04-06T12:49:05.999Z</time></trkpt><trkpt lat="43.753367040582845" lon="7.019275593652477"><ele>945.0</ele><time>2026-04-06T12:49:06.999Z</time></trkpt><trkpt lat="43.75336160682048" lon="7.0191508704564995"><ele>945.0</ele><time>2026-04-06T12:49:07.999Z</time></trkpt><trkpt lat="43.753375269877274" lon="7.019047286223226"><ele>945.0</ele><time>2026-04-06T12:49:08.999Z</time></trkpt><trkpt lat="43.75341648138201" lon="7.018969606828099"><ele>945.0</ele><time>2026-04-06T12:49:09.999Z</time></trkpt><trkpt lat="43.75347392886606" lon="7.018903965562027"><ele>945.0</ele><time>2026-04-06T12:49:10.999Z</time></trkpt><trkpt lat="43.75351698828054" lon="7.018834544721192"><ele>945.0</ele><time>2026-04-06T12:49:11.999Z</time></trkpt><trkpt lat="43.753530310703354" lon="7.018749353158136"><ele>945.0</ele><time>2026-04-06T12:49:12.999Z</time></trkpt><trkpt lat="43.75352511982401" lon="7.018660373869646"><ele>945.0</ele><time>2026-04-06T12:49:13.999Z</time></trkpt><trkpt lat="43.75351044757668" lon="7.018524389305186"><ele>945.0</ele><time>2026-04-06T12:49:15.999Z</time></trkpt><trkpt lat="43.753531429532785" lon="7.018440112063803"><ele>945.0</ele><time>2026-04-06T12:49:17.999Z</time></trkpt><trkpt lat="43.753471843807965" lon="7.018351743165946"><ele>945.0</ele><time>2026-04-06T12:49:20.999Z</time></trkpt><trkpt lat="43.753496492651685" lon="7.018260366521246"><ele>945.0</ele><time>2026-04-06T13:15:19Z</time></trkpt><trkpt lat="43.75348784081825" lon="7.018165369630694"><ele>945.0</ele><time>2026-04-06T13:15:22Z</time></trkpt><trkpt lat="43.75346148890838" lon="7.018061503450035"><ele>942.8333333333334</ele><time>2026-04-06T13:15:25Z</time></trkpt><trkpt lat="43.75340561005945" lon="7.017968112416735"><ele>940.6666666666667</ele><time>2026-04-06T13:15:28Z</time></trkpt><trkpt lat="43.75338223670395" lon="7.017874269612759"><ele>938.5</ele><time>2026-04-06T13:15:30Z</time></trkpt><trkpt lat="43.7533246431304" lon="7.017776444517363"><ele>936.3333333333334</ele><time>2026-04-06T13:15:33Z</time></trkpt><trkpt lat="43.753266267852936" lon="7.017733744590179"><ele>934.1666666666667</ele><time>2026-04-06T13:15:35Z</time></trkpt><trkpt lat="43.753180515158085" lon="7.017676782729187"><ele>932.0</ele><time>2026-04-06T13:15:38Z</time></trkpt><trkpt lat="43.7531053969734" lon="7.017612666163356"><ele>932.0</ele><time>2026-04-06T13:15:40Z</time></trkpt><trkpt lat="43.75300125330526" lon="7.017533235609051"><ele>932.0</ele><time>2026-04-06T13:15:42Z</time></trkpt><trkpt lat="43.752937901237495" lon="7.01748950698615"><ele>932.0</ele><time>2026-04-06T13:15:43Z</time></trkpt><trkpt lat="43.752837933060285" lon="7.017414779645808"><ele>932.0</ele><time>2026-04-06T13:15:45Z</time></trkpt><trkpt lat="43.75277852652954" lon="7.01736679753044"><ele>932.0</ele><time>2026-04-06T13:15:46Z</time></trkpt><trkpt lat="43.752711734574376" lon="7.017306342382627"><ele>930.1666666666667</ele><time>2026-04-06T13:15:47Z</time></trkpt><trkpt lat="43.752638515192025" lon="7.017237386803922"><ele>928.3333333333334</ele><time>2026-04-06T13:15:48Z</time></trkpt><trkpt lat="43.752560263487645" lon="7.017165951971425"><ele>926.5</ele><time>2026-04-06T13:15:49Z</time></trkpt><trkpt lat="43.75248460142813" lon="7.017092713910098"><ele>924.6666666666667</ele><time>2026-04-06T13:15:50Z</time></trkpt><trkpt lat="43.75241691427159" lon="7.017027722534121"><ele>922.8333333333334</ele><time>2026-04-06T13:15:51Z</time></trkpt><trkpt lat="43.75234098949514" lon="7.0169624766069285"><ele>921.0</ele><time>2026-04-06T13:15:52Z</time></trkpt><trkpt lat="43.75227029332369" lon="7.016905890405448"><ele>921.0</ele><time>2026-04-06T13:15:53Z</time></trkpt><trkpt lat="43.75220661504934" lon="7.016858733324626"><ele>921.0</ele><time>2026-04-06T13:15:54Z</time></trkpt><trkpt lat="43.75215141267195" lon="7.016809318195343"><ele>921.0</ele><time>2026-04-06T13:15:54.999Z</time></trkpt><trkpt lat="43.75209109358537" lon="7.016767298482206"><ele>921.0</ele><time>2026-04-06T13:15:55.999Z</time></trkpt><trkpt lat="43.75203487743458" lon="7.016720964383235"><ele>921.0</ele><time>2026-04-06T13:15:56.999Z</time></trkpt><trkpt lat="43.75195018902028" lon="7.016611199937426"><ele>921.0</ele><time>2026-04-06T13:15:58.999Z</time></trkpt><trkpt lat="43.75189501482166" lon="7.016542749844044"><ele>919.5</ele><time>2026-04-06T13:15:59.999Z</time></trkpt><trkpt lat="43.75181770786266" lon="7.0164709674054375"><ele>918.0</ele><time>2026-04-06T13:16:00.999Z</time></trkpt><trkpt lat="43.75174357353194" lon="7.016395566455705"><ele>916.5</ele><time>2026-04-06T13:16:01.999Z</time></trkpt><trkpt lat="43.75168086790222" lon="7.0163368967188795"><ele>915.0</ele><time>2026-04-06T13:16:02.999Z</time></trkpt><trkpt lat="43.75161454902601" lon="7.016295322478689"><ele>913.5</ele><time>2026-04-06T13:16:03.999Z</time></trkpt><trkpt lat="43.751535491349344" lon="7.016254883961348"><ele>912.0</ele><time>2026-04-06T13:16:04.999Z</time></trkpt><trkpt lat="43.751439605851694" lon="7.016213361397255"><ele>912.0</ele><time>2026-04-06T13:16:05.999Z</time></trkpt><trkpt lat="43.75135446962191" lon="7.016168336878859"><ele>912.0</ele><time>2026-04-06T13:16:06.999Z</time></trkpt><trkpt lat="43.75128350511179" lon="7.0161319530534305"><ele>912.0</ele><time>2026-04-06T13:16:07.999Z</time></trkpt><trkpt lat="43.751221731154324" lon="7.01610369662811"><ele>912.0</ele><time>2026-04-06T13:16:08.999Z</time></trkpt><trkpt lat="43.75111762950486" lon="7.016081302631006"><ele>912.0</ele><time>2026-04-06T13:16:10.999Z</time></trkpt><trkpt lat="43.751056379802215" lon="7.0160558572678"><ele>912.0</ele><time>2026-04-06T13:16:12.999Z</time></trkpt><trkpt lat="43.75098884224081" lon="7.016094794654486"><ele>911.8333333333334</ele><time>2026-04-06T13:16:15.999Z</time></trkpt><trkpt lat="43.75093322340262" lon="7.016167220434412"><ele>911.6666666666667</ele><time>2026-04-06T13:16:19.999Z</time></trkpt><trkpt lat="43.75088885073976" lon="7.016255783135965"><ele>911.5</ele><time>2026-04-06T13:16:23.999Z</time></trkpt><trkpt lat="43.75082241230764" lon="7.016262241556187"><ele>911.3333333333334</ele><time>2026-04-06T13:16:26.999Z</time></trkpt><trkpt lat="43.750740041620844" lon="7.016271915837763"><ele>911.1666666666667</ele><time>2026-04-06T13:16:33.999Z</time></trkpt><trkpt lat="43.750641680732535" lon="7.016242953103019"><ele>911.0</ele><time>2026-04-06T13:16:36.999Z</time></trkpt><trkpt lat="43.75055983265229" lon="7.016257299151109"><ele>911.0000000000001</ele><time>2026-04-06T13:16:39.999Z</time></trkpt><trkpt lat="43.75048637129838" lon="7.016231978901356"><ele>911.0</ele><time>2026-04-06T13:16:41.999Z</time></trkpt><trkpt lat="43.750402105420235" lon="7.016227044163552"><ele>911.0</ele><time>2026-04-06T13:16:43.999Z</time></trkpt><trkpt lat="43.750308483054035" lon="7.016206664198637"><ele>911.0</ele><time>2026-04-06T13:16:45.999Z</time></trkpt><trkpt lat="43.750213137969006" lon="7.016192974002749"><ele>911.0000000000001</ele><time>2026-04-06T13:16:48Z</time></trkpt><trkpt lat="43.750138787587794" lon="7.016193389330128"><ele>911.0</ele><time>2026-04-06T13:16:50Z</time></trkpt><trkpt lat="43.750072188940266" lon="7.0161651450305555"><ele>909.5714285714287</ele><time>2026-04-06T13:16:54Z</time></trkpt><trkpt lat="43.749982845230164" lon="7.016172572699708"><ele>908.1428571428571</ele><time>2026-04-06T13:16:57Z</time></trkpt><trkpt lat="43.749916442901466" lon="7.016154346947859"><ele>906.7142857142858</ele><time>2026-04-06T13:16:59Z</time></trkpt><trkpt lat="43.749847675131534" lon="7.016132691092603"><ele>905.2857142857143</ele><time>2026-04-06T13:17:02Z</time></trkpt><trkpt lat="43.749782131559535" lon="7.016138958376962"><ele>903.8571428571429</ele><time>2026-04-06T13:17:05Z</time></trkpt><trkpt lat="43.749709553825085" lon="7.016126778529396"><ele>902.4285714285714</ele><time>2026-04-06T13:17:08Z</time></trkpt><trkpt lat="43.74964149806491" lon="7.016087533636229"><ele>901.0</ele><time>2026-04-06T13:17:11Z</time></trkpt><trkpt lat="43.74957647224764" lon="7.016065762835001"><ele>900.9999999999999</ele><time>2026-04-06T13:17:14Z</time></trkpt><trkpt lat="43.749499805515285" lon="7.016012361400564"><ele>901.0</ele><time>2026-04-06T13:17:17Z</time></trkpt><trkpt lat="43.749427085336855" lon="7.015978291109238"><ele>901.0</ele><time>2026-04-06T13:17:19Z</time></trkpt><trkpt lat="43.749360068931274" lon="7.015965810525986"><ele>901.0</ele><time>2026-04-06T13:17:21Z</time></trkpt><trkpt lat="43.749299360703816" lon="7.015929386693715"><ele>900.9999999999999</ele><time>2026-04-06T13:17:23Z</time></trkpt><trkpt lat="43.74922830093776" lon="7.015903839357466"><ele>901.0</ele><time>2026-04-06T13:17:25Z</time></trkpt><trkpt lat="43.7491321983782" lon="7.0158675690520305"><ele>901.0</ele><time>2026-04-06T13:17:27Z</time></trkpt><trkpt lat="43.749027796388106" lon="7.015842560816158"><ele>900.9999999999999</ele><time>2026-04-06T13:17:30Z</time></trkpt><trkpt lat="43.748931973599305" lon="7.015789823219654"><ele>900.9999999999999</ele><time>2026-04-06T13:17:32Z</time></trkpt><trkpt lat="43.748813265201996" lon="7.015748762212344"><ele>901.0</ele><time>2026-04-06T13:17:34Z</time></trkpt><trkpt lat="43.74871492276168" lon="7.015697037107289"><ele>901.0</ele><time>2026-04-06T13:17:36Z</time></trkpt><trkpt lat="43.748641159088564" lon="7.015614267548355"><ele>899.1666666666666</ele><time>2026-04-06T13:17:38Z</time></trkpt><trkpt lat="43.74857526617673" lon="7.015573550665674"><ele>897.3333333333333</ele><time>2026-04-06T13:17:40Z</time></trkpt><trkpt lat="43.748513980064196" lon="7.0155275830328545"><ele>895.5</ele><time>2026-04-06T13:17:42Z</time></trkpt><trkpt lat="43.74844801693353" lon="7.015399302925433"><ele>893.6666666666667</ele><time>2026-04-06T13:17:44Z</time></trkpt><trkpt lat="43.74841055004124" lon="7.015317808487512"><ele>891.8333333333334</ele><time>2026-04-06T13:17:45Z</time></trkpt><trkpt lat="43.748366231958045" lon="7.015237624378709"><ele>890.0</ele><time>2026-04-06T13:17:46Z</time></trkpt><trkpt lat="43.748315989921345" lon="7.015156657974582"><ele>890.0000000000001</ele><time>2026-04-06T13:17:47Z</time></trkpt><trkpt lat="43.74827036168556" lon="7.015073610558137"><ele>890.0</ele><time>2026-04-06T13:17:48Z</time></trkpt><trkpt lat="43.748211781591294" lon="7.014991500651023"><ele>890.0</ele><time>2026-04-06T13:17:49Z</time></trkpt><trkpt lat="43.74814898692655" lon="7.01492116393922"><ele>890.0</ele><time>2026-04-06T13:17:50Z</time></trkpt><trkpt lat="43.74809714152889" lon="7.014834190596762"><ele>890.0000000000001</ele><time>2026-04-06T13:17:51Z</time></trkpt><trkpt lat="43.748056255512786" lon="7.014759522002086"><ele>890.0</ele><time>2026-04-06T13:17:52Z</time></trkpt><trkpt lat="43.74800521026596" lon="7.014665924484417"><ele>889.1428571428572</ele><time>2026-04-06T13:17:54Z</time></trkpt><trkpt lat="43.74793400175384" lon="7.0146122025509925"><ele>888.2857142857142</ele><time>2026-04-06T13:17:55.999Z</time></trkpt><trkpt lat="43.74786911442775" lon="7.014567642472597"><ele>887.4285714285714</ele><time>2026-04-06T13:17:57.999Z</time></trkpt><trkpt lat="43.74781289007416" lon="7.0145234972467545"><ele>886.5714285714287</ele><time>2026-04-06T13:17:59.999Z</time></trkpt><trkpt lat="43.747747372510894" lon="7.014439874696795"><ele>885.7142857142858</ele><time>2026-04-06T13:18:01.999Z</time></trkpt><trkpt lat="43.74769047106836" lon="7.014370840715611"><ele>884.8571428571429</ele><time>2026-04-06T13:18:03.999Z</time></trkpt><trkpt lat="43.74764951848166" lon="7.0143018872913805"><ele>884.0</ele><time>2026-04-06T13:18:05.999Z</time></trkpt><trkpt lat="43.74760242545787" lon="7.014237144676791"><ele>884.0000000000001</ele><time>2026-04-06T13:18:07.999Z</time></trkpt><trkpt lat="43.74755304676547" lon="7.014165688952668"><ele>884.0</ele><time>2026-04-06T13:18:09.999Z</time></trkpt><trkpt lat="43.74749981952897" lon="7.014092878833175"><ele>884.0</ele><time>2026-04-06T13:18:11.999Z</time></trkpt><trkpt lat="43.74743581126812" lon="7.01402932347455"><ele>884.0</ele><time>2026-04-06T13:18:13.999Z</time></trkpt><trkpt lat="43.747353265039834" lon="7.014001891114906"><ele>884.0000000000001</ele><time>2026-04-06T13:18:15.999Z</time></trkpt><trkpt lat="43.747295062371016" lon="7.014044408320151"><ele>884.0</ele><time>2026-04-06T13:18:17.999Z</time></trkpt><trkpt lat="43.747229168592604" lon="7.014111308919503"><ele>884.0000000000001</ele><time>2026-04-06T13:18:19.999Z</time></trkpt><trkpt lat="43.747186416506345" lon="7.014181419850382"><ele>884.0</ele><time>2026-04-06T13:18:22.999Z</time></trkpt><trkpt lat="43.74714758032067" lon="7.014271498836822"><ele>884.0</ele><time>2026-04-06T13:18:25.999Z</time></trkpt><trkpt lat="43.74708843164824" lon="7.014373924562173"><ele>884.0</ele><time>2026-04-06T13:18:27.999Z</time></trkpt><trkpt lat="43.74704030654541" lon="7.014496686373452"><ele>884.0000000000001</ele><time>2026-04-06T13:18:29.999Z</time></trkpt><trkpt lat="43.746974988513095" lon="7.014616872115168"><ele>884.0</ele><time>2026-04-06T13:18:31.999Z</time></trkpt><trkpt lat="43.746926517930206" lon="7.0146864303614"><ele>884.0</ele><time>2026-04-06T13:18:32.999Z</time></trkpt><trkpt lat="43.74688566493734" lon="7.014760527862699"><ele>884.0000000000001</ele><time>2026-04-06T13:18:33.999Z</time></trkpt><trkpt lat="43.74683542648696" lon="7.014819663728543"><ele>884.0000000000001</ele><time>2026-04-06T13:18:34.999Z</time></trkpt><trkpt lat="43.7467323985026" lon="7.014913178812046"><ele>884.0</ele><time>2026-04-06T13:18:36.999Z</time></trkpt><trkpt lat="43.74665548665697" lon="7.015025728346792"><ele>884.0</ele><time>2026-04-06T13:18:38.999Z</time></trkpt><trkpt lat="43.74656156092542" lon="7.015097676083616"><ele>884.2</ele><time>2026-04-06T13:18:40.999Z</time></trkpt><trkpt lat="43.7464485437969" lon="7.0151953163664444"><ele>884.4000000000001</ele><time>2026-04-06T13:18:42.999Z</time></trkpt><trkpt lat="43.74638596807187" lon="7.015245653612276"><ele>884.6</ele><time>2026-04-06T13:18:43.999Z</time></trkpt><trkpt lat="43.746315775475736" lon="7.0152474620197385"><ele>884.8</ele><time>2026-04-06T13:18:44.999Z</time></trkpt><trkpt lat="43.74620731130037" lon="7.015287604689199"><ele>885.0</ele><time>2026-04-06T13:18:46.999Z</time></trkpt><trkpt lat="43.74610929038571" lon="7.015296675514518"><ele>878.75</ele><time>2026-04-06T13:18:48.999Z</time></trkpt><trkpt lat="43.74601870477741" lon="7.015297845750721"><ele>872.5</ele><time>2026-04-06T13:18:50.999Z</time></trkpt><trkpt lat="43.74589979153636" lon="7.0153206474440974"><ele>866.25</ele><time>2026-04-06T13:18:52.999Z</time></trkpt><trkpt lat="43.745778992720666" lon="7.015361241050404"><ele>860.0</ele><time>2026-04-06T13:18:55Z</time></trkpt><trkpt lat="43.745666423477125" lon="7.015409665319848"><ele>860.0</ele><time>2026-04-06T13:18:57Z</time></trkpt><trkpt lat="43.74557415018255" lon="7.015448592905752"><ele>860.0</ele><time>2026-04-06T13:18:59Z</time></trkpt><trkpt lat="43.74551114225637" lon="7.015442969944151"><ele>860.0</ele><time>2026-04-06T13:19:00Z</time></trkpt><trkpt lat="43.74544245832482" lon="7.015446140505592"><ele>860.0</ele><time>2026-04-06T13:19:01Z</time></trkpt><trkpt lat="43.745379350502986" lon="7.015474483270236"><ele>860.0</ele><time>2026-04-06T13:19:02Z</time></trkpt><trkpt lat="43.74532298252934" lon="7.015518125012633"><ele>860.0</ele><time>2026-04-06T13:19:03Z</time></trkpt><trkpt lat="43.745276126193936" lon="7.015576524738225"><ele>860.0</ele><time>2026-04-06T13:19:04Z</time></trkpt><trkpt lat="43.74520726576405" lon="7.015697181077975"><ele>861.3333333333334</ele><time>2026-04-06T13:19:06Z</time></trkpt><trkpt lat="43.74514404797595" lon="7.015771269516089"><ele>862.6666666666667</ele><time>2026-04-06T13:19:08Z</time></trkpt><trkpt lat="43.745072761820666" lon="7.015844237227208"><ele>864.0</ele><time>2026-04-06T13:19:10Z</time></trkpt><trkpt lat="43.74498729097705" lon="7.015908245336547"><ele>865.3333333333333</ele><time>2026-04-06T13:19:12Z</time></trkpt><trkpt lat="43.74492281423394" lon="7.015982054095146"><ele>866.6666666666666</ele><time>2026-04-06T13:19:14Z</time></trkpt><trkpt lat="43.74485220274919" lon="7.016030574100042"><ele>868.0</ele><time>2026-04-06T13:19:16Z</time></trkpt><trkpt lat="43.74478040605861" lon="7.016081042653069"><ele>868.0</ele><time>2026-04-06T13:19:18Z</time></trkpt><trkpt lat="43.74472479715642" lon="7.0161534476878975"><ele>868.0</ele><time>2026-04-06T13:19:20Z</time></trkpt><trkpt lat="43.74466677010718" lon="7.0162298866511765"><ele>868.0</ele><time>2026-04-06T13:19:22Z</time></trkpt><trkpt lat="43.74458313749974" lon="7.016316897672888"><ele>868.0</ele><time>2026-04-06T13:19:24Z</time></trkpt><trkpt lat="43.74447489050983" lon="7.016408846326212"><ele>868.0</ele><time>2026-04-06T13:19:26Z</time></trkpt><trkpt lat="43.744394208733866" lon="7.016484672794664"><ele>867.4999999999999</ele><time>2026-04-06T13:19:28Z</time></trkpt><trkpt lat="43.74431700767823" lon="7.01659191538103"><ele>867.0</ele><time>2026-04-06T13:19:30Z</time></trkpt><trkpt lat="43.74425037568307" lon="7.016650284473246"><ele>866.5</ele><time>2026-04-06T13:19:31Z</time></trkpt><trkpt lat="43.74418911888909" lon="7.016703460674783"><ele>866.0</ele><time>2026-04-06T13:19:32Z</time></trkpt><trkpt lat="43.744122441084706" lon="7.016776167796261"><ele>865.4999999999999</ele><time>2026-04-06T13:19:33Z</time></trkpt><trkpt lat="43.744051689188225" lon="7.016830630703826"><ele>865.0</ele><time>2026-04-06T13:19:34Z</time></trkpt><trkpt lat="43.743976222296006" lon="7.016866484556129"><ele>865.0</ele><time>2026-04-06T13:19:35Z</time></trkpt><trkpt lat="43.74390373833245" lon="7.0169171973955"><ele>865.0</ele><time>2026-04-06T13:19:36Z</time></trkpt><trkpt lat="43.74384353762458" lon="7.01696490213961"><ele>865.0</ele><time>2026-04-06T13:19:37Z</time></trkpt><trkpt lat="43.74375494558512" lon="7.017075684953823"><ele>865.0</ele><time>2026-04-06T13:19:39Z</time></trkpt><trkpt lat="43.743703834734525" lon="7.017133412310596"><ele>865.0</ele><time>2026-04-06T13:19:40Z</time></trkpt><trkpt lat="43.7435995849786" lon="7.017214128727132"><ele>865.6</ele><time>2026-04-06T13:19:42Z</time></trkpt><trkpt lat="43.74354604989353" lon="7.017265903763882"><ele>866.2</ele><time>2026-04-06T13:19:43Z</time></trkpt><trkpt lat="43.74345573940883" lon="7.017379777632287"><ele>866.8</ele><time>2026-04-06T13:19:45Z</time></trkpt><trkpt lat="43.7433632205212" lon="7.0174711836264185"><ele>867.4</ele><time>2026-04-06T13:19:47Z</time></trkpt><trkpt lat="43.743289801348034" lon="7.01747741872861"><ele>868.0</ele><time>2026-04-06T13:19:48Z</time></trkpt><trkpt lat="43.74320177627308" lon="7.017501815974957"><ele>868.0</ele><time>2026-04-06T13:19:49Z</time></trkpt><trkpt lat="43.743101426312286" lon="7.01755063762115"><ele>868.0</ele><time>2026-04-06T13:19:50Z</time></trkpt><trkpt lat="43.743019364692856" lon="7.017620211519673"><ele>868.0</ele><time>2026-04-06T13:19:51Z</time></trkpt><trkpt lat="43.742956877021925" lon="7.017668083770055"><ele>868.0</ele><time>2026-04-06T13:19:52Z</time></trkpt><trkpt lat="43.742836885676866" lon="7.01768778428358"><ele>868.0</ele><time>2026-04-06T13:19:54Z</time></trkpt><trkpt lat="43.74274924160855" lon="7.017705576106975"><ele>864.2</ele><time>2026-04-06T13:19:55Z</time></trkpt><trkpt lat="43.74268373948182" lon="7.017729490259704"><ele>860.4</ele><time>2026-04-06T13:19:56Z</time></trkpt><trkpt lat="43.74256847715305" lon="7.017751311606993"><ele>856.6</ele><time>2026-04-06T13:19:58Z</time></trkpt><trkpt lat="43.74246372863988" lon="7.017774153612859"><ele>852.8000000000001</ele><time>2026-04-06T13:20:00Z</time></trkpt><trkpt lat="43.742373025494146" lon="7.0178058610737954"><ele>849.0</ele><time>2026-04-06T13:20:01.999Z</time></trkpt><trkpt lat="43.74226678747873" lon="7.0178481297031565"><ele>849.0</ele><time>2026-04-06T13:20:03.999Z</time></trkpt><trkpt lat="43.7422039650548" lon="7.017868881755332"><ele>849.0</ele><time>2026-04-06T13:20:04.999Z</time></trkpt><trkpt lat="43.74212453242092" lon="7.017891869777174"><ele>849.0</ele><time>2026-04-06T13:20:05.999Z</time></trkpt><trkpt lat="43.74203424239587" lon="7.017910319682555"><ele>849.0</ele><time>2026-04-06T13:20:06.999Z</time></trkpt><trkpt lat="43.741942416312774" lon="7.017945641486014"><ele>849.0</ele><time>2026-04-06T13:20:07.999Z</time></trkpt><trkpt lat="43.74184966740099" lon="7.017964030838864"><ele>849.0</ele><time>2026-04-06T13:20:08.999Z</time></trkpt><trkpt lat="43.74176117603531" lon="7.017974802538851"><ele>847.2857142857143</ele><time>2026-04-06T13:20:09.999Z</time></trkpt><trkpt lat="43.741691391265725" lon="7.017999323485037"><ele>845.5714285714286</ele><time>2026-04-06T13:20:10.999Z</time></trkpt><trkpt lat="43.7416305211013" lon="7.018024665294732"><ele>843.8571428571429</ele><time>2026-04-06T13:20:11.999Z</time></trkpt><trkpt lat="43.74155902349733" lon="7.018046237836977"><ele>842.1428571428571</ele><time>2026-04-06T13:20:12.999Z</time></trkpt><trkpt lat="43.741482735294646" lon="7.01807997995142"><ele>840.4285714285714</ele><time>2026-04-06T13:20:13.999Z</time></trkpt><trkpt lat="43.741403390632286" lon="7.0181197892862475"><ele>838.7142857142858</ele><time>2026-04-06T13:20:14.999Z</time></trkpt><trkpt lat="43.74133462547284" lon="7.018154325699614"><ele>837.0</ele><time>2026-04-06T13:20:15.999Z</time></trkpt><trkpt lat="43.74125033273648" lon="7.018169200657164"><ele>837.0</ele><time>2026-04-06T13:20:16.999Z</time></trkpt><trkpt lat="43.74116920493002" lon="7.018176709773385"><ele>837.0</ele><time>2026-04-06T13:20:17.999Z</time></trkpt><trkpt lat="43.741097826729494" lon="7.018175516289251"><ele>837.0</ele><time>2026-04-06T13:20:18.999Z</time></trkpt><trkpt lat="43.741023165072676" lon="7.018180863642192"><ele>837.0</ele><time>2026-04-06T13:20:19.999Z</time></trkpt><trkpt lat="43.740958466969154" lon="7.018197268051536"><ele>837.0</ele><time>2026-04-06T13:20:20.999Z</time></trkpt><trkpt lat="43.74088491638844" lon="7.018148895355359"><ele>837.0</ele><time>2026-04-06T13:20:21.999Z</time></trkpt><trkpt lat="43.740781865129435" lon="7.018099032042574"><ele>836.6666666666666</ele><time>2026-04-06T13:20:22.999Z</time></trkpt><trkpt lat="43.74068132426176" lon="7.0180682087789705"><ele>836.3333333333333</ele><time>2026-04-06T13:20:23.999Z</time></trkpt><trkpt lat="43.74058810598946" lon="7.018039461876319"><ele>836.0</ele><time>2026-04-06T13:20:24.999Z</time></trkpt><trkpt lat="43.740500808628596" lon="7.018010026604387"><ele>835.6666666666666</ele><time>2026-04-06T13:20:25.999Z</time></trkpt><trkpt lat="43.74042556069146" lon="7.017984076728632"><ele>835.3333333333333</ele><time>2026-04-06T13:20:26.999Z</time></trkpt><trkpt lat="43.74035625341878" lon="7.017952063214007"><ele>835.0</ele><time>2026-04-06T13:20:27.999Z</time></trkpt><trkpt lat="43.74023188741812" lon="7.017882845550199"><ele>836.25</ele><time>2026-04-06T13:20:29.999Z</time></trkpt><trkpt lat="43.740071984122594" lon="7.017879062034973"><ele>837.5</ele><time>2026-04-06T13:20:31.999Z</time></trkpt><trkpt lat="43.739971848963634" lon="7.017856224293205"><ele>838.75</ele><time>2026-04-06T13:20:32.999Z</time></trkpt><trkpt lat="43.73987114618574" lon="7.017820158006539"><ele>840.0</ele><time>2026-04-06T13:20:33.999Z</time></trkpt><trkpt lat="43.739765314641936" lon="7.017765235906184"><ele>840.0</ele><time>2026-04-06T13:20:34.999Z</time></trkpt><trkpt lat="43.73967181558384" lon="7.01771545006674"><ele>840.0</ele><time>2026-04-06T13:20:35.999Z</time></trkpt><trkpt lat="43.739584270040964" lon="7.017687037009789"><ele>840.0</ele><time>2026-04-06T13:20:36.999Z</time></trkpt><trkpt lat="43.73950332507431" lon="7.017674354315381"><ele>840.0</ele><time>2026-04-06T13:20:37.999Z</time></trkpt><trkpt lat="43.73942004601929" lon="7.017679817625376"><ele>840.0</ele><time>2026-04-06T13:20:38.999Z</time></trkpt><trkpt lat="43.73933723641537" lon="7.017692103243079"><ele>840.0</ele><time>2026-04-06T13:20:39.999Z</time></trkpt><trkpt lat="43.73926656385557" lon="7.017703418238235"><ele>839.5</ele><time>2026-04-06T13:20:40.999Z</time></trkpt><trkpt lat="43.739175549254995" lon="7.017731682165416"><ele>839.0</ele><time>2026-04-06T13:20:42.999Z</time></trkpt><trkpt lat="43.739108435882706" lon="7.017764371307523"><ele>838.5</ele><time>2026-04-06T13:20:44.999Z</time></trkpt><trkpt lat="43.73904661771971" lon="7.017813602142398"><ele>838.0</ele><time>2026-04-06T13:20:47.999Z</time></trkpt><trkpt lat="43.73896786507486" lon="7.017795190689606"><ele>837.5</ele><time>2026-04-06T13:20:49.999Z</time></trkpt><trkpt lat="43.73884259439171" lon="7.017841553216071"><ele>837.0</ele><time>2026-04-06T13:20:51.999Z</time></trkpt><trkpt lat="43.73877386549144" lon="7.017857522932271"><ele>837.0</ele><time>2026-04-06T13:20:52.999Z</time></trkpt><trkpt lat="43.7386668984076" lon="7.01784470917722"><ele>837.0</ele><time>2026-04-06T13:20:53.999Z</time></trkpt><trkpt lat="43.73859145659148" lon="7.017819197690815"><ele>837.0</ele><time>2026-04-06T13:20:54.999Z</time></trkpt><trkpt lat="43.73851556159504" lon="7.017819714866086"><ele>837.0</ele><time>2026-04-06T13:20:55.999Z</time></trkpt><trkpt lat="43.738429114194744" lon="7.017846132629491"><ele>837.0</ele><time>2026-04-06T13:20:57.999Z</time></trkpt><trkpt lat="43.73857163334196" lon="7.017790301980541"><ele>837.0</ele><time>2026-04-06T13:22:07.999Z</time></trkpt><trkpt lat="43.73863847295636" lon="7.017785683627205"><ele>837.0</ele><time>2026-04-06T13:22:08.999Z</time></trkpt><trkpt lat="43.738739843795365" lon="7.017843694601478"><ele>837.0</ele><time>2026-04-06T13:22:10.999Z</time></trkpt><trkpt lat="43.73882556723988" lon="7.017800506149865"><ele>837.0</ele><time>2026-04-06T13:22:12.999Z</time></trkpt><trkpt lat="43.73892714822135" lon="7.0177560387433635"><ele>837.0</ele><time>2026-04-06T13:22:14.999Z</time></trkpt><trkpt lat="43.73879728187097" lon="7.017823914625369"><ele>837.0</ele><time>2026-04-06T13:23:48Z</time></trkpt><trkpt lat="43.7387115530812" lon="7.017832568838183"><ele>837.0</ele><time>2026-04-06T13:23:49Z</time></trkpt><trkpt lat="43.738633215078316" lon="7.0178204300156715"><ele>837.0</ele><time>2026-04-06T13:23:50Z</time></trkpt><trkpt lat="43.73855136061664" lon="7.017798789235075"><ele>837.0</ele><time>2026-04-06T13:23:51Z</time></trkpt><trkpt lat="43.738471355999415" lon="7.01780582076181"><ele>837.0</ele><time>2026-04-06T13:23:52Z</time></trkpt><trkpt lat="43.73838384008262" lon="7.017830147696516"><ele>837.0</ele><time>2026-04-06T13:23:53Z</time></trkpt><trkpt lat="43.73829756460143" lon="7.017824258434182"><ele>835.8333333333334</ele><time>2026-04-06T13:23:54Z</time></trkpt><trkpt lat="43.7382259754391" lon="7.017794585055832"><ele>834.6666666666667</ele><time>2026-04-06T13:23:55Z</time></trkpt><trkpt lat="43.73815287690257" lon="7.01781094548618"><ele>833.5</ele><time>2026-04-06T13:23:57Z</time></trkpt><trkpt lat="43.73810071340992" lon="7.017888202827785"><ele>832.3333333333334</ele><time>2026-04-06T13:23:59Z</time></trkpt><trkpt lat="43.73800237008148" lon="7.017883390090128"><ele>831.1666666666667</ele><time>2026-04-06T13:24:01Z</time></trkpt><trkpt lat="43.73789652028927" lon="7.017890432963469"><ele>830.0</ele><time>2026-04-06T13:24:02Z</time></trkpt><trkpt lat="43.73777864717073" lon="7.017887309716845"><ele>830.0</ele><time>2026-04-06T13:24:03Z</time></trkpt><trkpt lat="43.737673767031076" lon="7.017900656714509"><ele>830.0</ele><time>2026-04-06T13:24:04Z</time></trkpt><trkpt lat="43.73759448109956" lon="7.017912767136952"><ele>830.0</ele><time>2026-04-06T13:24:05Z</time></trkpt><trkpt lat="43.73749819074899" lon="7.017927854372821"><ele>830.0</ele><time>2026-04-06T13:24:06Z</time></trkpt><trkpt lat="43.73739114391805" lon="7.01791679972884"><ele>830.0</ele><time>2026-04-06T13:24:07Z</time></trkpt><trkpt lat="43.737301784317424" lon="7.017882682013836"><ele>830.0</ele><time>2026-04-06T13:24:08Z</time></trkpt><trkpt lat="43.737236809677206" lon="7.017858271180759"><ele>830.0</ele><time>2026-04-06T13:24:09Z</time></trkpt><trkpt lat="43.737111744541004" lon="7.017938569255488"><ele>830.0</ele><time>2026-04-06T13:24:11Z</time></trkpt><trkpt lat="43.737027406556805" lon="7.017996932479458"><ele>830.0</ele><time>2026-04-06T13:24:12Z</time></trkpt><trkpt lat="43.73689701152909" lon="7.018026194108213"><ele>830.0</ele><time>2026-04-06T13:24:13Z</time></trkpt><trkpt lat="43.736760958903396" lon="7.018041703939105"><ele>829.0</ele><time>2026-04-06T13:24:14Z</time></trkpt><trkpt lat="43.736633044920815" lon="7.018051380344742"><ele>828.0</ele><time>2026-04-06T13:24:15Z</time></trkpt><trkpt lat="43.73652325276444" lon="7.0180400286628215"><ele>827.0</ele><time>2026-04-06T13:24:16Z</time></trkpt><trkpt lat="43.73642326289647" lon="7.018017277836717"><ele>826.0</ele><time>2026-04-06T13:24:17Z</time></trkpt><trkpt lat="43.73634019191948" lon="7.0179896967675655"><ele>825.0</ele><time>2026-04-06T13:24:18Z</time></trkpt><trkpt lat="43.73627504084275" lon="7.017930688186483"><ele>825.0</ele><time>2026-04-06T13:24:19Z</time></trkpt><trkpt lat="43.73622231950414" lon="7.017874078751089"><ele>825.0</ele><time>2026-04-06T13:24:20Z</time></trkpt><trkpt lat="43.73613020560006" lon="7.017802494428994"><ele>825.0</ele><time>2026-04-06T13:24:22Z</time></trkpt><trkpt lat="43.73605876212235" lon="7.017788328318159"><ele>825.0</ele><time>2026-04-06T13:24:23Z</time></trkpt><trkpt lat="43.73600081870194" lon="7.0177473017931975"><ele>825.0</ele><time>2026-04-06T13:24:23.999Z</time></trkpt><trkpt lat="43.735942975503555" lon="7.017712430078322"><ele>825.0</ele><time>2026-04-06T13:24:24.999Z</time></trkpt><trkpt lat="43.73587111284258" lon="7.017730753859628"><ele>825.0</ele><time>2026-04-06T13:24:26.999Z</time></trkpt><trkpt lat="43.73577896810529" lon="7.017845480795572"><ele>826.3333333333334</ele><time>2026-04-06T13:24:28.999Z</time></trkpt><trkpt lat="43.73572867874931" lon="7.017906130264504"><ele>827.6666666666667</ele><time>2026-04-06T13:24:29.999Z</time></trkpt><trkpt lat="43.73563710260486" lon="7.017911487199153"><ele>829.0</ele><time>2026-04-06T13:24:31.999Z</time></trkpt><trkpt lat="43.735529244299705" lon="7.01781903143769"><ele>830.3333333333334</ele><time>2026-04-06T13:24:33.999Z</time></trkpt><trkpt lat="43.735467767593164" lon="7.017780614892219"><ele>831.6666666666667</ele><time>2026-04-06T13:24:34.999Z</time></trkpt><trkpt lat="43.73540853693859" lon="7.017740067930154"><ele>833.0</ele><time>2026-04-06T13:24:35.999Z</time></trkpt><trkpt lat="43.73540973406185" lon="7.017645718566036"><ele>830.4</ele><time>2026-04-06T13:24:38.999Z</time></trkpt><trkpt lat="43.73539838357526" lon="7.0174569925299"><ele>827.8</ele><time>2026-04-06T13:24:49.999Z</time></trkpt><trkpt lat="43.73540239322956" lon="7.017336755832127"><ele>825.2</ele><time>2026-04-06T13:24:50.999Z</time></trkpt><trkpt lat="43.73539306128273" lon="7.017220389682692"><ele>822.6</ele><time>2026-04-06T13:24:51.999Z</time></trkpt><trkpt lat="43.73535076613213" lon="7.017118343315842"><ele>820.0</ele><time>2026-04-06T13:24:53.999Z</time></trkpt><trkpt lat="43.73523111179503" lon="7.017025483762741"><ele>820.2</ele><time>2026-04-06T13:24:55.999Z</time></trkpt><trkpt lat="43.73515290272349" lon="7.016961771082319"><ele>820.4</ele><time>2026-04-06T13:24:56.999Z</time></trkpt><trkpt lat="43.73507680684041" lon="7.016862257547198"><ele>820.5999999999999</ele><time>2026-04-06T13:24:57.999Z</time></trkpt><trkpt lat="43.7349928539332" lon="7.016785189823178"><ele>820.8</ele><time>2026-04-06T13:24:58.999Z</time></trkpt><trkpt lat="43.73491113477548" lon="7.016744413735665"><ele>821.0</ele><time>2026-04-06T13:24:59.999Z</time></trkpt><trkpt lat="43.73484001818612" lon="7.016563791852521"><ele>821.0</ele><time>2026-04-06T13:25:00.999Z</time></trkpt><trkpt lat="43.734764833483204" lon="7.016474986231362"><ele>821.0</ele><time>2026-04-06T13:25:01.999Z</time></trkpt><trkpt lat="43.734665117936295" lon="7.016437662150842"><ele>821.0</ele><time>2026-04-06T13:25:02.999Z</time></trkpt><trkpt lat="43.734560816077845" lon="7.01636597340531"><ele>821.0</ele><time>2026-04-06T13:25:03.999Z</time></trkpt><trkpt lat="43.734456354666236" lon="7.016272150100275"><ele>821.0</ele><time>2026-04-06T13:25:04.999Z</time></trkpt><trkpt lat="43.73435298957215" lon="7.016171472978519"><ele>821.5</ele><time>2026-04-06T13:25:05.999Z</time></trkpt><trkpt lat="43.734247179882416" lon="7.016072837591501"><ele>822.0</ele><time>2026-04-06T13:25:06.999Z</time></trkpt><trkpt lat="43.734158755191224" lon="7.015989106379331"><ele>822.5</ele><time>2026-04-06T13:25:07.999Z</time></trkpt><trkpt lat="43.73407005758992" lon="7.0159024769717595"><ele>823.0</ele><time>2026-04-06T13:25:08.999Z</time></trkpt><trkpt lat="43.733982945987975" lon="7.0158152188893235"><ele>823.0</ele><time>2026-04-06T13:25:09.999Z</time></trkpt><trkpt lat="43.73390200268353" lon="7.015761799837853"><ele>823.0</ele><time>2026-04-06T13:25:11Z</time></trkpt><trkpt lat="43.733824086229994" lon="7.015700354001052"><ele>823.0</ele><time>2026-04-06T13:25:12Z</time></trkpt><trkpt lat="43.73372972170364" lon="7.015649641802761"><ele>823.0</ele><time>2026-04-06T13:25:13Z</time></trkpt><trkpt lat="43.73362982380957" lon="7.015580354335528"><ele>823.0</ele><time>2026-04-06T13:25:14Z</time></trkpt><trkpt lat="43.73353523028144" lon="7.015497952592464"><ele>826.75</ele><time>2026-04-06T13:25:15Z</time></trkpt><trkpt lat="43.73345434607118" lon="7.01540152686803"><ele>830.5</ele><time>2026-04-06T13:25:16Z</time></trkpt><trkpt lat="43.73338769457461" lon="7.015271243907903"><ele>834.25</ele><time>2026-04-06T13:25:17Z</time></trkpt><trkpt lat="43.733295754919766" lon="7.015133055900107"><ele>838.0</ele><time>2026-04-06T13:25:18Z</time></trkpt><trkpt lat="43.73322130266817" lon="7.015007836934221"><ele>836.2</ele><time>2026-04-06T13:25:19Z</time></trkpt><trkpt lat="43.73314867623517" lon="7.014907817130966"><ele>834.4</ele><time>2026-04-06T13:25:20Z</time></trkpt><trkpt lat="43.73309140353652" lon="7.014832571327984"><ele>832.6</ele><time>2026-04-06T13:25:21Z</time></trkpt><trkpt lat="43.73302241648615" lon="7.014759663186031"><ele>830.8000000000001</ele><time>2026-04-06T13:25:22Z</time></trkpt><trkpt lat="43.73293909391763" lon="7.014678584681099"><ele>829.0</ele><time>2026-04-06T13:25:23Z</time></trkpt><trkpt lat="43.73285759666865" lon="7.0145969778207355"><ele>829.0</ele><time>2026-04-06T13:25:24Z</time></trkpt><trkpt lat="43.73277581968302" lon="7.014520924079601"><ele>829.0</ele><time>2026-04-06T13:25:25Z</time></trkpt><trkpt lat="43.73268864197856" lon="7.014447657537698"><ele>829.0</ele><time>2026-04-06T13:25:26Z</time></trkpt><trkpt lat="43.73260531848914" lon="7.0143816890799116"><ele>829.0</ele><time>2026-04-06T13:25:27Z</time></trkpt><trkpt lat="43.732538810543566" lon="7.014316884517379"><ele>829.0</ele><time>2026-04-06T13:25:28Z</time></trkpt><trkpt lat="43.732475447737926" lon="7.014254671878862"><ele>830.6666666666666</ele><time>2026-04-06T13:25:29Z</time></trkpt><trkpt lat="43.73239709868585" lon="7.01419716565807"><ele>832.3333333333333</ele><time>2026-04-06T13:25:30Z</time></trkpt><trkpt lat="43.732309168536545" lon="7.014132386555404"><ele>834.0</ele><time>2026-04-06T13:25:31Z</time></trkpt><trkpt lat="43.732242454806645" lon="7.014046795496868"><ele>835.6666666666667</ele><time>2026-04-06T13:25:32Z</time></trkpt><trkpt lat="43.73219157133867" lon="7.0139575092605035"><ele>837.3333333333334</ele><time>2026-04-06T13:25:33Z</time></trkpt><trkpt lat="43.73213623180673" lon="7.01386621397125"><ele>839.0</ele><time>2026-04-06T13:25:34Z</time></trkpt><trkpt lat="43.73208792771836" lon="7.013788349098617"><ele>839.0</ele><time>2026-04-06T13:25:35Z</time></trkpt><trkpt lat="43.73203695071422" lon="7.013702747583225"><ele>839.0</ele><time>2026-04-06T13:25:36Z</time></trkpt><trkpt lat="43.73199540147443" lon="7.013619046808421"><ele>839.0</ele><time>2026-04-06T13:25:37Z</time></trkpt><trkpt lat="43.731958761425595" lon="7.013547530416103"><ele>839.0</ele><time>2026-04-06T13:25:38Z</time></trkpt><trkpt lat="43.73186944194207" lon="7.013425774959684"><ele>839.0</ele><time>2026-04-06T13:25:40Z</time></trkpt><trkpt lat="43.73176792779109" lon="7.013329045556119"><ele>840.2</ele><time>2026-04-06T13:25:42Z</time></trkpt><trkpt lat="43.73165020769685" lon="7.013223354407148"><ele>841.4000000000001</ele><time>2026-04-06T13:25:44Z</time></trkpt><trkpt lat="43.73158892794875" lon="7.0131632030161954"><ele>842.6</ele><time>2026-04-06T13:25:45Z</time></trkpt><trkpt lat="43.7315309212834" lon="7.013118576948739"><ele>843.8</ele><time>2026-04-06T13:25:46Z</time></trkpt><trkpt lat="43.73141537097103" lon="7.013066228347443"><ele>845.0</ele><time>2026-04-06T13:25:48Z</time></trkpt><trkpt lat="43.73130175287956" lon="7.013071858953173"><ele>845.0000000000001</ele><time>2026-04-06T13:25:50Z</time></trkpt><trkpt lat="43.731227141236076" lon="7.013080609633206"><ele>845.0</ele><time>2026-04-06T13:25:51Z</time></trkpt><trkpt lat="43.731139726884045" lon="7.013095807534234"><ele>845.0</ele><time>2026-04-06T13:25:52Z</time></trkpt><trkpt lat="43.73106620729134" lon="7.013141884728581"><ele>845.0</ele><time>2026-04-06T13:25:53Z</time></trkpt><trkpt lat="43.73098904961986" lon="7.013131959384804"><ele>845.0000000000001</ele><time>2026-04-06T13:25:54Z</time></trkpt><trkpt lat="43.730897478829924" lon="7.013068084822518"><ele>845.0</ele><time>2026-04-06T13:25:56Z</time></trkpt><trkpt lat="43.7308432053063" lon="7.012952281326384"><ele>848.2</ele><time>2026-04-06T13:25:58Z</time></trkpt><trkpt lat="43.730804182298925" lon="7.012771745683667"><ele>851.4</ele><time>2026-04-06T13:26:00Z</time></trkpt><trkpt lat="43.730771785637835" lon="7.012657411162782"><ele>854.5999999999999</ele><time>2026-04-06T13:26:01Z</time></trkpt><trkpt lat="43.73074665753218" lon="7.0125315035515605"><ele>857.8</ele><time>2026-04-06T13:26:02Z</time></trkpt><trkpt lat="43.730708035303856" lon="7.012429824078224"><ele>861.0</ele><time>2026-04-06T13:26:03Z</time></trkpt><trkpt lat="43.7306643748692" lon="7.012320113400307"><ele>861.0</ele><time>2026-04-06T13:26:04Z</time></trkpt><trkpt lat="43.730620396620964" lon="7.012217332933158"><ele>861.0</ele><time>2026-04-06T13:26:05Z</time></trkpt><trkpt lat="43.73056757205314" lon="7.012135467578105"><ele>861.0</ele><time>2026-04-06T13:26:06Z</time></trkpt><trkpt lat="43.73051383770521" lon="7.012071793506054"><ele>861.0</ele><time>2026-04-06T13:26:07Z</time></trkpt><trkpt lat="43.73043162036139" lon="7.012032697907857"><ele>861.0</ele><time>2026-04-06T13:26:08Z</time></trkpt><trkpt lat="43.73033667034899" lon="7.012009330557662"><ele>861.0</ele><time>2026-04-06T13:26:09Z</time></trkpt><trkpt lat="43.73024682233867" lon="7.0119757293311045"><ele>862.6666666666666</ele><time>2026-04-06T13:26:10Z</time></trkpt><trkpt lat="43.73017416714088" lon="7.011945339945262"><ele>864.3333333333333</ele><time>2026-04-06T13:26:11Z</time></trkpt><trkpt lat="43.73009802171727" lon="7.011916711928626"><ele>866.0</ele><time>2026-04-06T13:26:12Z</time></trkpt><trkpt lat="43.730042759358334" lon="7.011863331125999"><ele>867.6666666666666</ele><time>2026-04-06T13:26:13Z</time></trkpt><trkpt lat="43.72999620166283" lon="7.011717379038441"><ele>869.3333333333333</ele><time>2026-04-06T13:26:15Z</time></trkpt><trkpt lat="43.72994714146055" lon="7.0116062554991965"><ele>871.0</ele><time>2026-04-06T13:26:17Z</time></trkpt><trkpt lat="43.729966820116026" lon="7.011493341400483"><ele>871.0</ele><time>2026-04-06T13:26:19Z</time></trkpt><trkpt lat="43.7300337415581" lon="7.011365285887988"><ele>870.9999999999999</ele><time>2026-04-06T13:26:21Z</time></trkpt><trkpt lat="43.730101160923844" lon="7.011263113829061"><ele>870.9999999999999</ele><time>2026-04-06T13:26:23Z</time></trkpt><trkpt lat="43.730151821868525" lon="7.011206599932635"><ele>871.0</ele><time>2026-04-06T13:26:24Z</time></trkpt><trkpt lat="43.73022412975363" lon="7.011107808301937"><ele>871.0</ele><time>2026-04-06T13:26:26Z</time></trkpt><trkpt lat="43.73025333208403" lon="7.010985049736142"><ele>871.4999999999999</ele><time>2026-04-06T13:26:28Z</time></trkpt><trkpt lat="43.73023668994294" lon="7.010892442779227"><ele>872.0</ele><time>2026-04-06T13:26:30Z</time></trkpt><trkpt lat="43.73019782345252" lon="7.01079344426906"><ele>872.5</ele><time>2026-04-06T13:26:32Z</time></trkpt><trkpt lat="43.73015480256751" lon="7.0106850872376505"><ele>873.0</ele><time>2026-04-06T13:26:34Z</time></trkpt><trkpt lat="43.730108405299966" lon="7.010591474470012"><ele>873.4999999999999</ele><time>2026-04-06T13:26:35.999Z</time></trkpt><trkpt lat="43.73009833884257" lon="7.01047165142542"><ele>874.0</ele><time>2026-04-06T13:26:39.999Z</time></trkpt><trkpt lat="43.73008238489065" lon="7.010373414651494"><ele>873.9999999999999</ele><time>2026-04-06T13:26:40.999Z</time></trkpt><trkpt lat="43.73004416937987" lon="7.010283831303082"><ele>874.0</ele><time>2026-04-06T13:26:41.999Z</time></trkpt><trkpt lat="43.73001097126398" lon="7.010174313708025"><ele>874.0</ele><time>2026-04-06T13:26:42.999Z</time></trkpt><trkpt lat="43.729984105121304" lon="7.010026778632092"><ele>874.0</ele><time>2026-04-06T13:26:43.999Z</time></trkpt><trkpt lat="43.72993701604171" lon="7.009953141557797"><ele>873.9999999999999</ele><time>2026-04-06T13:26:44.999Z</time></trkpt><trkpt lat="43.729901652976494" lon="7.009868286198279"><ele>874.0</ele><time>2026-04-06T13:26:45.999Z</time></trkpt><trkpt lat="43.729808789405304" lon="7.009800387260479"><ele>874.4000000000001</ele><time>2026-04-06T13:26:47.999Z</time></trkpt><trkpt lat="43.72975671887643" lon="7.00967722173618"><ele>874.8000000000001</ele><time>2026-04-06T13:26:49.999Z</time></trkpt><trkpt lat="43.72966569575597" lon="7.009565955765803"><ele>875.1999999999999</ele><time>2026-04-06T13:26:51.999Z</time></trkpt><trkpt lat="43.72959898312336" lon="7.009613558963497"><ele>875.5999999999999</ele><time>2026-04-06T13:27:26Z</time></trkpt><trkpt lat="43.72955803559824" lon="7.009701504462484"><ele>876.0</ele><time>2026-04-06T13:27:27Z</time></trkpt><trkpt lat="43.72950039233218" lon="7.009810303705696"><ele>876.0</ele><time>2026-04-06T13:27:28Z</time></trkpt><trkpt lat="43.72942616963291" lon="7.009937207125094"><ele>876.0</ele><time>2026-04-06T13:27:29Z</time></trkpt><trkpt lat="43.72933817537465" lon="7.010077829435717"><ele>876.0</ele><time>2026-04-06T13:27:30Z</time></trkpt><trkpt lat="43.72926033002442" lon="7.0102083412908565"><ele>876.0</ele><time>2026-04-06T13:27:31Z</time></trkpt><trkpt lat="43.72919559911957" lon="7.010336393448251"><ele>877.75</ele><time>2026-04-06T13:27:32Z</time></trkpt><trkpt lat="43.72914012779612" lon="7.010479831246044"><ele>879.5</ele><time>2026-04-06T13:27:33Z</time></trkpt><trkpt lat="43.729085366416015" lon="7.010662480096964"><ele>881.25</ele><time>2026-04-06T13:27:34Z</time></trkpt><trkpt lat="43.72902304411785" lon="7.0108498370978936"><ele>883.0</ele><time>2026-04-06T13:27:35Z</time></trkpt><trkpt lat="43.72898216195913" lon="7.011032493672812"><ele>884.0</ele><time>2026-04-06T13:27:36Z</time></trkpt><trkpt lat="43.728937656923" lon="7.011192784313234"><ele>885.0</ele><time>2026-04-06T13:27:37Z</time></trkpt><trkpt lat="43.72887220190469" lon="7.0113213102009135"><ele>886.0</ele><time>2026-04-06T13:27:38Z</time></trkpt><trkpt lat="43.72878298265858" lon="7.011448766982583"><ele>887.0</ele><time>2026-04-06T13:27:39Z</time></trkpt><trkpt lat="43.728679489484534" lon="7.011566812941369"><ele>886.4000000000001</ele><time>2026-04-06T13:27:40Z</time></trkpt><trkpt lat="43.72857011513633" lon="7.0116744495963275"><ele>885.8000000000001</ele><time>2026-04-06T13:27:41Z</time></trkpt><trkpt lat="43.728477432582984" lon="7.011775409616305"><ele>885.2</ele><time>2026-04-06T13:27:42Z</time></trkpt><trkpt lat="43.72842248357873" lon="7.011890034690222"><ele>884.6</ele><time>2026-04-06T13:27:43Z</time></trkpt><trkpt lat="43.72838936314483" lon="7.012010879203966"><ele>884.0</ele><time>2026-04-06T13:27:44Z</time></trkpt><trkpt lat="43.72835780434511" lon="7.012129193515373"><ele>887.1666666666667</ele><time>2026-04-06T13:27:45Z</time></trkpt><trkpt lat="43.72833858011234" lon="7.012244572416828"><ele>890.3333333333334</ele><time>2026-04-06T13:27:46Z</time></trkpt><trkpt lat="43.72834548329468" lon="7.01233800735124"><ele>893.5</ele><time>2026-04-06T13:27:47Z</time></trkpt><trkpt lat="43.728385392238586" lon="7.012416454103867"><ele>896.6666666666667</ele><time>2026-04-06T13:27:48Z</time></trkpt><trkpt lat="43.728456131318104" lon="7.012516247156923"><ele>899.8333333333334</ele><time>2026-04-06T13:27:49Z</time></trkpt><trkpt lat="43.72850671187744" lon="7.012604005188514"><ele>903.0</ele><time>2026-04-06T13:27:50Z</time></trkpt><trkpt lat="43.72854237167438" lon="7.012718167935812"><ele>903.8</ele><time>2026-04-06T13:27:51Z</time></trkpt><trkpt lat="43.728569837501354" lon="7.012838727498238"><ele>904.5999999999999</ele><time>2026-04-06T13:27:52Z</time></trkpt><trkpt lat="43.7285732710561" lon="7.012933130113887"><ele>905.4000000000001</ele><time>2026-04-06T13:27:53Z</time></trkpt><trkpt lat="43.728564120570724" lon="7.013091236876766"><ele>906.2</ele><time>2026-04-06T13:27:54Z</time></trkpt><trkpt lat="43.728556615482134" lon="7.013218591983391"><ele>907.0</ele><time>2026-04-06T13:27:55Z</time></trkpt><trkpt lat="43.72851879534509" lon="7.013350695969236"><ele>908.3333333333333</ele><time>2026-04-06T13:27:56Z</time></trkpt><trkpt lat="43.72848803215398" lon="7.013469387159445"><ele>909.6666666666666</ele><time>2026-04-06T13:27:57Z</time></trkpt><trkpt lat="43.72846692875779" lon="7.01358478165901"><ele>911.0</ele><time>2026-04-06T13:27:58Z</time></trkpt><trkpt lat="43.728479641258005" lon="7.013687819281172"><ele>912.3333333333333</ele><time>2026-04-06T13:27:59Z</time></trkpt><trkpt lat="43.72848500902832" lon="7.013782575050181"><ele>913.6666666666666</ele><time>2026-04-06T13:28:00Z</time></trkpt><trkpt lat="43.72843062849587" lon="7.0138606950628635"><ele>915.0</ele><time>2026-04-06T13:28:02Z</time></trkpt><trkpt lat="43.72834005838815" lon="7.013814634302703"><ele>915.0</ele><time>2026-04-06T13:28:04Z</time></trkpt><trkpt lat="43.728294099942545" lon="7.0137476656325735"><ele>915.0</ele><time>2026-04-06T13:28:05Z</time></trkpt><trkpt lat="43.72818693202902" lon="7.013642587879334"><ele>915.0</ele><time>2026-04-06T13:28:07Z</time></trkpt><trkpt lat="43.72811564512354" lon="7.013615107610078"><ele>915.0</ele><time>2026-04-06T13:28:08Z</time></trkpt><trkpt lat="43.72802871465918" lon="7.013572946176944"><ele>915.0</ele><time>2026-04-06T13:28:09Z</time></trkpt><trkpt lat="43.72791725966638" lon="7.013530943160849"><ele>915.0</ele><time>2026-04-06T13:28:10Z</time></trkpt><trkpt lat="43.72782013337314" lon="7.013484554312893"><ele>915.0</ele><time>2026-04-06T13:28:11Z</time></trkpt><trkpt lat="43.72774277357804" lon="7.01335379831931"><ele>915.0</ele><time>2026-04-06T13:28:12Z</time></trkpt><trkpt lat="43.72767197612706" lon="7.013230003210228"><ele>915.0</ele><time>2026-04-06T13:28:13Z</time></trkpt><trkpt lat="43.72760361827064" lon="7.013069770960546"><ele>919.25</ele><time>2026-04-06T13:28:14Z</time></trkpt><trkpt lat="43.72753495995309" lon="7.01290323996295"><ele>923.5</ele><time>2026-04-06T13:28:15Z</time></trkpt><trkpt lat="43.72745471184875" lon="7.012769649618482"><ele>927.75</ele><time>2026-04-06T13:28:16Z</time></trkpt><trkpt lat="43.72737726930043" lon="7.012634879445734"><ele>932.0</ele><time>2026-04-06T13:28:17Z</time></trkpt><trkpt lat="43.72731679989682" lon="7.012526121141942"><ele>928.5</ele><time>2026-04-06T13:28:18Z</time></trkpt><trkpt lat="43.727199731779265" lon="7.012439529982255"><ele>925.0</ele><time>2026-04-06T13:28:19Z</time></trkpt><trkpt lat="43.72708822526213" lon="7.0123487984979285"><ele>921.5</ele><time>2026-04-06T13:28:20Z</time></trkpt><trkpt lat="43.72700836166944" lon="7.01220615166002"><ele>918.0</ele><time>2026-04-06T13:28:21Z</time></trkpt><trkpt lat="43.726938851386414" lon="7.0120549648571515"><ele>918.1666666666666</ele><time>2026-04-06T13:28:22Z</time></trkpt><trkpt lat="43.726879021650106" lon="7.011997332503529"><ele>918.3333333333333</ele><time>2026-04-06T13:28:23Z</time></trkpt><trkpt lat="43.726807726103864" lon="7.011987148350181"><ele>918.5</ele><time>2026-04-06T13:28:24Z</time></trkpt><trkpt lat="43.726670286981154" lon="7.011979068326535"><ele>918.6666666666666</ele><time>2026-04-06T13:28:26Z</time></trkpt><trkpt lat="43.72659158197489" lon="7.011985185845043"><ele>918.8333333333333</ele><time>2026-04-06T13:28:27Z</time></trkpt><trkpt lat="43.72651936983541" lon="7.012006098568144"><ele>919.0</ele><time>2026-04-06T13:28:28Z</time></trkpt><trkpt lat="43.7264498711065" lon="7.012026716149068"><ele>919.0</ele><time>2026-04-06T13:28:29Z</time></trkpt><trkpt lat="43.72638624235918" lon="7.012045895888957"><ele>918.9999999999999</ele><time>2026-04-06T13:28:30Z</time></trkpt><trkpt lat="43.726327884537234" lon="7.012086257573912"><ele>919.0</ele><time>2026-04-06T13:28:31Z</time></trkpt><trkpt lat="43.7262739208669" lon="7.012142004032002"><ele>919.0</ele><time>2026-04-06T13:28:32Z</time></trkpt><trkpt lat="43.72621884452974" lon="7.012193640661374"><ele>918.9999999999999</ele><time>2026-04-06T13:28:33Z</time></trkpt><trkpt lat="43.7261592523416" lon="7.0122361350891955"><ele>919.0</ele><time>2026-04-06T13:28:34Z</time></trkpt><trkpt lat="43.72609580500669" lon="7.012276934103392"><ele>919.0</ele><time>2026-04-06T13:28:35Z</time></trkpt><trkpt lat="43.72603236254916" lon="7.012312174576195"><ele>916.0</ele><time>2026-04-06T13:28:35.999Z</time></trkpt><trkpt lat="43.725970838585134" lon="7.012336598879994"><ele>913.0000000000001</ele><time>2026-04-06T13:28:36.999Z</time></trkpt><trkpt lat="43.72590403124607" lon="7.01236473464523"><ele>910.0000000000001</ele><time>2026-04-06T13:28:37.999Z</time></trkpt><trkpt lat="43.72579226438182" lon="7.01241232783829"><ele>907.0</ele><time>2026-04-06T13:28:39.999Z</time></trkpt><trkpt lat="43.72568463329145" lon="7.012465333777027"><ele>904.0</ele><time>2026-04-06T13:28:41.999Z</time></trkpt><trkpt lat="43.7255973489275" lon="7.012553913216266"><ele>906.4000000000001</ele><time>2026-04-06T13:28:43.999Z</time></trkpt><trkpt lat="43.725510792677106" lon="7.012655809421159"><ele>908.8000000000001</ele><time>2026-04-06T13:28:45.999Z</time></trkpt><trkpt lat="43.7254252358758" lon="7.012747552531497"><ele>911.1999999999999</ele><time>2026-04-06T13:28:47.999Z</time></trkpt><trkpt lat="43.72532455624478" lon="7.012856652355341"><ele>913.5999999999999</ele><time>2026-04-06T13:28:49.999Z</time></trkpt><trkpt lat="43.72525839310424" lon="7.0129294593543365"><ele>916.0</ele><time>2026-04-06T13:28:50.999Z</time></trkpt><trkpt lat="43.725170001127985" lon="7.013005821550212"><ele>916.0</ele><time>2026-04-06T13:28:51.999Z</time></trkpt><trkpt lat="43.72504801470279" lon="7.013091621305936"><ele>916.0</ele><time>2026-04-06T13:28:52.999Z</time></trkpt><trkpt lat="43.72490411994818" lon="7.0131927886549255"><ele>916.0</ele><time>2026-04-06T13:28:53.999Z</time></trkpt><trkpt lat="43.72476143384139" lon="7.013297014477701"><ele>916.25</ele><time>2026-04-06T13:28:54.999Z</time></trkpt><trkpt lat="43.72462835147968" lon="7.013387006282544"><ele>916.5</ele><time>2026-04-06T13:28:55.999Z</time></trkpt><trkpt lat="43.72450273922442" lon="7.013453265892082"><ele>916.75</ele><time>2026-04-06T13:28:56.999Z</time></trkpt><trkpt lat="43.724381741557835" lon="7.01351981817981"><ele>917.0</ele><time>2026-04-06T13:28:57.999Z</time></trkpt><trkpt lat="43.724272622512146" lon="7.013611699476415"><ele>917.0000000000001</ele><time>2026-04-06T13:28:58.999Z</time></trkpt><trkpt lat="43.72417169651995" lon="7.013682394513657"><ele>917.0</ele><time>2026-04-06T13:28:59.999Z</time></trkpt><trkpt lat="43.72408699272288" lon="7.013746084628189"><ele>917.0</ele><time>2026-04-06T13:29:00.999Z</time></trkpt><trkpt lat="43.724006630737165" lon="7.013794164051998"><ele>917.0</ele><time>2026-04-06T13:29:01.999Z</time></trkpt><trkpt lat="43.72392839255967" lon="7.013825390320215"><ele>917.0000000000001</ele><time>2026-04-06T13:29:02.999Z</time></trkpt><trkpt lat="43.723862486290095" lon="7.013846829665352"><ele>917.0</ele><time>2026-04-06T13:29:03.999Z</time></trkpt><trkpt lat="43.72375609389855" lon="7.013894968360398"><ele>917.0</ele><time>2026-04-06T13:29:05.999Z</time></trkpt><trkpt lat="43.723656263698814" lon="7.01394588749444"><ele>917.0</ele><time>2026-04-06T13:29:07.999Z</time></trkpt><trkpt lat="43.72355716232022" lon="7.013978454564536"><ele>917.0</ele><time>2026-04-06T13:29:09.999Z</time></trkpt><trkpt lat="43.723457828341694" lon="7.01398925750925"><ele>917.0</ele><time>2026-04-06T13:29:11.999Z</time></trkpt><trkpt lat="43.72333302629872" lon="7.01398548827274"><ele>917.0</ele><time>2026-04-06T13:29:13.999Z</time></trkpt><trkpt lat="43.72325315428571" lon="7.013994078092894"><ele>915.0</ele><time>2026-04-06T13:29:14.999Z</time></trkpt><trkpt lat="43.723159557658875" lon="7.014012079225481"><ele>913.0</ele><time>2026-04-06T13:29:15.999Z</time></trkpt><trkpt lat="43.723063936116574" lon="7.014026778876961"><ele>911.0</ele><time>2026-04-06T13:29:16.999Z</time></trkpt><trkpt lat="43.72296913185072" lon="7.014038235742233"><ele>909.0</ele><time>2026-04-06T13:29:17.999Z</time></trkpt><trkpt lat="43.72286545540768" lon="7.014062147897071"><ele>907.0</ele><time>2026-04-06T13:29:18.999Z</time></trkpt><trkpt lat="43.72276473945607" lon="7.014097752204993"><ele>907.1666666666666</ele><time>2026-04-06T13:29:19.999Z</time></trkpt><trkpt lat="43.72267338953868" lon="7.01415339320417"><ele>907.3333333333333</ele><time>2026-04-06T13:29:20.999Z</time></trkpt><trkpt lat="43.722588151849806" lon="7.014215794448755"><ele>907.5</ele><time>2026-04-06T13:29:21.999Z</time></trkpt><trkpt lat="43.72251438317656" lon="7.014282100725263"><ele>907.6666666666667</ele><time>2026-04-06T13:29:23Z</time></trkpt><trkpt lat="43.72244471347846" lon="7.014333380914628"><ele>907.8333333333334</ele><time>2026-04-06T13:29:24Z</time></trkpt><trkpt lat="43.72239647387368" lon="7.014410050303779"><ele>908.0</ele><time>2026-04-06T13:29:25Z</time></trkpt><trkpt lat="43.72236400903508" lon="7.014496961151448"><ele>908.0000000000001</ele><time>2026-04-06T13:29:26Z</time></trkpt><trkpt lat="43.722326508788704" lon="7.014661612143885"><ele>908.0</ele><time>2026-04-06T13:29:28Z</time></trkpt><trkpt lat="43.72226444849102" lon="7.014702722249601"><ele>908.0</ele><time>2026-04-06T13:29:30Z</time></trkpt><trkpt lat="43.722201370073165" lon="7.014623920643575"><ele>908.0</ele><time>2026-04-06T13:29:32Z</time></trkpt><trkpt lat="43.72220272621097" lon="7.014529610074261"><ele>908.0000000000001</ele><time>2026-04-06T13:29:33Z</time></trkpt><trkpt lat="43.72219212109861" lon="7.014403819591991"><ele>908.0</ele><time>2026-04-06T13:29:34Z</time></trkpt><trkpt lat="43.72217374446919" lon="7.014293060829697"><ele>908.0</ele><time>2026-04-06T13:29:35Z</time></trkpt><trkpt lat="43.72214228343604" lon="7.0141898432700724"><ele>908.0</ele><time>2026-04-06T13:29:36Z</time></trkpt><trkpt lat="43.72212349758477" lon="7.014071171333604"><ele>908.0</ele><time>2026-04-06T13:29:37Z</time></trkpt><trkpt lat="43.72212657942104" lon="7.013924206735887"><ele>908.0</ele><time>2026-04-06T13:29:38Z</time></trkpt><trkpt lat="43.72213710847164" lon="7.013766107008224"><ele>908.0</ele><time>2026-04-06T13:29:39Z</time></trkpt><trkpt lat="43.72213762065606" lon="7.013609420814144"><ele>906.2</ele><time>2026-04-06T13:29:40Z</time></trkpt><trkpt lat="43.72214715586228" lon="7.013460690105648"><ele>904.4</ele><time>2026-04-06T13:29:41Z</time></trkpt><trkpt lat="43.72215010423581" lon="7.013316547705167"><ele>902.6000000000001</ele><time>2026-04-06T13:29:42Z</time></trkpt><trkpt lat="43.722158165709516" lon="7.013163941713701"><ele>900.8000000000001</ele><time>2026-04-06T13:29:43Z</time></trkpt><trkpt lat="43.722177055904936" lon="7.013024086136883"><ele>899.0</ele><time>2026-04-06T13:29:44Z</time></trkpt><trkpt lat="43.72219273596221" lon="7.01288217419843"><ele>897.1666666666667</ele><time>2026-04-06T13:29:45Z</time></trkpt><trkpt lat="43.722209994558014" lon="7.012746501279832"><ele>895.3333333333334</ele><time>2026-04-06T13:29:46Z</time></trkpt><trkpt lat="43.72221999646394" lon="7.012613636345398"><ele>893.5</ele><time>2026-04-06T13:29:47Z</time></trkpt><trkpt lat="43.72223165383617" lon="7.012493512547538"><ele>891.6666666666667</ele><time>2026-04-06T13:29:48Z</time></trkpt><trkpt lat="43.722241947281624" lon="7.012386865407736"><ele>889.8333333333334</ele><time>2026-04-06T13:29:49Z</time></trkpt><trkpt lat="43.72224616001873" lon="7.01228976550562"><ele>888.0</ele><time>2026-04-06T13:29:50Z</time></trkpt><trkpt lat="43.72217248238266" lon="7.012156669243422"><ele>886.4</ele><time>2026-04-06T13:29:52Z</time></trkpt><trkpt lat="43.72209529391219" lon="7.012135689053653"><ele>884.8</ele><time>2026-04-06T13:29:53Z</time></trkpt><trkpt lat="43.72199732295757" lon="7.012148542376906"><ele>883.2</ele><time>2026-04-06T13:29:54Z</time></trkpt><trkpt lat="43.72188893664714" lon="7.012166991645449"><ele>881.6</ele><time>2026-04-06T13:29:55Z</time></trkpt><trkpt lat="43.72177352025757" lon="7.012191990941438"><ele>880.0</ele><time>2026-04-06T13:29:56Z</time></trkpt><trkpt lat="43.72166472481073" lon="7.012237977383529"><ele>880.0</ele><time>2026-04-06T13:29:57Z</time></trkpt><trkpt lat="43.72154625140158" lon="7.01225986857878"><ele>880.0</ele><time>2026-04-06T13:29:58Z</time></trkpt><trkpt lat="43.72145242240746" lon="7.0122855785937315"><ele>880.0</ele><time>2026-04-06T13:29:59Z</time></trkpt><trkpt lat="43.72137485229732" lon="7.0122970266833455"><ele>880.0</ele><time>2026-04-06T13:30:00Z</time></trkpt><trkpt lat="43.72129142361583" lon="7.01226484123294"><ele>880.0</ele><time>2026-04-06T13:30:01Z</time></trkpt><trkpt lat="43.72121820994073" lon="7.012196422854355"><ele>879.9999999999999</ele><time>2026-04-06T13:30:02Z</time></trkpt><trkpt lat="43.7211526548737" lon="7.012134301655235"><ele>880.0</ele><time>2026-04-06T13:30:03Z</time></trkpt><trkpt lat="43.72107804167435" lon="7.012016986827443"><ele>880.0</ele><time>2026-04-06T13:30:05Z</time></trkpt><trkpt lat="43.7210099253092" lon="7.011938266259429"><ele>880.0</ele><time>2026-04-06T13:30:07Z</time></trkpt><trkpt lat="43.72094821122805" lon="7.011879171113665"><ele>879.9999999999999</ele><time>2026-04-06T13:30:09Z</time></trkpt><trkpt lat="43.72088665480622" lon="7.011801015228333"><ele>880.0</ele><time>2026-04-06T13:30:11Z</time></trkpt><trkpt lat="43.720843849924215" lon="7.01173713371743"><ele>879.1666666666666</ele><time>2026-04-06T13:30:12Z</time></trkpt><trkpt lat="43.72080333155677" lon="7.0116653245397025"><ele>878.3333333333333</ele><time>2026-04-06T13:30:13Z</time></trkpt><trkpt lat="43.72075333709239" lon="7.011587999441939"><ele>877.5</ele><time>2026-04-06T13:30:14Z</time></trkpt><trkpt lat="43.720702951407226" lon="7.011524231452444"><ele>876.6666666666667</ele><time>2026-04-06T13:30:15Z</time></trkpt><trkpt lat="43.72065516791629" lon="7.011457255625326"><ele>875.8333333333334</ele><time>2026-04-06T13:30:16Z</time></trkpt><trkpt lat="43.72060226063602" lon="7.011289593913814"><ele>875.0</ele><time>2026-04-06T13:30:18Z</time></trkpt><trkpt lat="43.720576671697074" lon="7.011180211452794"><ele>874.1666666666667</ele><time>2026-04-06T13:30:19Z</time></trkpt><trkpt lat="43.720560334933815" lon="7.01106267827956"><ele>873.3333333333334</ele><time>2026-04-06T13:30:20Z</time></trkpt><trkpt lat="43.720534237528625" lon="7.010952602084199"><ele>872.5</ele><time>2026-04-06T13:30:21Z</time></trkpt><trkpt lat="43.72050780730942" lon="7.010853848365876"><ele>871.6666666666667</ele><time>2026-04-06T13:30:22Z</time></trkpt><trkpt lat="43.720470491409834" lon="7.0107740733791815"><ele>870.8333333333334</ele><time>2026-04-06T13:30:23Z</time></trkpt><trkpt lat="43.72040800786414" lon="7.010730112678714"><ele>870.0</ele><time>2026-04-06T13:30:24Z</time></trkpt><trkpt lat="43.72032660343371" lon="7.01074073542939"><ele>870.0</ele><time>2026-04-06T13:30:25Z</time></trkpt><trkpt lat="43.72026334632172" lon="7.0107942994458625"><ele>870.0</ele><time>2026-04-06T13:30:26Z</time></trkpt><trkpt lat="43.72023326901602" lon="7.010900985988176"><ele>870.0</ele><time>2026-04-06T13:30:27Z</time></trkpt><trkpt lat="43.72020834025512" lon="7.011032194583472"><ele>870.0</ele><time>2026-04-06T13:30:28Z</time></trkpt><trkpt lat="43.7201737279458" lon="7.011185590616662"><ele>870.0</ele><time>2026-04-06T13:30:29Z</time></trkpt><trkpt lat="43.720128162404244" lon="7.011373619403128"><ele>870.6666666666667</ele><time>2026-04-06T13:30:30Z</time></trkpt><trkpt lat="43.72007745467458" lon="7.011590548622227"><ele>871.3333333333334</ele><time>2026-04-06T13:30:31Z</time></trkpt><trkpt lat="43.72002423498404" lon="7.011804646683026"><ele>872.0</ele><time>2026-04-06T13:30:32Z</time></trkpt><trkpt lat="43.719989081180366" lon="7.011985147893946"><ele>872.4000000000001</ele><time>2026-04-06T13:30:33Z</time></trkpt><trkpt lat="43.719945063902244" lon="7.012138879873255"><ele>872.8000000000001</ele><time>2026-04-06T13:30:34Z</time></trkpt><trkpt lat="43.71989682504765" lon="7.012281011725243"><ele>873.2</ele><time>2026-04-06T13:30:35Z</time></trkpt><trkpt lat="43.719856083554696" lon="7.0123913251746695"><ele>873.6</ele><time>2026-04-06T13:30:36Z</time></trkpt><trkpt lat="43.71981649264839" lon="7.012461411230794"><ele>874.0</ele><time>2026-04-06T13:30:37Z</time></trkpt><trkpt lat="43.71977213450425" lon="7.012555354759155"><ele>873.2</ele><time>2026-04-06T13:30:39Z</time></trkpt><trkpt lat="43.71973685934549" lon="7.01265832125023"><ele>872.4000000000001</ele><time>2026-04-06T13:30:42Z</time></trkpt><trkpt lat="43.71971757853048" lon="7.012767840318399"><ele>871.6</ele><time>2026-04-06T13:30:44Z</time></trkpt><trkpt lat="43.719726926034625" lon="7.012907200752836"><ele>870.8</ele><time>2026-04-06T13:30:46Z</time></trkpt><trkpt lat="43.7197589899639" lon="7.0130070944031075"><ele>870.0</ele><time>2026-04-06T13:30:47Z</time></trkpt><trkpt lat="43.71980619075497" lon="7.013147617710822"><ele>869.25</ele><time>2026-04-06T13:30:48Z</time></trkpt><trkpt lat="43.71985130215702" lon="7.01332781235694"><ele>868.5</ele><time>2026-04-06T13:30:49Z</time></trkpt><trkpt lat="43.71989327797116" lon="7.013503105498896"><ele>867.75</ele><time>2026-04-06T13:30:50Z</time></trkpt><trkpt lat="43.719927740614345" lon="7.013675522573913"><ele>867.0</ele><time>2026-04-06T13:30:51Z</time></trkpt><trkpt lat="43.71993927359672" lon="7.013859061312672"><ele>867.0</ele><time>2026-04-06T13:30:52Z</time></trkpt><trkpt lat="43.71993980704463" lon="7.0140372683277565"><ele>867.0</ele><time>2026-04-06T13:30:53Z</time></trkpt><trkpt lat="43.71993828986414" lon="7.014207491275384"><ele>867.0</ele><time>2026-04-06T13:30:53.999Z</time></trkpt><trkpt lat="43.719917346386815" lon="7.014366527649804"><ele>867.0</ele><time>2026-04-06T13:30:54.999Z</time></trkpt><trkpt lat="43.7198799142555" lon="7.014515185026978"><ele>867.0</ele><time>2026-04-06T13:30:55.999Z</time></trkpt><trkpt lat="43.71982697914606" lon="7.014670972169535"><ele>867.0</ele><time>2026-04-06T13:30:56.999Z</time></trkpt><trkpt lat="43.71977562804928" lon="7.014831801476908"><ele>867.0</ele><time>2026-04-06T13:30:57.999Z</time></trkpt><trkpt lat="43.71972710680052" lon="7.014963145889119"><ele>867.0</ele><time>2026-04-06T13:30:58.999Z</time></trkpt><trkpt lat="43.71968294994546" lon="7.015066559502511"><ele>867.0</ele><time>2026-04-06T13:30:59.999Z</time></trkpt><trkpt lat="43.7196345072795" lon="7.015142085816282"><ele>867.0</ele><time>2026-04-06T13:31:00.999Z</time></trkpt><trkpt lat="43.71953013649912" lon="7.015205476976798"><ele>867.0</ele><time>2026-04-06T13:31:02.999Z</time></trkpt><trkpt lat="43.71946644258186" lon="7.015190552378045"><ele>867.0</ele><time>2026-04-06T13:31:03.999Z</time></trkpt><trkpt lat="43.719395880177146" lon="7.01517482702009"><ele>867.0</ele><time>2026-04-06T13:31:04.999Z</time></trkpt><trkpt lat="43.71928406211117" lon="7.0151878343194864"><ele>867.0</ele><time>2026-04-06T13:31:06.999Z</time></trkpt><trkpt lat="43.719237123860765" lon="7.015286211218954"><ele>867.0</ele><time>2026-04-06T13:31:08.999Z</time></trkpt><trkpt lat="43.71923381245224" lon="7.015411464230877"><ele>866.1666666666666</ele><time>2026-04-06T13:31:10.999Z</time></trkpt><trkpt lat="43.719263876707124" lon="7.0155398200728065"><ele>865.3333333333333</ele><time>2026-04-06T13:31:12.999Z</time></trkpt><trkpt lat="43.71930261026682" lon="7.015721622609416"><ele>864.5</ele><time>2026-04-06T13:31:14.999Z</time></trkpt><trkpt lat="43.719318437976675" lon="7.015809783149282"><ele>863.6666666666666</ele><time>2026-04-06T13:31:15.999Z</time></trkpt><trkpt lat="43.719335196724224" lon="7.015902243618732"><ele>862.8333333333333</ele><time>2026-04-06T13:31:16.999Z</time></trkpt><trkpt lat="43.71935278537748" lon="7.015993492162393"><ele>862.0</ele><time>2026-04-06T13:31:17.999Z</time></trkpt><trkpt lat="43.71936852327394" lon="7.016093995663565"><ele>860.8333333333333</ele><time>2026-04-06T13:31:18.999Z</time></trkpt><trkpt lat="43.71936119795995" lon="7.016199872820628"><ele>859.6666666666666</ele><time>2026-04-06T13:31:19.999Z</time></trkpt><trkpt lat="43.71936173193916" lon="7.016310320441625"><ele>858.5</ele><time>2026-04-06T13:31:20.999Z</time></trkpt><trkpt lat="43.719355468247755" lon="7.016401451456426"><ele>857.3333333333333</ele><time>2026-04-06T13:31:21.999Z</time></trkpt><trkpt lat="43.71934417368974" lon="7.016554769160083"><ele>856.1666666666666</ele><time>2026-04-06T13:31:23.999Z</time></trkpt><trkpt lat="43.71933727085803" lon="7.0166670594658385"><ele>855.0</ele><time>2026-04-06T13:31:25.999Z</time></trkpt><trkpt lat="43.71928181262686" lon="7.016718986932284"><ele>853.6666666666666</ele><time>2026-04-06T13:31:27.999Z</time></trkpt><trkpt lat="43.71920972314441" lon="7.016721357662116"><ele>852.3333333333333</ele><time>2026-04-06T13:31:30Z</time></trkpt><trkpt lat="43.719148013458785" lon="7.016684276911895"><ele>851.0</ele><time>2026-04-06T13:31:32Z</time></trkpt><trkpt lat="43.71907878307386" lon="7.016755182520033"><ele>849.6666666666666</ele><time>2026-04-06T13:31:35Z</time></trkpt><trkpt lat="43.719082096694756" lon="7.016846614844111"><ele>848.3333333333333</ele><time>2026-04-06T13:31:38Z</time></trkpt><trkpt lat="43.71910436284833" lon="7.016943830076507"><ele>847.0</ele><time>2026-04-06T13:31:41Z</time></trkpt><trkpt lat="43.71914401030854" lon="7.017046699410131"><ele>846.9999999999999</ele><time>2026-04-06T13:31:43Z</time></trkpt><trkpt lat="43.71917312567621" lon="7.017170005917022"><ele>847.0</ele><time>2026-04-06T13:31:45Z</time></trkpt><trkpt lat="43.71921863184579" lon="7.017310751483869"><ele>847.0</ele><time>2026-04-06T13:31:47Z</time></trkpt><trkpt lat="43.71925813131247" lon="7.017398210239366"><ele>847.0</ele><time>2026-04-06T13:31:48Z</time></trkpt><trkpt lat="43.719300818852936" lon="7.017489402011224"><ele>846.9999999999999</ele><time>2026-04-06T13:31:49Z</time></trkpt><trkpt lat="43.71931708705068" lon="7.01757392315113"><ele>847.0</ele><time>2026-04-06T13:31:50Z</time></trkpt><trkpt lat="43.7192992720912" lon="7.017665534265106"><ele>846.4000000000001</ele><time>2026-04-06T13:31:51Z</time></trkpt><trkpt lat="43.719248774878125" lon="7.017771939335901"><ele>845.8000000000001</ele><time>2026-04-06T13:31:52Z</time></trkpt><trkpt lat="43.71917564417858" lon="7.017914168214088"><ele>845.2</ele><time>2026-04-06T13:31:53Z</time></trkpt><trkpt lat="43.71912113662251" lon="7.01806166821964"><ele>844.6</ele><time>2026-04-06T13:31:54Z</time></trkpt><trkpt lat="43.719065759824595" lon="7.018169338249854"><ele>844.0</ele><time>2026-04-06T13:31:55Z</time></trkpt><trkpt lat="43.719015688191" lon="7.01823506798351"><ele>843.9999999999999</ele><time>2026-04-06T13:31:56Z</time></trkpt><trkpt lat="43.71893906821986" lon="7.018209112087547"><ele>844.0</ele><time>2026-04-06T13:31:58Z</time></trkpt><trkpt lat="43.718880750965745" lon="7.018151146231807"><ele>844.0</ele><time>2026-04-06T13:31:59Z</time></trkpt><trkpt lat="43.71881700105413" lon="7.018110294734914"><ele>844.0</ele><time>2026-04-06T13:32:00Z</time></trkpt><trkpt lat="43.71871649073633" lon="7.018092697937659"><ele>843.9999999999999</ele><time>2026-04-06T13:32:02Z</time></trkpt><trkpt lat="43.71861797288632" lon="7.017999021270432"><ele>844.0</ele><time>2026-04-06T13:32:04Z</time></trkpt><trkpt lat="43.718518861202384" lon="7.017886167261502"><ele>842.3333333333333</ele><time>2026-04-06T13:32:06Z</time></trkpt><trkpt lat="43.71841612520991" lon="7.017833806780334"><ele>840.6666666666666</ele><time>2026-04-06T13:32:08Z</time></trkpt><trkpt lat="43.71832533255036" lon="7.0178810398553875"><ele>839.0</ele><time>2026-04-06T13:32:10Z</time></trkpt><trkpt lat="43.718279018652346" lon="7.01796137303201"><ele>837.3333333333333</ele><time>2026-04-06T13:32:12Z</time></trkpt><trkpt lat="43.718229434628256" lon="7.018034289881429"><ele>835.6666666666666</ele><time>2026-04-06T13:32:14Z</time></trkpt><trkpt lat="43.71817632001558" lon="7.018140074456195"><ele>834.0</ele><time>2026-04-06T13:32:16Z</time></trkpt><trkpt lat="43.71811734891928" lon="7.018256900764399"><ele>834.0</ele><time>2026-04-06T13:32:18Z</time></trkpt><trkpt lat="43.71808208065675" lon="7.0183557803280925"><ele>834.0</ele><time>2026-04-06T13:32:20Z</time></trkpt><trkpt lat="43.718042650031805" lon="7.01844887573316"><ele>834.0</ele><time>2026-04-06T13:32:22Z</time></trkpt><trkpt lat="43.717998444762664" lon="7.0185670917517"><ele>834.0</ele><time>2026-04-06T13:32:24Z</time></trkpt><trkpt lat="43.71797330984737" lon="7.018706552222924"><ele>834.0</ele><time>2026-04-06T13:32:26Z</time></trkpt><trkpt lat="43.71794851473377" lon="7.018875533084777"><ele>834.0</ele><time>2026-04-06T13:32:28Z</time></trkpt><trkpt lat="43.71793182426867" lon="7.018983752856816"><ele>834.0</ele><time>2026-04-06T13:32:29Z</time></trkpt><trkpt lat="43.717912597017126" lon="7.019077052978287"><ele>834.0</ele><time>2026-04-06T13:32:30Z</time></trkpt><trkpt lat="43.71789190848073" lon="7.019162710891832"><ele>834.0</ele><time>2026-04-06T13:32:31Z</time></trkpt><trkpt lat="43.71787158719284" lon="7.019317119684462"><ele>834.0</ele><time>2026-04-06T13:32:33Z</time></trkpt><trkpt lat="43.71784797204593" lon="7.0194489359913215"><ele>834.0</ele><time>2026-04-06T13:32:35Z</time></trkpt><trkpt lat="43.71784219419702" lon="7.019606236851152"><ele>834.4000000000001</ele><time>2026-04-06T13:32:37Z</time></trkpt><trkpt lat="43.717799447940486" lon="7.019751639978738"><ele>834.8</ele><time>2026-04-06T13:32:39Z</time></trkpt><trkpt lat="43.7177685176182" lon="7.01986034002425"><ele>835.2</ele><time>2026-04-06T13:32:41Z</time></trkpt><trkpt lat="43.71770080031596" lon="7.019950972476177"><ele>835.5999999999999</ele><time>2026-04-06T13:32:44Z</time></trkpt><trkpt lat="43.71770070430077" lon="7.020068023320954"><ele>836.0</ele><time>2026-04-06T13:32:47Z</time></trkpt><trkpt lat="43.717598834112785" lon="7.0201191008184445"><ele>833.8</ele><time>2026-04-06T13:32:49Z</time></trkpt><trkpt lat="43.717504883071825" lon="7.0201952055716665"><ele>831.5999999999999</ele><time>2026-04-06T13:32:51Z</time></trkpt><trkpt lat="43.7174176583635" lon="7.020240309195831"><ele>829.4</ele><time>2026-04-06T13:32:53Z</time></trkpt><trkpt lat="43.71731268257444" lon="7.020245184581624"><ele>827.2</ele><time>2026-04-06T13:32:55Z</time></trkpt><trkpt lat="43.71725343990571" lon="7.020277979262012"><ele>825.0</ele><time>2026-04-06T13:32:57Z</time></trkpt><trkpt lat="43.71722876045373" lon="7.020418373467843"><ele>825.0</ele><time>2026-04-06T13:32:59Z</time></trkpt><trkpt lat="43.71719317702448" lon="7.020542343047687"><ele>825.0</ele><time>2026-04-06T13:33:00Z</time></trkpt><trkpt lat="43.717152172458896" lon="7.020675936069486"><ele>825.0</ele><time>2026-04-06T13:33:01Z</time></trkpt><trkpt lat="43.717119532434914" lon="7.020827077178765"><ele>825.0</ele><time>2026-04-06T13:33:01.999Z</time></trkpt><trkpt lat="43.71709468698314" lon="7.020983464329897"><ele>825.0</ele><time>2026-04-06T13:33:02.999Z</time></trkpt><trkpt lat="43.71709263601109" lon="7.021128642966327"><ele>826.0</ele><time>2026-04-06T13:33:03.999Z</time></trkpt><trkpt lat="43.71708486677088" lon="7.0212844468493225"><ele>827.0</ele><time>2026-04-06T13:33:04.999Z</time></trkpt><trkpt lat="43.71708466566231" lon="7.021442995054397"><ele>828.0</ele><time>2026-04-06T13:33:05.999Z</time></trkpt><trkpt lat="43.717092291362974" lon="7.021630736655688"><ele>829.0</ele><time>2026-04-06T13:33:06.999Z</time></trkpt><trkpt lat="43.71709163148838" lon="7.021772729584581"><ele>829.8000000000001</ele><time>2026-04-06T13:33:07.999Z</time></trkpt><trkpt lat="43.71709989521952" lon="7.021914622425563"><ele>830.6</ele><time>2026-04-06T13:33:08.999Z</time></trkpt><trkpt lat="43.71711818760036" lon="7.022041155792377"><ele>831.4</ele><time>2026-04-06T13:33:09.999Z</time></trkpt><trkpt lat="43.71716224725038" lon="7.022187312437424"><ele>832.2</ele><time>2026-04-06T13:33:10.999Z</time></trkpt><trkpt lat="43.71721079183246" lon="7.02236544763903"><ele>833.0</ele><time>2026-04-06T13:33:11.999Z</time></trkpt><trkpt lat="43.71725699357477" lon="7.02255204637388"><ele>833.5</ele><time>2026-04-06T13:33:12.999Z</time></trkpt><trkpt lat="43.71729496217852" lon="7.022757156374597"><ele>834.0</ele><time>2026-04-06T13:33:13.999Z</time></trkpt><trkpt lat="43.717345639776276" lon="7.022944625947051"><ele>834.5</ele><time>2026-04-06T13:33:14.999Z</time></trkpt><trkpt lat="43.717389534087744" lon="7.023123730720671"><ele>835.0</ele><time>2026-04-06T13:33:15.999Z</time></trkpt><trkpt lat="43.717420667076084" lon="7.023292823291382"><ele>834.4</ele><time>2026-04-06T13:33:16.999Z</time></trkpt><trkpt lat="43.71744574097231" lon="7.023437726389948"><ele>833.8</ele><time>2026-04-06T13:33:17.999Z</time></trkpt><trkpt lat="43.71747761426981" lon="7.023557648394329"><ele>833.2</ele><time>2026-04-06T13:33:18.999Z</time></trkpt><trkpt lat="43.717521815787805" lon="7.023648366965017"><ele>832.6</ele><time>2026-04-06T13:33:19.999Z</time></trkpt><trkpt lat="43.71757305112999" lon="7.023718674064616"><ele>832.0</ele><time>2026-04-06T13:33:20.999Z</time></trkpt><trkpt lat="43.71767510664241" lon="7.0237584931624655"><ele>832.0</ele><time>2026-04-06T13:33:22.999Z</time></trkpt><trkpt lat="43.717732216112815" lon="7.023585202304257"><ele>832.0</ele><time>2026-04-06T13:33:24.999Z</time></trkpt><trkpt lat="43.717725218024896" lon="7.023475115433206"><ele>832.0</ele><time>2026-04-06T13:33:25.999Z</time></trkpt><trkpt lat="43.71772486414982" lon="7.023346011597923"><ele>832.0</ele><time>2026-04-06T13:33:26.999Z</time></trkpt><trkpt lat="43.71774040495814" lon="7.023232136176313"><ele>832.0</ele><time>2026-04-06T13:33:27.999Z</time></trkpt><trkpt lat="43.71777806289719" lon="7.023137181585157"><ele>834.4999999999999</ele><time>2026-04-06T13:33:28.999Z</time></trkpt><trkpt lat="43.717832447315764" lon="7.023045189806988"><ele>837.0</ele><time>2026-04-06T13:33:29.999Z</time></trkpt><trkpt lat="43.71789406566252" lon="7.022975672589767"><ele>839.5</ele><time>2026-04-06T13:33:30.999Z</time></trkpt><trkpt lat="43.71801973223419" lon="7.022969472645693"><ele>842.0</ele><time>2026-04-06T13:33:32.999Z</time></trkpt><trkpt lat="43.71806710433242" lon="7.0230342278174716"><ele>844.4999999999999</ele><time>2026-04-06T13:33:33.999Z</time></trkpt><trkpt lat="43.718090927221645" lon="7.023137840933566"><ele>847.0</ele><time>2026-04-06T13:33:35.001Z</time></trkpt><trkpt lat="43.71808609001976" lon="7.0232418429092816"><ele>846.6666666666666</ele><time>2026-04-06T13:33:36.001Z</time></trkpt><trkpt lat="43.71807635832867" lon="7.023332486980164"><ele>846.3333333333333</ele><time>2026-04-06T13:33:37.001Z</time></trkpt><trkpt lat="43.71808314643669" lon="7.023479540739815"><ele>846.0</ele><time>2026-04-06T13:33:39.001Z</time></trkpt><trkpt lat="43.71810147083567" lon="7.023615296382863"><ele>845.6666666666667</ele><time>2026-04-06T13:33:41.001Z</time></trkpt><trkpt lat="43.718121818748564" lon="7.023730945692614"><ele>845.3333333333334</ele><time>2026-04-06T13:33:43.001Z</time></trkpt><trkpt lat="43.71813862421238" lon="7.023854313542843"><ele>845.0</ele><time>2026-04-06T13:33:45.001Z</time></trkpt><trkpt lat="43.71814536684939" lon="7.023973463382701"><ele>845.0</ele><time>2026-04-06T13:33:46Z</time></trkpt><trkpt lat="43.71815501955551" lon="7.024125453327286"><ele>845.0</ele><time>2026-04-06T13:33:47.001Z</time></trkpt><trkpt lat="43.71817095621685" lon="7.024314798366445"><ele>845.0</ele><time>2026-04-06T13:33:48.001Z</time></trkpt><trkpt lat="43.71818290725161" lon="7.024512100229649"><ele>845.0</ele><time>2026-04-06T13:33:49.001Z</time></trkpt><trkpt lat="43.71817334844489" lon="7.024698520114455"><ele>845.0</ele><time>2026-04-06T13:33:50Z</time></trkpt><trkpt lat="43.718158393240095" lon="7.024871974990789"><ele>845.0</ele><time>2026-04-06T13:33:51Z</time></trkpt><trkpt lat="43.71811557573073" lon="7.025044705930721"><ele>845.0</ele><time>2026-04-06T13:33:52Z</time></trkpt><trkpt lat="43.71805549950098" lon="7.025227482463147"><ele>845.0</ele><time>2026-04-06T13:33:53Z</time></trkpt><trkpt lat="43.718012044224444" lon="7.025395937758526"><ele>845.0</ele><time>2026-04-06T13:33:54Z</time></trkpt><trkpt lat="43.717973942136446" lon="7.025549147346276"><ele>845.0</ele><time>2026-04-06T13:33:55Z</time></trkpt><trkpt lat="43.71793788297631" lon="7.02570122623156"><ele>845.0</ele><time>2026-04-06T13:33:56Z</time></trkpt><trkpt lat="43.717894260187265" lon="7.025857483115751"><ele>845.0</ele><time>2026-04-06T13:33:57Z</time></trkpt><trkpt lat="43.71782943726917" lon="7.02597182322371"><ele>846.0</ele><time>2026-04-06T13:33:58Z</time></trkpt><trkpt lat="43.71773555473562" lon="7.0260697313270555"><ele>847.0</ele><time>2026-04-06T13:33:59Z</time></trkpt><trkpt lat="43.71763310798703" lon="7.026141647467502"><ele>848.0</ele><time>2026-04-06T13:34:00Z</time></trkpt><trkpt lat="43.71752678334083" lon="7.02620096230338"><ele>849.0</ele><time>2026-04-06T13:34:01Z</time></trkpt><trkpt lat="43.71740384082275" lon="7.026245238419494"><ele>846.75</ele><time>2026-04-06T13:34:02Z</time></trkpt><trkpt lat="43.71726782506754" lon="7.026283171497645"><ele>844.5</ele><time>2026-04-06T13:34:03Z</time></trkpt><trkpt lat="43.71714316190794" lon="7.0263106908984465"><ele>842.25</ele><time>2026-04-06T13:34:04Z</time></trkpt><trkpt lat="43.71703790167806" lon="7.026350606276464"><ele>840.0</ele><time>2026-04-06T13:34:05Z</time></trkpt><trkpt lat="43.71694447120646" lon="7.026401471721736"><ele>840.0</ele><time>2026-04-06T13:34:06Z</time></trkpt><trkpt lat="43.716859068996314" lon="7.026464942181269"><ele>840.0</ele><time>2026-04-06T13:34:07Z</time></trkpt><trkpt lat="43.71679183881385" lon="7.026536393328254"><ele>840.0</ele><time>2026-04-06T13:34:08Z</time></trkpt><trkpt lat="43.71674495832247" lon="7.026617749051996"><ele>840.0</ele><time>2026-04-06T13:34:09Z</time></trkpt><trkpt lat="43.71671545538975" lon="7.026696864649321"><ele>840.0</ele><time>2026-04-06T13:34:10Z</time></trkpt><trkpt lat="43.71671501471316" lon="7.026890719671429"><ele>841.0</ele><time>2026-04-06T13:34:12Z</time></trkpt><trkpt lat="43.716712588124146" lon="7.0270369210095405"><ele>842.0</ele><time>2026-04-06T13:34:13Z</time></trkpt><trkpt lat="43.71672282943487" lon="7.027173241590634"><ele>843.0</ele><time>2026-04-06T13:34:14Z</time></trkpt><trkpt lat="43.71676289000348" lon="7.027288227991228"><ele>844.0</ele><time>2026-04-06T13:34:15Z</time></trkpt><trkpt lat="43.716816303469024" lon="7.027388114113449"><ele>845.0</ele><time>2026-04-06T13:34:16Z</time></trkpt><trkpt lat="43.71686902624533" lon="7.02749470442943"><ele>847.0</ele><time>2026-04-06T13:34:17Z</time></trkpt><trkpt lat="43.71694346656396" lon="7.027590926242448"><ele>849.0</ele><time>2026-04-06T13:34:18Z</time></trkpt><trkpt lat="43.71702909298496" lon="7.027688168065833"><ele>851.0</ele><time>2026-04-06T13:34:19Z</time></trkpt><trkpt lat="43.71711250510814" lon="7.027789989029153"><ele>853.0</ele><time>2026-04-06T13:34:20Z</time></trkpt><trkpt lat="43.717212402027876" lon="7.027889163988503"><ele>855.0</ele><time>2026-04-06T13:34:21Z</time></trkpt><trkpt lat="43.717314855378085" lon="7.028038804336974"><ele>855.0</ele><time>2026-04-06T13:34:22Z</time></trkpt><trkpt lat="43.7174234270263" lon="7.028166467975359"><ele>855.0</ele><time>2026-04-06T13:34:23Z</time></trkpt><trkpt lat="43.717531962401836" lon="7.0283190233957695"><ele>855.0</ele><time>2026-04-06T13:34:24Z</time></trkpt><trkpt lat="43.71763638205896" lon="7.028471950154547"><ele>855.0</ele><time>2026-04-06T13:34:25Z</time></trkpt><trkpt lat="43.71773429579578" lon="7.028610998399038"><ele>854.0</ele><time>2026-04-06T13:34:26Z</time></trkpt><trkpt lat="43.71783007102508" lon="7.028755029745878"><ele>853.0</ele><time>2026-04-06T13:34:27Z</time></trkpt><trkpt lat="43.71792148475889" lon="7.028897446315832"><ele>852.0</ele><time>2026-04-06T13:34:28Z</time></trkpt><trkpt lat="43.718013083653574" lon="7.029033599559244"><ele>851.0</ele><time>2026-04-06T13:34:29Z</time></trkpt><trkpt lat="43.718098420325695" lon="7.029162538712777"><ele>851.0</ele><time>2026-04-06T13:34:30Z</time></trkpt><trkpt lat="43.71817128227254" lon="7.0292745929143905"><ele>851.0</ele><time>2026-04-06T13:34:31Z</time></trkpt><trkpt lat="43.71822947907908" lon="7.029358743518352"><ele>851.0</ele><time>2026-04-06T13:34:32Z</time></trkpt><trkpt lat="43.718283427831544" lon="7.02943188346762"><ele>851.0</ele><time>2026-04-06T13:34:33Z</time></trkpt><trkpt lat="43.71833464313696" lon="7.029496100967386"><ele>851.0</ele><time>2026-04-06T13:34:34Z</time></trkpt><trkpt lat="43.718417503837095" lon="7.029609619409263"><ele>851.0000000000001</ele><time>2026-04-06T13:34:36Z</time></trkpt><trkpt lat="43.71848347842527" lon="7.029686318345179"><ele>851.0</ele><time>2026-04-06T13:34:38Z</time></trkpt><trkpt lat="43.718531688620864" lon="7.029750906232494"><ele>851.0</ele><time>2026-04-06T13:34:40Z</time></trkpt><trkpt lat="43.71859129144559" lon="7.029825922341711"><ele>851.0</ele><time>2026-04-06T13:34:42Z</time></trkpt><trkpt lat="43.71869094722755" lon="7.029932945317575"><ele>851.0000000000001</ele><time>2026-04-06T13:34:44Z</time></trkpt><trkpt lat="43.718743117385756" lon="7.030020966407488"><ele>851.0</ele><time>2026-04-06T13:34:45Z</time></trkpt><trkpt lat="43.71878901007278" lon="7.03010356228249"><ele>851.6666666666667</ele><time>2026-04-06T13:34:46Z</time></trkpt><trkpt lat="43.718838723861424" lon="7.030194875805926"><ele>852.3333333333334</ele><time>2026-04-06T13:34:47Z</time></trkpt><trkpt lat="43.71888244274979" lon="7.030285046952483"><ele>853.0</ele><time>2026-04-06T13:34:48Z</time></trkpt><trkpt lat="43.71892759310423" lon="7.03037907134553"><ele>853.6666666666667</ele><time>2026-04-06T13:34:49Z</time></trkpt><trkpt lat="43.718970515142665" lon="7.03046297117572"><ele>854.3333333333334</ele><time>2026-04-06T13:34:50Z</time></trkpt><trkpt lat="43.71901305622007" lon="7.030543327047792"><ele>855.0</ele><time>2026-04-06T13:34:51Z</time></trkpt><trkpt lat="43.71905925310644" lon="7.030624523398365"><ele>855.0</ele><time>2026-04-06T13:34:52Z</time></trkpt><trkpt lat="43.71909472303482" lon="7.030706233296109"><ele>855.0</ele><time>2026-04-06T13:34:53Z</time></trkpt><trkpt lat="43.719121890815565" lon="7.03080336599921"><ele>855.0</ele><time>2026-04-06T13:34:54Z</time></trkpt><trkpt lat="43.71914773800354" lon="7.030930487987851"><ele>855.0</ele><time>2026-04-06T13:34:55Z</time></trkpt><trkpt lat="43.7191858188418" lon="7.031086431999853"><ele>855.0</ele><time>2026-04-06T13:34:56Z</time></trkpt><trkpt lat="43.71921224399143" lon="7.031257108092831"><ele>851.75</ele><time>2026-04-06T13:34:57Z</time></trkpt><trkpt lat="43.719242029604615" lon="7.0314119164734485"><ele>848.5</ele><time>2026-04-06T13:34:58Z</time></trkpt><trkpt lat="43.71925391833288" lon="7.031569616184881"><ele>845.25</ele><time>2026-04-06T13:34:59Z</time></trkpt><trkpt lat="43.71923473606614" lon="7.031746597438819"><ele>842.0</ele><time>2026-04-06T13:35:00Z</time></trkpt><trkpt lat="43.71922358571989" lon="7.031898525242274"><ele>840.6</ele><time>2026-04-06T13:35:01Z</time></trkpt><trkpt lat="43.719213931204756" lon="7.032042228021738"><ele>839.2</ele><time>2026-04-06T13:35:02Z</time></trkpt><trkpt lat="43.71923509658095" lon="7.032165073318823"><ele>837.8</ele><time>2026-04-06T13:35:03Z</time></trkpt><trkpt lat="43.71929045941923" lon="7.032260534154056"><ele>836.4</ele><time>2026-04-06T13:35:04Z</time></trkpt><trkpt lat="43.71934440100809" lon="7.032357053995562"><ele>835.0</ele><time>2026-04-06T13:35:05Z</time></trkpt><trkpt lat="43.71943012961224" lon="7.032454007097371"><ele>839.2</ele><time>2026-04-06T13:35:07Z</time></trkpt><trkpt lat="43.71949008270415" lon="7.0325235422917425"><ele>843.4</ele><time>2026-04-06T13:35:08.999Z</time></trkpt><trkpt lat="43.71954801238749" lon="7.032596272690765"><ele>847.5999999999999</ele><time>2026-04-06T13:35:10.999Z</time></trkpt><trkpt lat="43.719640824974775" lon="7.032727226591264"><ele>851.8</ele><time>2026-04-06T13:35:12.999Z</time></trkpt><trkpt lat="43.719709320712916" lon="7.0327972291497485"><ele>856.0</ele><time>2026-04-06T13:35:13.999Z</time></trkpt><trkpt lat="43.71978188651297" lon="7.032891105230338"><ele>856.0</ele><time>2026-04-06T13:35:14.999Z</time></trkpt><trkpt lat="43.719855410685625" lon="7.033020474518723"><ele>856.0</ele><time>2026-04-06T13:35:15.999Z</time></trkpt><trkpt lat="43.71992553619667" lon="7.03318819266371"><ele>856.0</ele><time>2026-04-06T13:35:16.999Z</time></trkpt><trkpt lat="43.71999674471282" lon="7.033382836263507"><ele>856.0</ele><time>2026-04-06T13:35:17.999Z</time></trkpt><trkpt lat="43.72006917291209" lon="7.033552753267569"><ele>858.0</ele><time>2026-04-06T13:35:18.999Z</time></trkpt><trkpt lat="43.72014607560519" lon="7.033709249983941"><ele>860.0</ele><time>2026-04-06T13:35:19.999Z</time></trkpt><trkpt lat="43.720239284621904" lon="7.033849196102858"><ele>862.0</ele><time>2026-04-06T13:35:20.999Z</time></trkpt><trkpt lat="43.72031579112584" lon="7.033977423408184"><ele>864.0</ele><time>2026-04-06T13:35:21.999Z</time></trkpt><trkpt lat="43.72036920756413" lon="7.0341135979548595"><ele>860.4000000000001</ele><time>2026-04-06T13:35:22.999Z</time></trkpt><trkpt lat="43.720413167856734" lon="7.034245535338863"><ele>856.8000000000001</ele><time>2026-04-06T13:35:23.999Z</time></trkpt><trkpt lat="43.72043988011176" lon="7.034383099550858"><ele>853.2</ele><time>2026-04-06T13:35:24.999Z</time></trkpt><trkpt lat="43.720441747271586" lon="7.034516580487684"><ele>849.5999999999999</ele><time>2026-04-06T13:35:25.999Z</time></trkpt><trkpt lat="43.720440341149164" lon="7.034674239155953"><ele>846.0</ele><time>2026-04-06T13:35:26.999Z</time></trkpt><trkpt lat="43.72044534919615" lon="7.034812955977992"><ele>846.0</ele><time>2026-04-06T13:35:27.999Z</time></trkpt><trkpt lat="43.72046575741654" lon="7.034921929407576"><ele>846.0</ele><time>2026-04-06T13:35:28.999Z</time></trkpt><trkpt lat="43.72050747667088" lon="7.035013452227048"><ele>846.0</ele><time>2026-04-06T13:35:29.999Z</time></trkpt><trkpt lat="43.72056562133677" lon="7.035102692587235"><ele>846.0</ele><time>2026-04-06T13:35:30.999Z</time></trkpt><trkpt lat="43.720641692992984" lon="7.035184521031951"><ele>846.0</ele><time>2026-04-06T13:35:31.999Z</time></trkpt><trkpt lat="43.720718295014855" lon="7.035260863001385"><ele>846.0</ele><time>2026-04-06T13:35:32.999Z</time></trkpt><trkpt lat="43.720798540852904" lon="7.035342896420025"><ele>847.6666666666666</ele><time>2026-04-06T13:35:33.999Z</time></trkpt><trkpt lat="43.72087356324102" lon="7.03542047324858"><ele>849.3333333333333</ele><time>2026-04-06T13:35:34.999Z</time></trkpt><trkpt lat="43.72093185814984" lon="7.03549769694081"><ele>851.0</ele><time>2026-04-06T13:35:35.999Z</time></trkpt><trkpt lat="43.72098371166573" lon="7.035568327000534"><ele>852.6666666666666</ele><time>2026-04-06T13:35:36.999Z</time></trkpt><trkpt lat="43.72103161565391" lon="7.035632073819269"><ele>854.3333333333333</ele><time>2026-04-06T13:35:37.999Z</time></trkpt><trkpt lat="43.72108200215669" lon="7.03568689182715"><ele>856.0</ele><time>2026-04-06T13:35:38.999Z</time></trkpt><trkpt lat="43.721176852662026" lon="7.035787431376344"><ele>852.1666666666666</ele><time>2026-04-06T13:35:41.001Z</time></trkpt><trkpt lat="43.721219650267514" lon="7.035869150866701"><ele>848.3333333333333</ele><time>2026-04-06T13:35:42.001Z</time></trkpt><trkpt lat="43.72127652816634" lon="7.0359194385228845"><ele>844.5</ele><time>2026-04-06T13:35:43.001Z</time></trkpt><trkpt lat="43.72133857579392" lon="7.036009765656126"><ele>840.6666666666667</ele><time>2026-04-06T13:35:44.001Z</time></trkpt><trkpt lat="43.72139028958853" lon="7.036092587174863"><ele>836.8333333333334</ele><time>2026-04-06T13:35:45.001Z</time></trkpt><trkpt lat="43.72144855639565" lon="7.036173768660566"><ele>833.0</ele><time>2026-04-06T13:35:46.001Z</time></trkpt><trkpt lat="43.72149229849549" lon="7.036255115949335"><ele>833.0000000000001</ele><time>2026-04-06T13:35:47.001Z</time></trkpt><trkpt lat="43.72154051462176" lon="7.036342234260705"><ele>833.0</ele><time>2026-04-06T13:35:48.001Z</time></trkpt><trkpt lat="43.72157702878783" lon="7.036439934246818"><ele>833.0</ele><time>2026-04-06T13:35:49.001Z</time></trkpt><trkpt lat="43.72160389917305" lon="7.036526341314444"><ele>833.0</ele><time>2026-04-06T13:35:50.001Z</time></trkpt><trkpt lat="43.72161474501368" lon="7.036639292832042"><ele>833.0000000000001</ele><time>2026-04-06T13:35:51.001Z</time></trkpt><trkpt lat="43.721576235419086" lon="7.036766578394866"><ele>833.0</ele><time>2026-04-06T13:35:52.001Z</time></trkpt><trkpt lat="43.72153638708407" lon="7.036908707590412"><ele>831.2</ele><time>2026-04-06T13:35:53.001Z</time></trkpt><trkpt lat="43.72148115619526" lon="7.037044161986855"><ele>829.4</ele><time>2026-04-06T13:35:54.001Z</time></trkpt><trkpt lat="43.72141573738812" lon="7.03715110786147"><ele>827.6</ele><time>2026-04-06T13:35:55.001Z</time></trkpt><trkpt lat="43.72137940245501" lon="7.037270100142529"><ele>825.8000000000001</ele><time>2026-04-06T13:35:56.001Z</time></trkpt><trkpt lat="43.72135690199632" lon="7.037403301763973"><ele>824.0</ele><time>2026-04-06T13:35:57.001Z</time></trkpt><trkpt lat="43.721341798599106" lon="7.037537794404064"><ele>824.0</ele><time>2026-04-06T13:35:58.001Z</time></trkpt><trkpt lat="43.72133579571416" lon="7.037664644780053"><ele>824.0</ele><time>2026-04-06T13:35:59.001Z</time></trkpt><trkpt lat="43.72131953102563" lon="7.037782924581238"><ele>824.0</ele><time>2026-04-06T13:36:00Z</time></trkpt><trkpt lat="43.72130221251856" lon="7.037920184290204"><ele>824.0</ele><time>2026-04-06T13:36:01Z</time></trkpt><trkpt lat="43.72129732615359" lon="7.038053512923145"><ele>824.0</ele><time>2026-04-06T13:36:02Z</time></trkpt><trkpt lat="43.721302952912765" lon="7.038181866866499"><ele>824.0000000000001</ele><time>2026-04-06T13:36:03Z</time></trkpt><trkpt lat="43.72131884232158" lon="7.038295447057875"><ele>824.0</ele><time>2026-04-06T13:36:04Z</time></trkpt><trkpt lat="43.721338984414515" lon="7.038412178209347"><ele>824.0</ele><time>2026-04-06T13:36:05Z</time></trkpt><trkpt lat="43.72136713986491" lon="7.038535350101385"><ele>824.0</ele><time>2026-04-06T13:36:06Z</time></trkpt><trkpt lat="43.72138766501341" lon="7.038654993269755"><ele>824.0000000000001</ele><time>2026-04-06T13:36:07Z</time></trkpt><trkpt lat="43.72142760491911" lon="7.0387675068213"><ele>824.0</ele><time>2026-04-06T13:36:08Z</time></trkpt><trkpt lat="43.721494658333114" lon="7.038897637862469"><ele>823.75</ele><time>2026-04-06T13:36:09Z</time></trkpt><trkpt lat="43.72157617842593" lon="7.039035228512591"><ele>823.5</ele><time>2026-04-06T13:36:10Z</time></trkpt><trkpt lat="43.72165023962407" lon="7.0391705200358325"><ele>823.25</ele><time>2026-04-06T13:36:11Z</time></trkpt><trkpt lat="43.721711295166045" lon="7.039278230871879"><ele>823.0</ele><time>2026-04-06T13:36:12Z</time></trkpt><trkpt lat="43.72179762655767" lon="7.039353963939662"><ele>824.75</ele><time>2026-04-06T13:36:13Z</time></trkpt><trkpt lat="43.72189684915602" lon="7.039431037396163"><ele>826.5</ele><time>2026-04-06T13:36:14Z</time></trkpt><trkpt lat="43.72200376658002" lon="7.03952195029248"><ele>828.25</ele><time>2026-04-06T13:36:15Z</time></trkpt><trkpt lat="43.7221145414565" lon="7.039598800765828"><ele>830.0</ele><time>2026-04-06T13:36:16Z</time></trkpt><trkpt lat="43.72223327436147" lon="7.0396636892624915"><ele>830.0</ele><time>2026-04-06T13:36:17Z</time></trkpt><trkpt lat="43.722341171637055" lon="7.039728726978973"><ele>830.0</ele><time>2026-04-06T13:36:18Z</time></trkpt><trkpt lat="43.722447611260534" lon="7.03976352198354"><ele>830.0</ele><time>2026-04-06T13:36:19Z</time></trkpt><trkpt lat="43.722555523064415" lon="7.039796320162067"><ele>830.0</ele><time>2026-04-06T13:36:20Z</time></trkpt><trkpt lat="43.722669105939225" lon="7.039835813088162"><ele>830.6</ele><time>2026-04-06T13:36:21Z</time></trkpt><trkpt lat="43.72277588772911" lon="7.039869585619865"><ele>831.2</ele><time>2026-04-06T13:36:22Z</time></trkpt><trkpt lat="43.72287021411633" lon="7.039901838161863"><ele>831.8</ele><time>2026-04-06T13:36:23Z</time></trkpt><trkpt lat="43.72298297147878" lon="7.039936739984068"><ele>832.4</ele><time>2026-04-06T13:36:24Z</time></trkpt><trkpt lat="43.72308900842243" lon="7.039940338796037"><ele>833.0</ele><time>2026-04-06T13:36:25Z</time></trkpt><trkpt lat="43.72318675318489" lon="7.039941052038168"><ele>833.0000000000001</ele><time>2026-04-06T13:36:26Z</time></trkpt><trkpt lat="43.723277328296554" lon="7.039943822136435"><ele>833.0</ele><time>2026-04-06T13:36:27Z</time></trkpt><trkpt lat="43.72336145100958" lon="7.039958333013314"><ele>833.0</ele><time>2026-04-06T13:36:28Z</time></trkpt><trkpt lat="43.72343395534907" lon="7.039954986074635"><ele>833.0</ele><time>2026-04-06T13:36:29Z</time></trkpt><trkpt lat="43.72351415867517" lon="7.03992017870506"><ele>833.0000000000001</ele><time>2026-04-06T13:36:30Z</time></trkpt><trkpt lat="43.72359735588748" lon="7.03985399053273"><ele>833.0</ele><time>2026-04-06T13:36:31Z</time></trkpt><trkpt lat="43.723688957177316" lon="7.039763128668917"><ele>832.2</ele><time>2026-04-06T13:36:32Z</time></trkpt><trkpt lat="43.72379231853871" lon="7.039670615018004"><ele>831.4</ele><time>2026-04-06T13:36:33Z</time></trkpt><trkpt lat="43.723890622222875" lon="7.039586825441728"><ele>830.6</ele><time>2026-04-06T13:36:34Z</time></trkpt><trkpt lat="43.72397478931496" lon="7.039517008690727"><ele>829.8000000000001</ele><time>2026-04-06T13:36:35Z</time></trkpt><trkpt lat="43.724057597327175" lon="7.039450269196337"><ele>829.0</ele><time>2026-04-06T13:36:36Z</time></trkpt><trkpt lat="43.72412197794815" lon="7.039386221811647"><ele>829.0</ele><time>2026-04-06T13:36:37Z</time></trkpt><trkpt lat="43.72423819387025" lon="7.039374957492345"><ele>829.0</ele><time>2026-04-06T13:36:39Z</time></trkpt><trkpt lat="43.72432689006089" lon="7.039476585835961"><ele>829.0</ele><time>2026-04-06T13:36:41Z</time></trkpt><trkpt lat="43.72432660606337" lon="7.039629614313383"><ele>829.0</ele><time>2026-04-06T13:36:42Z</time></trkpt><trkpt lat="43.72437292451224" lon="7.039776975977166"><ele>828.5</ele><time>2026-04-06T13:36:43Z</time></trkpt><trkpt lat="43.72444244447465" lon="7.0398961839722265"><ele>828.0</ele><time>2026-04-06T13:36:44Z</time></trkpt><trkpt lat="43.72453088826674" lon="7.040018314617779"><ele>827.5</ele><time>2026-04-06T13:36:45Z</time></trkpt><trkpt lat="43.7246122361485" lon="7.040122671370588"><ele>827.0</ele><time>2026-04-06T13:36:46Z</time></trkpt><trkpt lat="43.72468855832044" lon="7.040219164047112"><ele>827.0</ele><time>2026-04-06T13:36:47Z</time></trkpt><trkpt lat="43.72478355258767" lon="7.040287514144693"><ele>827.0</ele><time>2026-04-06T13:36:48Z</time></trkpt><trkpt lat="43.72488083080471" lon="7.040318461761995"><ele>827.0</ele><time>2026-04-06T13:36:49Z</time></trkpt><trkpt lat="43.72498943651426" lon="7.040334402817277"><ele>827.0</ele><time>2026-04-06T13:36:50Z</time></trkpt><trkpt lat="43.725093168364445" lon="7.04037556676377"><ele>827.0</ele><time>2026-04-06T13:36:51Z</time></trkpt><trkpt lat="43.72523503623095" lon="7.040430808748458"><ele>829.75</ele><time>2026-04-06T13:36:52Z</time></trkpt><trkpt lat="43.725346647124375" lon="7.040513754726414"><ele>832.5</ele><time>2026-04-06T13:36:53Z</time></trkpt><trkpt lat="43.725449169912686" lon="7.040596869856691"><ele>835.25</ele><time>2026-04-06T13:36:54Z</time></trkpt><trkpt lat="43.7255562427089" lon="7.040648016340066"><ele>838.0</ele><time>2026-04-06T13:36:55Z</time></trkpt><trkpt lat="43.72565084787434" lon="7.040690568112169"><ele>837.9999999999999</ele><time>2026-04-06T13:36:56Z</time></trkpt><trkpt lat="43.7257425269639" lon="7.040716496455455"><ele>838.0</ele><time>2026-04-06T13:36:57Z</time></trkpt><trkpt lat="43.72582618105056" lon="7.040726894850621"><ele>838.0</ele><time>2026-04-06T13:36:58Z</time></trkpt><trkpt lat="43.725914071293204" lon="7.040727130997788"><ele>838.0</ele><time>2026-04-06T13:36:59Z</time></trkpt><trkpt lat="43.7259840764594" lon="7.040747538510673"><ele>837.9999999999999</ele><time>2026-04-06T13:37:00Z</time></trkpt><trkpt lat="43.72604237752569" lon="7.04083524828077"><ele>838.0</ele><time>2026-04-06T13:37:01Z</time></trkpt><trkpt lat="43.72609098160775" lon="7.040915185077507"><ele>835.8333333333333</ele><time>2026-04-06T13:37:02Z</time></trkpt><trkpt lat="43.72614757862951" lon="7.040966833374198"><ele>833.6666666666666</ele><time>2026-04-06T13:37:03Z</time></trkpt><trkpt lat="43.72622608324358" lon="7.040979507611742"><ele>831.5</ele><time>2026-04-06T13:37:04Z</time></trkpt><trkpt lat="43.72630724153843" lon="7.040979684069822"><ele>829.3333333333333</ele><time>2026-04-06T13:37:05Z</time></trkpt><trkpt lat="43.72638983528297" lon="7.040984290450943"><ele>827.1666666666666</ele><time>2026-04-06T13:37:06Z</time></trkpt><trkpt lat="43.726471842950474" lon="7.041002051124055"><ele>825.0</ele><time>2026-04-06T13:37:07Z</time></trkpt><trkpt lat="43.72656355024436" lon="7.041035167188194"><ele>825.0</ele><time>2026-04-06T13:37:08Z</time></trkpt><trkpt lat="43.726670654554965" lon="7.041100359258557"><ele>825.0</ele><time>2026-04-06T13:37:09Z</time></trkpt><trkpt lat="43.726782410499055" lon="7.041184673468718"><ele>825.0</ele><time>2026-04-06T13:37:10Z</time></trkpt><trkpt lat="43.726890488608326" lon="7.041259114298726"><ele>825.0</ele><time>2026-04-06T13:37:11Z</time></trkpt><trkpt lat="43.72696918386851" lon="7.041321780437302"><ele>826.6</ele><time>2026-04-06T13:37:12Z</time></trkpt><trkpt lat="43.72703782705624" lon="7.041370652931935"><ele>828.2</ele><time>2026-04-06T13:37:13Z</time></trkpt><trkpt lat="43.72710543619393" lon="7.04139583808049"><ele>829.8</ele><time>2026-04-06T13:37:14Z</time></trkpt><trkpt lat="43.72718971547711" lon="7.0413906021885415"><ele>831.4</ele><time>2026-04-06T13:37:15Z</time></trkpt><trkpt lat="43.72729173945939" lon="7.041379724485693"><ele>833.0</ele><time>2026-04-06T13:37:16Z</time></trkpt><trkpt lat="43.72741677684469" lon="7.04138535528228"><ele>833.0000000000001</ele><time>2026-04-06T13:37:17Z</time></trkpt><trkpt lat="43.72752184245644" lon="7.041383409722501"><ele>833.0</ele><time>2026-04-06T13:37:18Z</time></trkpt><trkpt lat="43.72760504021205" lon="7.0413716844476255"><ele>833.0</ele><time>2026-04-06T13:37:19Z</time></trkpt><trkpt lat="43.727674459754944" lon="7.041348934701518"><ele>833.0</ele><time>2026-04-06T13:37:20Z</time></trkpt><trkpt lat="43.72774548173392" lon="7.041305883742443"><ele>833.0000000000001</ele><time>2026-04-06T13:37:21Z</time></trkpt><trkpt lat="43.72783666437588" lon="7.041261512406962"><ele>833.0</ele><time>2026-04-06T13:37:21.999Z</time></trkpt><trkpt lat="43.72793921162687" lon="7.041206738987688"><ele>834.2</ele><time>2026-04-06T13:37:22.999Z</time></trkpt><trkpt lat="43.72802898380164" lon="7.041166622989746"><ele>835.4</ele><time>2026-04-06T13:37:23.999Z</time></trkpt><trkpt lat="43.72809958312232" lon="7.041143489664502"><ele>836.6</ele><time>2026-04-06T13:37:24.999Z</time></trkpt><trkpt lat="43.728171461479526" lon="7.041157840392314"><ele>837.8000000000001</ele><time>2026-04-06T13:37:25.999Z</time></trkpt><trkpt lat="43.72827150364223" lon="7.041215115155151"><ele>839.0</ele><time>2026-04-06T13:37:26.999Z</time></trkpt><trkpt lat="43.72837319299303" lon="7.041266702247602"><ele>839.0</ele><time>2026-04-06T13:37:27.999Z</time></trkpt><trkpt lat="43.728456882114386" lon="7.04130129397064"><ele>839.0</ele><time>2026-04-06T13:37:28.999Z</time></trkpt><trkpt lat="43.728541490760136" lon="7.041312879680215"><ele>839.0</ele><time>2026-04-06T13:37:29.999Z</time></trkpt><trkpt lat="43.72862938542451" lon="7.041325155688328"><ele>839.0</ele><time>2026-04-06T13:37:30.999Z</time></trkpt><trkpt lat="43.72872767643948" lon="7.041334242040823"><ele>839.0</ele><time>2026-04-06T13:37:31.999Z</time></trkpt><trkpt lat="43.72884313978696" lon="7.041342744568137"><ele>840.3333333333334</ele><time>2026-04-06T13:37:32.999Z</time></trkpt><trkpt lat="43.7289484109774" lon="7.041359532602251"><ele>841.6666666666667</ele><time>2026-04-06T13:37:33.999Z</time></trkpt><trkpt lat="43.72902965707673" lon="7.041346555596346"><ele>843.0</ele><time>2026-04-06T13:37:34.999Z</time></trkpt><trkpt lat="43.72913695189467" lon="7.0413578983850735"><ele>844.3333333333333</ele><time>2026-04-06T13:37:36.999Z</time></trkpt><trkpt lat="43.72922421049653" lon="7.041359341330175"><ele>845.6666666666666</ele><time>2026-04-06T13:37:38.999Z</time></trkpt><trkpt lat="43.72929069747679" lon="7.041361823717936"><ele>847.0</ele><time>2026-04-06T13:37:40.999Z</time></trkpt><trkpt lat="43.72939323226087" lon="7.041369095657477"><ele>847.6666666666666</ele><time>2026-04-06T13:37:43.999Z</time></trkpt><trkpt lat="43.7294859486197" lon="7.041376713385061"><ele>848.3333333333333</ele><time>2026-04-06T13:37:46.001Z</time></trkpt><trkpt lat="43.729563280130506" lon="7.0414390016206525"><ele>849.0</ele><time>2026-04-06T13:37:48.001Z</time></trkpt><trkpt lat="43.729596941080615" lon="7.041537733975683"><ele>849.6666666666667</ele><time>2026-04-06T13:37:49.001Z</time></trkpt><trkpt lat="43.72959199095005" lon="7.04164951505786"><ele>850.3333333333334</ele><time>2026-04-06T13:37:50.001Z</time></trkpt><trkpt lat="43.72957453192119" lon="7.0417586632194675"><ele>851.0</ele><time>2026-04-06T13:37:51.001Z</time></trkpt><trkpt lat="43.729534828316226" lon="7.041869691984245"><ele>851.0000000000001</ele><time>2026-04-06T13:37:52.001Z</time></trkpt><trkpt lat="43.7295093828181" lon="7.041961735163859"><ele>851.0</ele><time>2026-04-06T13:37:53.001Z</time></trkpt><trkpt lat="43.729512172110674" lon="7.042075990186953"><ele>851.0</ele><time>2026-04-06T13:37:54.001Z</time></trkpt><trkpt lat="43.72951080161886" lon="7.042199436932461"><ele>851.0</ele><time>2026-04-06T13:37:55.001Z</time></trkpt><trkpt lat="43.72951344967805" lon="7.042328866906173"><ele>851.0000000000001</ele><time>2026-04-06T13:37:56.001Z</time></trkpt><trkpt lat="43.729516077882025" lon="7.042437542080516"><ele>851.0</ele><time>2026-04-06T13:37:57.001Z</time></trkpt><trkpt lat="43.729521139663724" lon="7.042534028948215"><ele>852.0</ele><time>2026-04-06T13:37:58.001Z</time></trkpt><trkpt lat="43.729515280365504" lon="7.042700052743932"><ele>853.0</ele><time>2026-04-06T13:38:00.001Z</time></trkpt><trkpt lat="43.729483959924146" lon="7.042839509179321"><ele>853.9999999999999</ele><time>2026-04-06T13:38:02.001Z</time></trkpt><trkpt lat="43.72947148203465" lon="7.0429312080503115"><ele>855.0</ele><time>2026-04-06T13:38:03.001Z</time></trkpt><trkpt lat="43.72947067906998" lon="7.043051183376848"><ele>856.0</ele><time>2026-04-06T13:38:04.001Z</time></trkpt><trkpt lat="43.72946956648171" lon="7.043218841475736"><ele>856.5</ele><time>2026-04-06T13:38:05.001Z</time></trkpt><trkpt lat="43.72947039789985" lon="7.043411841452694"><ele>857.0</ele><time>2026-04-06T13:38:06.001Z</time></trkpt><trkpt lat="43.7294726220778" lon="7.043596727985867"><ele>857.5</ele><time>2026-04-06T13:38:07.001Z</time></trkpt><trkpt lat="43.72947726160964" lon="7.043768286506541"><ele>858.0</ele><time>2026-04-06T13:38:08.001Z</time></trkpt><trkpt lat="43.72947312419365" lon="7.043930068800164"><ele>858.0</ele><time>2026-04-06T13:38:09Z</time></trkpt><trkpt lat="43.729469317427714" lon="7.0440891763375415"><ele>858.0</ele><time>2026-04-06T13:38:10Z</time></trkpt><trkpt lat="43.72946572202263" lon="7.044225708947359"><ele>858.0</ele><time>2026-04-06T13:38:11Z</time></trkpt><trkpt lat="43.72945814682149" lon="7.044350363711481"><ele>858.0</ele><time>2026-04-06T13:38:12Z</time></trkpt><trkpt lat="43.729455165345385" lon="7.044485941612042"><ele>858.0</ele><time>2026-04-06T13:38:13Z</time></trkpt><trkpt lat="43.729431301374916" lon="7.044651373462039"><ele>857.5999999999999</ele><time>2026-04-06T13:38:14Z</time></trkpt><trkpt lat="43.72939177181583" lon="7.044813028985591"><ele>857.1999999999999</ele><time>2026-04-06T13:38:15Z</time></trkpt><trkpt lat="43.72936688185592" lon="7.0449770655606905"><ele>856.8</ele><time>2026-04-06T13:38:16Z</time></trkpt><trkpt lat="43.72933018915539" lon="7.045068344249775"><ele>856.4</ele><time>2026-04-06T13:38:17Z</time></trkpt><trkpt lat="43.72933925964863" lon="7.045214402590282"><ele>856.0</ele><time>2026-04-06T13:38:19Z</time></trkpt><trkpt lat="43.72939936547383" lon="7.045269085470949"><ele>856.0</ele><time>2026-04-06T13:38:20Z</time></trkpt><trkpt lat="43.72948263473071" lon="7.04533519345988"><ele>855.9999999999999</ele><time>2026-04-06T13:38:21Z</time></trkpt><trkpt lat="43.72957419735895" lon="7.045410664612221"><ele>855.9999999999999</ele><time>2026-04-06T13:38:22Z</time></trkpt><trkpt lat="43.72966212468059" lon="7.045498679619906"><ele>856.0</ele><time>2026-04-06T13:38:23Z</time></trkpt><trkpt lat="43.72975342436725" lon="7.045577174948066"><ele>856.0</ele><time>2026-04-06T13:38:24Z</time></trkpt><trkpt lat="43.72984283233193" lon="7.045657010759383"><ele>856.0</ele><time>2026-04-06T13:38:25Z</time></trkpt><trkpt lat="43.7299376356267" lon="7.045747067969307"><ele>856.0</ele><time>2026-04-06T13:38:26Z</time></trkpt><trkpt lat="43.73004275532036" lon="7.045835575911202"><ele>856.0</ele><time>2026-04-06T13:38:27Z</time></trkpt><trkpt lat="43.73013211753288" lon="7.045927029458309"><ele>856.0</ele><time>2026-04-06T13:38:28Z</time></trkpt><trkpt lat="43.73021126354262" lon="7.04602022989632"><ele>856.25</ele><time>2026-04-06T13:38:29Z</time></trkpt><trkpt lat="43.73030051458713" lon="7.04609962402568"><ele>856.5</ele><time>2026-04-06T13:38:30Z</time></trkpt><trkpt lat="43.73039247353166" lon="7.046205553728831"><ele>856.75</ele><time>2026-04-06T13:38:31Z</time></trkpt><trkpt lat="43.7304876822973" lon="7.046317486544716"><ele>857.0</ele><time>2026-04-06T13:38:32Z</time></trkpt><trkpt lat="43.730569922823925" lon="7.046436828030257"><ele>857.0</ele><time>2026-04-06T13:38:33Z</time></trkpt><trkpt lat="43.73064543056694" lon="7.046554021216371"><ele>857.0</ele><time>2026-04-06T13:38:34Z</time></trkpt><trkpt lat="43.73072646647308" lon="7.046665936405148"><ele>857.0</ele><time>2026-04-06T13:38:35Z</time></trkpt><trkpt lat="43.73081175707396" lon="7.046775966797531"><ele>857.0</ele><time>2026-04-06T13:38:36Z</time></trkpt><trkpt lat="43.73089446999353" lon="7.046885791047585"><ele>856.2</ele><time>2026-04-06T13:38:37Z</time></trkpt><trkpt lat="43.73097583746854" lon="7.046990627184669"><ele>855.4000000000001</ele><time>2026-04-06T13:38:38Z</time></trkpt><trkpt lat="43.731054497031415" lon="7.0470880655066015"><ele>854.5999999999999</ele><time>2026-04-06T13:38:39Z</time></trkpt><trkpt lat="43.731122480881936" lon="7.0471744955193225"><ele>853.8</ele><time>2026-04-06T13:38:40Z</time></trkpt><trkpt lat="43.73118600382188" lon="7.0472442984884776"><ele>853.0</ele><time>2026-04-06T13:38:41Z</time></trkpt><trkpt lat="43.73124362106433" lon="7.047305685863459"><ele>852.9999999999999</ele><time>2026-04-06T13:38:42Z</time></trkpt><trkpt lat="43.731299020540256" lon="7.047361414966874"><ele>853.0</ele><time>2026-04-06T13:38:43Z</time></trkpt><trkpt lat="43.731364345269256" lon="7.047396292817314"><ele>853.0</ele><time>2026-04-06T13:38:44Z</time></trkpt><trkpt lat="43.731446091201654" lon="7.047444388925187"><ele>853.0</ele><time>2026-04-06T13:38:45Z</time></trkpt><trkpt lat="43.731517954556395" lon="7.047471093771474"><ele>852.9999999999999</ele><time>2026-04-06T13:38:46Z</time></trkpt><trkpt lat="43.73159250235896" lon="7.047490875294412"><ele>853.0</ele><time>2026-04-06T13:38:47Z</time></trkpt><trkpt lat="43.73168162061436" lon="7.047495743961619"><ele>850.5999999999999</ele><time>2026-04-06T13:38:48Z</time></trkpt><trkpt lat="43.731786897329286" lon="7.047496771634028"><ele>848.1999999999999</ele><time>2026-04-06T13:38:49Z</time></trkpt><trkpt lat="43.73189446268189" lon="7.047513571997483"><ele>845.8</ele><time>2026-04-06T13:38:50Z</time></trkpt><trkpt lat="43.73198760374529" lon="7.047549268020195"><ele>843.4</ele><time>2026-04-06T13:38:51Z</time></trkpt><trkpt lat="43.73206733774043" lon="7.047602582020846"><ele>841.0</ele><time>2026-04-06T13:38:52Z</time></trkpt><trkpt lat="43.73215144373629" lon="7.04766699183699"><ele>840.9999999999999</ele><time>2026-04-06T13:38:53Z</time></trkpt><trkpt lat="43.732245948034475" lon="7.047719588448964"><ele>841.0</ele><time>2026-04-06T13:38:54Z</time></trkpt><trkpt lat="43.73232732517323" lon="7.047760430492611"><ele>841.0</ele><time>2026-04-06T13:38:55Z</time></trkpt><trkpt lat="43.73240953647305" lon="7.047797905895944"><ele>841.0</ele><time>2026-04-06T13:38:56Z</time></trkpt><trkpt lat="43.732492592120074" lon="7.0478446132694925"><ele>840.9999999999999</ele><time>2026-04-06T13:38:57Z</time></trkpt><trkpt lat="43.73255310207878" lon="7.0478981529296965"><ele>841.0</ele><time>2026-04-06T13:38:58Z</time></trkpt><trkpt lat="43.73258229132177" lon="7.048067279640891"><ele>841.0</ele><time>2026-04-06T13:39:00Z</time></trkpt><trkpt lat="43.73260706455102" lon="7.048190078840829"><ele>841.0</ele><time>2026-04-06T13:39:01Z</time></trkpt><trkpt lat="43.73265763187969" lon="7.04834486589232"><ele>841.0</ele><time>2026-04-06T13:39:02Z</time></trkpt><trkpt lat="43.732715888741744" lon="7.048526111562108"><ele>841.0</ele><time>2026-04-06T13:39:03Z</time></trkpt><trkpt lat="43.73277840167376" lon="7.048711113332551"><ele>842.1999999999999</ele><time>2026-04-06T13:39:04Z</time></trkpt><trkpt lat="43.732831376413976" lon="7.048872041130302"><ele>843.4</ele><time>2026-04-06T13:39:05Z</time></trkpt><trkpt lat="43.73288186820142" lon="7.0490125336290586"><ele>844.6</ele><time>2026-04-06T13:39:06Z</time></trkpt><trkpt lat="43.73292670223919" lon="7.049138809305192"><ele>845.8</ele><time>2026-04-06T13:39:07Z</time></trkpt><trkpt lat="43.73297338158779" lon="7.049251453753062"><ele>847.0</ele><time>2026-04-06T13:39:08Z</time></trkpt><trkpt lat="43.733020687990724" lon="7.0493574284236065"><ele>844.8333333333333</ele><time>2026-04-06T13:39:09Z</time></trkpt><trkpt lat="43.733073088379" lon="7.049450909380003"><ele>842.6666666666666</ele><time>2026-04-06T13:39:10Z</time></trkpt><trkpt lat="43.733135972218186" lon="7.049511668182257"><ele>840.5</ele><time>2026-04-06T13:39:11Z</time></trkpt><trkpt lat="43.73320600689925" lon="7.049563236342749"><ele>838.3333333333333</ele><time>2026-04-06T13:39:12Z</time></trkpt><trkpt lat="43.73328305093897" lon="7.049612411510459"><ele>836.1666666666666</ele><time>2026-04-06T13:39:13Z</time></trkpt><trkpt lat="43.73334701710905" lon="7.049658035744826"><ele>834.0</ele><time>2026-04-06T13:39:14Z</time></trkpt><trkpt lat="43.73341656996678" lon="7.049745740335434"><ele>834.0</ele><time>2026-04-06T13:39:16Z</time></trkpt><trkpt lat="43.73347342150626" lon="7.049834469717749"><ele>834.0</ele><time>2026-04-06T13:39:19Z</time></trkpt><trkpt lat="43.73355196915781" lon="7.049897693272071"><ele>834.0</ele><time>2026-04-06T13:39:22Z</time></trkpt><trkpt lat="43.733622972165364" lon="7.049918522822615"><ele>834.0</ele><time>2026-04-06T13:39:23.999Z</time></trkpt><trkpt lat="43.733704981885865" lon="7.049961940454747"><ele>834.0</ele><time>2026-04-06T13:39:25.999Z</time></trkpt><trkpt lat="43.733784297076795" lon="7.050032989572012"><ele>834.0</ele><time>2026-04-06T13:39:27.999Z</time></trkpt><trkpt lat="43.733895381266585" lon="7.050118093518324"><ele>834.0</ele><time>2026-04-06T13:39:29.999Z</time></trkpt><trkpt lat="43.733951203597094" lon="7.050166647543586"><ele>834.0</ele><time>2026-04-06T13:39:30.999Z</time></trkpt><trkpt lat="43.73400200132756" lon="7.05022188896372"><ele>834.0</ele><time>2026-04-06T13:39:31.999Z</time></trkpt><trkpt lat="43.73409371859504" lon="7.050335909881972"><ele>834.0</ele><time>2026-04-06T13:39:33.999Z</time></trkpt><trkpt lat="43.73417554600563" lon="7.0504321907256235"><ele>834.0</ele><time>2026-04-06T13:39:35.999Z</time></trkpt><trkpt lat="43.734209790676104" lon="7.050586864861579"><ele>834.0</ele><time>2026-04-06T13:39:37.999Z</time></trkpt><trkpt lat="43.73420576116406" lon="7.05069277171225"><ele>834.0</ele><time>2026-04-06T13:39:38.999Z</time></trkpt><trkpt lat="43.734226564589655" lon="7.050851861172784"><ele>834.0</ele><time>2026-04-06T13:39:39.999Z</time></trkpt><trkpt lat="43.734244515954074" lon="7.051030744480077"><ele>834.0</ele><time>2026-04-06T13:39:40.999Z</time></trkpt><trkpt lat="43.73426723876486" lon="7.051179100768488"><ele>834.0</ele><time>2026-04-06T13:39:41.999Z</time></trkpt><trkpt lat="43.734291144474184" lon="7.05131431714432"><ele>830.75</ele><time>2026-04-06T13:39:42.999Z</time></trkpt><trkpt lat="43.7343008486871" lon="7.051454572637609"><ele>827.5</ele><time>2026-04-06T13:39:43.999Z</time></trkpt><trkpt lat="43.734316707267645" lon="7.0515994389040975"><ele>824.25</ele><time>2026-04-06T13:39:44.999Z</time></trkpt><trkpt lat="43.73434385136595" lon="7.0517676042464394"><ele>821.0</ele><time>2026-04-06T13:39:45.999Z</time></trkpt><trkpt lat="43.73436603301552" lon="7.051943556992392"><ele>819.5999999999999</ele><time>2026-04-06T13:39:46.999Z</time></trkpt><trkpt lat="43.73438065015384" lon="7.052087450804019"><ele>818.2</ele><time>2026-04-06T13:39:47.999Z</time></trkpt><trkpt lat="43.734395986103955" lon="7.052227385895433"><ele>816.8</ele><time>2026-04-06T13:39:48.999Z</time></trkpt><trkpt lat="43.73441288381902" lon="7.052363350079722"><ele>815.4000000000001</ele><time>2026-04-06T13:39:49.999Z</time></trkpt><trkpt lat="43.7344476101769" lon="7.052498672025613"><ele>814.0</ele><time>2026-04-06T13:39:51.001Z</time></trkpt><trkpt lat="43.73449633242014" lon="7.052635424786153"><ele>818.0</ele><time>2026-04-06T13:39:52.001Z</time></trkpt><trkpt lat="43.73455487759785" lon="7.052783137806384"><ele>822.0</ele><time>2026-04-06T13:39:53.001Z</time></trkpt><trkpt lat="43.73459273261557" lon="7.052939572702373"><ele>826.0</ele><time>2026-04-06T13:39:54.001Z</time></trkpt><trkpt lat="43.73461709673721" lon="7.053110909968592"><ele>830.0</ele><time>2026-04-06T13:39:55.001Z</time></trkpt><trkpt lat="43.734637648954354" lon="7.0532627046165555"><ele>829.2</ele><time>2026-04-06T13:39:56.001Z</time></trkpt><trkpt lat="43.734649259948156" lon="7.05337971782027"><ele>828.4</ele><time>2026-04-06T13:39:57.001Z</time></trkpt><trkpt lat="43.73466251450002" lon="7.053557445552215"><ele>827.5999999999999</ele><time>2026-04-06T13:39:59.001Z</time></trkpt><trkpt lat="43.734698660988144" lon="7.053705403896468"><ele>826.8</ele><time>2026-04-06T13:40:01.001Z</time></trkpt><trkpt lat="43.73470345616222" lon="7.053863517843976"><ele>826.0</ele><time>2026-04-06T13:40:03.001Z</time></trkpt><trkpt lat="43.7347402315661" lon="7.054010847898245"><ele>825.3333333333333</ele><time>2026-04-06T13:40:05.001Z</time></trkpt><trkpt lat="43.734780297334204" lon="7.054129684580407"><ele>824.6666666666666</ele><time>2026-04-06T13:40:07.001Z</time></trkpt><trkpt lat="43.7348080883076" lon="7.054243051445577"><ele>824.0</ele><time>2026-04-06T13:40:09.001Z</time></trkpt><trkpt lat="43.7348352363087" lon="7.054326859839153"><ele>823.3333333333333</ele><time>2026-04-06T13:40:12.001Z</time></trkpt><trkpt lat="43.73480648265329" lon="7.054425288997544"><ele>822.6666666666666</ele><time>2026-04-06T13:51:40.999Z</time></trkpt><trkpt lat="43.734715830135634" lon="7.054482993972587"><ele>822.0</ele><time>2026-04-06T13:51:43.998Z</time></trkpt><trkpt lat="43.73461604178865" lon="7.054532790937927"><ele>822.0</ele><time>2026-04-06T13:51:45.998Z</time></trkpt><trkpt lat="43.73454974360647" lon="7.054569982539696"><ele>822.0</ele><time>2026-04-06T13:51:46.998Z</time></trkpt><trkpt lat="43.734480217126276" lon="7.054619432568227"><ele>822.0</ele><time>2026-04-06T13:51:47.998Z</time></trkpt><trkpt lat="43.73440994431501" lon="7.05468033242487"><ele>822.0</ele><time>2026-04-06T13:51:48.998Z</time></trkpt><trkpt lat="43.7343418889999" lon="7.054760719837352"><ele>822.0</ele><time>2026-04-06T13:51:49.998Z</time></trkpt><trkpt lat="43.734277664378446" lon="7.05485813061948"><ele>822.0</ele><time>2026-04-06T13:51:50.998Z</time></trkpt><trkpt lat="43.734223937515914" lon="7.054964179637859"><ele>818.6666666666666</ele><time>2026-04-06T13:51:51.998Z</time></trkpt><trkpt lat="43.73417451927705" lon="7.055073379003247"><ele>815.3333333333333</ele><time>2026-04-06T13:51:52.998Z</time></trkpt><trkpt lat="43.73412635153207" lon="7.055177999601157"><ele>812.0</ele><time>2026-04-06T13:51:53.998Z</time></trkpt><trkpt lat="43.734072598861175" lon="7.055277503888384"><ele>808.6666666666666</ele><time>2026-04-06T13:51:54.998Z</time></trkpt><trkpt lat="43.7340361389967" lon="7.05537603627237"><ele>805.3333333333333</ele><time>2026-04-06T13:51:55.998Z</time></trkpt><trkpt lat="43.73398253434274" lon="7.055456318668291"><ele>802.0</ele><time>2026-04-06T13:51:56.998Z</time></trkpt><trkpt lat="43.73392873951992" lon="7.055518395216511"><ele>802.0</ele><time>2026-04-06T13:51:57.998Z</time></trkpt><trkpt lat="43.733861616260775" lon="7.055548058071727"><ele>802.0</ele><time>2026-04-06T13:51:58.998Z</time></trkpt><trkpt lat="43.7337921706175" lon="7.055538817936309"><ele>802.0</ele><time>2026-04-06T13:51:59.998Z</time></trkpt><trkpt lat="43.73372993239002" lon="7.055493319992558"><ele>802.0</ele><time>2026-04-06T13:52:00.998Z</time></trkpt><trkpt lat="43.73369443912054" lon="7.0554072759322946"><ele>802.0</ele><time>2026-04-06T13:52:01.998Z</time></trkpt><trkpt lat="43.73367389791367" lon="7.055306646267396"><ele>802.0</ele><time>2026-04-06T13:52:02.998Z</time></trkpt><trkpt lat="43.73366234166599" lon="7.0552158231157875"><ele>802.0</ele><time>2026-04-06T13:52:03.998Z</time></trkpt><trkpt lat="43.73362170631209" lon="7.05508763178054"><ele>801.9999999999999</ele><time>2026-04-06T13:52:05.998Z</time></trkpt><trkpt lat="43.733557274181344" lon="7.054996294932726"><ele>802.0</ele><time>2026-04-06T13:52:07.998Z</time></trkpt><trkpt lat="43.73348752329515" lon="7.055015944136248"><ele>802.0</ele><time>2026-04-06T13:52:08.998Z</time></trkpt><trkpt lat="43.73341694480539" lon="7.055068404086681"><ele>802.0</ele><time>2026-04-06T13:52:09.998Z</time></trkpt><trkpt lat="43.73335258771481" lon="7.055114473303092"><ele>801.9999999999999</ele><time>2026-04-06T13:52:10.998Z</time></trkpt><trkpt lat="43.73328738595617" lon="7.055144836961339"><ele>802.0</ele><time>2026-04-06T13:52:11.998Z</time></trkpt><trkpt lat="43.73320901925707" lon="7.055157188230622"><ele>800.5714285714286</ele><time>2026-04-06T13:52:12.998Z</time></trkpt><trkpt lat="43.73313385896401" lon="7.055153647154804"><ele>799.1428571428571</ele><time>2026-04-06T13:52:13.998Z</time></trkpt><trkpt lat="43.7330601611262" lon="7.055148975812688"><ele>797.7142857142858</ele><time>2026-04-06T13:52:14.998Z</time></trkpt><trkpt lat="43.73298499215284" lon="7.055148539800888"><ele>796.2857142857142</ele><time>2026-04-06T13:52:15.998Z</time></trkpt><trkpt lat="43.732914067779085" lon="7.055155207073515"><ele>794.8571428571428</ele><time>2026-04-06T13:52:16.998Z</time></trkpt><trkpt lat="43.732836718159184" lon="7.055169802347261"><ele>793.4285714285714</ele><time>2026-04-06T13:52:17.998Z</time></trkpt><trkpt lat="43.73276168457651" lon="7.055186905202706"><ele>792.0</ele><time>2026-04-06T13:52:18.998Z</time></trkpt><trkpt lat="43.73268130440635" lon="7.055209905290051"><ele>788.0</ele><time>2026-04-06T13:52:19.998Z</time></trkpt><trkpt lat="43.73260695519553" lon="7.0552644003295315"><ele>784.0</ele><time>2026-04-06T13:52:20.998Z</time></trkpt><trkpt lat="43.73252064616909" lon="7.055299600466105"><ele>780.0</ele><time>2026-04-06T13:52:21.998Z</time></trkpt><trkpt lat="43.732456774683264" lon="7.055372982886638"><ele>776.0</ele><time>2026-04-06T13:52:22.998Z</time></trkpt><trkpt lat="43.732403746731855" lon="7.055457004108094"><ele>772.0</ele><time>2026-04-06T13:52:23.998Z</time></trkpt><trkpt lat="43.73236027528258" lon="7.055525371632482"><ele>768.0</ele><time>2026-04-06T13:52:24.999Z</time></trkpt><trkpt lat="43.732318018171476" lon="7.055608226920752"><ele>768.0</ele><time>2026-04-06T13:52:25.999Z</time></trkpt><trkpt lat="43.73227914146644" lon="7.055697127997835"><ele>768.0</ele><time>2026-04-06T13:52:26.999Z</time></trkpt><trkpt lat="43.73223574680567" lon="7.055797091725396"><ele>768.0</ele><time>2026-04-06T13:52:27.999Z</time></trkpt><trkpt lat="43.73218875116732" lon="7.0559053506547"><ele>768.0</ele><time>2026-04-06T13:52:28.999Z</time></trkpt><trkpt lat="43.732144155907534" lon="7.056003508836134"><ele>768.0</ele><time>2026-04-06T13:52:29.999Z</time></trkpt><trkpt lat="43.73209813658605" lon="7.056092894541705"><ele>768.0</ele><time>2026-04-06T13:52:30.999Z</time></trkpt><trkpt lat="43.732047810595795" lon="7.056183991384341"><ele>770.3333333333334</ele><time>2026-04-06T13:52:31.999Z</time></trkpt><trkpt lat="43.73199162923818" lon="7.056261551420609"><ele>772.6666666666667</ele><time>2026-04-06T13:52:32.999Z</time></trkpt><trkpt lat="43.73192731822952" lon="7.056331256637963"><ele>775.0</ele><time>2026-04-06T13:52:33.999Z</time></trkpt><trkpt lat="43.731853561756985" lon="7.056386917705722"><ele>777.3333333333334</ele><time>2026-04-06T13:52:34.999Z</time></trkpt><trkpt lat="43.73177180865872" lon="7.056431163811913"><ele>779.6666666666667</ele><time>2026-04-06T13:52:35.999Z</time></trkpt><trkpt lat="43.73168781360269" lon="7.056493289066552"><ele>782.0</ele><time>2026-04-06T13:52:36.999Z</time></trkpt><trkpt lat="43.73159430470434" lon="7.056523336337448"><ele>778.6</ele><time>2026-04-06T13:52:37.999Z</time></trkpt><trkpt lat="43.731516557864786" lon="7.0566064438087865"><ele>775.2</ele><time>2026-04-06T13:52:38.999Z</time></trkpt><trkpt lat="43.731439885641144" lon="7.056681195962122"><ele>771.8</ele><time>2026-04-06T13:52:39.999Z</time></trkpt><trkpt lat="43.73136617972174" lon="7.056762696952752"><ele>768.4</ele><time>2026-04-06T13:52:40.999Z</time></trkpt><trkpt lat="43.73129802745504" lon="7.05685508825102"><ele>765.0</ele><time>2026-04-06T13:52:41.999Z</time></trkpt><trkpt lat="43.73123499460412" lon="7.0569514978442065"><ele>765.0</ele><time>2026-04-06T13:52:42.999Z</time></trkpt><trkpt lat="43.73117281675887" lon="7.057049297268312"><ele>765.0</ele><time>2026-04-06T13:52:43.999Z</time></trkpt><trkpt lat="43.731101948916994" lon="7.057135086671555"><ele>765.0</ele><time>2026-04-06T13:52:44.999Z</time></trkpt><trkpt lat="43.73103336449649" lon="7.057223717059596"><ele>765.0</ele><time>2026-04-06T13:52:45.999Z</time></trkpt><trkpt lat="43.73096196209966" lon="7.057314158831928"><ele>765.0</ele><time>2026-04-06T13:52:46.999Z</time></trkpt><trkpt lat="43.73089712115723" lon="7.057399753721991"><ele>762.5</ele><time>2026-04-06T13:52:47.999Z</time></trkpt><trkpt lat="43.730836889439445" lon="7.0574699424518235"><ele>760.0</ele><time>2026-04-06T13:52:48.999Z</time></trkpt><trkpt lat="43.73078359894719" lon="7.057528387647212"><ele>757.5</ele><time>2026-04-06T13:52:49.999Z</time></trkpt><trkpt lat="43.730694901116536" lon="7.057589007353937"><ele>755.0</ele><time>2026-04-06T13:52:51.999Z</time></trkpt><trkpt lat="43.730660154116144" lon="7.057512324946551"><ele>752.5</ele><time>2026-04-06T13:52:52.999Z</time></trkpt><trkpt lat="43.730669305641115" lon="7.057414836397103"><ele>750.0</ele><time>2026-04-06T13:52:53.999Z</time></trkpt><trkpt lat="43.730722048489476" lon="7.057341722334872"><ele>747.1666666666666</ele><time>2026-04-06T13:52:54.999Z</time></trkpt><trkpt lat="43.730772619824876" lon="7.057279917016052"><ele>744.3333333333334</ele><time>2026-04-06T13:52:55.999Z</time></trkpt><trkpt lat="43.73082394095284" lon="7.057178243801706"><ele>741.5</ele><time>2026-04-06T13:52:57.999Z</time></trkpt><trkpt lat="43.73080046553633" lon="7.0570652897504"><ele>738.6666666666667</ele><time>2026-04-06T13:52:59.999Z</time></trkpt><trkpt lat="43.73073150253599" lon="7.057062251839435"><ele>735.8333333333334</ele><time>2026-04-06T13:53:00.999Z</time></trkpt><trkpt lat="43.730667880569165" lon="7.057148082915469"><ele>733.0</ele><time>2026-04-06T13:53:01.999Z</time></trkpt><trkpt lat="43.73062563688688" lon="7.057271176524167"><ele>733.0</ele><time>2026-04-06T13:53:02.999Z</time></trkpt><trkpt lat="43.73057657368248" lon="7.057352770858701"><ele>733.0</ele><time>2026-04-06T13:53:03.999Z</time></trkpt><trkpt lat="43.730517419462174" lon="7.0574245189651394"><ele>733.0</ele><time>2026-04-06T13:53:04.999Z</time></trkpt><trkpt lat="43.7304565204698" lon="7.057481520210588"><ele>733.0</ele><time>2026-04-06T13:53:05.999Z</time></trkpt><trkpt lat="43.730377055559714" lon="7.05757164756371"><ele>733.0</ele><time>2026-04-06T13:53:07.999Z</time></trkpt><trkpt lat="43.7302925636604" lon="7.05750050683011"><ele>733.0</ele><time>2026-04-06T13:53:09.999Z</time></trkpt><trkpt lat="43.730278032550544" lon="7.057392910136776"><ele>733.0</ele><time>2026-04-06T13:53:10.999Z</time></trkpt><trkpt lat="43.73029891806673" lon="7.057282331391266"><ele>733.0</ele><time>2026-04-06T13:53:11.999Z</time></trkpt><trkpt lat="43.73034956959884" lon="7.057178315007512"><ele>733.0</ele><time>2026-04-06T13:53:12.999Z</time></trkpt><trkpt lat="43.730394515156476" lon="7.0570793148994"><ele>733.0</ele><time>2026-04-06T13:53:13.999Z</time></trkpt><trkpt lat="43.73042338440093" lon="7.05698231444298"><ele>733.0</ele><time>2026-04-06T13:53:14.999Z</time></trkpt><trkpt lat="43.73043897300991" lon="7.056886424206977"><ele>733.0</ele><time>2026-04-06T13:53:15.999Z</time></trkpt><trkpt lat="43.730453701483825" lon="7.05679355542389"><ele>732.9999999999999</ele><time>2026-04-06T13:53:16.999Z</time></trkpt><trkpt lat="43.73047109612548" lon="7.056701337305031"><ele>733.0</ele><time>2026-04-06T13:53:17.999Z</time></trkpt><trkpt lat="43.73050157099172" lon="7.0566174235346315"><ele>733.0</ele><time>2026-04-06T13:53:18.999Z</time></trkpt><trkpt lat="43.73055398997074" lon="7.056548917541688"><ele>733.0</ele><time>2026-04-06T13:53:19.999Z</time></trkpt><trkpt lat="43.730627902083924" lon="7.056503147455794"><ele>733.0</ele><time>2026-04-06T13:53:20.999Z</time></trkpt><trkpt lat="43.730692121839915" lon="7.056469383713526"><ele>732.9999999999999</ele><time>2026-04-06T13:53:21.999Z</time></trkpt><trkpt lat="43.73076440531721" lon="7.056419084386753"><ele>733.0</ele><time>2026-04-06T13:53:22.999Z</time></trkpt><trkpt lat="43.730832240957845" lon="7.056345363005216"><ele>735.5999999999999</ele><time>2026-04-06T13:53:23.999Z</time></trkpt><trkpt lat="43.73090108666177" lon="7.056252898158031"><ele>738.1999999999999</ele><time>2026-04-06T13:53:24.999Z</time></trkpt><trkpt lat="43.73097774896389" lon="7.05615314998303"><ele>740.8</ele><time>2026-04-06T13:53:25.999Z</time></trkpt><trkpt lat="43.73104151147968" lon="7.056039411051545"><ele>743.4</ele><time>2026-04-06T13:53:26.999Z</time></trkpt><trkpt lat="43.73111185445076" lon="7.055939357400661"><ele>746.0</ele><time>2026-04-06T13:53:27.999Z</time></trkpt><trkpt lat="43.73117602125049" lon="7.055831186347394"><ele>742.4</ele><time>2026-04-06T13:53:28.999Z</time></trkpt><trkpt lat="43.73124869887955" lon="7.055731531619306"><ele>738.8</ele><time>2026-04-06T13:53:29.999Z</time></trkpt><trkpt lat="43.73131022538137" lon="7.055624303215553"><ele>735.1999999999999</ele><time>2026-04-06T13:53:30.999Z</time></trkpt><trkpt lat="43.73134210283126" lon="7.055497047840148"><ele>731.5999999999999</ele><time>2026-04-06T13:53:31.999Z</time></trkpt><trkpt lat="43.731361516538925" lon="7.055363198440124"><ele>728.0</ele><time>2026-04-06T13:53:32.999Z</time></trkpt><trkpt lat="43.731376762784" lon="7.055228490702051"><ele>728.0</ele><time>2026-04-06T13:53:33.999Z</time></trkpt><trkpt lat="43.73140026440718" lon="7.055108561768547"><ele>728.0</ele><time>2026-04-06T13:53:34.999Z</time></trkpt><trkpt lat="43.73143548614978" lon="7.0549966159053135"><ele>728.0</ele><time>2026-04-06T13:53:35.999Z</time></trkpt><trkpt lat="43.73146872856587" lon="7.054901769234065"><ele>728.0</ele><time>2026-04-06T13:53:36.999Z</time></trkpt><trkpt lat="43.731508186056686" lon="7.054832844191615"><ele>728.0</ele><time>2026-04-06T13:53:37.999Z</time></trkpt><trkpt lat="43.7314400136935" lon="7.054746258352577"><ele>728.0</ele><time>2026-04-06T13:53:39.999Z</time></trkpt><trkpt lat="43.731371548904775" lon="7.054790758872693"><ele>728.0</ele><time>2026-04-06T13:53:40.999Z</time></trkpt><trkpt lat="43.73131377184017" lon="7.054887293406381"><ele>728.0</ele><time>2026-04-06T13:53:41.999Z</time></trkpt><trkpt lat="43.731260634839344" lon="7.054958453206228"><ele>728.0</ele><time>2026-04-06T13:53:42.999Z</time></trkpt><trkpt lat="43.73121334862933" lon="7.055033579432512"><ele>728.0</ele><time>2026-04-06T13:53:43.999Z</time></trkpt><trkpt lat="43.73116330300364" lon="7.055090745460878"><ele>728.0</ele><time>2026-04-06T13:53:44.999Z</time></trkpt><trkpt lat="43.7311155233625" lon="7.055156401250179"><ele>728.0</ele><time>2026-04-06T13:53:45.999Z</time></trkpt><trkpt lat="43.73106066317443" lon="7.05523277613456"><ele>728.0</ele><time>2026-04-06T13:53:46.999Z</time></trkpt><trkpt lat="43.7310079473807" lon="7.055299538863457"><ele>724.2</ele><time>2026-04-06T13:53:47.999Z</time></trkpt><trkpt lat="43.730943392596345" lon="7.05526774150526"><ele>720.4</ele><time>2026-04-06T13:53:50.998Z</time></trkpt><trkpt lat="43.73098573638583" lon="7.0551740936958875"><ele>716.6</ele><time>2026-04-06T13:53:51.998Z</time></trkpt><trkpt lat="43.73101840547595" lon="7.055083344304467"><ele>712.8000000000001</ele><time>2026-04-06T13:53:52.998Z</time></trkpt><trkpt lat="43.73105380884562" lon="7.054939610179027"><ele>709.0</ele><time>2026-04-06T13:53:54.998Z</time></trkpt><trkpt lat="43.73109915633765" lon="7.0547711242419835"><ele>709.0</ele><time>2026-04-06T13:53:56.998Z</time></trkpt><trkpt lat="43.73112409307162" lon="7.054649944347085"><ele>709.0</ele><time>2026-04-06T13:53:57.998Z</time></trkpt><trkpt lat="43.73114623265142" lon="7.0545410557870785"><ele>709.0</ele><time>2026-04-06T13:53:58.998Z</time></trkpt><trkpt lat="43.73117782629312" lon="7.054442031133528"><ele>709.0</ele><time>2026-04-06T13:53:59.998Z</time></trkpt><trkpt lat="43.73120607568506" lon="7.054352440282301"><ele>709.0</ele><time>2026-04-06T13:54:00.998Z</time></trkpt><trkpt lat="43.73122013488956" lon="7.054207585932258"><ele>709.0</ele><time>2026-04-06T13:54:02.998Z</time></trkpt><trkpt lat="43.73109899536294" lon="7.054114469785646"><ele>703.5</ele><time>2026-04-06T13:54:04.998Z</time></trkpt><trkpt lat="43.73101376479717" lon="7.054256313049379"><ele>698.0</ele><time>2026-04-06T13:54:05.998Z</time></trkpt><trkpt lat="43.730962237379345" lon="7.054325951688197"><ele>692.5</ele><time>2026-04-06T13:54:06.998Z</time></trkpt><trkpt lat="43.73093378488851" lon="7.0544231604221395"><ele>687.0</ele><time>2026-04-06T13:54:07.998Z</time></trkpt><trkpt lat="43.730871338012314" lon="7.054491184760884"><ele>681.5</ele><time>2026-04-06T13:54:08.998Z</time></trkpt><trkpt lat="43.73080515261171" lon="7.054554289205887"><ele>676.0</ele><time>2026-04-06T13:54:09.998Z</time></trkpt><trkpt lat="43.730718777479865" lon="7.0546000059156295"><ele>676.0</ele><time>2026-04-06T13:54:10.998Z</time></trkpt><trkpt lat="43.730631423224565" lon="7.054644057925639"><ele>676.0</ele><time>2026-04-06T13:54:11.998Z</time></trkpt><trkpt lat="43.73054035494757" lon="7.054680119876355"><ele>676.0</ele><time>2026-04-06T13:54:12.998Z</time></trkpt><trkpt lat="43.73044721036768" lon="7.054733514195716"><ele>676.0</ele><time>2026-04-06T13:54:13.998Z</time></trkpt><trkpt lat="43.730335240504274" lon="7.054746101054995"><ele>676.0</ele><time>2026-04-06T13:54:14.998Z</time></trkpt><trkpt lat="43.73025321510701" lon="7.054826142550934"><ele>674.3333333333334</ele><time>2026-04-06T13:54:15.998Z</time></trkpt><trkpt lat="43.73017936632884" lon="7.054904013539037"><ele>672.6666666666667</ele><time>2026-04-06T13:54:16.998Z</time></trkpt><trkpt lat="43.730125503891536" lon="7.054961503163713"><ele>671.0</ele><time>2026-04-06T13:54:17.998Z</time></trkpt><trkpt lat="43.73004479953644" lon="7.055024901655694"><ele>669.3333333333334</ele><time>2026-04-06T13:54:19.998Z</time></trkpt><trkpt lat="43.73003213594164" lon="7.054928872927267"><ele>667.6666666666666</ele><time>2026-04-06T13:54:21.998Z</time></trkpt><trkpt lat="43.730106325304256" lon="7.054822599359687"><ele>666.0</ele><time>2026-04-06T13:54:23.998Z</time></trkpt><trkpt lat="43.73006732893366" lon="7.0546984404242705"><ele>664.5</ele><time>2026-04-06T13:54:25.998Z</time></trkpt><trkpt lat="43.73000070929163" lon="7.054695621940411"><ele>663.0</ele><time>2026-04-06T13:54:26.998Z</time></trkpt><trkpt lat="43.72992120450029" lon="7.054767206970097"><ele>661.5</ele><time>2026-04-06T13:54:27.998Z</time></trkpt><trkpt lat="43.72983638441322" lon="7.054820240928879"><ele>660.0</ele><time>2026-04-06T13:54:28.998Z</time></trkpt><trkpt lat="43.72975212335445" lon="7.054872818846449"><ele>658.5</ele><time>2026-04-06T13:54:29.998Z</time></trkpt><trkpt lat="43.72966217333077" lon="7.05491257177474"><ele>657.0</ele><time>2026-04-06T13:54:30.999Z</time></trkpt><trkpt lat="43.72956143987786" lon="7.05495164459569"><ele>657.0</ele><time>2026-04-06T13:54:31.999Z</time></trkpt><trkpt lat="43.729452669886015" lon="7.054953033080003"><ele>657.0</ele><time>2026-04-06T13:54:32.999Z</time></trkpt><trkpt lat="43.72936985634291" lon="7.055034517805961"><ele>657.0</ele><time>2026-04-06T13:54:33.999Z</time></trkpt><trkpt lat="43.72927420794272" lon="7.055059300744437"><ele>657.0</ele><time>2026-04-06T13:54:34.999Z</time></trkpt><trkpt lat="43.72918511574628" lon="7.055052675278482"><ele>657.0</ele><time>2026-04-06T13:54:35.999Z</time></trkpt><trkpt lat="43.72910011133125" lon="7.0550787626037925"><ele>655.0</ele><time>2026-04-06T13:54:36.999Z</time></trkpt><trkpt lat="43.72899134209617" lon="7.05507772278107"><ele>653.0</ele><time>2026-04-06T13:54:37.999Z</time></trkpt><trkpt lat="43.72889390265197" lon="7.05508036526487"><ele>651.0</ele><time>2026-04-06T13:54:38.999Z</time></trkpt><trkpt lat="43.72879962671898" lon="7.055101276372224"><ele>649.0</ele><time>2026-04-06T13:54:39.999Z</time></trkpt><trkpt lat="43.72870490494585" lon="7.055117979503255"><ele>647.0</ele><time>2026-04-06T13:54:40.999Z</time></trkpt><trkpt lat="43.72863334639274" lon="7.055210768885892"><ele>647.0</ele><time>2026-04-06T13:54:41.999Z</time></trkpt><trkpt lat="43.72856518111104" lon="7.055287302637646"><ele>647.0</ele><time>2026-04-06T13:54:42.999Z</time></trkpt><trkpt lat="43.7284869407127" lon="7.055344710216994"><ele>647.0</ele><time>2026-04-06T13:54:43.999Z</time></trkpt><trkpt lat="43.728427806487794" lon="7.055431857992135"><ele>647.0</ele><time>2026-04-06T13:54:44.999Z</time></trkpt><trkpt lat="43.728365138535956" lon="7.055502173597701"><ele>647.0</ele><time>2026-04-06T13:54:45.999Z</time></trkpt><trkpt lat="43.728291777978" lon="7.055551803474392"><ele>647.0</ele><time>2026-04-06T13:54:46.999Z</time></trkpt><trkpt lat="43.72823020696179" lon="7.055621837274905"><ele>644.2</ele><time>2026-04-06T13:54:47.999Z</time></trkpt><trkpt lat="43.72818844370713" lon="7.055716355424163"><ele>641.4000000000001</ele><time>2026-04-06T13:54:48.999Z</time></trkpt><trkpt lat="43.72812390782102" lon="7.0556502901651355"><ele>638.5999999999999</ele><time>2026-04-06T13:54:52.999Z</time></trkpt><trkpt lat="43.728150981916436" lon="7.055482024138543"><ele>635.8</ele><time>2026-04-06T13:54:54.999Z</time></trkpt><trkpt lat="43.728174940064804" lon="7.055322336631985"><ele>633.0</ele><time>2026-04-06T13:54:56.999Z</time></trkpt><trkpt lat="43.728176798242295" lon="7.05522030603637"><ele>633.0</ele><time>2026-04-06T13:54:58.999Z</time></trkpt><trkpt lat="43.7281398821917" lon="7.055029392741744"><ele>633.0</ele><time>2026-04-06T13:55:00.999Z</time></trkpt><trkpt lat="43.727985463877864" lon="7.055078612469442"><ele>633.0</ele><time>2026-04-06T13:55:01.999Z</time></trkpt><trkpt lat="43.727860727828" lon="7.055125135697292"><ele>633.0</ele><time>2026-04-06T13:55:03.999Z</time></trkpt><trkpt lat="43.72775304555484" lon="7.055174054639557"><ele>631.0</ele><time>2026-04-06T13:55:05.999Z</time></trkpt><trkpt lat="43.727681867209135" lon="7.055195923749897"><ele>629.0</ele><time>2026-04-06T13:55:06.999Z</time></trkpt><trkpt lat="43.72761467226134" lon="7.055221803307572"><ele>627.0</ele><time>2026-04-06T13:55:07.999Z</time></trkpt><trkpt lat="43.72754177789525" lon="7.055260295308096"><ele>625.0</ele><time>2026-04-06T13:55:08.999Z</time></trkpt><trkpt lat="43.72747661795805" lon="7.0553215340440545"><ele>623.0</ele><time>2026-04-06T13:55:09.999Z</time></trkpt><trkpt lat="43.72740624456352" lon="7.0553369608419985"><ele>621.0</ele><time>2026-04-06T13:55:10.999Z</time></trkpt><trkpt lat="43.727317921593325" lon="7.0552652762687496"><ele>621.0</ele><time>2026-04-06T13:55:12.999Z</time></trkpt><trkpt lat="43.727246813959425" lon="7.055314741870099"><ele>621.0</ele><time>2026-04-06T13:55:14.999Z</time></trkpt><trkpt lat="43.72715406073647" lon="7.055209586224748"><ele>621.0</ele><time>2026-04-06T13:55:15.999Z</time></trkpt><trkpt lat="43.72708436971911" lon="7.055256752082144"><ele>621.0</ele><time>2026-04-06T13:55:16.999Z</time></trkpt><trkpt lat="43.727021637093955" lon="7.0553025217817575"><ele>621.0</ele><time>2026-04-06T13:55:17.999Z</time></trkpt><trkpt lat="43.72696282576583" lon="7.055344244974328"><ele>621.0</ele><time>2026-04-06T13:55:18.999Z</time></trkpt><trkpt lat="43.726902591529715" lon="7.05537998790282"><ele>621.1666666666666</ele><time>2026-04-06T13:55:19.999Z</time></trkpt><trkpt lat="43.7268284972909" lon="7.055413907048856"><ele>621.3333333333334</ele><time>2026-04-06T13:55:20.999Z</time></trkpt><trkpt lat="43.726728289897174" lon="7.055442435218608"><ele>621.5</ele><time>2026-04-06T13:55:21.999Z</time></trkpt><trkpt lat="43.726642358180634" lon="7.055468926354652"><ele>621.6666666666667</ele><time>2026-04-06T13:55:22.999Z</time></trkpt><trkpt lat="43.726567019763294" lon="7.055499392117915"><ele>621.8333333333334</ele><time>2026-04-06T13:55:23.999Z</time></trkpt><trkpt lat="43.72648954397483" lon="7.055539826824314"><ele>622.0</ele><time>2026-04-06T13:55:24.999Z</time></trkpt><trkpt lat="43.72641260858167" lon="7.055595083543744"><ele>622.0</ele><time>2026-04-06T13:55:25.999Z</time></trkpt><trkpt lat="43.726337801962075" lon="7.055651371922209"><ele>622.0</ele><time>2026-04-06T13:55:26.999Z</time></trkpt><trkpt lat="43.7262542769763" lon="7.05571422039862"><ele>622.0</ele><time>2026-04-06T13:55:27.999Z</time></trkpt><trkpt lat="43.72618000274712" lon="7.055769270088863"><ele>622.0</ele><time>2026-04-06T13:55:28.999Z</time></trkpt><trkpt lat="43.72610449885352" lon="7.0558226822951955"><ele>622.0</ele><time>2026-04-06T13:55:29.999Z</time></trkpt><trkpt lat="43.7260300654206" lon="7.055872012295402"><ele>622.0</ele><time>2026-04-06T13:55:30.999Z</time></trkpt><trkpt lat="43.725954934952135" lon="7.055916779099365"><ele>619.8333333333334</ele><time>2026-04-06T13:55:31.999Z</time></trkpt><trkpt lat="43.72587433227801" lon="7.05596178395993"><ele>617.6666666666667</ele><time>2026-04-06T13:55:32.999Z</time></trkpt><trkpt lat="43.72581187194562" lon="7.056012472444946"><ele>615.5</ele><time>2026-04-06T13:55:33.999Z</time></trkpt><trkpt lat="43.72573131503879" lon="7.056045528820825"><ele>613.3333333333334</ele><time>2026-04-06T13:55:34.999Z</time></trkpt><trkpt lat="43.725665596770895" lon="7.056115124523994"><ele>611.1666666666666</ele><time>2026-04-06T13:55:35.999Z</time></trkpt><trkpt lat="43.72560734443849" lon="7.056196163256859"><ele>609.0</ele><time>2026-04-06T13:55:36.999Z</time></trkpt><trkpt lat="43.725560063046586" lon="7.056272439502755"><ele>609.0</ele><time>2026-04-06T13:55:37.999Z</time></trkpt><trkpt lat="43.725503512958355" lon="7.0563597809696175"><ele>609.0</ele><time>2026-04-06T13:55:39.999Z</time></trkpt><trkpt lat="43.72539106151195" lon="7.056222451549695"><ele>609.0</ele><time>2026-04-06T13:55:43.999Z</time></trkpt><trkpt lat="43.72530516276321" lon="7.0562222969525825"><ele>609.0</ele><time>2026-04-06T13:55:44.999Z</time></trkpt><trkpt lat="43.725228447602944" lon="7.056256441326717"><ele>609.0</ele><time>2026-04-06T13:55:45.999Z</time></trkpt><trkpt lat="43.72514327337794" lon="7.0563517527541855"><ele>610.4</ele><time>2026-04-06T13:55:46.999Z</time></trkpt><trkpt lat="43.72508634693027" lon="7.056407832889289"><ele>611.8</ele><time>2026-04-06T13:55:47.999Z</time></trkpt><trkpt lat="43.72502899362964" lon="7.056473846817103"><ele>613.2</ele><time>2026-04-06T13:55:48.999Z</time></trkpt><trkpt lat="43.72495932221882" lon="7.0566605254613615"><ele>614.6</ele><time>2026-04-06T13:55:50.999Z</time></trkpt><trkpt lat="43.72487933301367" lon="7.056712639880117"><ele>616.0</ele><time>2026-04-06T13:55:51.999Z</time></trkpt><trkpt lat="43.72476241476279" lon="7.056696284127585"><ele>610.25</ele><time>2026-04-06T13:55:52.999Z</time></trkpt><trkpt lat="43.72461613417926" lon="7.05681987283107"><ele>604.5</ele><time>2026-04-06T13:55:53.999Z</time></trkpt><trkpt lat="43.72454037883398" lon="7.0568982110016085"><ele>598.75</ele><time>2026-04-06T13:55:54.999Z</time></trkpt><trkpt lat="43.724479863610185" lon="7.056992876317425"><ele>593.0</ele><time>2026-04-06T13:55:55.999Z</time></trkpt><trkpt lat="43.7244765831022" lon="7.057216358323717"><ele>592.9999999999999</ele><time>2026-04-06T13:55:57.998Z</time></trkpt><trkpt lat="43.72442396928908" lon="7.0572794014299784"><ele>593.0</ele><time>2026-04-06T13:55:58.998Z</time></trkpt><trkpt lat="43.724363435977416" lon="7.057331304903203"><ele>593.0</ele><time>2026-04-06T13:55:59.998Z</time></trkpt><trkpt lat="43.72430605203466" lon="7.057384449463122"><ele>593.0</ele><time>2026-04-06T13:56:00.998Z</time></trkpt><trkpt lat="43.7242488623091" lon="7.05743296481311"><ele>593.0</ele><time>2026-04-06T13:56:01.998Z</time></trkpt><trkpt lat="43.724190446484826" lon="7.057470688914983"><ele>592.9999999999999</ele><time>2026-04-06T13:56:02.998Z</time></trkpt><trkpt lat="43.72412804324682" lon="7.05750015279451"><ele>593.0</ele><time>2026-04-06T13:56:03.998Z</time></trkpt><trkpt lat="43.72405878334115" lon="7.057513992961351"><ele>588.1999999999999</ele><time>2026-04-06T13:56:04.998Z</time></trkpt><trkpt lat="43.724105860364126" lon="7.057619574799817"><ele>583.4</ele><time>2026-04-06T13:56:06.998Z</time></trkpt><trkpt lat="43.72422623287163" lon="7.05759502955733"><ele>578.5999999999999</ele><time>2026-04-06T13:56:08.998Z</time></trkpt><trkpt lat="43.72428491073663" lon="7.057561411427704"><ele>573.8</ele><time>2026-04-06T13:56:09.998Z</time></trkpt><trkpt lat="43.7243882867811" lon="7.0575187872554785"><ele>569.0</ele><time>2026-04-06T13:56:11.998Z</time></trkpt><trkpt lat="43.72435120716795" lon="7.057662532938725"><ele>569.0</ele><time>2026-04-06T13:56:15.998Z</time></trkpt><trkpt lat="43.724294506864034" lon="7.057702302394749"><ele>569.0</ele><time>2026-04-06T13:56:16.998Z</time></trkpt><trkpt lat="43.72423531865286" lon="7.057764074016763"><ele>569.0</ele><time>2026-04-06T13:56:17.998Z</time></trkpt><trkpt lat="43.724178044244965" lon="7.0578313033851625"><ele>569.0</ele><time>2026-04-06T13:56:18.998Z</time></trkpt><trkpt lat="43.724110360604286" lon="7.057894576160347"><ele>569.0</ele><time>2026-04-06T13:56:19.998Z</time></trkpt><trkpt lat="43.72403213013479" lon="7.057956777507112"><ele>569.0</ele><time>2026-04-06T13:56:20.998Z</time></trkpt><trkpt lat="43.723949113230475" lon="7.058010031247426"><ele>569.0</ele><time>2026-04-06T13:56:21.998Z</time></trkpt><trkpt lat="43.723858760020306" lon="7.058075552500502"><ele>569.0</ele><time>2026-04-06T13:56:22.998Z</time></trkpt><trkpt lat="43.72376851421499" lon="7.058127921068197"><ele>569.0</ele><time>2026-04-06T13:56:23.998Z</time></trkpt><trkpt lat="43.723673697367815" lon="7.058166607827921"><ele>569.0</ele><time>2026-04-06T13:56:24.998Z</time></trkpt><trkpt lat="43.723579227830044" lon="7.058193614295973"><ele>569.0</ele><time>2026-04-06T13:56:25.998Z</time></trkpt><trkpt lat="43.723482953082986" lon="7.058200533997718"><ele>568.2</ele><time>2026-04-06T13:56:26.998Z</time></trkpt><trkpt lat="43.72338659887984" lon="7.058194020946328"><ele>567.4</ele><time>2026-04-06T13:56:27.998Z</time></trkpt><trkpt lat="43.723292713617" lon="7.058172917649042"><ele>566.6</ele><time>2026-04-06T13:56:28.998Z</time></trkpt><trkpt lat="43.72320086160188" lon="7.058156194131185"><ele>565.8</ele><time>2026-04-06T13:56:29.998Z</time></trkpt><trkpt lat="43.723112490174906" lon="7.058157165610142"><ele>565.0</ele><time>2026-04-06T13:56:30.998Z</time></trkpt><trkpt lat="43.72302678640937" lon="7.058151941002886"><ele>565.0</ele><time>2026-04-06T13:56:31.998Z</time></trkpt><trkpt lat="43.72295774587624" lon="7.058106915163221"><ele>565.0</ele><time>2026-04-06T13:56:32.998Z</time></trkpt><trkpt lat="43.72289458638513" lon="7.058066285272002"><ele>565.0</ele><time>2026-04-06T13:56:33.998Z</time></trkpt><trkpt lat="43.72276689112131" lon="7.058037808462927"><ele>565.0</ele><time>2026-04-06T13:56:36Z</time></trkpt><trkpt lat="43.72270206287858" lon="7.057994065812125"><ele>565.0</ele><time>2026-04-06T13:56:37Z</time></trkpt><trkpt lat="43.72263571714848" lon="7.057945074913034"><ele>565.0</ele><time>2026-04-06T13:56:38Z</time></trkpt><trkpt lat="43.72256281122493" lon="7.057900606598411"><ele>560.0</ele><time>2026-04-06T13:56:39Z</time></trkpt><trkpt lat="43.722478457402865" lon="7.057860719225059"><ele>555.0</ele><time>2026-04-06T13:56:40Z</time></trkpt><trkpt lat="43.72238853637339" lon="7.057838193385618"><ele>550.0</ele><time>2026-04-06T13:56:40.999Z</time></trkpt><trkpt lat="43.72230601344642" lon="7.057792359256949"><ele>545.0</ele><time>2026-04-06T13:56:42Z</time></trkpt><trkpt lat="43.722219514886795" lon="7.05774718875237"><ele>540.0</ele><time>2026-04-06T13:56:43Z</time></trkpt><trkpt lat="43.72212605837251" lon="7.057733476227016"><ele>540.0</ele><time>2026-04-06T13:56:43.999Z</time></trkpt><trkpt lat="43.722030430421995" lon="7.057728256030761"><ele>540.0</ele><time>2026-04-06T13:56:45Z</time></trkpt><trkpt lat="43.721947462128746" lon="7.057707191618258"><ele>540.0</ele><time>2026-04-06T13:56:46Z</time></trkpt><trkpt lat="43.72187008339219" lon="7.057680237769887"><ele>540.0</ele><time>2026-04-06T13:56:46.999Z</time></trkpt><trkpt lat="43.72178359707702" lon="7.057653757466943"><ele>540.0</ele><time>2026-04-06T13:56:48Z</time></trkpt><trkpt lat="43.72169190879075" lon="7.057628148125576"><ele>540.0</ele><time>2026-04-06T13:56:49Z</time></trkpt><trkpt lat="43.72159800600676" lon="7.0575989177589875"><ele>533.6</ele><time>2026-04-06T13:56:49.999Z</time></trkpt><trkpt lat="43.721504004718625" lon="7.057577248396812"><ele>527.2</ele><time>2026-04-06T13:56:50.999Z</time></trkpt><trkpt lat="43.72140941202212" lon="7.0575931868042385"><ele>520.8</ele><time>2026-04-06T13:56:51.999Z</time></trkpt><trkpt lat="43.72131426292449" lon="7.057605930298468"><ele>514.4</ele><time>2026-04-06T13:56:52.999Z</time></trkpt><trkpt lat="43.72122437276473" lon="7.057618783784577"><ele>508.0</ele><time>2026-04-06T13:56:53.999Z</time></trkpt><trkpt lat="43.72113477097656" lon="7.057638455699217"><ele>503.83333333333337</ele><time>2026-04-06T13:56:54.999Z</time></trkpt><trkpt lat="43.72105637879528" lon="7.057672452085774"><ele>499.6666666666667</ele><time>2026-04-06T13:56:55.999Z</time></trkpt><trkpt lat="43.72097949279751" lon="7.057716125511391"><ele>495.5</ele><time>2026-04-06T13:56:56.999Z</time></trkpt><trkpt lat="43.72089933744617" lon="7.0577494834981165"><ele>491.33333333333337</ele><time>2026-04-06T13:56:57.999Z</time></trkpt><trkpt lat="43.72080588643412" lon="7.057754362982702"><ele>487.1666666666667</ele><time>2026-04-06T13:56:58.999Z</time></trkpt><trkpt lat="43.72070861747519" lon="7.057742443508319"><ele>483.0</ele><time>2026-04-06T13:56:59.999Z</time></trkpt><trkpt lat="43.72061020607017" lon="7.057729863414863"><ele>483.0</ele><time>2026-04-06T13:57:00.999Z</time></trkpt><trkpt lat="43.720508023650865" lon="7.057715384007382"><ele>482.99999999999994</ele><time>2026-04-06T13:57:01.999Z</time></trkpt><trkpt lat="43.72040633537519" lon="7.0576943428165"><ele>482.99999999999994</ele><time>2026-04-06T13:57:02.999Z</time></trkpt><trkpt lat="43.720297137414285" lon="7.057664258393355"><ele>483.0</ele><time>2026-04-06T13:57:03.999Z</time></trkpt><trkpt lat="43.72019853458369" lon="7.057627792083007"><ele>483.0</ele><time>2026-04-06T13:57:04.999Z</time></trkpt><trkpt lat="43.72010153723634" lon="7.057578967273587"><ele>480.59999999999997</ele><time>2026-04-06T13:57:05.999Z</time></trkpt><trkpt lat="43.72000905316176" lon="7.057539862546451"><ele>478.19999999999993</ele><time>2026-04-06T13:57:06.999Z</time></trkpt><trkpt lat="43.71991402959652" lon="7.0575038587893415"><ele>475.8</ele><time>2026-04-06T13:57:07.999Z</time></trkpt><trkpt lat="43.71981632902158" lon="7.057452709109219"><ele>473.4</ele><time>2026-04-06T13:57:08.999Z</time></trkpt><trkpt lat="43.71971604167307" lon="7.057400710249929"><ele>471.0</ele><time>2026-04-06T13:57:09.999Z</time></trkpt><trkpt lat="43.71962211230871" lon="7.057364374609436"><ele>471.0</ele><time>2026-04-06T13:57:10.999Z</time></trkpt><trkpt lat="43.719523211760645" lon="7.057335442640784"><ele>471.0</ele><time>2026-04-06T13:57:11.999Z</time></trkpt><trkpt lat="43.71943707715763" lon="7.057305429167769"><ele>471.0</ele><time>2026-04-06T13:57:12.999Z</time></trkpt><trkpt lat="43.719346990897755" lon="7.057292638411727"><ele>471.0</ele><time>2026-04-06T13:57:13.999Z</time></trkpt><trkpt lat="43.71925955922518" lon="7.05728146799399"><ele>471.0</ele><time>2026-04-06T13:57:14.999Z</time></trkpt><trkpt lat="43.7191741305994" lon="7.05731255661741"><ele>466.6</ele><time>2026-04-06T13:57:15.999Z</time></trkpt><trkpt lat="43.71909105197723" lon="7.057368102720874"><ele>462.20000000000005</ele><time>2026-04-06T13:57:16.999Z</time></trkpt><trkpt lat="43.718999041694545" lon="7.057374839364937"><ele>457.79999999999995</ele><time>2026-04-06T13:57:17.999Z</time></trkpt><trkpt lat="43.718898769660065" lon="7.057352631184127"><ele>453.4</ele><time>2026-04-06T13:57:18.999Z</time></trkpt><trkpt lat="43.7188050005309" lon="7.057330698883348"><ele>449.0</ele><time>2026-04-06T13:57:19.999Z</time></trkpt><trkpt lat="43.71871104005683" lon="7.05732252341177"><ele>448.99999999999994</ele><time>2026-04-06T13:57:20.999Z</time></trkpt><trkpt lat="43.71861413049653" lon="7.0573332460677785"><ele>449.0</ele><time>2026-04-06T13:57:21.999Z</time></trkpt><trkpt lat="43.7185205122107" lon="7.0573375158215175"><ele>449.0</ele><time>2026-04-06T13:57:22.999Z</time></trkpt><trkpt lat="43.71842928667053" lon="7.057339191074348"><ele>449.0</ele><time>2026-04-06T13:57:23.999Z</time></trkpt><trkpt lat="43.71834413186465" lon="7.057349563063934"><ele>448.99999999999994</ele><time>2026-04-06T13:57:24.999Z</time></trkpt><trkpt lat="43.71827503625692" lon="7.057317658334024"><ele>449.0</ele><time>2026-04-06T13:57:25.999Z</time></trkpt><trkpt lat="43.718226757759986" lon="7.057250516237947"><ele>445.8333333333333</ele><time>2026-04-06T13:57:26.999Z</time></trkpt><trkpt lat="43.71818335143011" lon="7.057152056866126"><ele>442.66666666666663</ele><time>2026-04-06T13:57:27.999Z</time></trkpt><trkpt lat="43.71815428792092" lon="7.057068077314288"><ele>439.5</ele><time>2026-04-06T13:57:28.999Z</time></trkpt><trkpt lat="43.71809049927497" lon="7.056924527324564"><ele>436.33333333333337</ele><time>2026-04-06T13:57:30.999Z</time></trkpt><trkpt lat="43.718044477219465" lon="7.056849725206227"><ele>433.1666666666667</ele><time>2026-04-06T13:57:31.999Z</time></trkpt><trkpt lat="43.717969076695645" lon="7.056783044764394"><ele>430.0</ele><time>2026-04-06T13:57:32.999Z</time></trkpt><trkpt lat="43.7178867840674" lon="7.056738263221681"><ele>430.00000000000006</ele><time>2026-04-06T13:57:33.999Z</time></trkpt><trkpt lat="43.71779620719521" lon="7.056722136848367"><ele>430.0</ele><time>2026-04-06T13:57:34.999Z</time></trkpt><trkpt lat="43.71771509630215" lon="7.056707139326349"><ele>430.0</ele><time>2026-04-06T13:57:35.999Z</time></trkpt><trkpt lat="43.71764036501962" lon="7.056700881024332"><ele>430.0</ele><time>2026-04-06T13:57:36.999Z</time></trkpt><trkpt lat="43.717564941822246" lon="7.056621109776937"><ele>430.00000000000006</ele><time>2026-04-06T13:57:38.999Z</time></trkpt><trkpt lat="43.71748950090723" lon="7.056608687404092"><ele>430.0</ele><time>2026-04-06T13:57:41.999Z</time></trkpt><trkpt lat="43.717425175629344" lon="7.056751482494354"><ele>427.0</ele><time>2026-04-06T13:57:42.999Z</time></trkpt><trkpt lat="43.71741953650257" lon="7.0568702605416584"><ele>424.0</ele><time>2026-04-06T13:57:43.999Z</time></trkpt><trkpt lat="43.71741551889637" lon="7.0569752020937635"><ele>421.0</ele><time>2026-04-06T13:57:44.999Z</time></trkpt><trkpt lat="43.71738837598801" lon="7.057101199640383"><ele>418.0</ele><time>2026-04-06T13:57:46.999Z</time></trkpt><trkpt lat="43.71729350205776" lon="7.057238647868336"><ele>415.0</ele><time>2026-04-06T13:57:48.999Z</time></trkpt><trkpt lat="43.717232264558504" lon="7.057325138102049"><ele>415.00000000000006</ele><time>2026-04-06T13:57:49.999Z</time></trkpt><trkpt lat="43.717175387981555" lon="7.057407053177998"><ele>415.0</ele><time>2026-04-06T13:57:50.999Z</time></trkpt><trkpt lat="43.71712829565722" lon="7.057481942234303"><ele>415.0</ele><time>2026-04-06T13:57:51.999Z</time></trkpt><trkpt lat="43.717087874522726" lon="7.057559805144848"><ele>415.0</ele><time>2026-04-06T13:57:52.999Z</time></trkpt><trkpt lat="43.717056326319835" lon="7.057638827225297"><ele>415.00000000000006</ele><time>2026-04-06T13:57:53.999Z</time></trkpt><trkpt lat="43.7170270479059" lon="7.05772195504682"><ele>415.0</ele><time>2026-04-06T13:57:54.999Z</time></trkpt><trkpt lat="43.71697741879855" lon="7.057863220521031"><ele>415.6</ele><time>2026-04-06T13:57:56.999Z</time></trkpt><trkpt lat="43.71693258849939" lon="7.058000048214615"><ele>416.2</ele><time>2026-04-06T13:57:58.999Z</time></trkpt><trkpt lat="43.716897048245656" lon="7.058081598136996"><ele>416.79999999999995</ele><time>2026-04-06T13:58:00.998Z</time></trkpt><trkpt lat="43.71682546631916" lon="7.05816670558774"><ele>417.4</ele><time>2026-04-06T13:58:04.998Z</time></trkpt><trkpt lat="43.716834121764144" lon="7.058319412631631"><ele>418.0</ele><time>2026-04-06T13:58:05.998Z</time></trkpt><trkpt lat="43.71684454305518" lon="7.0584617805831105"><ele>412.0</ele><time>2026-04-06T13:58:06.998Z</time></trkpt><trkpt lat="43.71685303920854" lon="7.058565812309685"><ele>412.0</ele><time>2026-04-06T13:58:07.998Z</time></trkpt><trkpt lat="43.71686598885495" lon="7.058708478742521"><ele>412.0</ele><time>2026-04-06T13:58:09.998Z</time></trkpt><trkpt lat="43.71689334473106" lon="7.058799495570342"><ele>412.0</ele><time>2026-04-06T13:58:11.998Z</time></trkpt><trkpt lat="43.71687376454072" lon="7.058891451269237"><ele>412.0</ele><time>2026-04-06T13:58:14.998Z</time></trkpt><trkpt lat="43.716958729875124" lon="7.058800765343503"><ele>421.0</ele><time>2026-04-06T13:59:27.999Z</time></trkpt></trkseg></trk></gpx>